<?xml version='1.0' encoding='UTF-8'?><gpx version="1.1" creator="JPX - https://github.com/jenetics/jpx" xmlns="http://www.topografix.com/GPX/1/1"><trk><trkseg><trkpt lat="45.59720899215875" lon="8.63856905915433"><ele>242.0</ele><time>2026-04-11T07:56:57Z</time></trkpt><trkpt lat="45.59716678538189" lon="8.63848886542744"><ele>242.0</ele><time>2026-04-11T07:57:20Z</time></trkpt><trkpt lat="45.59711394135026" lon="8.63840588828492"><ele>242.0</ele><time>2026-04-11T07:57:40Z</time></trkpt><trkpt lat="45.59720875685155" lon="8.638530880073558"><ele>242.0</ele><time>2026-04-11T07:57:55.999Z</time></trkpt><trkpt lat="45.59727666498683" lon="8.638527795239138"><ele>242.0</ele><time>2026-04-11T07:58:05.999Z</time></trkpt><trkpt lat="45.59739470432331" lon="8.63850267663613"><ele>242.0</ele><time>2026-04-11T07:58:07.999Z</time></trkpt><trkpt lat="45.59753340763116" lon="8.638484270430249"><ele>242.0</ele><time>2026-04-11T07:58:09.999Z</time></trkpt><trkpt lat="45.59762520151149" lon="8.638478341614176"><ele>242.0</ele><time>2026-04-11T07:58:10.999Z</time></trkpt><trkpt lat="45.5977265426302" lon="8.638447821248798"><ele>242.0</ele><time>2026-04-11T07:58:11.999Z</time></trkpt><trkpt lat="45.597817321314736" lon="8.63843554101183"><ele>242.0</ele><time>2026-04-11T07:58:12.999Z</time></trkpt><trkpt lat="45.59791337601194" lon="8.638410328770108"><ele>241.39999999999998</ele><time>2026-04-11T07:58:13.999Z</time></trkpt><trkpt lat="45.59801564861902" lon="8.638386043247642"><ele>240.79999999999998</ele><time>2026-04-11T07:58:14.999Z</time></trkpt><trkpt lat="45.59811552612904" lon="8.63835177107844"><ele>240.2</ele><time>2026-04-11T07:58:15.999Z</time></trkpt><trkpt lat="45.59822242501217" lon="8.638311192084974"><ele>239.6</ele><time>2026-04-11T07:58:16.999Z</time></trkpt><trkpt lat="45.59830751335328" lon="8.638303618674508"><ele>239.0</ele><time>2026-04-11T07:58:17.999Z</time></trkpt><trkpt lat="45.59837255990134" lon="8.638281495754029"><ele>239.00000000000003</ele><time>2026-04-11T07:58:18.999Z</time></trkpt><trkpt lat="45.59845369720594" lon="8.63823983286736"><ele>239.0</ele><time>2026-04-11T07:58:20.999Z</time></trkpt><trkpt lat="45.59854006369911" lon="8.63822971033945"><ele>239.0</ele><time>2026-04-11T07:58:32.998Z</time></trkpt><trkpt lat="45.59863257746568" lon="8.63818171659402"><ele>239.0</ele><time>2026-04-11T07:58:34.998Z</time></trkpt><trkpt lat="45.59874332017769" lon="8.638172053304778"><ele>239.00000000000003</ele><time>2026-04-11T07:58:36.998Z</time></trkpt><trkpt lat="45.598808588830714" lon="8.638158637725182"><ele>239.0</ele><time>2026-04-11T07:58:37.998Z</time></trkpt><trkpt lat="45.59888723073337" lon="8.63816014842867"><ele>239.2</ele><time>2026-04-11T07:58:38.998Z</time></trkpt><trkpt lat="45.599005398619724" lon="8.638154921196298"><ele>239.39999999999998</ele><time>2026-04-11T07:58:40.998Z</time></trkpt><trkpt lat="45.59910904060088" lon="8.638142120702001"><ele>239.6</ele><time>2026-04-11T07:58:42.998Z</time></trkpt><trkpt lat="45.59919911373076" lon="8.638140559488017"><ele>239.8</ele><time>2026-04-11T07:58:44.998Z</time></trkpt><trkpt lat="45.599303300496146" lon="8.638141459640647"><ele>240.0</ele><time>2026-04-11T07:58:46.998Z</time></trkpt><trkpt lat="45.599387877827525" lon="8.638107763930792"><ele>240.0</ele><time>2026-04-11T07:58:48.998Z</time></trkpt><trkpt lat="45.59942062614356" lon="8.637952212068187"><ele>240.0</ele><time>2026-04-11T07:58:52.998Z</time></trkpt><trkpt lat="45.59940117435544" lon="8.637814338764654"><ele>240.0</ele><time>2026-04-11T07:58:54.998Z</time></trkpt><trkpt lat="45.599406077372464" lon="8.637723926348228"><ele>240.0</ele><time>2026-04-11T07:58:55.998Z</time></trkpt><trkpt lat="45.59939473119866" lon="8.637622586330501"><ele>240.0</ele><time>2026-04-11T07:58:57Z</time></trkpt><trkpt lat="45.59938183755769" lon="8.637511396339974"><ele>240.0</ele><time>2026-04-11T07:58:58Z</time></trkpt><trkpt lat="45.599355395871015" lon="8.63740308490042"><ele>240.5</ele><time>2026-04-11T07:58:59Z</time></trkpt><trkpt lat="45.599354118596246" lon="8.637280371640617"><ele>241.0</ele><time>2026-04-11T07:59:00Z</time></trkpt><trkpt lat="45.59934118544408" lon="8.6371753970144"><ele>241.5</ele><time>2026-04-11T07:59:01Z</time></trkpt><trkpt lat="45.59931635893672" lon="8.637057872109766"><ele>242.0</ele><time>2026-04-11T07:59:02Z</time></trkpt><trkpt lat="45.599304232650425" lon="8.636955575724837"><ele>242.5</ele><time>2026-04-11T07:59:03Z</time></trkpt><trkpt lat="45.59929429794237" lon="8.636803193757347"><ele>243.0</ele><time>2026-04-11T07:59:05Z</time></trkpt><trkpt lat="45.59935380382613" lon="8.636706073330377"><ele>243.0</ele><time>2026-04-11T07:59:09Z</time></trkpt><trkpt lat="45.599485816778504" lon="8.636699229894244"><ele>243.0</ele><time>2026-04-11T07:59:11Z</time></trkpt><trkpt lat="45.59955763491626" lon="8.636677533515712"><ele>243.0</ele><time>2026-04-11T07:59:12Z</time></trkpt><trkpt lat="45.59963935616103" lon="8.636676092208498"><ele>243.0</ele><time>2026-04-11T07:59:14Z</time></trkpt><trkpt lat="45.59970599383101" lon="8.63668777423669"><ele>243.0</ele><time>2026-04-11T07:59:16Z</time></trkpt><trkpt lat="45.59973080988138" lon="8.636534335540201"><ele>242.83333333333334</ele><time>2026-04-11T07:59:20Z</time></trkpt><trkpt lat="45.59970437067517" lon="8.636358964685991"><ele>242.66666666666669</ele><time>2026-04-11T07:59:22Z</time></trkpt><trkpt lat="45.599689467129124" lon="8.636246592863994"><ele>242.5</ele><time>2026-04-11T07:59:23Z</time></trkpt><trkpt lat="45.599674685610935" lon="8.636135141120096"><ele>242.33333333333334</ele><time>2026-04-11T07:59:24Z</time></trkpt><trkpt lat="45.59966052718591" lon="8.636029362157105"><ele>242.16666666666669</ele><time>2026-04-11T07:59:25Z</time></trkpt><trkpt lat="45.59964548958414" lon="8.635918899030392"><ele>242.0</ele><time>2026-04-11T07:59:26Z</time></trkpt><trkpt lat="45.599621778184364" lon="8.635808808353246"><ele>242.00000000000003</ele><time>2026-04-11T07:59:27Z</time></trkpt><trkpt lat="45.59959838727508" lon="8.635683084694522"><ele>242.0</ele><time>2026-04-11T07:59:28Z</time></trkpt><trkpt lat="45.599582280090004" lon="8.63555364872368"><ele>242.0</ele><time>2026-04-11T07:59:29Z</time></trkpt><trkpt lat="45.59956306634557" lon="8.635413880055424"><ele>242.0</ele><time>2026-04-11T07:59:30Z</time></trkpt><trkpt lat="45.59954436602297" lon="8.635293851863299"><ele>242.00000000000003</ele><time>2026-04-11T07:59:31Z</time></trkpt><trkpt lat="45.599517732753306" lon="8.635199243207435"><ele>242.0</ele><time>2026-04-11T07:59:32Z</time></trkpt><trkpt lat="45.599449317423094" lon="8.635054455737205"><ele>241.16666666666669</ele><time>2026-04-11T07:59:34Z</time></trkpt><trkpt lat="45.599412206521166" lon="8.63497731203181"><ele>240.33333333333334</ele><time>2026-04-11T07:59:35Z</time></trkpt><trkpt lat="45.599359516485826" lon="8.63486313521779"><ele>239.5</ele><time>2026-04-11T07:59:37Z</time></trkpt><trkpt lat="45.59944936142198" lon="8.634763476633706"><ele>238.66666666666669</ele><time>2026-04-11T07:59:38Z</time></trkpt><trkpt lat="45.59949895526533" lon="8.63470763143958"><ele>237.83333333333334</ele><time>2026-04-11T07:59:39Z</time></trkpt><trkpt lat="45.599473034547536" lon="8.63455657615104"><ele>237.0</ele><time>2026-04-11T07:59:40Z</time></trkpt><trkpt lat="45.5994602810044" lon="8.634433861519623"><ele>236.8</ele><time>2026-04-11T07:59:41Z</time></trkpt><trkpt lat="45.599469306615525" lon="8.634305125670174"><ele>236.6</ele><time>2026-04-11T07:59:41.999Z</time></trkpt><trkpt lat="45.59945580924953" lon="8.634162292328096"><ele>236.40000000000003</ele><time>2026-04-11T07:59:42.999Z</time></trkpt><trkpt lat="45.59946097485923" lon="8.634012211296302"><ele>236.20000000000002</ele><time>2026-04-11T07:59:43.999Z</time></trkpt><trkpt lat="45.59946616796619" lon="8.633858672027953"><ele>236.0</ele><time>2026-04-11T07:59:44.999Z</time></trkpt><trkpt lat="45.59947671961607" lon="8.633722826966554"><ele>236.16666666666669</ele><time>2026-04-11T07:59:45.999Z</time></trkpt><trkpt lat="45.599485511287305" lon="8.633607122800091"><ele>236.33333333333334</ele><time>2026-04-11T07:59:46.999Z</time></trkpt><trkpt lat="45.599486133347796" lon="8.63350289082568"><ele>236.5</ele><time>2026-04-11T07:59:47.999Z</time></trkpt><trkpt lat="45.59949833973553" lon="8.633370507228614"><ele>236.66666666666669</ele><time>2026-04-11T07:59:49.999Z</time></trkpt><trkpt lat="45.59953091616895" lon="8.633219284503424"><ele>236.83333333333334</ele><time>2026-04-11T07:59:52.999Z</time></trkpt><trkpt lat="45.5995368747077" lon="8.63310546431721"><ele>237.0</ele><time>2026-04-11T07:59:53.999Z</time></trkpt><trkpt lat="45.59954916477612" lon="8.633001025732277"><ele>237.0</ele><time>2026-04-11T07:59:54.999Z</time></trkpt><trkpt lat="45.59955970118761" lon="8.632899190027265"><ele>237.0</ele><time>2026-04-11T07:59:55.999Z</time></trkpt><trkpt lat="45.59956164454661" lon="8.632777522207965"><ele>237.0</ele><time>2026-04-11T07:59:56.999Z</time></trkpt><trkpt lat="45.5995518667902" lon="8.632664670103527"><ele>237.0</ele><time>2026-04-11T07:59:57.999Z</time></trkpt><trkpt lat="45.59954981102947" lon="8.632555624483505"><ele>237.0</ele><time>2026-04-11T07:59:58.999Z</time></trkpt><trkpt lat="45.5995546558489" lon="8.632429868260735"><ele>237.0</ele><time>2026-04-11T07:59:59.999Z</time></trkpt><trkpt lat="45.59955003553776" lon="8.632276961884584"><ele>237.0</ele><time>2026-04-11T08:00:00.999Z</time></trkpt><trkpt lat="45.59952001981346" lon="8.632136983659375"><ele>237.0</ele><time>2026-04-11T08:00:01.999Z</time></trkpt><trkpt lat="45.5994910903404" lon="8.631973193103416"><ele>237.0</ele><time>2026-04-11T08:00:02.999Z</time></trkpt><trkpt lat="45.59948174340747" lon="8.63181182382763"><ele>237.0</ele><time>2026-04-11T08:00:03.999Z</time></trkpt><trkpt lat="45.59951771024227" lon="8.631658934345282"><ele>237.0</ele><time>2026-04-11T08:00:04.999Z</time></trkpt><trkpt lat="45.59952592684105" lon="8.631485359659905"><ele>237.0</ele><time>2026-04-11T08:00:05.999Z</time></trkpt><trkpt lat="45.59955444087321" lon="8.6313163522929"><ele>237.0</ele><time>2026-04-11T08:00:06.999Z</time></trkpt><trkpt lat="45.599570958123984" lon="8.631140044502065"><ele>237.0</ele><time>2026-04-11T08:00:07.999Z</time></trkpt><trkpt lat="45.59958848832552" lon="8.630972300379879"><ele>237.0</ele><time>2026-04-11T08:00:08.999Z</time></trkpt><trkpt lat="45.59960803685781" lon="8.630818924501291"><ele>237.0</ele><time>2026-04-11T08:00:09.999Z</time></trkpt><trkpt lat="45.599626374864314" lon="8.630670007145275"><ele>237.0</ele><time>2026-04-11T08:00:10.999Z</time></trkpt><trkpt lat="45.59963822056356" lon="8.630543140432264"><ele>237.0</ele><time>2026-04-11T08:00:11.999Z</time></trkpt><trkpt lat="45.599651173462895" lon="8.630422183761222"><ele>237.0</ele><time>2026-04-11T08:00:12.999Z</time></trkpt><trkpt lat="45.59968312360995" lon="8.630296780132271"><ele>237.0</ele><time>2026-04-11T08:00:13.999Z</time></trkpt><trkpt lat="45.59970064506746" lon="8.63015272463598"><ele>237.0</ele><time>2026-04-11T08:00:14.999Z</time></trkpt><trkpt lat="45.59971957221658" lon="8.629997111943792"><ele>237.0</ele><time>2026-04-11T08:00:15.999Z</time></trkpt><trkpt lat="45.599740262445444" lon="8.62982700415862"><ele>237.0</ele><time>2026-04-11T08:00:16.999Z</time></trkpt><trkpt lat="45.59975396841476" lon="8.629654319806285"><ele>237.0</ele><time>2026-04-11T08:00:17.999Z</time></trkpt><trkpt lat="45.59977623266025" lon="8.629481586938129"><ele>237.0</ele><time>2026-04-11T08:00:18.999Z</time></trkpt><trkpt lat="45.599794814965534" lon="8.6292984892796"><ele>237.0</ele><time>2026-04-11T08:00:19.999Z</time></trkpt><trkpt lat="45.599817438084614" lon="8.629107853697683"><ele>237.0</ele><time>2026-04-11T08:00:20.999Z</time></trkpt><trkpt lat="45.59983950928035" lon="8.628918797182262"><ele>237.0</ele><time>2026-04-11T08:00:21.999Z</time></trkpt><trkpt lat="45.59986244424355" lon="8.628726092465994"><ele>236.75</ele><time>2026-04-11T08:00:22.999Z</time></trkpt><trkpt lat="45.59988741595886" lon="8.628522401564673"><ele>236.5</ele><time>2026-04-11T08:00:23.999Z</time></trkpt><trkpt lat="45.5998998996723" lon="8.628317027825599"><ele>236.25</ele><time>2026-04-11T08:00:24.999Z</time></trkpt><trkpt lat="45.599903635485326" lon="8.62812075347583"><ele>236.0</ele><time>2026-04-11T08:00:25.998Z</time></trkpt><trkpt lat="45.59989214417186" lon="8.627904701226628"><ele>235.5</ele><time>2026-04-11T08:00:26.998Z</time></trkpt><trkpt lat="45.599854518850194" lon="8.627716203321606"><ele>235.0</ele><time>2026-04-11T08:00:27.998Z</time></trkpt><trkpt lat="45.599830752170924" lon="8.627554939090214"><ele>234.5</ele><time>2026-04-11T08:00:28.998Z</time></trkpt><trkpt lat="45.59978542311452" lon="8.627408360789596"><ele>234.0</ele><time>2026-04-11T08:00:29.998Z</time></trkpt><trkpt lat="45.599759365222944" lon="8.627269680677877"><ele>234.0</ele><time>2026-04-11T08:00:30.998Z</time></trkpt><trkpt lat="45.59973480909943" lon="8.627140577834039"><ele>234.0</ele><time>2026-04-11T08:00:31.998Z</time></trkpt><trkpt lat="45.59971106686682" lon="8.627015295608844"><ele>234.0</ele><time>2026-04-11T08:00:32.998Z</time></trkpt><trkpt lat="45.59968756019756" lon="8.626891243079891"><ele>234.0</ele><time>2026-04-11T08:00:33.998Z</time></trkpt><trkpt lat="45.5996664716495" lon="8.626783556137305"><ele>234.0</ele><time>2026-04-11T08:00:34.998Z</time></trkpt><trkpt lat="45.59960773213851" lon="8.62669146066717"><ele>234.0</ele><time>2026-04-11T08:00:35.998Z</time></trkpt><trkpt lat="45.599603188810036" lon="8.626573593328693"><ele>233.75</ele><time>2026-04-11T08:00:36.998Z</time></trkpt><trkpt lat="45.59958146398475" lon="8.626418364202534"><ele>233.5</ele><time>2026-04-11T08:00:38.998Z</time></trkpt><trkpt lat="45.59974655574562" lon="8.626292531844278"><ele>233.25</ele><time>2026-04-11T08:00:41.998Z</time></trkpt><trkpt lat="45.59987021015108" lon="8.626255177001005"><ele>233.0</ele><time>2026-04-11T08:00:42.998Z</time></trkpt><trkpt lat="45.599997074411334" lon="8.626221043416642"><ele>233.0</ele><time>2026-04-11T08:00:43.998Z</time></trkpt><trkpt lat="45.600124025797484" lon="8.62618797618476"><ele>233.0</ele><time>2026-04-11T08:00:44.998Z</time></trkpt><trkpt lat="45.600241643735075" lon="8.626144623735746"><ele>233.0</ele><time>2026-04-11T08:00:45.998Z</time></trkpt><trkpt lat="45.600366194464506" lon="8.626092230903009"><ele>233.0</ele><time>2026-04-11T08:00:46.998Z</time></trkpt><trkpt lat="45.60049048868982" lon="8.626033264066239"><ele>233.0</ele><time>2026-04-11T08:00:47.998Z</time></trkpt><trkpt lat="45.600619681632935" lon="8.625981243770116"><ele>233.0</ele><time>2026-04-11T08:00:48.998Z</time></trkpt><trkpt lat="45.600750561869944" lon="8.625928603692437"><ele>233.0</ele><time>2026-04-11T08:00:49.998Z</time></trkpt><trkpt lat="45.60088345519767" lon="8.62587722844617"><ele>233.0</ele><time>2026-04-11T08:00:50.998Z</time></trkpt><trkpt lat="45.60103088246984" lon="8.625821568947046"><ele>232.66666666666669</ele><time>2026-04-11T08:00:51.998Z</time></trkpt><trkpt lat="45.60118507694944" lon="8.625760099731917"><ele>232.33333333333331</ele><time>2026-04-11T08:00:52.998Z</time></trkpt><trkpt lat="45.60135297128197" lon="8.625695241020116"><ele>232.0</ele><time>2026-04-11T08:00:53.998Z</time></trkpt><trkpt lat="45.60148960547807" lon="8.6256398151737"><ele>232.0</ele><time>2026-04-11T08:00:54.998Z</time></trkpt><trkpt lat="45.60163870019443" lon="8.625573404140068"><ele>232.0</ele><time>2026-04-11T08:00:55.998Z</time></trkpt><trkpt lat="45.60175674364671" lon="8.62552446624766"><ele>232.0</ele><time>2026-04-11T08:00:56.998Z</time></trkpt><trkpt lat="45.601846739945096" lon="8.625491238425226"><ele>232.0</ele><time>2026-04-11T08:00:57.998Z</time></trkpt><trkpt lat="45.60188970957079" lon="8.625425119061973"><ele>232.0</ele><time>2026-04-11T08:00:59.998Z</time></trkpt><trkpt lat="45.60183141244428" lon="8.625254351580073"><ele>232.0</ele><time>2026-04-11T08:01:01.998Z</time></trkpt><trkpt lat="45.601787629915165" lon="8.62507901543542"><ele>232.0</ele><time>2026-04-11T08:01:03Z</time></trkpt><trkpt lat="45.60175898680616" lon="8.624901483554186"><ele>232.0</ele><time>2026-04-11T08:01:04Z</time></trkpt><trkpt lat="45.60172999348047" lon="8.624735956322962"><ele>232.0</ele><time>2026-04-11T08:01:05Z</time></trkpt><trkpt lat="45.60170415756494" lon="8.624567528525708"><ele>232.0</ele><time>2026-04-11T08:01:06Z</time></trkpt><trkpt lat="45.60166405681037" lon="8.62439498145034"><ele>232.0</ele><time>2026-04-11T08:01:07Z</time></trkpt><trkpt lat="45.601639156466206" lon="8.624263041229487"><ele>232.0</ele><time>2026-04-11T08:01:08Z</time></trkpt><trkpt lat="45.60161463564186" lon="8.624145311766377"><ele>232.0</ele><time>2026-04-11T08:01:09Z</time></trkpt><trkpt lat="45.60159657495518" lon="8.624049290535174"><ele>232.0</ele><time>2026-04-11T08:01:10Z</time></trkpt><trkpt lat="45.601572156345675" lon="8.623947571518762"><ele>232.0</ele><time>2026-04-11T08:01:18Z</time></trkpt><trkpt lat="45.601557814189846" lon="8.623847872796455"><ele>232.0</ele><time>2026-04-11T08:01:19Z</time></trkpt><trkpt lat="45.601532267998316" lon="8.623707224968548"><ele>232.0</ele><time>2026-04-11T08:01:20Z</time></trkpt><trkpt lat="45.60150722766307" lon="8.62357390713176"><ele>232.0</ele><time>2026-04-11T08:01:21Z</time></trkpt><trkpt lat="45.60146297709595" lon="8.623414061443292"><ele>232.0</ele><time>2026-04-11T08:01:22Z</time></trkpt><trkpt lat="45.60142699586001" lon="8.623267090798898"><ele>232.0</ele><time>2026-04-11T08:01:23Z</time></trkpt><trkpt lat="45.60139599990175" lon="8.623120094820406"><ele>232.0</ele><time>2026-04-11T08:01:24Z</time></trkpt><trkpt lat="45.60135936692908" lon="8.622947519296881"><ele>232.0</ele><time>2026-04-11T08:01:25Z</time></trkpt><trkpt lat="45.60132307348723" lon="8.622770772607872"><ele>232.0</ele><time>2026-04-11T08:01:26Z</time></trkpt><trkpt lat="45.60128586660277" lon="8.622597865258948"><ele>232.0</ele><time>2026-04-11T08:01:27Z</time></trkpt><trkpt lat="45.601242162217574" lon="8.62240927816363"><ele>232.0</ele><time>2026-04-11T08:01:28Z</time></trkpt><trkpt lat="45.60120493850196" lon="8.622227065331373"><ele>232.0</ele><time>2026-04-11T08:01:29Z</time></trkpt><trkpt lat="45.60116403510345" lon="8.62205208067826"><ele>232.0</ele><time>2026-04-11T08:01:30Z</time></trkpt><trkpt lat="45.60112735273263" lon="8.621887234769574"><ele>231.25</ele><time>2026-04-11T08:01:31Z</time></trkpt><trkpt lat="45.60108696508692" lon="8.621706984749562"><ele>230.5</ele><time>2026-04-11T08:01:32Z</time></trkpt><trkpt lat="45.60104348184883" lon="8.621526182297348"><ele>229.75</ele><time>2026-04-11T08:01:33Z</time></trkpt><trkpt lat="45.60100440882808" lon="8.621337084548474"><ele>229.0</ele><time>2026-04-11T08:01:34Z</time></trkpt><trkpt lat="45.600966949922686" lon="8.621147223963968"><ele>228.75</ele><time>2026-04-11T08:01:35Z</time></trkpt><trkpt lat="45.60093092859378" lon="8.62095847805244"><ele>228.5</ele><time>2026-04-11T08:01:36Z</time></trkpt><trkpt lat="45.600897698282175" lon="8.620775804561859"><ele>228.25</ele><time>2026-04-11T08:01:37Z</time></trkpt><trkpt lat="45.6008589748855" lon="8.620585582342134"><ele>228.0</ele><time>2026-04-11T08:01:38Z</time></trkpt><trkpt lat="45.60082051676" lon="8.62039931857962"><ele>228.25</ele><time>2026-04-11T08:01:39Z</time></trkpt><trkpt lat="45.60077991598675" lon="8.620205797338505"><ele>228.5</ele><time>2026-04-11T08:01:40Z</time></trkpt><trkpt lat="45.600741282524304" lon="8.620021674360736"><ele>228.75</ele><time>2026-04-11T08:01:41Z</time></trkpt><trkpt lat="45.60069980822461" lon="8.619845192162956"><ele>229.0</ele><time>2026-04-11T08:01:42Z</time></trkpt><trkpt lat="45.60065797362029" lon="8.619673207795989"><ele>229.0</ele><time>2026-04-11T08:01:43Z</time></trkpt><trkpt lat="45.60061505139499" lon="8.61950318101201"><ele>229.0</ele><time>2026-04-11T08:01:44Z</time></trkpt><trkpt lat="45.600573943671684" lon="8.619337087227478"><ele>229.0</ele><time>2026-04-11T08:01:44.999Z</time></trkpt><trkpt lat="45.600541468670805" lon="8.619172905539898"><ele>229.0</ele><time>2026-04-11T08:01:45.999Z</time></trkpt><trkpt lat="45.600499307502915" lon="8.618991720207845"><ele>229.0</ele><time>2026-04-11T08:01:46.999Z</time></trkpt><trkpt lat="45.60046085551118" lon="8.618817615847894"><ele>229.0</ele><time>2026-04-11T08:01:47.999Z</time></trkpt><trkpt lat="45.6004183019698" lon="8.618632261248258"><ele>229.0</ele><time>2026-04-11T08:01:48.999Z</time></trkpt><trkpt lat="45.60037932518139" lon="8.618453826703067"><ele>229.0</ele><time>2026-04-11T08:01:49.999Z</time></trkpt><trkpt lat="45.600337638802806" lon="8.618271782124019"><ele>229.0</ele><time>2026-04-11T08:01:50.999Z</time></trkpt><trkpt lat="45.60030016362849" lon="8.618091876894825"><ele>229.0</ele><time>2026-04-11T08:01:51.999Z</time></trkpt><trkpt lat="45.600282431525244" lon="8.617910696160497"><ele>229.0</ele><time>2026-04-11T08:01:52.999Z</time></trkpt><trkpt lat="45.60027545538064" lon="8.617738415676222"><ele>229.0</ele><time>2026-04-11T08:01:53.999Z</time></trkpt><trkpt lat="45.60026305041717" lon="8.617559400788153"><ele>229.0</ele><time>2026-04-11T08:01:54.999Z</time></trkpt><trkpt lat="45.60025126108253" lon="8.617388279417494"><ele>228.99999999999997</ele><time>2026-04-11T08:01:55.999Z</time></trkpt><trkpt lat="45.6002422751554" lon="8.617234384063941"><ele>228.99999999999997</ele><time>2026-04-11T08:01:56.999Z</time></trkpt><trkpt lat="45.60024341830096" lon="8.617091212972506"><ele>229.0</ele><time>2026-04-11T08:01:57.999Z</time></trkpt><trkpt lat="45.60024549589014" lon="8.616963383351674"><ele>229.0</ele><time>2026-04-11T08:01:58.999Z</time></trkpt><trkpt lat="45.60024177360652" lon="8.61684343278366"><ele>229.2</ele><time>2026-04-11T08:01:59.999Z</time></trkpt><trkpt lat="45.600230671443505" lon="8.616724860039124"><ele>229.39999999999998</ele><time>2026-04-11T08:02:00.999Z</time></trkpt><trkpt lat="45.60023156484411" lon="8.61660022429402"><ele>229.6</ele><time>2026-04-11T08:02:01.999Z</time></trkpt><trkpt lat="45.600239886023395" lon="8.616453727113761"><ele>229.8</ele><time>2026-04-11T08:02:02.999Z</time></trkpt><trkpt lat="45.600262692350704" lon="8.616304839858413"><ele>230.0</ele><time>2026-04-11T08:02:03.999Z</time></trkpt><trkpt lat="45.6002729540734" lon="8.616179066895214"><ele>229.66666666666669</ele><time>2026-04-11T08:02:04.999Z</time></trkpt><trkpt lat="45.60027957565946" lon="8.616087134885879"><ele>229.33333333333334</ele><time>2026-04-11T08:02:05.999Z</time></trkpt><trkpt lat="45.60029291477415" lon="8.615965052723622"><ele>229.0</ele><time>2026-04-11T08:02:06.999Z</time></trkpt><trkpt lat="45.60030800753828" lon="8.615837450986465"><ele>228.66666666666669</ele><time>2026-04-11T08:02:07.999Z</time></trkpt><trkpt lat="45.600319443705885" lon="8.615737841674543"><ele>228.33333333333334</ele><time>2026-04-11T08:02:08.999Z</time></trkpt><trkpt lat="45.600256138405236" lon="8.615627504933009"><ele>228.0</ele><time>2026-04-11T08:02:10.999Z</time></trkpt><trkpt lat="45.60017803136455" lon="8.615565076432386"><ele>228.0</ele><time>2026-04-11T08:02:11.999Z</time></trkpt><trkpt lat="45.60005527449378" lon="8.615470218804756"><ele>228.0</ele><time>2026-04-11T08:02:12.999Z</time></trkpt><trkpt lat="45.59992529080642" lon="8.615361836604762"><ele>228.0</ele><time>2026-04-11T08:02:13.999Z</time></trkpt><trkpt lat="45.59979571083759" lon="8.615257336597441"><ele>228.0</ele><time>2026-04-11T08:02:14.999Z</time></trkpt><trkpt lat="45.59965957703487" lon="8.61515148686655"><ele>228.0</ele><time>2026-04-11T08:02:15.999Z</time></trkpt><trkpt lat="45.59955136353896" lon="8.615071551543847"><ele>228.0</ele><time>2026-04-11T08:02:16.999Z</time></trkpt><trkpt lat="45.59945744847655" lon="8.614996771058294"><ele>228.0</ele><time>2026-04-11T08:02:17.999Z</time></trkpt><trkpt lat="45.59938197762542" lon="8.614905218525921"><ele>228.0</ele><time>2026-04-11T08:02:18.999Z</time></trkpt><trkpt lat="45.599339382047724" lon="8.614791142175138"><ele>228.0</ele><time>2026-04-11T08:02:19.999Z</time></trkpt><trkpt lat="45.5993185190909" lon="8.61464604522386"><ele>228.0</ele><time>2026-04-11T08:02:20.999Z</time></trkpt><trkpt lat="45.59930200927497" lon="8.614499089211872"><ele>228.0</ele><time>2026-04-11T08:02:21.999Z</time></trkpt><trkpt lat="45.599285873031974" lon="8.61435201819311"><ele>228.0</ele><time>2026-04-11T08:02:22.999Z</time></trkpt><trkpt lat="45.59926659234395" lon="8.614196589682429"><ele>228.0</ele><time>2026-04-11T08:02:23.999Z</time></trkpt><trkpt lat="45.59923999238461" lon="8.614061180138805"><ele>228.0</ele><time>2026-04-11T08:02:24.999Z</time></trkpt><trkpt lat="45.5991969333449" lon="8.61395169327337"><ele>228.16666666666666</ele><time>2026-04-11T08:02:25.999Z</time></trkpt><trkpt lat="45.59913339230811" lon="8.613863922033387"><ele>228.33333333333331</ele><time>2026-04-11T08:02:26.999Z</time></trkpt><trkpt lat="45.599081303402095" lon="8.613754883017908"><ele>228.5</ele><time>2026-04-11T08:02:27.999Z</time></trkpt><trkpt lat="45.5990235034276" lon="8.613663647156635"><ele>228.66666666666666</ele><time>2026-04-11T08:02:28.998Z</time></trkpt><trkpt lat="45.59897566458243" lon="8.61358100497043"><ele>228.83333333333331</ele><time>2026-04-11T08:02:29.998Z</time></trkpt><trkpt lat="45.59893475003827" lon="8.613500813623217"><ele>229.0</ele><time>2026-04-11T08:02:31.998Z</time></trkpt><trkpt lat="45.59900973193644" lon="8.613279426176451"><ele>229.2</ele><time>2026-04-11T08:02:34.998Z</time></trkpt><trkpt lat="45.599040160333445" lon="8.613141227290203"><ele>229.39999999999998</ele><time>2026-04-11T08:02:35.998Z</time></trkpt><trkpt lat="45.599070778516605" lon="8.613022686110133"><ele>229.6</ele><time>2026-04-11T08:02:36.998Z</time></trkpt><trkpt lat="45.59908553049671" lon="8.612930545006552"><ele>229.8</ele><time>2026-04-11T08:02:37.998Z</time></trkpt><trkpt lat="45.599126877419174" lon="8.61282748473635"><ele>230.0</ele><time>2026-04-11T08:02:40.998Z</time></trkpt><trkpt lat="45.599058401460375" lon="8.61269828767545"><ele>230.33333333333334</ele><time>2026-04-11T08:02:42.998Z</time></trkpt><trkpt lat="45.599030481641584" lon="8.612609659418407"><ele>230.66666666666669</ele><time>2026-04-11T08:02:43.998Z</time></trkpt><trkpt lat="45.598979666855264" lon="8.61253501103151"><ele>231.0</ele><time>2026-04-11T08:02:44.998Z</time></trkpt><trkpt lat="45.598960168519504" lon="8.612441591780376"><ele>231.33333333333331</ele><time>2026-04-11T08:02:45.998Z</time></trkpt><trkpt lat="45.598941012678374" lon="8.612275886925241"><ele>231.66666666666666</ele><time>2026-04-11T08:02:47.998Z</time></trkpt><trkpt lat="45.598938230716875" lon="8.612175959638387"><ele>232.0</ele><time>2026-04-11T08:02:48.998Z</time></trkpt><trkpt lat="45.5989173636594" lon="8.612085551129036"><ele>231.99999999999997</ele><time>2026-04-11T08:02:49.998Z</time></trkpt><trkpt lat="45.59883996165932" lon="8.61197066089421"><ele>232.0</ele><time>2026-04-11T08:02:51.998Z</time></trkpt><trkpt lat="45.59877220593154" lon="8.611964911256722"><ele>232.0</ele><time>2026-04-11T08:02:52.998Z</time></trkpt><trkpt lat="45.59869945933649" lon="8.61201413866155"><ele>232.0</ele><time>2026-04-11T08:02:53.998Z</time></trkpt><trkpt lat="45.5986236916894" lon="8.612055312912293"><ele>231.99999999999997</ele><time>2026-04-11T08:02:54.998Z</time></trkpt><trkpt lat="45.598543508015034" lon="8.612050552719927"><ele>232.0</ele><time>2026-04-11T08:02:55.998Z</time></trkpt><trkpt lat="45.59846705896461" lon="8.61203807925918"><ele>231.8</ele><time>2026-04-11T08:02:56.998Z</time></trkpt><trkpt lat="45.59839825642399" lon="8.612037904739294"><ele>231.6</ele><time>2026-04-11T08:02:57.998Z</time></trkpt><trkpt lat="45.598281422329464" lon="8.612027260704338"><ele>231.40000000000003</ele><time>2026-04-11T08:02:59.998Z</time></trkpt><trkpt lat="45.59816538278892" lon="8.612001199741213"><ele>231.20000000000002</ele><time>2026-04-11T08:03:01.998Z</time></trkpt><trkpt lat="45.598083997233594" lon="8.611991440962512"><ele>231.0</ele><time>2026-04-11T08:03:03.998Z</time></trkpt><trkpt lat="45.59803966854536" lon="8.611880393749626"><ele>231.0</ele><time>2026-04-11T08:03:05.998Z</time></trkpt><trkpt lat="45.598029756455766" lon="8.61178797407833"><ele>231.0</ele><time>2026-04-11T08:03:06.998Z</time></trkpt><trkpt lat="45.59796001925384" lon="8.611711312161408"><ele>231.0</ele><time>2026-04-11T08:03:09Z</time></trkpt><trkpt lat="45.59789096813552" lon="8.611702388163021"><ele>231.0</ele><time>2026-04-11T08:03:11Z</time></trkpt><trkpt lat="45.59781887516416" lon="8.611703242710647"><ele>231.0</ele><time>2026-04-11T08:03:14Z</time></trkpt><trkpt lat="45.5977114684312" lon="8.611661658233732"><ele>231.0</ele><time>2026-04-11T08:03:16Z</time></trkpt><trkpt lat="45.59760221094445" lon="8.611642626113753"><ele>231.25</ele><time>2026-04-11T08:03:18Z</time></trkpt><trkpt lat="45.597527797070796" lon="8.61178206864348"><ele>231.5</ele><time>2026-04-11T08:03:19Z</time></trkpt><trkpt lat="45.597434261187786" lon="8.61173881952662"><ele>231.75</ele><time>2026-04-11T08:03:21Z</time></trkpt><trkpt lat="45.597327256518476" lon="8.611681166851302"><ele>232.0</ele><time>2026-04-11T08:03:23Z</time></trkpt><trkpt lat="45.59720171314563" lon="8.611666285837895"><ele>232.0</ele><time>2026-04-11T08:03:25Z</time></trkpt><trkpt lat="45.59708524767703" lon="8.611669611971582"><ele>232.0</ele><time>2026-04-11T08:03:27Z</time></trkpt><trkpt lat="45.59698798243043" lon="8.61166219487269"><ele>232.0</ele><time>2026-04-11T08:03:29Z</time></trkpt><trkpt lat="45.59690179590961" lon="8.611664246201691"><ele>232.0</ele><time>2026-04-11T08:03:31Z</time></trkpt><trkpt lat="45.59682723449865" lon="8.611663362052338"><ele>232.0</ele><time>2026-04-11T08:03:33Z</time></trkpt><trkpt lat="45.59674775363769" lon="8.611575786480433"><ele>231.49999999999997</ele><time>2026-04-11T08:03:37Z</time></trkpt><trkpt lat="45.59674022873467" lon="8.611465986427271"><ele>231.0</ele><time>2026-04-11T08:03:38Z</time></trkpt><trkpt lat="45.59670885544929" lon="8.61137950562946"><ele>230.5</ele><time>2026-04-11T08:03:39Z</time></trkpt><trkpt lat="45.596670721586065" lon="8.611282094785984"><ele>230.0</ele><time>2026-04-11T08:03:40Z</time></trkpt><trkpt lat="45.596632632858885" lon="8.611170630103166"><ele>229.49999999999997</ele><time>2026-04-11T08:03:41Z</time></trkpt><trkpt lat="45.59659302985397" lon="8.611055304368202"><ele>229.0</ele><time>2026-04-11T08:03:42Z</time></trkpt><trkpt lat="45.5965435131342" lon="8.610950858039356"><ele>228.99999999999997</ele><time>2026-04-11T08:03:43Z</time></trkpt><trkpt lat="45.59648872950375" lon="8.610844269393505"><ele>229.0</ele><time>2026-04-11T08:03:44Z</time></trkpt><trkpt lat="45.59644344501575" lon="8.610727227262045"><ele>229.0</ele><time>2026-04-11T08:03:45Z</time></trkpt><trkpt lat="45.596409378447106" lon="8.610596402364797"><ele>229.0</ele><time>2026-04-11T08:03:46Z</time></trkpt><trkpt lat="45.5963818724019" lon="8.610477234183335"><ele>228.99999999999997</ele><time>2026-04-11T08:03:47Z</time></trkpt><trkpt lat="45.59635870339116" lon="8.610390985312431"><ele>229.0</ele><time>2026-04-11T08:03:48Z</time></trkpt><trkpt lat="45.596279991861906" lon="8.610307033542068"><ele>228.2</ele><time>2026-04-11T08:03:50Z</time></trkpt><trkpt lat="45.59614693770263" lon="8.610361341768174"><ele>227.39999999999998</ele><time>2026-04-11T08:03:52Z</time></trkpt><trkpt lat="45.596063572823276" lon="8.610390085249925"><ele>226.6</ele><time>2026-04-11T08:03:53Z</time></trkpt><trkpt lat="45.59597640672169" lon="8.610386719304923"><ele>225.8</ele><time>2026-04-11T08:03:53.999Z</time></trkpt><trkpt lat="45.59588753994376" lon="8.610366677069768"><ele>225.0</ele><time>2026-04-11T08:03:54.999Z</time></trkpt><trkpt lat="45.59579443762397" lon="8.610353597131095"><ele>225.0</ele><time>2026-04-11T08:03:55.999Z</time></trkpt><trkpt lat="45.59570201461656" lon="8.610334242858121"><ele>225.0</ele><time>2026-04-11T08:03:56.999Z</time></trkpt><trkpt lat="45.595612222384005" lon="8.61031288713832"><ele>225.0</ele><time>2026-04-11T08:03:57.999Z</time></trkpt><trkpt lat="45.59552906046388" lon="8.610306828055041"><ele>225.0</ele><time>2026-04-11T08:03:58.999Z</time></trkpt><trkpt lat="45.59545576922799" lon="8.610291767568794"><ele>225.0</ele><time>2026-04-11T08:03:59.999Z</time></trkpt><trkpt lat="45.59539774230871" lon="8.61025403814413"><ele>225.0</ele><time>2026-04-11T08:04:00.999Z</time></trkpt><trkpt lat="45.59535395688195" lon="8.610085933386832"><ele>225.4</ele><time>2026-04-11T08:04:02.999Z</time></trkpt><trkpt lat="45.59537748857142" lon="8.609966178101603"><ele>225.8</ele><time>2026-04-11T08:04:03.999Z</time></trkpt><trkpt lat="45.59539400889664" lon="8.609842474849739"><ele>226.2</ele><time>2026-04-11T08:04:04.999Z</time></trkpt><trkpt lat="45.59539242386706" lon="8.609710653358984"><ele>226.6</ele><time>2026-04-11T08:04:05.999Z</time></trkpt><trkpt lat="45.59538712408372" lon="8.609574262858287"><ele>227.0</ele><time>2026-04-11T08:04:06.999Z</time></trkpt><trkpt lat="45.59539867505241" lon="8.609432679766652"><ele>227.39999999999998</ele><time>2026-04-11T08:04:07.999Z</time></trkpt><trkpt lat="45.59539395257075" lon="8.609292981414967"><ele>227.79999999999998</ele><time>2026-04-11T08:04:08.999Z</time></trkpt><trkpt lat="45.59538894856818" lon="8.609144955223776"><ele>228.2</ele><time>2026-04-11T08:04:09.999Z</time></trkpt><trkpt lat="45.59536511111354" lon="8.608990516790909"><ele>228.6</ele><time>2026-04-11T08:04:10.999Z</time></trkpt><trkpt lat="45.59535727124441" lon="8.608828532227092"><ele>229.0</ele><time>2026-04-11T08:04:11.999Z</time></trkpt><trkpt lat="45.59534616525295" lon="8.608656676116839"><ele>228.75</ele><time>2026-04-11T08:04:12.999Z</time></trkpt><trkpt lat="45.59532247366241" lon="8.608478931098343"><ele>228.5</ele><time>2026-04-11T08:04:13.999Z</time></trkpt><trkpt lat="45.59532066228396" lon="8.608290063784349"><ele>228.25</ele><time>2026-04-11T08:04:14.999Z</time></trkpt><trkpt lat="45.59530206802849" lon="8.608099118671111"><ele>228.0</ele><time>2026-04-11T08:04:15.999Z</time></trkpt><trkpt lat="45.59527786710078" lon="8.607922902355599"><ele>228.4</ele><time>2026-04-11T08:04:16.999Z</time></trkpt><trkpt lat="45.59523046765453" lon="8.607768150624434"><ele>228.8</ele><time>2026-04-11T08:04:17.999Z</time></trkpt><trkpt lat="45.595201575692144" lon="8.60763719916484"><ele>229.2</ele><time>2026-04-11T08:04:18.999Z</time></trkpt><trkpt lat="45.59517296532977" lon="8.60751560310818"><ele>229.6</ele><time>2026-04-11T08:04:19.999Z</time></trkpt><trkpt lat="45.595151363462826" lon="8.60741250290797"><ele>230.0</ele><time>2026-04-11T08:04:20.999Z</time></trkpt><trkpt lat="45.59512726843784" lon="8.607292338121361"><ele>230.0</ele><time>2026-04-11T08:04:22.999Z</time></trkpt><trkpt lat="45.59500572649171" lon="8.607342148064069"><ele>230.0</ele><time>2026-04-11T08:04:23.999Z</time></trkpt><trkpt lat="45.59493157444124" lon="8.607424701801152"><ele>230.0</ele><time>2026-04-11T08:04:24.999Z</time></trkpt><trkpt lat="45.594841959217206" lon="8.607485790611786"><ele>230.0</ele><time>2026-04-11T08:04:25.999Z</time></trkpt><trkpt lat="45.59475650541148" lon="8.607525987193032"><ele>230.0</ele><time>2026-04-11T08:04:26.999Z</time></trkpt><trkpt lat="45.594660505570516" lon="8.607552208743673"><ele>230.0</ele><time>2026-04-11T08:04:27.999Z</time></trkpt><trkpt lat="45.594560243121464" lon="8.607570005797648"><ele>230.0</ele><time>2026-04-11T08:04:28.999Z</time></trkpt><trkpt lat="45.59445915166578" lon="8.6075906758467"><ele>230.0</ele><time>2026-04-11T08:04:29.999Z</time></trkpt><trkpt lat="45.59436309985045" lon="8.607608596650113"><ele>230.0</ele><time>2026-04-11T08:04:30.999Z</time></trkpt><trkpt lat="45.594267910539166" lon="8.607622667189087"><ele>230.0</ele><time>2026-04-11T08:04:31.999Z</time></trkpt><trkpt lat="45.59416886408824" lon="8.607633192816069"><ele>229.8</ele><time>2026-04-11T08:04:32.999Z</time></trkpt><trkpt lat="45.594076528279885" lon="8.607640638653837"><ele>229.6</ele><time>2026-04-11T08:04:33.999Z</time></trkpt><trkpt lat="45.59396515047721" lon="8.607651839686818"><ele>229.39999999999998</ele><time>2026-04-11T08:04:34.999Z</time></trkpt><trkpt lat="45.59386213472835" lon="8.607669424757974"><ele>229.2</ele><time>2026-04-11T08:04:35.999Z</time></trkpt><trkpt lat="45.593762181418086" lon="8.607682308678031"><ele>229.0</ele><time>2026-04-11T08:04:36.999Z</time></trkpt><trkpt lat="45.59366535972158" lon="8.6076649624984"><ele>228.79999999999998</ele><time>2026-04-11T08:04:37.999Z</time></trkpt><trkpt lat="45.593564944299565" lon="8.60763477604467"><ele>228.59999999999997</ele><time>2026-04-11T08:04:38.999Z</time></trkpt><trkpt lat="45.59346605011431" lon="8.607625276055899"><ele>228.4</ele><time>2026-04-11T08:04:39.998Z</time></trkpt><trkpt lat="45.593368492619256" lon="8.607632197062673"><ele>228.2</ele><time>2026-04-11T08:04:40.998Z</time></trkpt><trkpt lat="45.5932619700194" lon="8.607641066412276"><ele>228.0</ele><time>2026-04-11T08:04:41.998Z</time></trkpt><trkpt lat="45.593159951760114" lon="8.607647916042557"><ele>228.0</ele><time>2026-04-11T08:04:42.998Z</time></trkpt><trkpt lat="45.5930578683169" lon="8.607649500784563"><ele>228.0</ele><time>2026-04-11T08:04:43.998Z</time></trkpt><trkpt lat="45.59296279641862" lon="8.607662648270194"><ele>228.0</ele><time>2026-04-11T08:04:44.998Z</time></trkpt><trkpt lat="45.59287555112113" lon="8.60768133577627"><ele>228.0</ele><time>2026-04-11T08:04:45.998Z</time></trkpt><trkpt lat="45.59279728410366" lon="8.607693842110042"><ele>228.0</ele><time>2026-04-11T08:04:46.998Z</time></trkpt><trkpt lat="45.59272006256878" lon="8.6077087260417"><ele>228.0</ele><time>2026-04-11T08:04:47.998Z</time></trkpt><trkpt lat="45.592650365393105" lon="8.607725184286982"><ele>227.5</ele><time>2026-04-11T08:04:48.998Z</time></trkpt><trkpt lat="45.592566334895935" lon="8.607736904239768"><ele>227.0</ele><time>2026-04-11T08:04:50.998Z</time></trkpt><trkpt lat="45.592482807662996" lon="8.607735530499905"><ele>226.5</ele><time>2026-04-11T08:04:55.998Z</time></trkpt><trkpt lat="45.592425867848114" lon="8.607670277605553"><ele>226.0</ele><time>2026-04-11T08:04:58.998Z</time></trkpt><trkpt lat="45.5924420906795" lon="8.607550334098333"><ele>225.5</ele><time>2026-04-11T08:04:59.998Z</time></trkpt><trkpt lat="45.59250378487613" lon="8.607495122391036"><ele>225.0</ele><time>2026-04-11T08:05:43Z</time></trkpt><trkpt lat="45.59270368382554" lon="8.6074056732187"><ele>225.00000000000003</ele><time>2026-04-11T08:05:50Z</time></trkpt><trkpt lat="45.59276929190199" lon="8.607416352641778"><ele>225.0</ele><time>2026-04-11T08:05:54Z</time></trkpt><trkpt lat="45.592690484593945" lon="8.607415427099312"><ele>225.00000000000003</ele><time>2026-04-11T08:08:29.999Z</time></trkpt><trkpt lat="45.59261908592636" lon="8.607454071794868"><ele>225.00000000000003</ele><time>2026-04-11T08:08:31.999Z</time></trkpt><trkpt lat="45.59254475513473" lon="8.60747503612313"><ele>225.0</ele><time>2026-04-11T08:08:34.999Z</time></trkpt><trkpt lat="45.592479800243204" lon="8.607501161964223"><ele>225.00000000000003</ele><time>2026-04-11T08:08:56.998Z</time></trkpt><trkpt lat="45.59248100739865" lon="8.607604928151867"><ele>225.00000000000003</ele><time>2026-04-11T08:09:01.998Z</time></trkpt><trkpt lat="45.5924982822658" lon="8.607695687854157"><ele>225.0</ele><time>2026-04-11T08:09:04.998Z</time></trkpt><trkpt lat="45.59258078697826" lon="8.607753896540366"><ele>225.0</ele><time>2026-04-11T08:09:07.998Z</time></trkpt><trkpt lat="45.59270157554702" lon="8.607760467028065"><ele>225.0</ele><time>2026-04-11T08:09:09.998Z</time></trkpt><trkpt lat="45.59276950938133" lon="8.607753191301596"><ele>225.0</ele><time>2026-04-11T08:09:10.998Z</time></trkpt><trkpt lat="45.592840162385606" lon="8.607742355351384"><ele>225.0</ele><time>2026-04-11T08:09:11.998Z</time></trkpt><trkpt lat="45.592915820350534" lon="8.607730751804105"><ele>225.0</ele><time>2026-04-11T08:09:12.998Z</time></trkpt><trkpt lat="45.59299205647123" lon="8.607719452275749"><ele>225.6</ele><time>2026-04-11T08:09:13.998Z</time></trkpt><trkpt lat="45.59307721637642" lon="8.607709867821816"><ele>226.2</ele><time>2026-04-11T08:09:14.998Z</time></trkpt><trkpt lat="45.59316212174062" lon="8.607702000082934"><ele>226.8</ele><time>2026-04-11T08:09:15.998Z</time></trkpt><trkpt lat="45.59325783899573" lon="8.607695799138192"><ele>227.4</ele><time>2026-04-11T08:09:16.998Z</time></trkpt><trkpt lat="45.59336296583057" lon="8.607690784759946"><ele>228.0</ele><time>2026-04-11T08:09:17.998Z</time></trkpt><trkpt lat="45.59346920922067" lon="8.607668019796808"><ele>228.0</ele><time>2026-04-11T08:09:18.998Z</time></trkpt><trkpt lat="45.59356595591668" lon="8.607662214934379"><ele>228.0</ele><time>2026-04-11T08:09:19.998Z</time></trkpt><trkpt lat="45.593664582413965" lon="8.607671090874364"><ele>228.0</ele><time>2026-04-11T08:09:20.998Z</time></trkpt><trkpt lat="45.59375892588299" lon="8.60771714166462"><ele>228.0</ele><time>2026-04-11T08:09:21.998Z</time></trkpt><trkpt lat="45.59385697324033" lon="8.607693678502313"><ele>228.0</ele><time>2026-04-11T08:09:22.998Z</time></trkpt><trkpt lat="45.59395410298329" lon="8.60768795731287"><ele>228.2</ele><time>2026-04-11T08:09:23.998Z</time></trkpt><trkpt lat="45.59404281650358" lon="8.607691026887723"><ele>228.4</ele><time>2026-04-11T08:09:25Z</time></trkpt><trkpt lat="45.5941293850176" lon="8.607659114394007"><ele>228.59999999999997</ele><time>2026-04-11T08:09:26Z</time></trkpt><trkpt lat="45.59422138890686" lon="8.60767150414088"><ele>228.79999999999998</ele><time>2026-04-11T08:09:27Z</time></trkpt><trkpt lat="45.594314325954684" lon="8.607663354209143"><ele>229.0</ele><time>2026-04-11T08:09:28Z</time></trkpt><trkpt lat="45.59440566236868" lon="8.607628964446102"><ele>229.16666666666666</ele><time>2026-04-11T08:09:29Z</time></trkpt><trkpt lat="45.59450610714523" lon="8.607612688811763"><ele>229.33333333333331</ele><time>2026-04-11T08:09:30Z</time></trkpt><trkpt lat="45.59459153665763" lon="8.607589832302619"><ele>229.5</ele><time>2026-04-11T08:09:31Z</time></trkpt><trkpt lat="45.59466962331706" lon="8.607571191309038"><ele>229.66666666666669</ele><time>2026-04-11T08:09:32Z</time></trkpt><trkpt lat="45.59474652806965" lon="8.607552369959114"><ele>229.83333333333334</ele><time>2026-04-11T08:09:33Z</time></trkpt><trkpt lat="45.594808560609046" lon="8.607533674899459"><ele>230.0</ele><time>2026-04-11T08:09:34Z</time></trkpt><trkpt lat="45.594867477712576" lon="8.607500461653991"><ele>230.0</ele><time>2026-04-11T08:09:35Z</time></trkpt><trkpt lat="45.59498378713792" lon="8.607436818536884"><ele>230.0</ele><time>2026-04-11T08:09:37Z</time></trkpt><trkpt lat="45.59506911401528" lon="8.607376270476175"><ele>230.0</ele><time>2026-04-11T08:09:39Z</time></trkpt><trkpt lat="45.595153027427976" lon="8.60731576621088"><ele>230.0</ele><time>2026-04-11T08:09:56Z</time></trkpt><trkpt lat="45.59511720766626" lon="8.607153089429392"><ele>230.0</ele><time>2026-04-11T08:09:57Z</time></trkpt><trkpt lat="45.59508983077286" lon="8.607019494521952"><ele>229.75</ele><time>2026-04-11T08:09:58Z</time></trkpt><trkpt lat="45.595051870065454" lon="8.606867063147138"><ele>229.5</ele><time>2026-04-11T08:09:59Z</time></trkpt><trkpt lat="45.59501567875826" lon="8.606708411838875"><ele>229.25</ele><time>2026-04-11T08:10:00Z</time></trkpt><trkpt lat="45.59497800571639" lon="8.606542243344084"><ele>229.0</ele><time>2026-04-11T08:10:01Z</time></trkpt><trkpt lat="45.59494030805426" lon="8.606376050797477"><ele>229.0</ele><time>2026-04-11T08:10:02Z</time></trkpt><trkpt lat="45.594902706220935" lon="8.606216156227667"><ele>228.99999999999997</ele><time>2026-04-11T08:10:03Z</time></trkpt><trkpt lat="45.59486724624979" lon="8.60606930457435"><ele>228.99999999999997</ele><time>2026-04-11T08:10:04Z</time></trkpt><trkpt lat="45.594834028175455" lon="8.60593795278143"><ele>229.0</ele><time>2026-04-11T08:10:05Z</time></trkpt><trkpt lat="45.59480595242099" lon="8.605819560094258"><ele>229.0</ele><time>2026-04-11T08:10:06Z</time></trkpt><trkpt lat="45.59477864542335" lon="8.605698701077221"><ele>229.0</ele><time>2026-04-11T08:10:07Z</time></trkpt><trkpt lat="45.594750275509675" lon="8.605562294597798"><ele>228.99999999999997</ele><time>2026-04-11T08:10:08Z</time></trkpt><trkpt lat="45.594720449778464" lon="8.605414701923978"><ele>228.99999999999997</ele><time>2026-04-11T08:10:09Z</time></trkpt><trkpt lat="45.594690696271854" lon="8.605262711925414"><ele>229.0</ele><time>2026-04-11T08:10:09.999Z</time></trkpt><trkpt lat="45.59466151766699" lon="8.605110723017638"><ele>229.0</ele><time>2026-04-11T08:10:10.999Z</time></trkpt><trkpt lat="45.59463406725708" lon="8.604959345585653"><ele>229.2</ele><time>2026-04-11T08:10:11.999Z</time></trkpt><trkpt lat="45.59460989628564" lon="8.604812690438525"><ele>229.39999999999998</ele><time>2026-04-11T08:10:12.999Z</time></trkpt><trkpt lat="45.594588869850334" lon="8.604665374726448"><ele>229.6</ele><time>2026-04-11T08:10:13.999Z</time></trkpt><trkpt lat="45.594568373175115" lon="8.604518117482629"><ele>229.8</ele><time>2026-04-11T08:10:14.999Z</time></trkpt><trkpt lat="45.594546116622745" lon="8.604368426988673"><ele>230.0</ele><time>2026-04-11T08:10:15.999Z</time></trkpt><trkpt lat="45.5945173271437" lon="8.604217944251847"><ele>230.0</ele><time>2026-04-11T08:10:16.999Z</time></trkpt><trkpt lat="45.59448042213947" lon="8.604072113474128"><ele>230.0</ele><time>2026-04-11T08:10:17.999Z</time></trkpt><trkpt lat="45.594435848753704" lon="8.60393060411196"><ele>230.0</ele><time>2026-04-11T08:10:18.999Z</time></trkpt><trkpt lat="45.594395765450166" lon="8.603804323122603"><ele>230.0</ele><time>2026-04-11T08:10:19.999Z</time></trkpt><trkpt lat="45.59435983283366" lon="8.60367071998544"><ele>230.0</ele><time>2026-04-11T08:10:20.999Z</time></trkpt><trkpt lat="45.59432504289856" lon="8.603529892290311"><ele>230.0</ele><time>2026-04-11T08:10:21.999Z</time></trkpt><trkpt lat="45.594295211786054" lon="8.603382586634794"><ele>230.0</ele><time>2026-04-11T08:10:22.999Z</time></trkpt><trkpt lat="45.594271172500335" lon="8.603230373841189"><ele>230.0</ele><time>2026-04-11T08:10:23.999Z</time></trkpt><trkpt lat="45.594253173684926" lon="8.603074729123337"><ele>230.0</ele><time>2026-04-11T08:10:24.999Z</time></trkpt><trkpt lat="45.594238986644136" lon="8.602917650326948"><ele>230.0</ele><time>2026-04-11T08:10:25.999Z</time></trkpt><trkpt lat="45.59422696845513" lon="8.602763430918555"><ele>229.8</ele><time>2026-04-11T08:10:26.999Z</time></trkpt><trkpt lat="45.59421475239692" lon="8.602611993876664"><ele>229.6</ele><time>2026-04-11T08:10:27.999Z</time></trkpt><trkpt lat="45.594202036113735" lon="8.60246169153159"><ele>229.39999999999998</ele><time>2026-04-11T08:10:28.999Z</time></trkpt><trkpt lat="45.594191217041626" lon="8.602315116637927"><ele>229.2</ele><time>2026-04-11T08:10:29.999Z</time></trkpt><trkpt lat="45.59418490521765" lon="8.60216803697842"><ele>229.0</ele><time>2026-04-11T08:10:30.999Z</time></trkpt><trkpt lat="45.5941912580486" lon="8.602030088701701"><ele>228.6</ele><time>2026-04-11T08:10:31.999Z</time></trkpt><trkpt lat="45.59422327294048" lon="8.601922861822613"><ele>228.2</ele><time>2026-04-11T08:10:32.999Z</time></trkpt><trkpt lat="45.59427638632418" lon="8.60181524422312"><ele>227.79999999999998</ele><time>2026-04-11T08:10:33.999Z</time></trkpt><trkpt lat="45.59433458272812" lon="8.601693248315966"><ele>227.39999999999998</ele><time>2026-04-11T08:10:34.999Z</time></trkpt><trkpt lat="45.594363391328656" lon="8.601527380015028"><ele>227.0</ele><time>2026-04-11T08:10:35.999Z</time></trkpt><trkpt lat="45.59435099698309" lon="8.601360508560598"><ele>227.0</ele><time>2026-04-11T08:10:36.999Z</time></trkpt><trkpt lat="45.594322644883306" lon="8.601216104426635"><ele>227.0</ele><time>2026-04-11T08:10:37.999Z</time></trkpt><trkpt lat="45.594297585892775" lon="8.601108925698712"><ele>227.0</ele><time>2026-04-11T08:10:38.999Z</time></trkpt><trkpt lat="45.59427772360732" lon="8.601021252491462"><ele>227.0</ele><time>2026-04-11T08:10:40.999Z</time></trkpt><trkpt lat="45.59447049698039" lon="8.601056355937136"><ele>227.0</ele><time>2026-04-11T08:10:44.999Z</time></trkpt><trkpt lat="45.59455798223891" lon="8.601089600153232"><ele>226.8</ele><time>2026-04-11T08:10:45.999Z</time></trkpt><trkpt lat="45.59464770677402" lon="8.601114590194053"><ele>226.6</ele><time>2026-04-11T08:10:46.999Z</time></trkpt><trkpt lat="45.5947482270774" lon="8.601141749050115"><ele>226.40000000000003</ele><time>2026-04-11T08:10:47.999Z</time></trkpt><trkpt lat="45.5948557656302" lon="8.60117483481387"><ele>226.20000000000002</ele><time>2026-04-11T08:10:48.999Z</time></trkpt><trkpt lat="45.59496735064151" lon="8.601199895254615"><ele>226.0</ele><time>2026-04-11T08:10:49.999Z</time></trkpt><trkpt lat="45.59507306006371" lon="8.601216097587642"><ele>226.4</ele><time>2026-04-11T08:10:50.999Z</time></trkpt><trkpt lat="45.5951729843327" lon="8.601214832025414"><ele>226.8</ele><time>2026-04-11T08:10:51.999Z</time></trkpt><trkpt lat="45.5952689703112" lon="8.601196665169677"><ele>227.20000000000002</ele><time>2026-04-11T08:10:52.999Z</time></trkpt><trkpt lat="45.59536424624107" lon="8.60115120427827"><ele>227.60000000000002</ele><time>2026-04-11T08:10:53.999Z</time></trkpt><trkpt lat="45.59546502582029" lon="8.601109934766045"><ele>228.0</ele><time>2026-04-11T08:10:54.998Z</time></trkpt><trkpt lat="45.59556211920028" lon="8.601085504262604"><ele>228.0</ele><time>2026-04-11T08:10:55.998Z</time></trkpt><trkpt lat="45.59566927134611" lon="8.601041207711402"><ele>228.0</ele><time>2026-04-11T08:10:56.998Z</time></trkpt><trkpt lat="45.59576812093975" lon="8.601009011300695"><ele>228.0</ele><time>2026-04-11T08:10:57.998Z</time></trkpt><trkpt lat="45.59587606217223" lon="8.600975752569251"><ele>228.0</ele><time>2026-04-11T08:10:58.998Z</time></trkpt><trkpt lat="45.595992527138264" lon="8.600937864211186"><ele>228.0</ele><time>2026-04-11T08:10:59.998Z</time></trkpt><trkpt lat="45.59611343952477" lon="8.600890473426652"><ele>227.60000000000002</ele><time>2026-04-11T08:11:00.998Z</time></trkpt><trkpt lat="45.59622364886704" lon="8.600835524471615"><ele>227.20000000000002</ele><time>2026-04-11T08:11:01.998Z</time></trkpt><trkpt lat="45.59634146359378" lon="8.600802730740401"><ele>226.8</ele><time>2026-04-11T08:11:02.998Z</time></trkpt><trkpt lat="45.59644153039876" lon="8.600790921153685"><ele>226.4</ele><time>2026-04-11T08:11:03.998Z</time></trkpt><trkpt lat="45.596527945095275" lon="8.600789434867705"><ele>226.0</ele><time>2026-04-11T08:11:04.998Z</time></trkpt><trkpt lat="45.59659921907163" lon="8.600791114734148"><ele>226.0</ele><time>2026-04-11T08:11:05.998Z</time></trkpt><trkpt lat="45.596666984913135" lon="8.600820182781595"><ele>226.0</ele><time>2026-04-11T08:11:06.998Z</time></trkpt><trkpt lat="45.59671871961166" lon="8.600884274692028"><ele>226.0</ele><time>2026-04-11T08:11:07.998Z</time></trkpt><trkpt lat="45.59674347988399" lon="8.600977437183506"><ele>226.0</ele><time>2026-04-11T08:11:08.998Z</time></trkpt><trkpt lat="45.596739743037844" lon="8.601098933814013"><ele>226.0</ele><time>2026-04-11T08:11:09.998Z</time></trkpt><trkpt lat="45.596717684549155" lon="8.601187333776362"><ele>226.0</ele><time>2026-04-11T08:11:10.998Z</time></trkpt><trkpt lat="45.59676718753873" lon="8.601288903189099"><ele>226.0</ele><time>2026-04-11T08:11:12.998Z</time></trkpt><trkpt lat="45.596902625714144" lon="8.60124894679822"><ele>226.4</ele><time>2026-04-11T08:11:14.998Z</time></trkpt><trkpt lat="45.59700336205774" lon="8.60118166172163"><ele>226.8</ele><time>2026-04-11T08:11:15.998Z</time></trkpt><trkpt lat="45.59710156734326" lon="8.601108247559587"><ele>227.20000000000002</ele><time>2026-04-11T08:11:16.998Z</time></trkpt><trkpt lat="45.597172495848405" lon="8.601022840716789"><ele>227.60000000000002</ele><time>2026-04-11T08:11:17.998Z</time></trkpt><trkpt lat="45.59724463200498" lon="8.600935613325701"><ele>228.0</ele><time>2026-04-11T08:11:18.998Z</time></trkpt><trkpt lat="45.597324961574195" lon="8.600850919645532"><ele>228.0</ele><time>2026-04-11T08:11:19.998Z</time></trkpt><trkpt lat="45.59742533570419" lon="8.600803809330484"><ele>228.0</ele><time>2026-04-11T08:11:20.998Z</time></trkpt><trkpt lat="45.59752934330464" lon="8.600781953733476"><ele>228.0</ele><time>2026-04-11T08:11:21.998Z</time></trkpt><trkpt lat="45.59764227586057" lon="8.60077166474175"><ele>228.0</ele><time>2026-04-11T08:11:22.998Z</time></trkpt><trkpt lat="45.59775208075538" lon="8.600764975710566"><ele>228.0</ele><time>2026-04-11T08:11:23.998Z</time></trkpt><trkpt lat="45.597853711145476" lon="8.600758150000688"><ele>227.5</ele><time>2026-04-11T08:11:24.998Z</time></trkpt><trkpt lat="45.597938716607906" lon="8.600755184371137"><ele>227.0</ele><time>2026-04-11T08:11:25.998Z</time></trkpt><trkpt lat="45.59802118242291" lon="8.600752368197629"><ele>226.5</ele><time>2026-04-11T08:11:26.998Z</time></trkpt><trkpt lat="45.59809275533331" lon="8.600761439483584"><ele>226.0</ele><time>2026-04-11T08:11:27.998Z</time></trkpt><trkpt lat="45.59818922071657" lon="8.600799563120802"><ele>225.5</ele><time>2026-04-11T08:11:30Z</time></trkpt><trkpt lat="45.598209561188185" lon="8.600927196153105"><ele>225.0</ele><time>2026-04-11T08:11:33Z</time></trkpt><trkpt lat="45.59817705034512" lon="8.601031125542681"><ele>225.0</ele><time>2026-04-11T08:11:34Z</time></trkpt><trkpt lat="45.59812632215288" lon="8.60117439231134"><ele>225.0</ele><time>2026-04-11T08:11:35Z</time></trkpt><trkpt lat="45.59809278158629" lon="8.601337173334635"><ele>225.0</ele><time>2026-04-11T08:11:36Z</time></trkpt><trkpt lat="45.598069268317005" lon="8.601493278851489"><ele>225.0</ele><time>2026-04-11T08:11:37Z</time></trkpt><trkpt lat="45.59804614512493" lon="8.601639814300047"><ele>225.0</ele><time>2026-04-11T08:11:38Z</time></trkpt><trkpt lat="45.598018445243575" lon="8.601787267310376"><ele>225.0</ele><time>2026-04-11T08:11:39Z</time></trkpt><trkpt lat="45.59799661831869" lon="8.601951013151186"><ele>225.0</ele><time>2026-04-11T08:11:40Z</time></trkpt><trkpt lat="45.59797355489533" lon="8.602117494533475"><ele>225.0</ele><time>2026-04-11T08:11:41Z</time></trkpt><trkpt lat="45.597956587648355" lon="8.602281685551283"><ele>225.0</ele><time>2026-04-11T08:11:42Z</time></trkpt><trkpt lat="45.5979398309215" lon="8.60244449234363"><ele>225.75</ele><time>2026-04-11T08:11:43Z</time></trkpt><trkpt lat="45.5979220323658" lon="8.602614345999358"><ele>226.5</ele><time>2026-04-11T08:11:44Z</time></trkpt><trkpt lat="45.597905749596684" lon="8.602783514975451"><ele>227.25</ele><time>2026-04-11T08:11:45Z</time></trkpt><trkpt lat="45.59789380304404" lon="8.602953884682"><ele>228.0</ele><time>2026-04-11T08:11:46Z</time></trkpt><trkpt lat="45.597887052646925" lon="8.603096544907157"><ele>228.25</ele><time>2026-04-11T08:11:47Z</time></trkpt><trkpt lat="45.59787787726823" lon="8.603207259247307"><ele>228.5</ele><time>2026-04-11T08:11:48Z</time></trkpt><trkpt lat="45.59787970125214" lon="8.603327171870905"><ele>228.75</ele><time>2026-04-11T08:11:50Z</time></trkpt><trkpt lat="45.59813420619705" lon="8.60335043114791"><ele>229.0</ele><time>2026-04-11T08:11:54Z</time></trkpt><trkpt lat="45.59823188433005" lon="8.603360023119286"><ele>229.0</ele><time>2026-04-11T08:11:55Z</time></trkpt><trkpt lat="45.59833622409426" lon="8.603374805738408"><ele>228.99999999999997</ele><time>2026-04-11T08:11:56Z</time></trkpt><trkpt lat="45.598429522152" lon="8.6033986710069"><ele>228.99999999999997</ele><time>2026-04-11T08:11:57Z</time></trkpt><trkpt lat="45.598517033046384" lon="8.603434823047548"><ele>229.0</ele><time>2026-04-11T08:11:58Z</time></trkpt><trkpt lat="45.59859566402167" lon="8.603504231970579"><ele>229.0</ele><time>2026-04-11T08:11:59Z</time></trkpt><trkpt lat="45.598683179840094" lon="8.603586866181768"><ele>229.39999999999998</ele><time>2026-04-11T08:11:59.999Z</time></trkpt><trkpt lat="45.598767404814815" lon="8.603649105087099"><ele>229.79999999999998</ele><time>2026-04-11T08:12:00.999Z</time></trkpt><trkpt lat="45.598872233665" lon="8.603706183178806"><ele>230.20000000000002</ele><time>2026-04-11T08:12:01.999Z</time></trkpt><trkpt lat="45.59898011915328" lon="8.603760490796539"><ele>230.60000000000002</ele><time>2026-04-11T08:12:02.999Z</time></trkpt><trkpt lat="45.5990941388919" lon="8.603813561390117"><ele>231.0</ele><time>2026-04-11T08:12:03.999Z</time></trkpt><trkpt lat="45.59919814305311" lon="8.603871962376212"><ele>231.0</ele><time>2026-04-11T08:12:04.999Z</time></trkpt><trkpt lat="45.599302357890586" lon="8.603935430736703"><ele>231.00000000000003</ele><time>2026-04-11T08:12:05.999Z</time></trkpt><trkpt lat="45.59940617180822" lon="8.603999191834443"><ele>231.00000000000003</ele><time>2026-04-11T08:12:06.999Z</time></trkpt><trkpt lat="45.5995085251631" lon="8.604043661253904"><ele>231.0</ele><time>2026-04-11T08:12:07.999Z</time></trkpt><trkpt lat="45.599621355427225" lon="8.6040754780919"><ele>231.0</ele><time>2026-04-11T08:12:08.999Z</time></trkpt><trkpt lat="45.59972815809693" lon="8.604127669357595"><ele>231.0</ele><time>2026-04-11T08:12:09.999Z</time></trkpt><trkpt lat="45.59983287080277" lon="8.604192909008109"><ele>231.0</ele><time>2026-04-11T08:12:10.999Z</time></trkpt><trkpt lat="45.59994765026488" lon="8.604238023270522"><ele>231.0</ele><time>2026-04-11T08:12:11.999Z</time></trkpt><trkpt lat="45.60006543535983" lon="8.604251331550083"><ele>231.0</ele><time>2026-04-11T08:12:12.999Z</time></trkpt><trkpt lat="45.60016641883376" lon="8.604271246586208"><ele>231.0</ele><time>2026-04-11T08:12:13.999Z</time></trkpt><trkpt lat="45.600253690293115" lon="8.604312002559414"><ele>231.0</ele><time>2026-04-11T08:12:14.999Z</time></trkpt><trkpt lat="45.60033055342037" lon="8.604368438300423"><ele>231.0</ele><time>2026-04-11T08:12:15.999Z</time></trkpt><trkpt lat="45.60040137621392" lon="8.604429105469462"><ele>231.0</ele><time>2026-04-11T08:12:16.999Z</time></trkpt><trkpt lat="45.60047247214544" lon="8.604512422174302"><ele>231.0</ele><time>2026-04-11T08:12:17.999Z</time></trkpt><trkpt lat="45.60054131977478" lon="8.604605306412767"><ele>231.0</ele><time>2026-04-11T08:12:18.999Z</time></trkpt><trkpt lat="45.600617638019855" lon="8.604713818217201"><ele>231.0</ele><time>2026-04-11T08:12:19.999Z</time></trkpt><trkpt lat="45.6006900606706" lon="8.604819627033459"><ele>231.00000000000003</ele><time>2026-04-11T08:12:20.999Z</time></trkpt><trkpt lat="45.600762468713334" lon="8.604925564688944"><ele>231.00000000000003</ele><time>2026-04-11T08:12:21.999Z</time></trkpt><trkpt lat="45.60084012315269" lon="8.605013677626781"><ele>231.0</ele><time>2026-04-11T08:12:22.999Z</time></trkpt><trkpt lat="45.60092804560447" lon="8.60506531403737"><ele>231.0</ele><time>2026-04-11T08:12:23.999Z</time></trkpt><trkpt lat="45.601031784738154" lon="8.605090736214674"><ele>231.0</ele><time>2026-04-11T08:12:24.999Z</time></trkpt><trkpt lat="45.60113573850478" lon="8.60510790175157"><ele>231.00000000000003</ele><time>2026-04-11T08:12:25.999Z</time></trkpt><trkpt lat="45.60124398166221" lon="8.60514700489283"><ele>231.00000000000003</ele><time>2026-04-11T08:12:26.999Z</time></trkpt><trkpt lat="45.60134635904965" lon="8.605215589228495"><ele>231.0</ele><time>2026-04-11T08:12:27.999Z</time></trkpt><trkpt lat="45.601449800795" lon="8.605292786035928"><ele>231.0</ele><time>2026-04-11T08:12:28.999Z</time></trkpt><trkpt lat="45.60152036753356" lon="8.605342733194854"><ele>231.4</ele><time>2026-04-11T08:12:29.999Z</time></trkpt><trkpt lat="45.60156066616596" lon="8.605412894687024"><ele>231.8</ele><time>2026-04-11T08:12:30.999Z</time></trkpt><trkpt lat="45.60157024381098" lon="8.60550224253481"><ele>232.20000000000002</ele><time>2026-04-11T08:12:31.999Z</time></trkpt><trkpt lat="45.60155715883648" lon="8.605622673902966"><ele>232.60000000000002</ele><time>2026-04-11T08:12:32.999Z</time></trkpt><trkpt lat="45.60152155504756" lon="8.605792403706278"><ele>233.0</ele><time>2026-04-11T08:12:33.999Z</time></trkpt><trkpt lat="45.6014853123227" lon="8.605968753895791"><ele>233.5</ele><time>2026-04-11T08:12:34.999Z</time></trkpt><trkpt lat="45.60145852128289" lon="8.606162392363455"><ele>234.0</ele><time>2026-04-11T08:12:35.999Z</time></trkpt><trkpt lat="45.60143304496492" lon="8.60636089174425"><ele>234.5</ele><time>2026-04-11T08:12:36.999Z</time></trkpt><trkpt lat="45.60140427893009" lon="8.60654842595922"><ele>235.0</ele><time>2026-04-11T08:12:37.999Z</time></trkpt><trkpt lat="45.60137439607418" lon="8.606733420910498"><ele>235.0</ele><time>2026-04-11T08:12:38.999Z</time></trkpt><trkpt lat="45.60134782608869" lon="8.60692698794234"><ele>235.0</ele><time>2026-04-11T08:12:39.998Z</time></trkpt><trkpt lat="45.601319670347706" lon="8.60712349753828"><ele>235.0</ele><time>2026-04-11T08:12:40.998Z</time></trkpt><trkpt lat="45.601290845760914" lon="8.60731807225211"><ele>235.0</ele><time>2026-04-11T08:12:41.998Z</time></trkpt><trkpt lat="45.6012592491983" lon="8.607515826919105"><ele>235.0</ele><time>2026-04-11T08:12:42.998Z</time></trkpt><trkpt lat="45.601230281080475" lon="8.607724229940091"><ele>235.0</ele><time>2026-04-11T08:12:43.998Z</time></trkpt><trkpt lat="45.601205862577814" lon="8.607884529935527"><ele>235.0</ele><time>2026-04-11T08:12:44.998Z</time></trkpt><trkpt lat="45.60118550235029" lon="8.60802663577108"><ele>235.0</ele><time>2026-04-11T08:12:45.998Z</time></trkpt><trkpt lat="45.60117024651006" lon="8.60813530062997"><ele>235.0</ele><time>2026-04-11T08:12:46.998Z</time></trkpt><trkpt lat="45.601135417052745" lon="8.608274064372312"><ele>234.99999999999997</ele><time>2026-04-11T08:12:48.998Z</time></trkpt><trkpt lat="45.60107958699454" lon="8.608337148826728"><ele>235.0</ele><time>2026-04-11T08:12:50.998Z</time></trkpt><trkpt lat="45.60100828172364" lon="8.608384736642455"><ele>235.0</ele><time>2026-04-11T08:12:53.998Z</time></trkpt><trkpt lat="45.600948188468436" lon="8.608427386728025"><ele>235.0</ele><time>2026-04-11T08:12:55.998Z</time></trkpt><trkpt lat="45.600890475418" lon="8.60850820549497"><ele>234.99999999999997</ele><time>2026-04-11T08:12:57.998Z</time></trkpt><trkpt lat="45.60084973776225" lon="8.608622014005933"><ele>235.0</ele><time>2026-04-11T08:12:59.998Z</time></trkpt><trkpt lat="45.60083493886189" lon="8.608750319463894"><ele>235.0</ele><time>2026-04-11T08:13:01.998Z</time></trkpt><trkpt lat="45.60081907925954" lon="8.608900072252897"><ele>235.0</ele><time>2026-04-11T08:13:03.998Z</time></trkpt><trkpt lat="45.60080261899959" lon="8.609085999660557"><ele>235.0</ele><time>2026-04-11T08:13:05.998Z</time></trkpt><trkpt lat="45.60079564952958" lon="8.609204317977673"><ele>235.0</ele><time>2026-04-11T08:13:06.998Z</time></trkpt><trkpt lat="45.600785734689495" lon="8.60931579162694"><ele>235.0</ele><time>2026-04-11T08:13:07.998Z</time></trkpt><trkpt lat="45.600777548797105" lon="8.609416385452537"><ele>234.83333333333331</ele><time>2026-04-11T08:13:08.998Z</time></trkpt><trkpt lat="45.600769463019226" lon="8.609522789601762"><ele>234.66666666666666</ele><time>2026-04-11T08:13:09.998Z</time></trkpt><trkpt lat="45.60076354284831" lon="8.609636634478035"><ele>234.5</ele><time>2026-04-11T08:13:10.998Z</time></trkpt><trkpt lat="45.60075535127795" lon="8.609763681488728"><ele>234.33333333333331</ele><time>2026-04-11T08:13:11.998Z</time></trkpt><trkpt lat="45.60074647340049" lon="8.609899795181587"><ele>234.16666666666666</ele><time>2026-04-11T08:13:12.998Z</time></trkpt><trkpt lat="45.60073332974566" lon="8.610038113938678"><ele>234.0</ele><time>2026-04-11T08:13:13.998Z</time></trkpt><trkpt lat="45.60069988628271" lon="8.610176460184658"><ele>234.0</ele><time>2026-04-11T08:13:14.998Z</time></trkpt><trkpt lat="45.600651246057346" lon="8.610309744260077"><ele>233.99999999999997</ele><time>2026-04-11T08:13:15.998Z</time></trkpt><trkpt lat="45.60057690001458" lon="8.610420311116448"><ele>233.99999999999997</ele><time>2026-04-11T08:13:16.998Z</time></trkpt><trkpt lat="45.6005123197049" lon="8.610536894058502"><ele>234.0</ele><time>2026-04-11T08:13:17.998Z</time></trkpt><trkpt lat="45.60046839530577" lon="8.61067124751404"><ele>234.0</ele><time>2026-04-11T08:13:18.998Z</time></trkpt><trkpt lat="45.60044013629607" lon="8.61079779029666"><ele>233.83333333333334</ele><time>2026-04-11T08:13:19.998Z</time></trkpt><trkpt lat="45.60041642944172" lon="8.610914211995134"><ele>233.66666666666669</ele><time>2026-04-11T08:13:20.998Z</time></trkpt><trkpt lat="45.60039380723109" lon="8.611026411385307"><ele>233.5</ele><time>2026-04-11T08:13:21.998Z</time></trkpt><trkpt lat="45.60037288042206" lon="8.611130145937317"><ele>233.33333333333334</ele><time>2026-04-11T08:13:22.998Z</time></trkpt><trkpt lat="45.60035393582735" lon="8.611226070651615"><ele>233.16666666666669</ele><time>2026-04-11T08:13:23.998Z</time></trkpt><trkpt lat="45.60033908894329" lon="8.611350332936793"><ele>233.0</ele><time>2026-04-11T08:13:25.997Z</time></trkpt><trkpt lat="45.6005498834027" lon="8.61139771040148"><ele>233.0</ele><time>2026-04-11T08:13:27.997Z</time></trkpt><trkpt lat="45.60063808845301" lon="8.611375298069987"><ele>233.0</ele><time>2026-04-11T08:13:28.997Z</time></trkpt><trkpt lat="45.600736871023145" lon="8.611377405589675"><ele>233.0</ele><time>2026-04-11T08:13:29.997Z</time></trkpt><trkpt lat="45.600844599370916" lon="8.611375943321184"><ele>233.0</ele><time>2026-04-11T08:13:30.997Z</time></trkpt><trkpt lat="45.60095659451217" lon="8.611393743773013"><ele>233.0</ele><time>2026-04-11T08:13:31.997Z</time></trkpt><trkpt lat="45.60107316432318" lon="8.611359535030385"><ele>233.75</ele><time>2026-04-11T08:13:32.997Z</time></trkpt><trkpt lat="45.60119501613384" lon="8.611345552623973"><ele>234.5</ele><time>2026-04-11T08:13:33.997Z</time></trkpt><trkpt lat="45.60132028520578" lon="8.611345124517728"><ele>235.25</ele><time>2026-04-11T08:13:35Z</time></trkpt><trkpt lat="45.60144281329992" lon="8.61129240171788"><ele>236.0</ele><time>2026-04-11T08:13:36Z</time></trkpt><trkpt lat="45.601565013981" lon="8.611258387963078"><ele>236.0</ele><time>2026-04-11T08:13:37Z</time></trkpt><trkpt lat="45.601678940322394" lon="8.611206449147925"><ele>236.0</ele><time>2026-04-11T08:13:38Z</time></trkpt><trkpt lat="45.60178867906465" lon="8.61113665599473"><ele>236.0</ele><time>2026-04-11T08:13:39Z</time></trkpt><trkpt lat="45.60189311381268" lon="8.611071743026528"><ele>236.0</ele><time>2026-04-11T08:13:40Z</time></trkpt><trkpt lat="45.6019956893656" lon="8.611011262552646"><ele>237.0</ele><time>2026-04-11T08:13:41Z</time></trkpt><trkpt lat="45.60210842390437" lon="8.610954827385683"><ele>238.0</ele><time>2026-04-11T08:13:42Z</time></trkpt><trkpt lat="45.60222649737879" lon="8.6109063591411"><ele>239.0</ele><time>2026-04-11T08:13:43Z</time></trkpt><trkpt lat="45.60234906961794" lon="8.61086813568087"><ele>240.0</ele><time>2026-04-11T08:13:44Z</time></trkpt><trkpt lat="45.602473656763934" lon="8.610845233875116"><ele>240.0</ele><time>2026-04-11T08:13:45Z</time></trkpt><trkpt lat="45.602600538977875" lon="8.610837084935904"><ele>240.0</ele><time>2026-04-11T08:13:46Z</time></trkpt><trkpt lat="45.60272663476748" lon="8.610835135513705"><ele>240.0</ele><time>2026-04-11T08:13:47Z</time></trkpt><trkpt lat="45.602851216983666" lon="8.610826902517664"><ele>240.0</ele><time>2026-04-11T08:13:48Z</time></trkpt><trkpt lat="45.60298326500894" lon="8.610815851126999"><ele>239.0</ele><time>2026-04-11T08:13:49Z</time></trkpt><trkpt lat="45.60311217103645" lon="8.610805996625196"><ele>238.0</ele><time>2026-04-11T08:13:50Z</time></trkpt><trkpt lat="45.603242098281214" lon="8.61079721118263"><ele>237.0</ele><time>2026-04-11T08:13:51Z</time></trkpt><trkpt lat="45.603373416791655" lon="8.610786623544609"><ele>236.0</ele><time>2026-04-11T08:13:52Z</time></trkpt><trkpt lat="45.60350561645251" lon="8.610774797096699"><ele>236.0</ele><time>2026-04-11T08:13:53Z</time></trkpt><trkpt lat="45.60362729954734" lon="8.610764064821065"><ele>236.00000000000003</ele><time>2026-04-11T08:13:54Z</time></trkpt><trkpt lat="45.60373673738024" lon="8.610780118204518"><ele>236.00000000000003</ele><time>2026-04-11T08:13:55Z</time></trkpt><trkpt lat="45.60383137139924" lon="8.610753338581059"><ele>236.0</ele><time>2026-04-11T08:13:56Z</time></trkpt><trkpt lat="45.60391487091769" lon="8.610754850488988"><ele>236.0</ele><time>2026-04-11T08:13:57Z</time></trkpt><trkpt lat="45.60398223498396" lon="8.610748241886505"><ele>236.0</ele><time>2026-04-11T08:13:58Z</time></trkpt><trkpt lat="45.60405327275963" lon="8.610779019732085"><ele>236.00000000000003</ele><time>2026-04-11T08:14:00Z</time></trkpt><trkpt lat="45.604113531651976" lon="8.610566669865609"><ele>236.00000000000003</ele><time>2026-04-11T08:14:01Z</time></trkpt><trkpt lat="45.6041456839326" lon="8.61043159942924"><ele>236.0</ele><time>2026-04-11T08:14:02Z</time></trkpt><trkpt lat="45.60417831289646" lon="8.610295738979762"><ele>236.0</ele><time>2026-04-11T08:14:03Z</time></trkpt><trkpt lat="45.60421662629481" lon="8.610135897934418"><ele>236.0</ele><time>2026-04-11T08:14:04Z</time></trkpt><trkpt lat="45.604257364327744" lon="8.609964842588521"><ele>236.0</ele><time>2026-04-11T08:14:05Z</time></trkpt><trkpt lat="45.60429882659977" lon="8.609790746055737"><ele>236.0</ele><time>2026-04-11T08:14:06Z</time></trkpt><trkpt lat="45.60434181818878" lon="8.609610599564299"><ele>236.0</ele><time>2026-04-11T08:14:07Z</time></trkpt><trkpt lat="45.60438718082526" lon="8.609420526264069"><ele>236.25</ele><time>2026-04-11T08:14:08Z</time></trkpt><trkpt lat="45.60441892002572" lon="8.609225850734772"><ele>236.5</ele><time>2026-04-11T08:14:08.999Z</time></trkpt><trkpt lat="45.604460637156464" lon="8.609049461444748"><ele>236.75</ele><time>2026-04-11T08:14:09.999Z</time></trkpt><trkpt lat="45.60451855922527" lon="8.608870732338962"><ele>237.0</ele><time>2026-04-11T08:14:10.999Z</time></trkpt><trkpt lat="45.6045619377526" lon="8.60869082904098"><ele>236.5</ele><time>2026-04-11T08:14:11.999Z</time></trkpt><trkpt lat="45.604604846728805" lon="8.608513026624827"><ele>236.0</ele><time>2026-04-11T08:14:12.999Z</time></trkpt><trkpt lat="45.60464822911154" lon="8.608329827740901"><ele>235.5</ele><time>2026-04-11T08:14:13.999Z</time></trkpt><trkpt lat="45.60469132120669" lon="8.608147715274525"><ele>235.0</ele><time>2026-04-11T08:14:14.999Z</time></trkpt><trkpt lat="45.6047359521568" lon="8.607959036649072"><ele>234.25</ele><time>2026-04-11T08:14:15.999Z</time></trkpt><trkpt lat="45.604781213131844" lon="8.607770510490258"><ele>233.5</ele><time>2026-04-11T08:14:16.999Z</time></trkpt><trkpt lat="45.60482347207644" lon="8.607591483502215"><ele>232.75</ele><time>2026-04-11T08:14:17.999Z</time></trkpt><trkpt lat="45.60486451250622" lon="8.607419124771843"><ele>232.0</ele><time>2026-04-11T08:14:18.999Z</time></trkpt><trkpt lat="45.60489073104455" lon="8.607245619326193"><ele>232.0</ele><time>2026-04-11T08:14:19.999Z</time></trkpt><trkpt lat="45.60493037686564" lon="8.607080156287864"><ele>232.0</ele><time>2026-04-11T08:14:20.999Z</time></trkpt><trkpt lat="45.60498271955278" lon="8.60692233137948"><ele>232.0</ele><time>2026-04-11T08:14:21.999Z</time></trkpt><trkpt lat="45.605021693876644" lon="8.60675852335923"><ele>232.0</ele><time>2026-04-11T08:14:22.999Z</time></trkpt><trkpt lat="45.605045252699945" lon="8.606586893963579"><ele>232.0</ele><time>2026-04-11T08:14:23.999Z</time></trkpt><trkpt lat="45.605085566984954" lon="8.60642304092612"><ele>232.0</ele><time>2026-04-11T08:14:24.999Z</time></trkpt><trkpt lat="45.60513871585082" lon="8.60626611100708"><ele>232.0</ele><time>2026-04-11T08:14:25.999Z</time></trkpt><trkpt lat="45.60517725629033" lon="8.606103395099916"><ele>232.0</ele><time>2026-04-11T08:14:26.999Z</time></trkpt><trkpt lat="45.605214539043466" lon="8.605945989135412"><ele>231.75</ele><time>2026-04-11T08:14:27.999Z</time></trkpt><trkpt lat="45.60525125082602" lon="8.605790988553313"><ele>231.5</ele><time>2026-04-11T08:14:28.999Z</time></trkpt><trkpt lat="45.605288062002856" lon="8.605636070387323"><ele>231.25</ele><time>2026-04-11T08:14:29.999Z</time></trkpt><trkpt lat="45.605326498795854" lon="8.605474132438706"><ele>231.0</ele><time>2026-04-11T08:14:30.999Z</time></trkpt><trkpt lat="45.60536589428311" lon="8.60530818976289"><ele>230.5</ele><time>2026-04-11T08:14:31.999Z</time></trkpt><trkpt lat="45.605408677012676" lon="8.60512816136898"><ele>230.0</ele><time>2026-04-11T08:14:32.999Z</time></trkpt><trkpt lat="45.605452250157875" lon="8.604944806676189"><ele>229.5</ele><time>2026-04-11T08:14:33.999Z</time></trkpt><trkpt lat="45.60549649716332" lon="8.604758984861084"><ele>229.0</ele><time>2026-04-11T08:14:34.999Z</time></trkpt><trkpt lat="45.605546441323966" lon="8.60455026519107"><ele>229.33333333333331</ele><time>2026-04-11T08:14:35.999Z</time></trkpt><trkpt lat="45.60560040975771" lon="8.604323265548622"><ele>229.66666666666669</ele><time>2026-04-11T08:14:36.999Z</time></trkpt><trkpt lat="45.60565567567928" lon="8.604090154065878"><ele>230.0</ele><time>2026-04-11T08:14:37.999Z</time></trkpt><trkpt lat="45.60571377591211" lon="8.603847695466643"><ele>231.0</ele><time>2026-04-11T08:14:38.999Z</time></trkpt><trkpt lat="45.605774250428865" lon="8.603594006776804"><ele>232.0</ele><time>2026-04-11T08:14:39.999Z</time></trkpt><trkpt lat="45.60583650119891" lon="8.60333370102997"><ele>233.0</ele><time>2026-04-11T08:14:40.999Z</time></trkpt><trkpt lat="45.60590717233885" lon="8.603037558242962"><ele>232.5</ele><time>2026-04-11T08:14:41.999Z</time></trkpt><trkpt lat="45.60597918320971" lon="8.602734330301404"><ele>232.0</ele><time>2026-04-11T08:14:42.999Z</time></trkpt><trkpt lat="45.60605430889973" lon="8.602420470957872"><ele>232.0</ele><time>2026-04-11T08:14:43.999Z</time></trkpt><trkpt lat="45.60612468809833" lon="8.60212626287089"><ele>232.0</ele><time>2026-04-11T08:14:44.999Z</time></trkpt><trkpt lat="45.60619417129397" lon="8.601835543805537"><ele>232.0</ele><time>2026-04-11T08:14:45.999Z</time></trkpt><trkpt lat="45.60625585444734" lon="8.601577460600092"><ele>232.66666666666666</ele><time>2026-04-11T08:14:46.999Z</time></trkpt><trkpt lat="45.60632689363249" lon="8.6012802313492"><ele>233.33333333333331</ele><time>2026-04-11T08:14:47.999Z</time></trkpt><trkpt lat="45.606390797527354" lon="8.601006882643468"><ele>234.0</ele><time>2026-04-11T08:14:48.999Z</time></trkpt><trkpt lat="45.60644448028098" lon="8.600768264647781"><ele>234.0</ele><time>2026-04-11T08:14:49.999Z</time></trkpt><trkpt lat="45.60649302979879" lon="8.600554641159661"><ele>234.0</ele><time>2026-04-11T08:14:50.999Z</time></trkpt><trkpt lat="45.60654520351338" lon="8.600325592891126"><ele>234.0</ele><time>2026-04-11T08:14:51.999Z</time></trkpt><trkpt lat="45.606581984527615" lon="8.600094019999672"><ele>234.33333333333331</ele><time>2026-04-11T08:14:52.999Z</time></trkpt><trkpt lat="45.60663912282302" lon="8.599854961703992"><ele>234.66666666666666</ele><time>2026-04-11T08:14:53.999Z</time></trkpt><trkpt lat="45.60671420194684" lon="8.599605435415643"><ele>235.0</ele><time>2026-04-11T08:14:54.999Z</time></trkpt><trkpt lat="45.60677110273285" lon="8.599365335817515"><ele>235.33333333333331</ele><time>2026-04-11T08:14:55.999Z</time></trkpt><trkpt lat="45.60682900436876" lon="8.599118329268954"><ele>235.66666666666669</ele><time>2026-04-11T08:14:56.999Z</time></trkpt><trkpt lat="45.60688259949595" lon="8.59888703557799"><ele>236.0</ele><time>2026-04-11T08:14:57.998Z</time></trkpt><trkpt lat="45.606933869564955" lon="8.598674637377606"><ele>236.25</ele><time>2026-04-11T08:14:58.998Z</time></trkpt><trkpt lat="45.60698677981571" lon="8.598473015084064"><ele>236.5</ele><time>2026-04-11T08:14:59.998Z</time></trkpt><trkpt lat="45.60704958831825" lon="8.598283194601235"><ele>236.75</ele><time>2026-04-11T08:15:00.998Z</time></trkpt><trkpt lat="45.60710824462224" lon="8.598109170449586"><ele>237.0</ele><time>2026-04-11T08:15:01.998Z</time></trkpt><trkpt lat="45.60716142153903" lon="8.597935234396482"><ele>237.2</ele><time>2026-04-11T08:15:02.998Z</time></trkpt><trkpt lat="45.60719674826855" lon="8.597770034272722"><ele>237.39999999999998</ele><time>2026-04-11T08:15:03.998Z</time></trkpt><trkpt lat="45.60721511936632" lon="8.597613943912334"><ele>237.60000000000002</ele><time>2026-04-11T08:15:04.998Z</time></trkpt><trkpt lat="45.60722479757458" lon="8.597470066883995"><ele>237.8</ele><time>2026-04-11T08:15:05.998Z</time></trkpt><trkpt lat="45.607224999209166" lon="8.597335384719003"><ele>238.0</ele><time>2026-04-11T08:15:06.998Z</time></trkpt><trkpt lat="45.60721888725533" lon="8.59721296502554"><ele>237.99999999999997</ele><time>2026-04-11T08:15:07.998Z</time></trkpt><trkpt lat="45.60721220397798" lon="8.597093191050837"><ele>238.0</ele><time>2026-04-11T08:15:08.998Z</time></trkpt><trkpt lat="45.60720703397247" lon="8.596981443295402"><ele>238.0</ele><time>2026-04-11T08:15:09.998Z</time></trkpt><trkpt lat="45.6072086158672" lon="8.596889486885098"><ele>238.0</ele><time>2026-04-11T08:15:10.998Z</time></trkpt><trkpt lat="45.607228624848126" lon="8.596743930305852"><ele>237.99999999999997</ele><time>2026-04-11T08:15:12.998Z</time></trkpt><trkpt lat="45.60727747825733" lon="8.596679770992653"><ele>238.0</ele><time>2026-04-11T08:15:14.998Z</time></trkpt><trkpt lat="45.60730553603343" lon="8.59659921322114"><ele>237.83333333333331</ele><time>2026-04-11T08:15:16.998Z</time></trkpt><trkpt lat="45.60738250088964" lon="8.596658574662893"><ele>237.66666666666666</ele><time>2026-04-11T08:15:50Z</time></trkpt><trkpt lat="45.607499114910745" lon="8.596643745203105"><ele>237.5</ele><time>2026-04-11T08:15:52Z</time></trkpt><trkpt lat="45.60756456127481" lon="8.596634045871829"><ele>237.33333333333331</ele><time>2026-04-11T08:15:53Z</time></trkpt><trkpt lat="45.60762667852323" lon="8.596583449792247"><ele>237.16666666666666</ele><time>2026-04-11T08:15:54Z</time></trkpt><trkpt lat="45.60769560539864" lon="8.596559939071321"><ele>237.0</ele><time>2026-04-11T08:15:55Z</time></trkpt><trkpt lat="45.60776311160148" lon="8.596535717591852"><ele>238.33333333333334</ele><time>2026-04-11T08:15:56Z</time></trkpt><trkpt lat="45.607834824457704" lon="8.596508852292285"><ele>239.66666666666669</ele><time>2026-04-11T08:15:57Z</time></trkpt><trkpt lat="45.6079059947697" lon="8.596479653180289"><ele>241.0</ele><time>2026-04-11T08:15:58Z</time></trkpt><trkpt lat="45.60797810402445" lon="8.596450707150712"><ele>242.33333333333334</ele><time>2026-04-11T08:15:59Z</time></trkpt><trkpt lat="45.60805035006567" lon="8.596425858639293"><ele>243.66666666666669</ele><time>2026-04-11T08:16:00Z</time></trkpt><trkpt lat="45.608129632922974" lon="8.596396018907466"><ele>245.0</ele><time>2026-04-11T08:16:01Z</time></trkpt><trkpt lat="45.608213597723484" lon="8.596367084938679"><ele>245.00000000000003</ele><time>2026-04-11T08:16:02Z</time></trkpt><trkpt lat="45.608297663588196" lon="8.596338198835022"><ele>245.0</ele><time>2026-04-11T08:16:03Z</time></trkpt><trkpt lat="45.60837585374987" lon="8.596316623299227"><ele>245.0</ele><time>2026-04-11T08:16:04Z</time></trkpt><trkpt lat="45.608443016814164" lon="8.596293252469085"><ele>245.0</ele><time>2026-04-11T08:16:05Z</time></trkpt><trkpt lat="45.608525054257775" lon="8.59626776809504"><ele>245.00000000000003</ele><time>2026-04-11T08:16:06Z</time></trkpt><trkpt lat="45.60859823895833" lon="8.596240840347741"><ele>245.0</ele><time>2026-04-11T08:16:07Z</time></trkpt><trkpt lat="45.60867468529309" lon="8.596216702033683"><ele>246.33333333333334</ele><time>2026-04-11T08:16:08Z</time></trkpt><trkpt lat="45.60874520251778" lon="8.596199170744793"><ele>247.66666666666669</ele><time>2026-04-11T08:16:09Z</time></trkpt><trkpt lat="45.60881727590691" lon="8.596176407782897"><ele>249.0</ele><time>2026-04-11T08:16:10Z</time></trkpt><trkpt lat="45.60888818870346" lon="8.596148815526576"><ele>250.33333333333331</ele><time>2026-04-11T08:16:11Z</time></trkpt><trkpt lat="45.60898132796563" lon="8.596120087660587"><ele>251.66666666666666</ele><time>2026-04-11T08:16:12Z</time></trkpt><trkpt lat="45.60906825681884" lon="8.596089822149622"><ele>253.0</ele><time>2026-04-11T08:16:12.999Z</time></trkpt><trkpt lat="45.60917402742266" lon="8.596051982736874"><ele>254.25</ele><time>2026-04-11T08:16:13.999Z</time></trkpt><trkpt lat="45.60929476622222" lon="8.596006626887041"><ele>255.5</ele><time>2026-04-11T08:16:14.999Z</time></trkpt><trkpt lat="45.60942364144811" lon="8.595967818072221"><ele>256.75</ele><time>2026-04-11T08:16:15.999Z</time></trkpt><trkpt lat="45.609542200692616" lon="8.595928842138882"><ele>258.0</ele><time>2026-04-11T08:16:16.999Z</time></trkpt><trkpt lat="45.60965790273734" lon="8.59589203246939"><ele>259.2</ele><time>2026-04-11T08:16:17.999Z</time></trkpt><trkpt lat="45.609774963451294" lon="8.595852812558402"><ele>260.4</ele><time>2026-04-11T08:16:18.999Z</time></trkpt><trkpt lat="45.60989503359357" lon="8.595811254155207"><ele>261.59999999999997</ele><time>2026-04-11T08:16:19.999Z</time></trkpt><trkpt lat="45.60999228577798" lon="8.595777648712838"><ele>262.8</ele><time>2026-04-11T08:16:20.999Z</time></trkpt><trkpt lat="45.6100698049829" lon="8.595749301607437"><ele>264.0</ele><time>2026-04-11T08:16:21.999Z</time></trkpt><trkpt lat="45.61014404556098" lon="8.595722909458315"><ele>264.0</ele><time>2026-04-11T08:16:22.999Z</time></trkpt><trkpt lat="45.61022511600607" lon="8.595690213719184"><ele>264.0</ele><time>2026-04-11T08:16:23.999Z</time></trkpt><trkpt lat="45.61030242696169" lon="8.59567106719217"><ele>264.0</ele><time>2026-04-11T08:16:24.999Z</time></trkpt><trkpt lat="45.610354075456684" lon="8.596069599886007"><ele>264.0</ele><time>2026-04-11T08:16:28.999Z</time></trkpt><trkpt lat="45.610386812633564" lon="8.596212558018726"><ele>263.2</ele><time>2026-04-11T08:16:29.999Z</time></trkpt><trkpt lat="45.61042199743975" lon="8.596363350669222"><ele>262.4</ele><time>2026-04-11T08:16:30.999Z</time></trkpt><trkpt lat="45.61045946182669" lon="8.59650817904209"><ele>261.6</ele><time>2026-04-11T08:16:31.999Z</time></trkpt><trkpt lat="45.61049226617579" lon="8.5966520175985"><ele>260.8</ele><time>2026-04-11T08:16:32.999Z</time></trkpt><trkpt lat="45.6105163141329" lon="8.596774945103991"><ele>260.0</ele><time>2026-04-11T08:16:33.999Z</time></trkpt><trkpt lat="45.61053580169121" lon="8.596870669923526"><ele>260.0</ele><time>2026-04-11T08:16:34.999Z</time></trkpt><trkpt lat="45.61056023550723" lon="8.596976293516596"><ele>260.0</ele><time>2026-04-11T08:16:35.999Z</time></trkpt><trkpt lat="45.61058169829207" lon="8.597117741620476"><ele>260.0</ele><time>2026-04-11T08:16:37.999Z</time></trkpt><trkpt lat="45.61060687506424" lon="8.597226511983015"><ele>260.0</ele><time>2026-04-11T08:16:39.999Z</time></trkpt><trkpt lat="45.610630045255334" lon="8.597315595524863"><ele>260.0</ele><time>2026-04-11T08:16:41.999Z</time></trkpt><trkpt lat="45.610664782597624" lon="8.597429650767872"><ele>260.0</ele><time>2026-04-11T08:16:59.999Z</time></trkpt><trkpt lat="45.610658343490265" lon="8.597521621288605"><ele>260.0</ele><time>2026-04-11T08:17:03.998Z</time></trkpt><trkpt lat="45.61065531790892" lon="8.597425016834116"><ele>260.0</ele><time>2026-04-11T08:17:25.998Z</time></trkpt><trkpt lat="45.610616243682465" lon="8.597275352182095"><ele>260.0</ele><time>2026-04-11T08:17:26.998Z</time></trkpt><trkpt lat="45.6105825573855" lon="8.597107816504572"><ele>260.0</ele><time>2026-04-11T08:17:27.998Z</time></trkpt><trkpt lat="45.61054536806527" lon="8.596937511576645"><ele>260.0</ele><time>2026-04-11T08:17:28.998Z</time></trkpt><trkpt lat="45.61051446602687" lon="8.596768626500898"><ele>260.0</ele><time>2026-04-11T08:17:29.998Z</time></trkpt><trkpt lat="45.61047802203198" lon="8.59658845803007"><ele>260.0</ele><time>2026-04-11T08:17:30.998Z</time></trkpt><trkpt lat="45.610439933194634" lon="8.596408791581009"><ele>260.0</ele><time>2026-04-11T08:17:31.998Z</time></trkpt><trkpt lat="45.61040741571342" lon="8.596220773137018"><ele>260.0</ele><time>2026-04-11T08:17:32.998Z</time></trkpt><trkpt lat="45.610383770181365" lon="8.596036617957006"><ele>260.6666666666667</ele><time>2026-04-11T08:17:33.998Z</time></trkpt><trkpt lat="45.61034693805811" lon="8.595913407330974"><ele>261.33333333333337</ele><time>2026-04-11T08:17:34.998Z</time></trkpt><trkpt lat="45.61032127939222" lon="8.595806267492046"><ele>262.0</ele><time>2026-04-11T08:17:35.998Z</time></trkpt><trkpt lat="45.61030068645898" lon="8.595710957848375"><ele>262.6666666666667</ele><time>2026-04-11T08:17:36.998Z</time></trkpt><trkpt lat="45.610227923674785" lon="8.595695221586782"><ele>263.3333333333333</ele><time>2026-04-11T08:17:45.998Z</time></trkpt><trkpt lat="45.6101078432798" lon="8.59570699772607"><ele>264.0</ele><time>2026-04-11T08:17:48Z</time></trkpt><trkpt lat="45.610036924067536" lon="8.595746518279114"><ele>264.0</ele><time>2026-04-11T08:17:49Z</time></trkpt><trkpt lat="45.60995467522145" lon="8.595775711927429"><ele>264.0</ele><time>2026-04-11T08:17:50Z</time></trkpt><trkpt lat="45.609879539060884" lon="8.595799403410203"><ele>264.0</ele><time>2026-04-11T08:17:51Z</time></trkpt><trkpt lat="45.6098058456488" lon="8.595818810450272"><ele>264.0</ele><time>2026-04-11T08:17:52Z</time></trkpt><trkpt lat="45.60973660784423" lon="8.595840976941574"><ele>264.0</ele><time>2026-04-11T08:17:53Z</time></trkpt><trkpt lat="45.60961874730582" lon="8.595879023663883"><ele>264.0</ele><time>2026-04-11T08:17:55Z</time></trkpt><trkpt lat="45.60952289653637" lon="8.595910682329054"><ele>263.0</ele><time>2026-04-11T08:17:57Z</time></trkpt><trkpt lat="45.609451459180214" lon="8.595918772010307"><ele>262.0</ele><time>2026-04-11T08:18:00Z</time></trkpt><trkpt lat="45.609380144223564" lon="8.595941196081649"><ele>261.0</ele><time>2026-04-11T08:18:02Z</time></trkpt><trkpt lat="45.60929737347647" lon="8.595985435929908"><ele>260.0</ele><time>2026-04-11T08:18:04Z</time></trkpt><trkpt lat="45.609210931720845" lon="8.595999003947368"><ele>259.0</ele><time>2026-04-11T08:18:06Z</time></trkpt><trkpt lat="45.60912751683157" lon="8.59602856326256"><ele>258.0</ele><time>2026-04-11T08:18:08Z</time></trkpt><trkpt lat="45.60906001524532" lon="8.596065928068928"><ele>257.0</ele><time>2026-04-11T08:18:13Z</time></trkpt><trkpt lat="45.60909887983943" lon="8.596242687786702"><ele>256.0</ele><time>2026-04-11T08:18:14Z</time></trkpt><trkpt lat="45.609159486991835" lon="8.596375716701386"><ele>255.0</ele><time>2026-04-11T08:18:16Z</time></trkpt><trkpt lat="45.60923305044374" lon="8.59643263852811"><ele>254.0</ele><time>2026-04-11T08:18:18.999Z</time></trkpt><trkpt lat="45.60930229829938" lon="8.596489037453109"><ele>253.0</ele><time>2026-04-11T08:18:22.999Z</time></trkpt><trkpt lat="45.60926525578239" lon="8.596594529764653"><ele>252.99999999999997</ele><time>2026-04-11T08:18:24.999Z</time></trkpt><trkpt lat="45.6091803851655" lon="8.596655834922897"><ele>253.0</ele><time>2026-04-11T08:18:26.999Z</time></trkpt><trkpt lat="45.60910771025128" lon="8.59670910759441"><ele>253.0</ele><time>2026-04-11T08:18:28.999Z</time></trkpt><trkpt lat="45.6090116891935" lon="8.596769439591716"><ele>253.0</ele><time>2026-04-11T08:18:30.999Z</time></trkpt><trkpt lat="45.60894954964192" lon="8.596801879066271"><ele>252.99999999999997</ele><time>2026-04-11T08:18:31.999Z</time></trkpt><trkpt lat="45.608876084954694" lon="8.596824252068561"><ele>253.0</ele><time>2026-04-11T08:18:32.999Z</time></trkpt><trkpt lat="45.60879927494293" lon="8.596853652697138"><ele>252.99999999999997</ele><time>2026-04-11T08:18:33.999Z</time></trkpt><trkpt lat="45.60871744248837" lon="8.596887767532973"><ele>253.0</ele><time>2026-04-11T08:18:34.999Z</time></trkpt><trkpt lat="45.60863488265208" lon="8.596918492238357"><ele>253.0</ele><time>2026-04-11T08:18:35.999Z</time></trkpt><trkpt lat="45.608559168024925" lon="8.596947773899123"><ele>253.0</ele><time>2026-04-11T08:18:36.999Z</time></trkpt><trkpt lat="45.6084840774836" lon="8.596979106357926"><ele>252.99999999999997</ele><time>2026-04-11T08:18:37.999Z</time></trkpt><trkpt lat="45.6084073944453" lon="8.597026290748957"><ele>253.0</ele><time>2026-04-11T08:18:39.999Z</time></trkpt><trkpt lat="45.60841529324735" lon="8.597128286496076"><ele>252.14285714285717</ele><time>2026-04-11T08:18:42.999Z</time></trkpt><trkpt lat="45.6084573199704" lon="8.597201689086283"><ele>251.28571428571428</ele><time>2026-04-11T08:18:43.999Z</time></trkpt><trkpt lat="45.608508714108794" lon="8.597288829177037"><ele>250.42857142857144</ele><time>2026-04-11T08:18:44.999Z</time></trkpt><trkpt lat="45.60855046185866" lon="8.597386751323375"><ele>249.57142857142858</ele><time>2026-04-11T08:18:45.999Z</time></trkpt><trkpt lat="45.60858436803162" lon="8.597483011972027"><ele>248.71428571428572</ele><time>2026-04-11T08:18:46.999Z</time></trkpt><trkpt lat="45.608620737824005" lon="8.597574554737738"><ele>247.85714285714286</ele><time>2026-04-11T08:18:47.999Z</time></trkpt><trkpt lat="45.608656378211165" lon="8.597654856188573"><ele>247.0</ele><time>2026-04-11T08:18:48.999Z</time></trkpt><trkpt lat="45.608701969605" lon="8.5977635892824"><ele>246.33333333333331</ele><time>2026-04-11T08:18:49.999Z</time></trkpt><trkpt lat="45.60874784158993" lon="8.59786377041888"><ele>245.66666666666666</ele><time>2026-04-11T08:18:50.999Z</time></trkpt><trkpt lat="45.60877970478616" lon="8.597944586607142"><ele>245.0</ele><time>2026-04-11T08:18:51.999Z</time></trkpt><trkpt lat="45.60882644172267" lon="8.598072422130887"><ele>244.33333333333331</ele><time>2026-04-11T08:18:53.999Z</time></trkpt><trkpt lat="45.608919746912015" lon="8.59807643938411"><ele>243.66666666666666</ele><time>2026-04-11T08:18:56.999Z</time></trkpt><trkpt lat="45.60897292875021" lon="8.598025867077876"><ele>243.0</ele><time>2026-04-11T08:18:57.999Z</time></trkpt><trkpt lat="45.60904182886426" lon="8.597975978868789"><ele>243.0</ele><time>2026-04-11T08:18:58.999Z</time></trkpt><trkpt lat="45.60911758925193" lon="8.597941619051316"><ele>243.0</ele><time>2026-04-11T08:18:59.999Z</time></trkpt><trkpt lat="45.60919858619509" lon="8.597896751103558"><ele>243.0</ele><time>2026-04-11T08:19:00.999Z</time></trkpt><trkpt lat="45.6092733649875" lon="8.59785639154953"><ele>243.0</ele><time>2026-04-11T08:19:01.999Z</time></trkpt><trkpt lat="45.609360716054354" lon="8.597809322154774"><ele>243.0</ele><time>2026-04-11T08:19:02.999Z</time></trkpt><trkpt lat="45.60944930474957" lon="8.5977646330136"><ele>243.0</ele><time>2026-04-11T08:19:03.999Z</time></trkpt><trkpt lat="45.609523124988016" lon="8.597729802140716"><ele>244.14285714285714</ele><time>2026-04-11T08:19:04.999Z</time></trkpt><trkpt lat="45.60959112089663" lon="8.597698408056186"><ele>245.28571428571428</ele><time>2026-04-11T08:19:05.999Z</time></trkpt><trkpt lat="45.60965859385178" lon="8.597663113736692"><ele>246.42857142857142</ele><time>2026-04-11T08:19:06.999Z</time></trkpt><trkpt lat="45.6097268088438" lon="8.59762741700093"><ele>247.57142857142856</ele><time>2026-04-11T08:19:07.998Z</time></trkpt><trkpt lat="45.609795494773316" lon="8.597594437010658"><ele>248.71428571428572</ele><time>2026-04-11T08:19:08.998Z</time></trkpt><trkpt lat="45.60986239608862" lon="8.59755724349821"><ele>249.85714285714283</ele><time>2026-04-11T08:19:09.998Z</time></trkpt><trkpt lat="45.609931990881954" lon="8.597517827942678"><ele>250.99999999999997</ele><time>2026-04-11T08:19:10.998Z</time></trkpt><trkpt lat="45.609993480538314" lon="8.597486540198704"><ele>251.00000000000003</ele><time>2026-04-11T08:19:11.998Z</time></trkpt><trkpt lat="45.610074752893816" lon="8.597545779812641"><ele>251.0</ele><time>2026-04-11T08:19:13.998Z</time></trkpt><trkpt lat="45.61010998515953" lon="8.5976811676802"><ele>251.0</ele><time>2026-04-11T08:19:15.998Z</time></trkpt><trkpt lat="45.61009706766342" lon="8.597802586786731"><ele>251.0</ele><time>2026-04-11T08:19:17.998Z</time></trkpt><trkpt lat="45.61015833680555" lon="8.59782411306597"><ele>251.00000000000003</ele><time>2026-04-11T08:19:19.998Z</time></trkpt><trkpt lat="45.61022035401334" lon="8.59780138503227"><ele>251.0</ele><time>2026-04-11T08:19:20.998Z</time></trkpt><trkpt lat="45.61034892151517" lon="8.59772438259926"><ele>251.0</ele><time>2026-04-11T08:19:21.998Z</time></trkpt><trkpt lat="45.61046741945157" lon="8.597666298945121"><ele>251.00000000000003</ele><time>2026-04-11T08:19:22.998Z</time></trkpt><trkpt lat="45.61056179290231" lon="8.59763968661741"><ele>251.00000000000003</ele><time>2026-04-11T08:19:23.998Z</time></trkpt><trkpt lat="45.61065837746961" lon="8.597686603280124"><ele>251.0</ele><time>2026-04-11T08:19:25.998Z</time></trkpt><trkpt lat="45.610720381234714" lon="8.597774600455288"><ele>251.0</ele><time>2026-04-11T08:19:29.998Z</time></trkpt><trkpt lat="45.61074509941653" lon="8.597937164469323"><ele>251.0</ele><time>2026-04-11T08:19:32.998Z</time></trkpt><trkpt lat="45.610818992334174" lon="8.598051023412808"><ele>251.00000000000003</ele><time>2026-04-11T08:19:34.998Z</time></trkpt><trkpt lat="45.610842817836776" lon="8.598211806486443"><ele>251.00000000000003</ele><time>2026-04-11T08:19:36.998Z</time></trkpt><trkpt lat="45.61083684907131" lon="8.598320873200246"><ele>251.0</ele><time>2026-04-11T08:19:38.998Z</time></trkpt><trkpt lat="45.610852531227884" lon="8.598452244090794"><ele>251.0</ele><time>2026-04-11T08:19:41.998Z</time></trkpt><trkpt lat="45.61088102332209" lon="8.59855903309563"><ele>250.66666666666669</ele><time>2026-04-11T08:19:44.998Z</time></trkpt><trkpt lat="45.61086579596586" lon="8.598708658098456"><ele>250.33333333333334</ele><time>2026-04-11T08:19:46.998Z</time></trkpt><trkpt lat="45.610829332915635" lon="8.598838061482176"><ele>250.0</ele><time>2026-04-11T08:19:48.998Z</time></trkpt><trkpt lat="45.610798785032046" lon="8.59894913338485"><ele>249.66666666666669</ele><time>2026-04-11T08:19:50.998Z</time></trkpt><trkpt lat="45.610850214799164" lon="8.599051046974546"><ele>249.33333333333334</ele><time>2026-04-11T08:19:53Z</time></trkpt><trkpt lat="45.610909831074906" lon="8.599090934825215"><ele>249.0</ele><time>2026-04-11T08:19:56Z</time></trkpt><trkpt lat="45.61097833153424" lon="8.599081330844507"><ele>249.0</ele><time>2026-04-11T08:19:58Z</time></trkpt><trkpt lat="45.61103656114773" lon="8.599024818466702"><ele>249.0</ele><time>2026-04-11T08:20:00Z</time></trkpt><trkpt lat="45.6111453432527" lon="8.59897726030347"><ele>249.0</ele><time>2026-04-11T08:20:02Z</time></trkpt><trkpt lat="45.611216649643644" lon="8.598945698474758"><ele>249.0</ele><time>2026-04-11T08:20:03Z</time></trkpt><trkpt lat="45.61128233231241" lon="8.598933121381643"><ele>249.0</ele><time>2026-04-11T08:20:04Z</time></trkpt><trkpt lat="45.61134677897445" lon="8.598909828465475"><ele>249.0</ele><time>2026-04-11T08:20:05Z</time></trkpt><trkpt lat="45.611411481577164" lon="8.598879449913369"><ele>249.42857142857142</ele><time>2026-04-11T08:20:06Z</time></trkpt><trkpt lat="45.61147667061243" lon="8.598858594956086"><ele>249.85714285714283</ele><time>2026-04-11T08:20:07Z</time></trkpt><trkpt lat="45.611544587364854" lon="8.598830397088207"><ele>250.28571428571428</ele><time>2026-04-11T08:20:08Z</time></trkpt><trkpt lat="45.61161466088829" lon="8.598792660818491"><ele>250.71428571428572</ele><time>2026-04-11T08:20:09Z</time></trkpt><trkpt lat="45.61166601926016" lon="8.598737774233467"><ele>251.14285714285714</ele><time>2026-04-11T08:20:10Z</time></trkpt><trkpt lat="45.6117283154621" lon="8.598700035732023"><ele>251.57142857142856</ele><time>2026-04-11T08:20:11Z</time></trkpt><trkpt lat="45.611794976577904" lon="8.598673162978036"><ele>252.0</ele><time>2026-04-11T08:20:12Z</time></trkpt><trkpt lat="45.611918002942495" lon="8.598620726102123"><ele>252.0</ele><time>2026-04-11T08:20:14Z</time></trkpt><trkpt lat="45.61198341866915" lon="8.598589508351278"><ele>252.0</ele><time>2026-04-11T08:20:15Z</time></trkpt><trkpt lat="45.61204758270028" lon="8.5985572597786"><ele>252.0</ele><time>2026-04-11T08:20:16Z</time></trkpt><trkpt lat="45.612145295503176" lon="8.598528642394868"><ele>252.0</ele><time>2026-04-11T08:20:18Z</time></trkpt><trkpt lat="45.61220541448526" lon="8.598667167348715"><ele>252.0</ele><time>2026-04-11T08:20:19.999Z</time></trkpt><trkpt lat="45.6122400556677" lon="8.59879971330195"><ele>251.8</ele><time>2026-04-11T08:20:21.999Z</time></trkpt><trkpt lat="45.612383515190565" lon="8.598798544896468"><ele>251.6</ele><time>2026-04-11T08:20:23.999Z</time></trkpt><trkpt lat="45.61248800036942" lon="8.598802266290777"><ele>251.40000000000003</ele><time>2026-04-11T08:20:24.999Z</time></trkpt><trkpt lat="45.612556816601156" lon="8.598816638215336"><ele>251.20000000000002</ele><time>2026-04-11T08:20:27.999Z</time></trkpt><trkpt lat="45.6126639347118" lon="8.59884543874897"><ele>251.0</ele><time>2026-04-11T08:20:30.999Z</time></trkpt><trkpt lat="45.61272364467877" lon="8.59887530461421"><ele>251.0</ele><time>2026-04-11T08:20:44.999Z</time></trkpt><trkpt lat="45.61281244540527" lon="8.598867070129275"><ele>251.00000000000003</ele><time>2026-04-11T08:20:46.999Z</time></trkpt><trkpt lat="45.61287908671548" lon="8.598885882355122"><ele>251.00000000000003</ele><time>2026-04-11T08:20:47.999Z</time></trkpt><trkpt lat="45.61296914255334" lon="8.598894063730059"><ele>251.0</ele><time>2026-04-11T08:20:48.999Z</time></trkpt><trkpt lat="45.61307176401969" lon="8.598895790759768"><ele>251.0</ele><time>2026-04-11T08:20:49.999Z</time></trkpt><trkpt lat="45.61317968502338" lon="8.598890252436709"><ele>251.25</ele><time>2026-04-11T08:20:50.999Z</time></trkpt><trkpt lat="45.61329193980746" lon="8.5988637363731"><ele>251.5</ele><time>2026-04-11T08:20:51.999Z</time></trkpt><trkpt lat="45.61341751669619" lon="8.5988165606583"><ele>251.75</ele><time>2026-04-11T08:20:52.999Z</time></trkpt><trkpt lat="45.61353661025396" lon="8.598786663027855"><ele>252.0</ele><time>2026-04-11T08:20:53.999Z</time></trkpt><trkpt lat="45.613661721925105" lon="8.59876299184435"><ele>252.0</ele><time>2026-04-11T08:20:54.999Z</time></trkpt><trkpt lat="45.61377198350086" lon="8.59874450117088"><ele>252.0</ele><time>2026-04-11T08:20:55.999Z</time></trkpt><trkpt lat="45.61385949064225" lon="8.598725054625936"><ele>252.0</ele><time>2026-04-11T08:20:56.999Z</time></trkpt><trkpt lat="45.61394403380577" lon="8.598708627432025"><ele>252.0</ele><time>2026-04-11T08:20:57.999Z</time></trkpt><trkpt lat="45.61403577582227" lon="8.598689983962007"><ele>252.0</ele><time>2026-04-11T08:20:58.999Z</time></trkpt><trkpt lat="45.6141339492948" lon="8.598678404520626"><ele>252.0</ele><time>2026-04-11T08:20:59.999Z</time></trkpt><trkpt lat="45.61423248907817" lon="8.598673150239618"><ele>252.0</ele><time>2026-04-11T08:21:00.999Z</time></trkpt><trkpt lat="45.61433920140266" lon="8.598676270169694"><ele>252.0</ele><time>2026-04-11T08:21:01.999Z</time></trkpt><trkpt lat="45.6144490127235" lon="8.59867626056159"><ele>252.0</ele><time>2026-04-11T08:21:02.999Z</time></trkpt><trkpt lat="45.61455174319047" lon="8.59866412366885"><ele>252.0</ele><time>2026-04-11T08:21:03.999Z</time></trkpt><trkpt lat="45.61464976352455" lon="8.59862153490452"><ele>251.8</ele><time>2026-04-11T08:21:04.999Z</time></trkpt><trkpt lat="45.614749736298755" lon="8.598583521870387"><ele>251.6</ele><time>2026-04-11T08:21:05.999Z</time></trkpt><trkpt lat="45.614837065413475" lon="8.598549517242871"><ele>251.40000000000003</ele><time>2026-04-11T08:21:06.999Z</time></trkpt><trkpt lat="45.61490934334531" lon="8.598516904341658"><ele>251.20000000000002</ele><time>2026-04-11T08:21:07.999Z</time></trkpt><trkpt lat="45.61496476246989" lon="8.598465431387485"><ele>251.0</ele><time>2026-04-11T08:21:08.999Z</time></trkpt><trkpt lat="45.61505825098156" lon="8.598370360255705"><ele>251.0</ele><time>2026-04-11T08:21:10.999Z</time></trkpt><trkpt lat="45.61511227545306" lon="8.598481913917551"><ele>251.00000000000003</ele><time>2026-04-11T08:21:14.998Z</time></trkpt><trkpt lat="45.61523859616893" lon="8.598295198893545"><ele>251.00000000000003</ele><time>2026-04-11T08:21:20.998Z</time></trkpt><trkpt lat="45.615216419447" lon="8.5982049533257"><ele>251.0</ele><time>2026-04-11T08:21:22.998Z</time></trkpt><trkpt lat="45.61523822068263" lon="8.598095215185719"><ele>251.0</ele><time>2026-04-11T08:21:24.998Z</time></trkpt><trkpt lat="45.615193756982116" lon="8.597976758491658"><ele>251.0</ele><time>2026-04-11T08:21:26.998Z</time></trkpt><trkpt lat="45.61527064610046" lon="8.59786117873355"><ele>251.00000000000003</ele><time>2026-04-11T08:21:30.998Z</time></trkpt><trkpt lat="45.615331733393155" lon="8.597814567884514"><ele>251.00000000000003</ele><time>2026-04-11T08:21:31.998Z</time></trkpt><trkpt lat="45.615403931739245" lon="8.597723089015483"><ele>251.0</ele><time>2026-04-11T08:21:33.998Z</time></trkpt><trkpt lat="45.61539650508002" lon="8.597596489477743"><ele>251.0</ele><time>2026-04-11T08:21:35.998Z</time></trkpt><trkpt lat="45.615473362185874" lon="8.597529785949698"><ele>251.83333333333334</ele><time>2026-04-11T08:21:37.998Z</time></trkpt><trkpt lat="45.61552848327424" lon="8.597446575164767"><ele>252.66666666666669</ele><time>2026-04-11T08:21:39.998Z</time></trkpt><trkpt lat="45.61557160020119" lon="8.597365375973386"><ele>253.5</ele><time>2026-04-11T08:21:41.998Z</time></trkpt><trkpt lat="45.6156245371177" lon="8.597282052388273"><ele>254.33333333333331</ele><time>2026-04-11T08:21:43.998Z</time></trkpt><trkpt lat="45.615713808296825" lon="8.597263320517529"><ele>255.16666666666666</ele><time>2026-04-11T08:21:45.998Z</time></trkpt><trkpt lat="45.61578157069047" lon="8.597227245593206"><ele>256.0</ele><time>2026-04-11T08:21:46.998Z</time></trkpt><trkpt lat="45.615837612655184" lon="8.59718281143575"><ele>255.99999999999997</ele><time>2026-04-11T08:21:47.998Z</time></trkpt><trkpt lat="45.61589041997663" lon="8.597116594224453"><ele>256.0</ele><time>2026-04-11T08:21:49.998Z</time></trkpt><trkpt lat="45.61597787997611" lon="8.597053018503711"><ele>256.0</ele><time>2026-04-11T08:21:51.998Z</time></trkpt><trkpt lat="45.61603527959247" lon="8.59694116820995"><ele>256.0</ele><time>2026-04-11T08:21:53.998Z</time></trkpt><trkpt lat="45.616069036822694" lon="8.596851862249373"><ele>255.99999999999997</ele><time>2026-04-11T08:21:54.998Z</time></trkpt><trkpt lat="45.61610199850061" lon="8.596773135461062"><ele>256.0</ele><time>2026-04-11T08:21:55.998Z</time></trkpt><trkpt lat="45.61615548710641" lon="8.596676989619523"><ele>257.16666666666663</ele><time>2026-04-11T08:21:57.998Z</time></trkpt><trkpt lat="45.61622758547589" lon="8.596619102728864"><ele>258.3333333333333</ele><time>2026-04-11T08:22:01Z</time></trkpt><trkpt lat="45.61623176045945" lon="8.596500940629408"><ele>259.5</ele><time>2026-04-11T08:22:02Z</time></trkpt><trkpt lat="45.616231933085665" lon="8.596357030833564"><ele>260.6666666666667</ele><time>2026-04-11T08:22:05Z</time></trkpt><trkpt lat="45.61623355050795" lon="8.59623476970912"><ele>261.83333333333337</ele><time>2026-04-11T08:22:06Z</time></trkpt><trkpt lat="45.61626872613471" lon="8.596132212368682"><ele>263.0</ele><time>2026-04-11T08:22:08Z</time></trkpt><trkpt lat="45.61632036300354" lon="8.596047775813538"><ele>263.0</ele><time>2026-04-11T08:22:09Z</time></trkpt><trkpt lat="45.61636804131644" lon="8.5959530698334"><ele>263.0</ele><time>2026-04-11T08:22:10Z</time></trkpt><trkpt lat="45.616441755787775" lon="8.595885067062692"><ele>263.0</ele><time>2026-04-11T08:22:12Z</time></trkpt><trkpt lat="45.616525111983634" lon="8.595776824449466"><ele>263.0</ele><time>2026-04-11T08:22:15Z</time></trkpt><trkpt lat="45.6165955970966" lon="8.595767072942362"><ele>263.0</ele><time>2026-04-11T08:22:17Z</time></trkpt><trkpt lat="45.61671739130855" lon="8.595717316183906"><ele>263.0</ele><time>2026-04-11T08:22:19Z</time></trkpt><trkpt lat="45.61678568909383" lon="8.59568494224799"><ele>263.0</ele><time>2026-04-11T08:22:20Z</time></trkpt><trkpt lat="45.61684000259192" lon="8.595632057606146"><ele>263.0</ele><time>2026-04-11T08:22:21Z</time></trkpt><trkpt lat="45.61694180416074" lon="8.595563650762942"><ele>263.0</ele><time>2026-04-11T08:22:23Z</time></trkpt><trkpt lat="45.61702216468766" lon="8.595515388530842"><ele>263.0</ele><time>2026-04-11T08:22:24Z</time></trkpt><trkpt lat="45.61710772558558" lon="8.595479388910588"><ele>263.0</ele><time>2026-04-11T08:22:25Z</time></trkpt><trkpt lat="45.61719060901662" lon="8.595458572100615"><ele>263.2</ele><time>2026-04-11T08:22:26Z</time></trkpt><trkpt lat="45.617268232553556" lon="8.595428729231045"><ele>263.4</ele><time>2026-04-11T08:22:27Z</time></trkpt><trkpt lat="45.61733545619858" lon="8.595386138740782"><ele>263.59999999999997</ele><time>2026-04-11T08:22:27.999Z</time></trkpt><trkpt lat="45.617383499506396" lon="8.595312906899418"><ele>263.8</ele><time>2026-04-11T08:22:28.999Z</time></trkpt><trkpt lat="45.6174556996666" lon="8.59516689158007"><ele>264.0</ele><time>2026-04-11T08:22:30.999Z</time></trkpt><trkpt lat="45.61756342752213" lon="8.59517743088551"><ele>264.0</ele><time>2026-04-11T08:22:32.999Z</time></trkpt><trkpt lat="45.617652684910226" lon="8.595274269323458"><ele>264.0</ele><time>2026-04-11T08:22:34.999Z</time></trkpt><trkpt lat="45.61775428741241" lon="8.595260006169074"><ele>264.0</ele><time>2026-04-11T08:22:36.999Z</time></trkpt><trkpt lat="45.61783172932241" lon="8.595208265424164"><ele>264.0</ele><time>2026-04-11T08:22:37.999Z</time></trkpt><trkpt lat="45.617894085800884" lon="8.595135081785271"><ele>264.0</ele><time>2026-04-11T08:22:38.999Z</time></trkpt><trkpt lat="45.61797439984818" lon="8.59506684712521"><ele>265.0</ele><time>2026-04-11T08:22:39.999Z</time></trkpt><trkpt lat="45.61803890946584" lon="8.595031559326841"><ele>266.0</ele><time>2026-04-11T08:22:40.999Z</time></trkpt><trkpt lat="45.61807799164032" lon="8.594949989776678"><ele>267.0</ele><time>2026-04-11T08:22:41.999Z</time></trkpt><trkpt lat="45.61811065057986" lon="8.594869287278286"><ele>268.0</ele><time>2026-04-11T08:22:42.999Z</time></trkpt><trkpt lat="45.61817469398747" lon="8.594722448111984"><ele>269.0</ele><time>2026-04-11T08:22:44.999Z</time></trkpt><trkpt lat="45.61824961837613" lon="8.594668669117397"><ele>270.0</ele><time>2026-04-11T08:22:45.999Z</time></trkpt><trkpt lat="45.6183604475053" lon="8.594634689534136"><ele>270.0</ele><time>2026-04-11T08:22:46.999Z</time></trkpt><trkpt lat="45.61846475955284" lon="8.594598379617366"><ele>270.0</ele><time>2026-04-11T08:22:47.999Z</time></trkpt><trkpt lat="45.6185963492617" lon="8.59456071216784"><ele>270.0</ele><time>2026-04-11T08:22:49.999Z</time></trkpt><trkpt lat="45.61866479445371" lon="8.594544162924901"><ele>270.0</ele><time>2026-04-11T08:22:50.999Z</time></trkpt><trkpt lat="45.618748643902826" lon="8.59454316469394"><ele>270.0</ele><time>2026-04-11T08:22:51.999Z</time></trkpt><trkpt lat="45.618831837784434" lon="8.594552407627582"><ele>269.5</ele><time>2026-04-11T08:22:52.999Z</time></trkpt><trkpt lat="45.61893870219445" lon="8.594516799021871"><ele>269.0</ele><time>2026-04-11T08:22:54.999Z</time></trkpt><trkpt lat="45.61900594409264" lon="8.594458408430093"><ele>268.5</ele><time>2026-04-11T08:22:55.999Z</time></trkpt><trkpt lat="45.61906535207539" lon="8.594394860938383"><ele>268.0</ele><time>2026-04-11T08:22:56.999Z</time></trkpt><trkpt lat="45.6191449845819" lon="8.59433583904648"><ele>267.5</ele><time>2026-04-11T08:22:57.999Z</time></trkpt><trkpt lat="45.61921964758614" lon="8.594296969752133"><ele>267.0</ele><time>2026-04-11T08:22:58.999Z</time></trkpt><trkpt lat="45.6192821080623" lon="8.594277012878525"><ele>267.0</ele><time>2026-04-11T08:22:59.999Z</time></trkpt><trkpt lat="45.61934804320187" lon="8.5942965733912"><ele>267.0</ele><time>2026-04-11T08:23:01.999Z</time></trkpt><trkpt lat="45.61941590949705" lon="8.594441399373622"><ele>267.0</ele><time>2026-04-11T08:23:03.999Z</time></trkpt><trkpt lat="45.61945224569421" lon="8.59451630799791"><ele>267.0</ele><time>2026-04-11T08:23:04.999Z</time></trkpt><trkpt lat="45.61949407231102" lon="8.594679395869248"><ele>267.0</ele><time>2026-04-11T08:23:06.999Z</time></trkpt><trkpt lat="45.61951266686097" lon="8.594765712908476"><ele>267.0</ele><time>2026-04-11T08:23:07.999Z</time></trkpt><trkpt lat="45.61951740624886" lon="8.594856210000176"><ele>268.3333333333333</ele><time>2026-04-11T08:23:08.999Z</time></trkpt><trkpt lat="45.619520279186" lon="8.594954887591392"><ele>269.6666666666667</ele><time>2026-04-11T08:23:09.999Z</time></trkpt><trkpt lat="45.61954215570589" lon="8.59504210096132"><ele>271.0</ele><time>2026-04-11T08:23:10.999Z</time></trkpt><trkpt lat="45.619571842408995" lon="8.59514714074671"><ele>272.33333333333337</ele><time>2026-04-11T08:23:11.999Z</time></trkpt><trkpt lat="45.619580963767085" lon="8.595310178993016"><ele>273.6666666666667</ele><time>2026-04-11T08:23:13.999Z</time></trkpt><trkpt lat="45.619568735836566" lon="8.595419091287367"><ele>275.0</ele><time>2026-04-11T08:23:14.999Z</time></trkpt><trkpt lat="45.61956369376173" lon="8.595517693328498"><ele>275.1666666666667</ele><time>2026-04-11T08:23:15.999Z</time></trkpt><trkpt lat="45.619572360968796" lon="8.595630718277395"><ele>275.33333333333337</ele><time>2026-04-11T08:23:17.999Z</time></trkpt><trkpt lat="45.61960233578074" lon="8.595748032377715"><ele>275.5</ele><time>2026-04-11T08:23:19.998Z</time></trkpt><trkpt lat="45.61970011844676" lon="8.595741558798943"><ele>275.6666666666667</ele><time>2026-04-11T08:23:21.998Z</time></trkpt><trkpt lat="45.6197824453903" lon="8.59573441731223"><ele>275.8333333333333</ele><time>2026-04-11T08:23:22.998Z</time></trkpt><trkpt lat="45.619856111991986" lon="8.595706601331283"><ele>276.0</ele><time>2026-04-11T08:23:23.998Z</time></trkpt><trkpt lat="45.61993137812297" lon="8.595679556734824"><ele>276.0</ele><time>2026-04-11T08:23:24.998Z</time></trkpt><trkpt lat="45.620006955513944" lon="8.595651707257403"><ele>276.0</ele><time>2026-04-11T08:23:25.998Z</time></trkpt><trkpt lat="45.620082760302026" lon="8.59562350566854"><ele>276.0</ele><time>2026-04-11T08:23:26.998Z</time></trkpt><trkpt lat="45.62016438598058" lon="8.595590166474446"><ele>276.0</ele><time>2026-04-11T08:23:27.998Z</time></trkpt><trkpt lat="45.620248561556124" lon="8.59555593665892"><ele>276.0</ele><time>2026-04-11T08:23:28.998Z</time></trkpt><trkpt lat="45.620316281008236" lon="8.59552794593884"><ele>276.0</ele><time>2026-04-11T08:23:29.998Z</time></trkpt><trkpt lat="45.620386049181874" lon="8.595473991137094"><ele>276.0</ele><time>2026-04-11T08:23:30.998Z</time></trkpt><trkpt lat="45.62047394028493" lon="8.595461274237783"><ele>276.0</ele><time>2026-04-11T08:23:31.998Z</time></trkpt><trkpt lat="45.62055263110515" lon="8.595426704164678"><ele>276.0</ele><time>2026-04-11T08:23:32.998Z</time></trkpt><trkpt lat="45.62063678594454" lon="8.595386493521174"><ele>276.0</ele><time>2026-04-11T08:23:33.998Z</time></trkpt><trkpt lat="45.62071957317344" lon="8.595345160855647"><ele>276.0</ele><time>2026-04-11T08:23:34.998Z</time></trkpt><trkpt lat="45.620795687108306" lon="8.59530708897999"><ele>276.0</ele><time>2026-04-11T08:23:35.998Z</time></trkpt><trkpt lat="45.620863313025176" lon="8.595272263541926"><ele>276.0</ele><time>2026-04-11T08:23:36.998Z</time></trkpt><trkpt lat="45.620929990547765" lon="8.59523662560801"><ele>276.0</ele><time>2026-04-11T08:23:37.998Z</time></trkpt><trkpt lat="45.62098997243679" lon="8.59520283795871"><ele>276.0</ele><time>2026-04-11T08:23:38.998Z</time></trkpt><trkpt lat="45.62110419177564" lon="8.595109336606225"><ele>276.0</ele><time>2026-04-11T08:23:40.998Z</time></trkpt><trkpt lat="45.621183785566174" lon="8.595070276408537"><ele>276.0</ele><time>2026-04-11T08:23:41.998Z</time></trkpt><trkpt lat="45.62124840321301" lon="8.595022927851067"><ele>276.0</ele><time>2026-04-11T08:23:42.998Z</time></trkpt><trkpt lat="45.621309158834414" lon="8.594991860038494"><ele>275.8333333333333</ele><time>2026-04-11T08:23:43.998Z</time></trkpt><trkpt lat="45.62137114933102" lon="8.594962596909694"><ele>275.6666666666667</ele><time>2026-04-11T08:23:44.998Z</time></trkpt><trkpt lat="45.62144017650873" lon="8.59494032494371"><ele>275.5</ele><time>2026-04-11T08:23:45.998Z</time></trkpt><trkpt lat="45.6215031042746" lon="8.59491916641517"><ele>275.33333333333337</ele><time>2026-04-11T08:23:46.998Z</time></trkpt><trkpt lat="45.6215828996595" lon="8.594893570132868"><ele>275.1666666666667</ele><time>2026-04-11T08:23:48.998Z</time></trkpt><trkpt lat="45.621603296610864" lon="8.595045895141347"><ele>275.0</ele><time>2026-04-11T08:23:50.998Z</time></trkpt><trkpt lat="45.62160804942681" lon="8.59520343868184"><ele>274.75</ele><time>2026-04-11T08:23:51.998Z</time></trkpt><trkpt lat="45.62162937002517" lon="8.59537666550678"><ele>274.5</ele><time>2026-04-11T08:23:52.998Z</time></trkpt><trkpt lat="45.621672428270806" lon="8.59552964701386"><ele>274.25</ele><time>2026-04-11T08:23:53.998Z</time></trkpt><trkpt lat="45.62168216512748" lon="8.595706029331568"><ele>274.0</ele><time>2026-04-11T08:23:54.998Z</time></trkpt><trkpt lat="45.62170914002941" lon="8.5958636003112"><ele>274.0</ele><time>2026-04-11T08:23:55.998Z</time></trkpt><trkpt lat="45.62173647425348" lon="8.596000935090881"><ele>274.0</ele><time>2026-04-11T08:23:56.998Z</time></trkpt><trkpt lat="45.62175846503445" lon="8.596135882185866"><ele>274.0</ele><time>2026-04-11T08:23:57.998Z</time></trkpt><trkpt lat="45.62176976621352" lon="8.59627404189442"><ele>274.0</ele><time>2026-04-11T08:23:58.998Z</time></trkpt><trkpt lat="45.621787908031855" lon="8.59642865591312"><ele>274.0</ele><time>2026-04-11T08:23:59.998Z</time></trkpt><trkpt lat="45.621815821837195" lon="8.596599422751549"><ele>274.0</ele><time>2026-04-11T08:24:00.998Z</time></trkpt><trkpt lat="45.62183503321141" lon="8.596768396960464"><ele>274.0</ele><time>2026-04-11T08:24:01.998Z</time></trkpt><trkpt lat="45.62185401153382" lon="8.596927629934026"><ele>274.0</ele><time>2026-04-11T08:24:02.998Z</time></trkpt><trkpt lat="45.62186978601223" lon="8.597077237291838"><ele>274.0</ele><time>2026-04-11T08:24:03.998Z</time></trkpt><trkpt lat="45.62187964492792" lon="8.59722130484803"><ele>274.0</ele><time>2026-04-11T08:24:05Z</time></trkpt><trkpt lat="45.621904441656596" lon="8.597371393519335"><ele>273.8</ele><time>2026-04-11T08:24:06Z</time></trkpt><trkpt lat="45.621941966503236" lon="8.597516199961838"><ele>273.59999999999997</ele><time>2026-04-11T08:24:07Z</time></trkpt><trkpt lat="45.621991036221154" lon="8.597647395517233"><ele>273.4</ele><time>2026-04-11T08:24:08Z</time></trkpt><trkpt lat="45.62205965578602" lon="8.597758647338399"><ele>273.2</ele><time>2026-04-11T08:24:09Z</time></trkpt><trkpt lat="45.622151013500826" lon="8.59788983511555"><ele>273.0</ele><time>2026-04-11T08:24:10Z</time></trkpt><trkpt lat="45.62223952998655" lon="8.598011130810775"><ele>270.8</ele><time>2026-04-11T08:24:11Z</time></trkpt><trkpt lat="45.62231151132398" lon="8.598117136265067"><ele>268.6</ele><time>2026-04-11T08:24:12Z</time></trkpt><trkpt lat="45.6223551005478" lon="8.598204285673534"><ele>266.4</ele><time>2026-04-11T08:24:13Z</time></trkpt><trkpt lat="45.62239033681651" lon="8.598339778374688"><ele>264.2</ele><time>2026-04-11T08:24:15Z</time></trkpt><trkpt lat="45.62240916155352" lon="8.598467518245485"><ele>262.0</ele><time>2026-04-11T08:24:17Z</time></trkpt><trkpt lat="45.62242398556751" lon="8.598585221721"><ele>261.16666666666663</ele><time>2026-04-11T08:24:19Z</time></trkpt><trkpt lat="45.62244901191464" lon="8.598734368524433"><ele>260.3333333333333</ele><time>2026-04-11T08:24:21Z</time></trkpt><trkpt lat="45.62245417463771" lon="8.598860277293582"><ele>259.5</ele><time>2026-04-11T08:24:23Z</time></trkpt><trkpt lat="45.62245715358347" lon="8.598969983397875"><ele>258.6666666666667</ele><time>2026-04-11T08:24:25Z</time></trkpt><trkpt lat="45.62245193763957" lon="8.59907092922027"><ele>257.83333333333337</ele><time>2026-04-11T08:24:27Z</time></trkpt><trkpt lat="45.62244118336252" lon="8.599175453307852"><ele>257.0</ele><time>2026-04-11T08:24:29Z</time></trkpt><trkpt lat="45.62241852888673" lon="8.599316964327755"><ele>257.0</ele><time>2026-04-11T08:24:31Z</time></trkpt><trkpt lat="45.622362457153265" lon="8.599478517107551"><ele>257.0</ele><time>2026-04-11T08:24:33Z</time></trkpt><trkpt lat="45.62231927887783" lon="8.599572109180519"><ele>257.0</ele><time>2026-04-11T08:24:34Z</time></trkpt><trkpt lat="45.62226521262014" lon="8.59967656329503"><ele>257.0</ele><time>2026-04-11T08:24:34.999Z</time></trkpt><trkpt lat="45.62221021800895" lon="8.599780440065938"><ele>257.0</ele><time>2026-04-11T08:24:35.999Z</time></trkpt><trkpt lat="45.62215727229585" lon="8.599877286137101"><ele>256.6</ele><time>2026-04-11T08:24:36.999Z</time></trkpt><trkpt lat="45.62209250201544" lon="8.599967891671279"><ele>256.2</ele><time>2026-04-11T08:24:37.999Z</time></trkpt><trkpt lat="45.62202295388682" lon="8.60001389403496"><ele>255.8</ele><time>2026-04-11T08:24:38.999Z</time></trkpt><trkpt lat="45.621943936348664" lon="8.600064667621664"><ele>255.4</ele><time>2026-04-11T08:24:39.999Z</time></trkpt><trkpt lat="45.621863064074944" lon="8.600118635020994"><ele>255.0</ele><time>2026-04-11T08:24:40.999Z</time></trkpt><trkpt lat="45.62176951453984" lon="8.600195874094169"><ele>254.83333333333334</ele><time>2026-04-11T08:24:41.999Z</time></trkpt><trkpt lat="45.62169230578577" lon="8.600249707977666"><ele>254.66666666666669</ele><time>2026-04-11T08:24:42.999Z</time></trkpt><trkpt lat="45.62161715989913" lon="8.600297277875029"><ele>254.5</ele><time>2026-04-11T08:24:43.999Z</time></trkpt><trkpt lat="45.6215449966236" lon="8.600359204876842"><ele>254.33333333333334</ele><time>2026-04-11T08:24:44.999Z</time></trkpt><trkpt lat="45.62148058322701" lon="8.60045573723077"><ele>254.16666666666669</ele><time>2026-04-11T08:24:45.999Z</time></trkpt><trkpt lat="45.62142451337665" lon="8.600566443718924"><ele>254.0</ele><time>2026-04-11T08:24:46.999Z</time></trkpt><trkpt lat="45.621379980207394" lon="8.600681820335408"><ele>253.79999999999998</ele><time>2026-04-11T08:24:47.999Z</time></trkpt><trkpt lat="45.62135738637122" lon="8.60080746576909"><ele>253.59999999999997</ele><time>2026-04-11T08:24:48.999Z</time></trkpt><trkpt lat="45.621350771499564" lon="8.600974622316606"><ele>253.4</ele><time>2026-04-11T08:24:49.999Z</time></trkpt><trkpt lat="45.62134780948428" lon="8.601110548828489"><ele>253.2</ele><time>2026-04-11T08:24:50.999Z</time></trkpt><trkpt lat="45.62134298406079" lon="8.601224716892935"><ele>253.0</ele><time>2026-04-11T08:24:51.999Z</time></trkpt><trkpt lat="45.62133610011346" lon="8.60132938801939"><ele>252.8</ele><time>2026-04-11T08:24:52.999Z</time></trkpt><trkpt lat="45.62132612713719" lon="8.601444183562217"><ele>252.60000000000002</ele><time>2026-04-11T08:24:53.999Z</time></trkpt><trkpt lat="45.621319693805155" lon="8.601578140535835"><ele>252.39999999999998</ele><time>2026-04-11T08:24:54.999Z</time></trkpt><trkpt lat="45.62131251941571" lon="8.601723175623858"><ele>252.2</ele><time>2026-04-11T08:24:55.999Z</time></trkpt><trkpt lat="45.62130616881028" lon="8.601863277593266"><ele>252.0</ele><time>2026-04-11T08:24:56.999Z</time></trkpt><trkpt lat="45.62129808201548" lon="8.602003495872571"><ele>251.83333333333334</ele><time>2026-04-11T08:24:57.999Z</time></trkpt><trkpt lat="45.62130363616274" lon="8.602142756963381"><ele>251.66666666666669</ele><time>2026-04-11T08:24:58.999Z</time></trkpt><trkpt lat="45.6213149148085" lon="8.602268295990415"><ele>251.5</ele><time>2026-04-11T08:24:59.999Z</time></trkpt><trkpt lat="45.62132346357284" lon="8.602389156220354"><ele>251.33333333333334</ele><time>2026-04-11T08:25:00.999Z</time></trkpt><trkpt lat="45.621341687897186" lon="8.602520495873783"><ele>251.16666666666669</ele><time>2026-04-11T08:25:01.999Z</time></trkpt><trkpt lat="45.621363032468764" lon="8.602628652532823"><ele>251.0</ele><time>2026-04-11T08:25:02.999Z</time></trkpt><trkpt lat="45.6213667313789" lon="8.602719329118777"><ele>251.66666666666669</ele><time>2026-04-11T08:25:03.999Z</time></trkpt><trkpt lat="45.62131384453364" lon="8.602863815910824"><ele>252.33333333333334</ele><time>2026-04-11T08:25:05.999Z</time></trkpt><trkpt lat="45.62127895126426" lon="8.602946861231489"><ele>253.0</ele><time>2026-04-11T08:25:06.999Z</time></trkpt><trkpt lat="45.62123497818401" lon="8.603030502454413"><ele>253.66666666666669</ele><time>2026-04-11T08:25:07.999Z</time></trkpt><trkpt lat="45.6211910911682" lon="8.603127739609281"><ele>254.33333333333334</ele><time>2026-04-11T08:25:08.999Z</time></trkpt><trkpt lat="45.621129061408325" lon="8.603215445164889"><ele>255.0</ele><time>2026-04-11T08:25:09.999Z</time></trkpt><trkpt lat="45.621064015144846" lon="8.603306771571932"><ele>255.16666666666666</ele><time>2026-04-11T08:25:10.999Z</time></trkpt><trkpt lat="45.62099981243396" lon="8.603400484991868"><ele>255.33333333333331</ele><time>2026-04-11T08:25:11.999Z</time></trkpt><trkpt lat="45.62094378614703" lon="8.60348032847524"><ele>255.5</ele><time>2026-04-11T08:25:12.999Z</time></trkpt><trkpt lat="45.620892128202726" lon="8.60354648363265"><ele>255.66666666666666</ele><time>2026-04-11T08:25:13.999Z</time></trkpt><trkpt lat="45.62082342898394" lon="8.603690075784426"><ele>255.83333333333331</ele><time>2026-04-11T08:25:15.999Z</time></trkpt><trkpt lat="45.62077561669022" lon="8.603763303994503"><ele>256.0</ele><time>2026-04-11T08:25:17.999Z</time></trkpt><trkpt lat="45.620775763658926" lon="8.603909653753663"><ele>256.3333333333333</ele><time>2026-04-11T08:25:21.999Z</time></trkpt><trkpt lat="45.620853144733935" lon="8.604079831898117"><ele>256.6666666666667</ele><time>2026-04-11T08:25:23.999Z</time></trkpt><trkpt lat="45.62087530366505" lon="8.604172122481888"><ele>257.0</ele><time>2026-04-11T08:25:24.999Z</time></trkpt><trkpt lat="45.621162151143665" lon="8.604144720658518"><ele>257.0</ele><time>2026-04-11T08:25:26.998Z</time></trkpt><trkpt lat="45.620903589129625" lon="8.604373449024147"><ele>257.0</ele><time>2026-04-11T08:29:19.999Z</time></trkpt><trkpt lat="45.62092757187558" lon="8.604515412093209"><ele>257.0</ele><time>2026-04-11T08:31:59.998Z</time></trkpt><trkpt lat="45.62095935596586" lon="8.604683387113319"><ele>257.1666666666667</ele><time>2026-04-11T08:32:01.998Z</time></trkpt><trkpt lat="45.620959894769236" lon="8.604783751595269"><ele>257.33333333333337</ele><time>2026-04-11T08:32:02.998Z</time></trkpt><trkpt lat="45.620975645472825" lon="8.604874928976933"><ele>257.5</ele><time>2026-04-11T08:32:03.998Z</time></trkpt><trkpt lat="45.62101319826067" lon="8.60499328673254"><ele>257.6666666666667</ele><time>2026-04-11T08:32:05.998Z</time></trkpt><trkpt lat="45.62104609422658" lon="8.605117907803313"><ele>257.8333333333333</ele><time>2026-04-11T08:32:07.998Z</time></trkpt><trkpt lat="45.62109524171877" lon="8.605194729570618"><ele>258.0</ele><time>2026-04-11T08:32:09.998Z</time></trkpt><trkpt lat="45.621190304103116" lon="8.605190085055428"><ele>258.5</ele><time>2026-04-11T08:32:10.998Z</time></trkpt><trkpt lat="45.62124322179522" lon="8.605243031250343"><ele>259.0</ele><time>2026-04-11T08:32:11.998Z</time></trkpt><trkpt lat="45.621310393798574" lon="8.605302054465074"><ele>259.5</ele><time>2026-04-11T08:32:12.998Z</time></trkpt><trkpt lat="45.6213812129119" lon="8.605344165701135"><ele>260.0</ele><time>2026-04-11T08:32:13.998Z</time></trkpt><trkpt lat="45.621451698269354" lon="8.60535541081664"><ele>260.5</ele><time>2026-04-11T08:32:14.998Z</time></trkpt><trkpt lat="45.62151873909127" lon="8.605329426714434"><ele>261.0</ele><time>2026-04-11T08:32:15.998Z</time></trkpt><trkpt lat="45.62160816244321" lon="8.605346258438777"><ele>261.0</ele><time>2026-04-11T08:32:16.998Z</time></trkpt><trkpt lat="45.62169135823706" lon="8.605347219242217"><ele>261.0</ele><time>2026-04-11T08:32:17.998Z</time></trkpt><trkpt lat="45.62176937021493" lon="8.605345212306233"><ele>261.0</ele><time>2026-04-11T08:32:18.998Z</time></trkpt><trkpt lat="45.62184276859557" lon="8.605341383529339"><ele>261.0</ele><time>2026-04-11T08:32:19.998Z</time></trkpt><trkpt lat="45.6219115332878" lon="8.605334176747723"><ele>261.0</ele><time>2026-04-11T08:32:20.998Z</time></trkpt><trkpt lat="45.62200309629169" lon="8.605298828301892"><ele>261.0</ele><time>2026-04-11T08:32:22.998Z</time></trkpt><trkpt lat="45.622099407632206" lon="8.605396504178822"><ele>261.6666666666667</ele><time>2026-04-11T08:32:24.998Z</time></trkpt><trkpt lat="45.62215749547801" lon="8.605444688428399"><ele>262.3333333333333</ele><time>2026-04-11T08:32:25.998Z</time></trkpt><trkpt lat="45.62224770373257" lon="8.605539978483758"><ele>263.0</ele><time>2026-04-11T08:32:28Z</time></trkpt><trkpt lat="45.622315781503445" lon="8.605575303589058"><ele>263.66666666666663</ele><time>2026-04-11T08:32:29Z</time></trkpt><trkpt lat="45.622394206932334" lon="8.605569350833317"><ele>264.3333333333333</ele><time>2026-04-11T08:32:30Z</time></trkpt><trkpt lat="45.622465356961136" lon="8.605556745918843"><ele>265.0</ele><time>2026-04-11T08:32:31Z</time></trkpt><trkpt lat="45.622530262484865" lon="8.60554630611789"><ele>265.0</ele><time>2026-04-11T08:32:32Z</time></trkpt><trkpt lat="45.62259698399209" lon="8.605563243379185"><ele>265.0</ele><time>2026-04-11T08:32:33Z</time></trkpt><trkpt lat="45.62267680132885" lon="8.605590778457497"><ele>265.0</ele><time>2026-04-11T08:32:34Z</time></trkpt><trkpt lat="45.62275548461433" lon="8.605603806108157"><ele>265.0</ele><time>2026-04-11T08:32:35Z</time></trkpt><trkpt lat="45.62282741203484" lon="8.60563449656672"><ele>265.0</ele><time>2026-04-11T08:32:36Z</time></trkpt><trkpt lat="45.62289094755418" lon="8.605690628618897"><ele>265.0</ele><time>2026-04-11T08:32:37Z</time></trkpt><trkpt lat="45.62295794691347" lon="8.605743106455344"><ele>265.6</ele><time>2026-04-11T08:32:38Z</time></trkpt><trkpt lat="45.62304247447289" lon="8.605779484946941"><ele>266.2</ele><time>2026-04-11T08:32:39Z</time></trkpt><trkpt lat="45.62310543963131" lon="8.605826082778037"><ele>266.8</ele><time>2026-04-11T08:32:40Z</time></trkpt><trkpt lat="45.62323141943739" lon="8.605868839185623"><ele>267.4</ele><time>2026-04-11T08:32:42Z</time></trkpt><trkpt lat="45.62331716984058" lon="8.605885854368335"><ele>268.0</ele><time>2026-04-11T08:32:43Z</time></trkpt><trkpt lat="45.623458015460876" lon="8.605881812530596"><ele>268.0</ele><time>2026-04-11T08:32:44Z</time></trkpt><trkpt lat="45.62358207710329" lon="8.605887988085954"><ele>268.0</ele><time>2026-04-11T08:32:45Z</time></trkpt><trkpt lat="45.623663432529966" lon="8.60588962169842"><ele>268.0</ele><time>2026-04-11T08:32:46Z</time></trkpt><trkpt lat="45.62374959139896" lon="8.605859686163214"><ele>268.0</ele><time>2026-04-11T08:32:48Z</time></trkpt><trkpt lat="45.62376019633624" lon="8.605752569993527"><ele>268.0</ele><time>2026-04-11T08:32:49Z</time></trkpt><trkpt lat="45.62376224845478" lon="8.605623638448822"><ele>268.6</ele><time>2026-04-11T08:32:50Z</time></trkpt><trkpt lat="45.62377979512206" lon="8.605442953868517"><ele>269.20000000000005</ele><time>2026-04-11T08:32:51Z</time></trkpt><trkpt lat="45.623803353029935" lon="8.605273812228592"><ele>269.8</ele><time>2026-04-11T08:32:52Z</time></trkpt><trkpt lat="45.623833451201456" lon="8.605118811479949"><ele>270.40000000000003</ele><time>2026-04-11T08:32:53Z</time></trkpt><trkpt lat="45.6238806682375" lon="8.605042150570437"><ele>271.0</ele><time>2026-04-11T08:32:55Z</time></trkpt><trkpt lat="45.62397889913534" lon="8.605086118013594"><ele>271.75</ele><time>2026-04-11T08:32:57Z</time></trkpt><trkpt lat="45.624083593013935" lon="8.605051570506596"><ele>272.5</ele><time>2026-04-11T08:32:58Z</time></trkpt><trkpt lat="45.62419033275694" lon="8.604983815288213"><ele>273.25</ele><time>2026-04-11T08:32:59Z</time></trkpt><trkpt lat="45.624296661684454" lon="8.604971031003544"><ele>274.0</ele><time>2026-04-11T08:33:00Z</time></trkpt><trkpt lat="45.624423360919444" lon="8.60493984733006"><ele>274.66666666666663</ele><time>2026-04-11T08:33:02Z</time></trkpt><trkpt lat="45.62449264065352" lon="8.604903233893783"><ele>275.3333333333333</ele><time>2026-04-11T08:33:03Z</time></trkpt><trkpt lat="45.62456109413763" lon="8.604824882150309"><ele>276.0</ele><time>2026-04-11T08:33:04Z</time></trkpt><trkpt lat="45.62463056008407" lon="8.60475817080311"><ele>276.6666666666667</ele><time>2026-04-11T08:33:05Z</time></trkpt><trkpt lat="45.62471193793306" lon="8.604725139305126"><ele>277.33333333333337</ele><time>2026-04-11T08:33:06Z</time></trkpt><trkpt lat="45.62479178581471" lon="8.604706819758269"><ele>278.0</ele><time>2026-04-11T08:33:07Z</time></trkpt><trkpt lat="45.62488568042951" lon="8.604686782095227"><ele>278.0</ele><time>2026-04-11T08:33:08Z</time></trkpt><trkpt lat="45.62498535446874" lon="8.60466904675167"><ele>278.0</ele><time>2026-04-11T08:33:08.999Z</time></trkpt><trkpt lat="45.62507886456318" lon="8.604654631987694"><ele>278.0</ele><time>2026-04-11T08:33:09.999Z</time></trkpt><trkpt lat="45.62516500654977" lon="8.604652421193835"><ele>278.0</ele><time>2026-04-11T08:33:10.999Z</time></trkpt><trkpt lat="45.62524503401198" lon="8.604665365491432"><ele>278.0</ele><time>2026-04-11T08:33:11.999Z</time></trkpt><trkpt lat="45.62533353201961" lon="8.604664020075454"><ele>278.2</ele><time>2026-04-11T08:33:12.999Z</time></trkpt><trkpt lat="45.625419696064625" lon="8.60468927336656"><ele>278.4</ele><time>2026-04-11T08:33:13.999Z</time></trkpt><trkpt lat="45.62549924881105" lon="8.604707652959483"><ele>278.59999999999997</ele><time>2026-04-11T08:33:14.999Z</time></trkpt><trkpt lat="45.62556122122605" lon="8.604745301806906"><ele>278.8</ele><time>2026-04-11T08:33:15.999Z</time></trkpt><trkpt lat="45.62566234121256" lon="8.60478823442868"><ele>279.0</ele><time>2026-04-11T08:33:17.999Z</time></trkpt><trkpt lat="45.625776955387366" lon="8.604831413833919"><ele>279.0</ele><time>2026-04-11T08:33:19.999Z</time></trkpt><trkpt lat="45.62580145481845" lon="8.604925946114276"><ele>279.0</ele><time>2026-04-11T08:33:20.999Z</time></trkpt><trkpt lat="45.6259239318111" lon="8.604814461784338"><ele>279.0</ele><time>2026-04-11T08:33:21.999Z</time></trkpt><trkpt lat="45.62600362569745" lon="8.604887814858587"><ele>279.0</ele><time>2026-04-11T08:33:22.999Z</time></trkpt><trkpt lat="45.62608960882492" lon="8.604955629315608"><ele>279.0</ele><time>2026-04-11T08:33:23.999Z</time></trkpt><trkpt lat="45.62616611639342" lon="8.605014634350075"><ele>279.0</ele><time>2026-04-11T08:33:24.999Z</time></trkpt><trkpt lat="45.62624403024384" lon="8.605063766007534"><ele>279.0</ele><time>2026-04-11T08:33:25.999Z</time></trkpt><trkpt lat="45.62632625378757" lon="8.605090979816158"><ele>279.0</ele><time>2026-04-11T08:33:26.999Z</time></trkpt><trkpt lat="45.62642085586476" lon="8.605092678991547"><ele>279.0</ele><time>2026-04-11T08:33:27.999Z</time></trkpt><trkpt lat="45.62650868793681" lon="8.605092384047843"><ele>279.0</ele><time>2026-04-11T08:33:28.999Z</time></trkpt><trkpt lat="45.62660442392658" lon="8.605093424811407"><ele>279.0</ele><time>2026-04-11T08:33:29.999Z</time></trkpt><trkpt lat="45.62670431709882" lon="8.605092823388143"><ele>279.0</ele><time>2026-04-11T08:33:30.999Z</time></trkpt><trkpt lat="45.62677301594775" lon="8.605076736383369"><ele>279.0</ele><time>2026-04-11T08:33:31.999Z</time></trkpt><trkpt lat="45.62683632514013" lon="8.605031372588027"><ele>279.0</ele><time>2026-04-11T08:33:32.999Z</time></trkpt><trkpt lat="45.62689359189555" lon="8.604940347796731"><ele>279.0</ele><time>2026-04-11T08:33:33.999Z</time></trkpt><trkpt lat="45.626951705332736" lon="8.60481640321826"><ele>279.0</ele><time>2026-04-11T08:33:34.999Z</time></trkpt><trkpt lat="45.62700861015053" lon="8.604704867857961"><ele>279.0</ele><time>2026-04-11T08:33:35.999Z</time></trkpt><trkpt lat="45.627069152537494" lon="8.604612752581172"><ele>280.2</ele><time>2026-04-11T08:33:36.999Z</time></trkpt><trkpt lat="45.62711979049815" lon="8.604556238652167"><ele>281.4</ele><time>2026-04-11T08:33:37.999Z</time></trkpt><trkpt lat="45.62721614469309" lon="8.604628733626466"><ele>282.6</ele><time>2026-04-11T08:33:39.999Z</time></trkpt><trkpt lat="45.627302018696454" lon="8.604701562889495"><ele>283.8</ele><time>2026-04-11T08:33:40.999Z</time></trkpt><trkpt lat="45.627407247003546" lon="8.604757431279458"><ele>285.0</ele><time>2026-04-11T08:33:41.999Z</time></trkpt><trkpt lat="45.627509127155584" lon="8.604809574223513"><ele>285.0</ele><time>2026-04-11T08:33:42.999Z</time></trkpt><trkpt lat="45.62757788790578" lon="8.60483307600713"><ele>285.0</ele><time>2026-04-11T08:33:43.999Z</time></trkpt><trkpt lat="45.62767432826064" lon="8.604923915106205"><ele>285.0</ele><time>2026-04-11T08:33:45.999Z</time></trkpt><trkpt lat="45.62773348400691" lon="8.604820748547878"><ele>285.0</ele><time>2026-04-11T08:33:47.999Z</time></trkpt><trkpt lat="45.62775344292047" lon="8.604708583725827"><ele>285.0</ele><time>2026-04-11T08:33:48.999Z</time></trkpt><trkpt lat="45.627807757625554" lon="8.60461117006074"><ele>285.0</ele><time>2026-04-11T08:33:50.999Z</time></trkpt><trkpt lat="45.627835666511096" lon="8.604507132943892"><ele>284.6666666666667</ele><time>2026-04-11T08:33:52.999Z</time></trkpt><trkpt lat="45.62786687968215" lon="8.604424573157418"><ele>284.3333333333333</ele><time>2026-04-11T08:33:56.998Z</time></trkpt><trkpt lat="45.627937318055075" lon="8.604380443874541"><ele>284.0</ele><time>2026-04-11T08:33:58.998Z</time></trkpt><trkpt lat="45.628022440563996" lon="8.604392288103387"><ele>283.66666666666663</ele><time>2026-04-11T08:34:00.998Z</time></trkpt><trkpt lat="45.6281166838126" lon="8.60430584175322"><ele>283.3333333333333</ele><time>2026-04-11T08:34:02.998Z</time></trkpt><trkpt lat="45.628156230797494" lon="8.604233297011968"><ele>283.0</ele><time>2026-04-11T08:34:04.998Z</time></trkpt><trkpt lat="45.62808872628501" lon="8.604133548558268"><ele>283.0</ele><time>2026-04-11T08:34:07.998Z</time></trkpt><trkpt lat="45.62800100754998" lon="8.60401096977255"><ele>283.0</ele><time>2026-04-11T08:34:09.998Z</time></trkpt><trkpt lat="45.62798996093573" lon="8.603903995290237"><ele>283.0</ele><time>2026-04-11T08:34:12.998Z</time></trkpt><trkpt lat="45.62806907624481" lon="8.603901041063379"><ele>283.0</ele><time>2026-04-11T08:34:14.998Z</time></trkpt><trkpt lat="45.62815326780297" lon="8.60393797306919"><ele>283.0</ele><time>2026-04-11T08:34:17.998Z</time></trkpt><trkpt lat="45.628228949427154" lon="8.603922247169987"><ele>283.0</ele><time>2026-04-11T08:34:20.998Z</time></trkpt><trkpt lat="45.62829655854832" lon="8.603918230900657"><ele>283.0</ele><time>2026-04-11T08:34:22.998Z</time></trkpt><trkpt lat="45.628377619065624" lon="8.603982609616756"><ele>283.0</ele><time>2026-04-11T08:34:25.998Z</time></trkpt><trkpt lat="45.62846932190369" lon="8.604003078590349"><ele>283.0</ele><time>2026-04-11T08:34:28.998Z</time></trkpt><trkpt lat="45.62853271404709" lon="8.604020732046946"><ele>283.0</ele><time>2026-04-11T08:34:30.998Z</time></trkpt><trkpt lat="45.62861622738605" lon="8.60404481454315"><ele>283.0</ele><time>2026-04-11T08:34:33Z</time></trkpt><trkpt lat="45.6286766545921" lon="8.604102656088157"><ele>283.0</ele><time>2026-04-11T08:34:35Z</time></trkpt><trkpt lat="45.628765493469444" lon="8.604165003316291"><ele>283.4</ele><time>2026-04-11T08:34:37Z</time></trkpt><trkpt lat="45.62886763686933" lon="8.604176597369378"><ele>283.8</ele><time>2026-04-11T08:34:39Z</time></trkpt><trkpt lat="45.62892807008087" lon="8.604276658031766"><ele>284.2</ele><time>2026-04-11T08:34:41Z</time></trkpt><trkpt lat="45.62902037700513" lon="8.60435597533996"><ele>284.6</ele><time>2026-04-11T08:34:43Z</time></trkpt><trkpt lat="45.62910689029789" lon="8.604428272383135"><ele>285.0</ele><time>2026-04-11T08:34:45Z</time></trkpt><trkpt lat="45.62918418394446" lon="8.604506201386558"><ele>285.0</ele><time>2026-04-11T08:34:47Z</time></trkpt><trkpt lat="45.629220083215294" lon="8.604639320597627"><ele>285.0</ele><time>2026-04-11T08:34:49Z</time></trkpt><trkpt lat="45.62916600907092" lon="8.604772661520457"><ele>285.0</ele><time>2026-04-11T08:34:51Z</time></trkpt><trkpt lat="45.62909121926136" lon="8.604811445669714"><ele>285.0</ele><time>2026-04-11T08:34:53Z</time></trkpt><trkpt lat="45.628985345426294" lon="8.604829324928696"><ele>285.0</ele><time>2026-04-11T08:34:55Z</time></trkpt><trkpt lat="45.62893894339789" lon="8.604922739555464"><ele>285.0</ele><time>2026-04-11T08:34:57Z</time></trkpt><trkpt lat="45.62897105107461" lon="8.605009394168361"><ele>285.0</ele><time>2026-04-11T08:34:58Z</time></trkpt><trkpt lat="45.6290141854499" lon="8.605138138589354"><ele>285.0</ele><time>2026-04-11T08:35:00Z</time></trkpt><trkpt lat="45.6290387819912" lon="8.605239152064671"><ele>285.0</ele><time>2026-04-11T08:35:02.999Z</time></trkpt><trkpt lat="45.62906242858152" lon="8.605397280956112"><ele>285.0</ele><time>2026-04-11T08:35:04.999Z</time></trkpt><trkpt lat="45.62908738791221" lon="8.60553852907036"><ele>285.8333333333333</ele><time>2026-04-11T08:35:06.999Z</time></trkpt><trkpt lat="45.629141038177714" lon="8.605599268389689"><ele>286.6666666666667</ele><time>2026-04-11T08:35:08.999Z</time></trkpt><trkpt lat="45.62920454310042" lon="8.605642157807003"><ele>287.5</ele><time>2026-04-11T08:35:09.999Z</time></trkpt><trkpt lat="45.629313587425635" lon="8.6057205417555"><ele>288.33333333333337</ele><time>2026-04-11T08:35:10.999Z</time></trkpt><trkpt lat="45.62939467126028" lon="8.605776621576863"><ele>289.1666666666667</ele><time>2026-04-11T08:35:11.999Z</time></trkpt><trkpt lat="45.629460293130556" lon="8.60584307048362"><ele>290.0</ele><time>2026-04-11T08:35:12.999Z</time></trkpt><trkpt lat="45.62952665741009" lon="8.605915807145978"><ele>290.5</ele><time>2026-04-11T08:35:13.999Z</time></trkpt><trkpt lat="45.62959504355567" lon="8.60600684237213"><ele>291.0</ele><time>2026-04-11T08:35:14.999Z</time></trkpt><trkpt lat="45.629685872682195" lon="8.606129532839523"><ele>291.5</ele><time>2026-04-11T08:35:15.999Z</time></trkpt><trkpt lat="45.62978375657474" lon="8.606269309551843"><ele>292.0</ele><time>2026-04-11T08:35:16.999Z</time></trkpt><trkpt lat="45.62987666172188" lon="8.606383778131814"><ele>292.6</ele><time>2026-04-11T08:35:17.999Z</time></trkpt><trkpt lat="45.62995008164735" lon="8.606477545546563"><ele>293.2</ele><time>2026-04-11T08:35:18.999Z</time></trkpt><trkpt lat="45.6300095167266" lon="8.606552675905503"><ele>293.8</ele><time>2026-04-11T08:35:19.999Z</time></trkpt><trkpt lat="45.63007151586177" lon="8.606637145788081"><ele>294.4</ele><time>2026-04-11T08:35:20.999Z</time></trkpt><trkpt lat="45.630144678322154" lon="8.606730748037002"><ele>295.0</ele><time>2026-04-11T08:35:21.999Z</time></trkpt><trkpt lat="45.63022324053174" lon="8.606838560645109"><ele>295.0</ele><time>2026-04-11T08:35:22.999Z</time></trkpt><trkpt lat="45.6302964196797" lon="8.606943724855329"><ele>295.0</ele><time>2026-04-11T08:35:23.999Z</time></trkpt><trkpt lat="45.630364318321305" lon="8.607027276433104"><ele>295.0</ele><time>2026-04-11T08:35:24.999Z</time></trkpt><trkpt lat="45.63042499062242" lon="8.607103117056784"><ele>295.0</ele><time>2026-04-11T08:35:25.999Z</time></trkpt><trkpt lat="45.6304754623556" lon="8.607173969402194"><ele>295.0</ele><time>2026-04-11T08:35:26.999Z</time></trkpt><trkpt lat="45.63053179805822" lon="8.607246943592287"><ele>295.0</ele><time>2026-04-11T08:35:27.999Z</time></trkpt><trkpt lat="45.630591752575526" lon="8.607324047175753"><ele>294.66666666666663</ele><time>2026-04-11T08:35:28.999Z</time></trkpt><trkpt lat="45.630638357226864" lon="8.607386858485116"><ele>294.3333333333333</ele><time>2026-04-11T08:35:29.999Z</time></trkpt><trkpt lat="45.63068968515129" lon="8.60746040033675"><ele>294.0</ele><time>2026-04-11T08:35:31.999Z</time></trkpt><trkpt lat="45.63075849077556" lon="8.607416438199886"><ele>293.6666666666667</ele><time>2026-04-11T08:35:33.999Z</time></trkpt><trkpt lat="45.630819242987805" lon="8.607325376862486"><ele>293.33333333333337</ele><time>2026-04-11T08:35:35.999Z</time></trkpt><trkpt lat="45.6308718004777" lon="8.607203637218843"><ele>293.0</ele><time>2026-04-11T08:35:37.999Z</time></trkpt><trkpt lat="45.630959710669174" lon="8.607149791210107"><ele>293.0</ele><time>2026-04-11T08:35:39.999Z</time></trkpt><trkpt lat="45.63101368050301" lon="8.607066509578692"><ele>293.0</ele><time>2026-04-11T08:35:41.999Z</time></trkpt><trkpt lat="45.63095360037885" lon="8.60692591747248"><ele>293.0</ele><time>2026-04-11T08:35:44.999Z</time></trkpt><trkpt lat="45.63090600546119" lon="8.606836290374133"><ele>293.0</ele><time>2026-04-11T08:35:46.998Z</time></trkpt><trkpt lat="45.630963666621376" lon="8.606760760082844"><ele>293.0</ele><time>2026-04-11T08:35:55.998Z</time></trkpt><trkpt lat="45.63100410928918" lon="8.606675213899003"><ele>293.0</ele><time>2026-04-11T08:35:56.998Z</time></trkpt><trkpt lat="45.63105910215774" lon="8.60655041707777"><ele>292.6</ele><time>2026-04-11T08:35:59.998Z</time></trkpt><trkpt lat="45.63107818208316" lon="8.606405724636598"><ele>292.20000000000005</ele><time>2026-04-11T08:36:01.998Z</time></trkpt><trkpt lat="45.63113458451446" lon="8.606303747155122"><ele>291.8</ele><time>2026-04-11T08:36:04.998Z</time></trkpt><trkpt lat="45.63120767025444" lon="8.60624599203109"><ele>291.40000000000003</ele><time>2026-04-11T08:36:06.998Z</time></trkpt><trkpt lat="45.63130971887268" lon="8.60622386032377"><ele>291.0</ele><time>2026-04-11T08:36:08.998Z</time></trkpt><trkpt lat="45.631402644347205" lon="8.606227375617955"><ele>291.0</ele><time>2026-04-11T08:36:10.998Z</time></trkpt><trkpt lat="45.631466416464626" lon="8.606205312049374"><ele>291.0</ele><time>2026-04-11T08:36:11.998Z</time></trkpt><trkpt lat="45.63152872862754" lon="8.606154749092255"><ele>291.0</ele><time>2026-04-11T08:36:12.998Z</time></trkpt><trkpt lat="45.63159271132435" lon="8.606101730397894"><ele>291.0</ele><time>2026-04-11T08:36:13.998Z</time></trkpt><trkpt lat="45.63166331612833" lon="8.60608752652767"><ele>291.0</ele><time>2026-04-11T08:36:15.998Z</time></trkpt><trkpt lat="45.631700164710836" lon="8.606198695671036"><ele>291.0</ele><time>2026-04-11T08:36:18.998Z</time></trkpt><trkpt lat="45.63173680254763" lon="8.606312621542378"><ele>291.0</ele><time>2026-04-11T08:36:21.998Z</time></trkpt><trkpt lat="45.63185064993914" lon="8.606386309411244"><ele>291.0</ele><time>2026-04-11T08:36:24.998Z</time></trkpt><trkpt lat="45.63193095293225" lon="8.606405932572121"><ele>291.0</ele><time>2026-04-11T08:36:25.998Z</time></trkpt><trkpt lat="45.6320075493494" lon="8.60642848177771"><ele>291.0</ele><time>2026-04-11T08:36:26.998Z</time></trkpt><trkpt lat="45.6320961389539" lon="8.606451133532978"><ele>291.0</ele><time>2026-04-11T08:36:27.998Z</time></trkpt><trkpt lat="45.63217010434768" lon="8.606472688038727"><ele>292.3333333333333</ele><time>2026-04-11T08:36:28.998Z</time></trkpt><trkpt lat="45.63225425611235" lon="8.60649682081336"><ele>293.6666666666667</ele><time>2026-04-11T08:36:29.998Z</time></trkpt><trkpt lat="45.63233957795598" lon="8.606524321642548"><ele>295.0</ele><time>2026-04-11T08:36:30.997Z</time></trkpt><trkpt lat="45.632424157851524" lon="8.606554392177438"><ele>296.33333333333337</ele><time>2026-04-11T08:36:31.997Z</time></trkpt><trkpt lat="45.63250510113483" lon="8.606582128320648"><ele>297.6666666666667</ele><time>2026-04-11T08:36:32.997Z</time></trkpt><trkpt lat="45.632586655002754" lon="8.606610428139874"><ele>299.0</ele><time>2026-04-11T08:36:33.997Z</time></trkpt><trkpt lat="45.632671011188734" lon="8.60663486282237"><ele>299.0</ele><time>2026-04-11T08:36:34.997Z</time></trkpt><trkpt lat="45.632756693364065" lon="8.606662676574613"><ele>299.0</ele><time>2026-04-11T08:36:35.997Z</time></trkpt><trkpt lat="45.63284282871788" lon="8.606691421821997"><ele>299.0</ele><time>2026-04-11T08:36:36.997Z</time></trkpt><trkpt lat="45.63292928186059" lon="8.606726034599319"><ele>299.0</ele><time>2026-04-11T08:36:38Z</time></trkpt><trkpt lat="45.633009105431455" lon="8.60675012787314"><ele>299.0</ele><time>2026-04-11T08:36:39Z</time></trkpt><trkpt lat="45.63309260702197" lon="8.606768205655515"><ele>299.0</ele><time>2026-04-11T08:36:40Z</time></trkpt><trkpt lat="45.63319792718928" lon="8.606795877826398"><ele>299.0</ele><time>2026-04-11T08:36:41Z</time></trkpt><trkpt lat="45.633306931963425" lon="8.606824791030338"><ele>299.0</ele><time>2026-04-11T08:36:42Z</time></trkpt><trkpt lat="45.63341286821107" lon="8.606861846531045"><ele>299.0</ele><time>2026-04-11T08:36:43Z</time></trkpt><trkpt lat="45.63350169314453" lon="8.606893661181871"><ele>299.0</ele><time>2026-04-11T08:36:44Z</time></trkpt><trkpt lat="45.633582681341565" lon="8.60692455475935"><ele>299.0</ele><time>2026-04-11T08:36:45Z</time></trkpt><trkpt lat="45.633653872010065" lon="8.606956662348155"><ele>299.33333333333337</ele><time>2026-04-11T08:36:46Z</time></trkpt><trkpt lat="45.63373940219304" lon="8.606981127652864"><ele>299.6666666666667</ele><time>2026-04-11T08:36:47Z</time></trkpt><trkpt lat="45.633818652653225" lon="8.607010972237683"><ele>300.0</ele><time>2026-04-11T08:36:48Z</time></trkpt><trkpt lat="45.633881999530644" lon="8.607031953741203"><ele>300.3333333333333</ele><time>2026-04-11T08:36:49Z</time></trkpt><trkpt lat="45.63399574003671" lon="8.607070579888886"><ele>300.66666666666663</ele><time>2026-04-11T08:36:51Z</time></trkpt><trkpt lat="45.634082425414434" lon="8.60710477281568"><ele>301.0</ele><time>2026-04-11T08:36:52.999Z</time></trkpt><trkpt lat="45.63417539444931" lon="8.607135619111615"><ele>301.40000000000003</ele><time>2026-04-11T08:36:54.999Z</time></trkpt><trkpt lat="45.63426489519619" lon="8.6071669343375"><ele>301.8</ele><time>2026-04-11T08:36:56.999Z</time></trkpt><trkpt lat="45.634342954185094" lon="8.607199618862815"><ele>302.20000000000005</ele><time>2026-04-11T08:36:58.999Z</time></trkpt><trkpt lat="45.63443044207868" lon="8.607238633793601"><ele>302.6</ele><time>2026-04-11T08:37:01.999Z</time></trkpt><trkpt lat="45.63454407782079" lon="8.607262876797163"><ele>303.0</ele><time>2026-04-11T08:37:04.999Z</time></trkpt><trkpt lat="45.63463135626358" lon="8.607285016108882"><ele>303.0</ele><time>2026-04-11T08:37:06.999Z</time></trkpt><trkpt lat="45.634714091540374" lon="8.607314025732032"><ele>303.0</ele><time>2026-04-11T08:37:08.999Z</time></trkpt><trkpt lat="45.63477694847382" lon="8.607338102155872"><ele>303.0</ele><time>2026-04-11T08:37:10.999Z</time></trkpt><trkpt lat="45.63481259746492" lon="8.60743415992615"><ele>303.0</ele><time>2026-04-11T08:37:12.999Z</time></trkpt><trkpt lat="45.63483819634382" lon="8.607524905955973"><ele>303.0</ele><time>2026-04-11T08:37:13.999Z</time></trkpt><trkpt lat="45.63486687911524" lon="8.607624330857185"><ele>303.0</ele><time>2026-04-11T08:37:14.999Z</time></trkpt><trkpt lat="45.63488541668705" lon="8.60773049489292"><ele>303.0</ele><time>2026-04-11T08:37:15.999Z</time></trkpt><trkpt lat="45.634894794901676" lon="8.607842152941855"><ele>303.0</ele><time>2026-04-11T08:37:16.999Z</time></trkpt><trkpt lat="45.634908346063554" lon="8.60793640732038"><ele>303.0</ele><time>2026-04-11T08:37:17.999Z</time></trkpt><trkpt lat="45.634894002150865" lon="8.608102840442745"><ele>303.0</ele><time>2026-04-11T08:37:19.999Z</time></trkpt><trkpt lat="45.634872474946015" lon="8.608239927019103"><ele>303.0</ele><time>2026-04-11T08:37:21.999Z</time></trkpt><trkpt lat="45.63493416466979" lon="8.608333056924101"><ele>303.0</ele><time>2026-04-11T08:37:24.999Z</time></trkpt><trkpt lat="45.63500065443477" lon="8.608317162387467"><ele>303.0</ele><time>2026-04-11T08:38:09.998Z</time></trkpt><trkpt lat="45.63509318425282" lon="8.608276149516357"><ele>303.0</ele><time>2026-04-11T08:38:11.998Z</time></trkpt><trkpt lat="45.63518069108252" lon="8.608283854947647"><ele>303.0</ele><time>2026-04-11T08:38:12.998Z</time></trkpt><trkpt lat="45.635265641397815" lon="8.608270001313013"><ele>303.0</ele><time>2026-04-11T08:38:13.998Z</time></trkpt><trkpt lat="45.635352636465164" lon="8.608239989819056"><ele>303.0</ele><time>2026-04-11T08:38:14.998Z</time></trkpt><trkpt lat="45.63543942241846" lon="8.608230375388612"><ele>303.0</ele><time>2026-04-11T08:38:15.998Z</time></trkpt><trkpt lat="45.635536324678014" lon="8.608213773217983"><ele>303.0</ele><time>2026-04-11T08:38:16.998Z</time></trkpt><trkpt lat="45.63562566064103" lon="8.60820081984868"><ele>303.2</ele><time>2026-04-11T08:38:17.998Z</time></trkpt><trkpt lat="45.63572809154488" lon="8.608180398005345"><ele>303.4</ele><time>2026-04-11T08:38:18.998Z</time></trkpt><trkpt lat="45.63583460780218" lon="8.60816221405212"><ele>303.59999999999997</ele><time>2026-04-11T08:38:19.998Z</time></trkpt><trkpt lat="45.63594487379757" lon="8.608137517677756"><ele>303.8</ele><time>2026-04-11T08:38:20.998Z</time></trkpt><trkpt lat="45.63606681915639" lon="8.608121835150135"><ele>304.0</ele><time>2026-04-11T08:38:21.998Z</time></trkpt><trkpt lat="45.6361841053406" lon="8.608131982406057"><ele>305.0</ele><time>2026-04-11T08:38:22.998Z</time></trkpt><trkpt lat="45.63630099166162" lon="8.608098945317241"><ele>306.0</ele><time>2026-04-11T08:38:23.998Z</time></trkpt><trkpt lat="45.63642098479513" lon="8.608082866380032"><ele>307.0</ele><time>2026-04-11T08:38:24.998Z</time></trkpt><trkpt lat="45.636540137363006" lon="8.608090246754132"><ele>308.0</ele><time>2026-04-11T08:38:25.998Z</time></trkpt><trkpt lat="45.63666323683215" lon="8.608053360718086"><ele>308.0</ele><time>2026-04-11T08:38:26.998Z</time></trkpt><trkpt lat="45.63678796261703" lon="8.608032671758464"><ele>308.0</ele><time>2026-04-11T08:38:27.997Z</time></trkpt><trkpt lat="45.63691469334677" lon="8.608006530214945"><ele>308.0</ele><time>2026-04-11T08:38:28.997Z</time></trkpt><trkpt lat="45.63707262305001" lon="8.60800163150964"><ele>308.0</ele><time>2026-04-11T08:38:29.997Z</time></trkpt><trkpt lat="45.6372597560034" lon="8.60797250105626"><ele>309.33333333333337</ele><time>2026-04-11T08:38:30.997Z</time></trkpt><trkpt lat="45.63746618808536" lon="8.60794738489185"><ele>310.6666666666667</ele><time>2026-04-11T08:38:31.997Z</time></trkpt><trkpt lat="45.63768404222032" lon="8.607925511168961"><ele>312.0</ele><time>2026-04-11T08:38:32.997Z</time></trkpt><trkpt lat="45.637859270135316" lon="8.607912029493958"><ele>312.6666666666667</ele><time>2026-04-11T08:38:33.997Z</time></trkpt><trkpt lat="45.63802510861839" lon="8.60789421545576"><ele>313.33333333333337</ele><time>2026-04-11T08:38:34.997Z</time></trkpt><trkpt lat="45.63817047634654" lon="8.607875617350215"><ele>314.0</ele><time>2026-04-11T08:38:35.997Z</time></trkpt><trkpt lat="45.638315065388376" lon="8.607855346013551"><ele>314.0</ele><time>2026-04-11T08:38:36.997Z</time></trkpt><trkpt lat="45.63845378322214" lon="8.607834239252478"><ele>314.0</ele><time>2026-04-11T08:38:37.997Z</time></trkpt><trkpt lat="45.63859510843151" lon="8.607806985940659"><ele>314.0</ele><time>2026-04-11T08:38:38.997Z</time></trkpt><trkpt lat="45.63870579878838" lon="8.60778233211816"><ele>314.0</ele><time>2026-04-11T08:38:39.997Z</time></trkpt><trkpt lat="45.63880694343366" lon="8.607759277088602"><ele>314.75</ele><time>2026-04-11T08:38:40.997Z</time></trkpt><trkpt lat="45.63890237507245" lon="8.607734214098489"><ele>315.5</ele><time>2026-04-11T08:38:41.997Z</time></trkpt><trkpt lat="45.63897869962255" lon="8.607698272803"><ele>316.25</ele><time>2026-04-11T08:38:42.999Z</time></trkpt><trkpt lat="45.63907335350543" lon="8.607675743284666"><ele>317.0</ele><time>2026-04-11T08:38:44.999Z</time></trkpt><trkpt lat="45.639054692266086" lon="8.607203664701686"><ele>317.0</ele><time>2026-04-11T08:39:02.999Z</time></trkpt><trkpt lat="45.639039698174116" lon="8.607058092522978"><ele>317.0</ele><time>2026-04-11T08:39:03.999Z</time></trkpt><trkpt lat="45.639023513884105" lon="8.60692942166405"><ele>317.0</ele><time>2026-04-11T08:39:04.999Z</time></trkpt><trkpt lat="45.63901777934409" lon="8.606820887083176"><ele>317.0</ele><time>2026-04-11T08:39:05.999Z</time></trkpt><trkpt lat="45.63901057074395" lon="8.60671077090177"><ele>317.0</ele><time>2026-04-11T08:39:06.999Z</time></trkpt><trkpt lat="45.63899340253751" lon="8.606604891684613"><ele>317.0</ele><time>2026-04-11T08:39:07.999Z</time></trkpt><trkpt lat="45.63896896073177" lon="8.606513264093927"><ele>317.0</ele><time>2026-04-11T08:39:08.999Z</time></trkpt><trkpt lat="45.63892127434673" lon="8.606361213703215"><ele>317.0</ele><time>2026-04-11T08:39:10.999Z</time></trkpt><trkpt lat="45.638913246578014" lon="8.60625763154772"><ele>317.0</ele><time>2026-04-11T08:39:11.999Z</time></trkpt><trkpt lat="45.63891672576264" lon="8.606161490561867"><ele>317.0</ele><time>2026-04-11T08:39:12.999Z</time></trkpt><trkpt lat="45.63894865994059" lon="8.606032498027501"><ele>317.0</ele><time>2026-04-11T08:39:14.999Z</time></trkpt><trkpt lat="45.638944494927046" lon="8.605884117191064"><ele>316.2</ele><time>2026-04-11T08:39:16.999Z</time></trkpt><trkpt lat="45.63892694671497" lon="8.605703496690863"><ele>315.4</ele><time>2026-04-11T08:39:18.999Z</time></trkpt><trkpt lat="45.63892420436487" lon="8.60561193560858"><ele>314.6</ele><time>2026-04-11T08:39:19.999Z</time></trkpt><trkpt lat="45.638902168688844" lon="8.605526900672059"><ele>313.8</ele><time>2026-04-11T08:39:21.999Z</time></trkpt><trkpt lat="45.63898834763012" lon="8.605384110135514"><ele>313.0</ele><time>2026-04-11T08:39:24.999Z</time></trkpt><trkpt lat="45.639065000425916" lon="8.605275577207987"><ele>312.5</ele><time>2026-04-11T08:39:25.999Z</time></trkpt><trkpt lat="45.63912113405579" lon="8.6051850875949"><ele>312.0</ele><time>2026-04-11T08:39:26.999Z</time></trkpt><trkpt lat="45.63917390014734" lon="8.605082137414882"><ele>311.5</ele><time>2026-04-11T08:39:27.999Z</time></trkpt><trkpt lat="45.63921666080702" lon="8.60498935867503"><ele>311.0</ele><time>2026-04-11T08:39:28.999Z</time></trkpt><trkpt lat="45.639270903421775" lon="8.604912380776412"><ele>310.5</ele><time>2026-04-11T08:39:29.999Z</time></trkpt><trkpt lat="45.63932481438672" lon="8.604828530262804"><ele>310.0</ele><time>2026-04-11T08:39:30.999Z</time></trkpt><trkpt lat="45.639378490744264" lon="8.604766653786552"><ele>310.2</ele><time>2026-04-11T08:39:31.999Z</time></trkpt><trkpt lat="45.6394853694443" lon="8.604760940094547"><ele>310.4</ele><time>2026-04-11T08:39:34.999Z</time></trkpt><trkpt lat="45.639557843298746" lon="8.604731269839347"><ele>310.6</ele><time>2026-04-11T08:39:35.999Z</time></trkpt><trkpt lat="45.6396421427244" lon="8.604709775728924"><ele>310.8</ele><time>2026-04-11T08:39:36.999Z</time></trkpt><trkpt lat="45.63974175778679" lon="8.604682976993136"><ele>311.0</ele><time>2026-04-11T08:39:38.999Z</time></trkpt><trkpt lat="45.6398129308478" lon="8.604620147097744"><ele>311.0</ele><time>2026-04-11T08:39:40.999Z</time></trkpt><trkpt lat="45.63989087169328" lon="8.604535417984557"><ele>311.0</ele><time>2026-04-11T08:39:42.999Z</time></trkpt><trkpt lat="45.63999020420379" lon="8.604437347950457"><ele>311.0</ele><time>2026-04-11T08:39:44.999Z</time></trkpt><trkpt lat="45.64005373340535" lon="8.60436777429005"><ele>311.0</ele><time>2026-04-11T08:39:45.998Z</time></trkpt><trkpt lat="45.64011314052973" lon="8.604294566325711"><ele>311.0</ele><time>2026-04-11T08:39:46.998Z</time></trkpt><trkpt lat="45.640165233397745" lon="8.60423219276473"><ele>311.0</ele><time>2026-04-11T08:39:47.998Z</time></trkpt><trkpt lat="45.64023097145185" lon="8.604159892493888"><ele>310.0</ele><time>2026-04-11T08:39:48.998Z</time></trkpt><trkpt lat="45.64030036869882" lon="8.604078833001044"><ele>309.0</ele><time>2026-04-11T08:39:49.998Z</time></trkpt><trkpt lat="45.6403587511366" lon="8.604005492032325"><ele>308.0</ele><time>2026-04-11T08:39:50.998Z</time></trkpt><trkpt lat="45.640419268084614" lon="8.603926679830526"><ele>307.0</ele><time>2026-04-11T08:39:51.998Z</time></trkpt><trkpt lat="45.64048896621789" lon="8.603849403626619"><ele>306.0</ele><time>2026-04-11T08:39:52.998Z</time></trkpt><trkpt lat="45.640566013206815" lon="8.603764246764879"><ele>305.0</ele><time>2026-04-11T08:39:53.998Z</time></trkpt><trkpt lat="45.64063110112659" lon="8.603679450453525"><ele>304.5</ele><time>2026-04-11T08:39:54.998Z</time></trkpt><trkpt lat="45.64069396047864" lon="8.603626298188987"><ele>304.0</ele><time>2026-04-11T08:39:55.998Z</time></trkpt><trkpt lat="45.640751334473585" lon="8.60355724538228"><ele>303.5</ele><time>2026-04-11T08:39:56.998Z</time></trkpt><trkpt lat="45.64081741244922" lon="8.603462510058307"><ele>303.0</ele><time>2026-04-11T08:39:58.998Z</time></trkpt><trkpt lat="45.64082643904432" lon="8.60336516747905"><ele>302.5</ele><time>2026-04-11T08:40:03.998Z</time></trkpt><trkpt lat="45.640910023301366" lon="8.603353155384129"><ele>302.0</ele><time>2026-04-11T08:40:07.998Z</time></trkpt><trkpt lat="45.640985463383586" lon="8.603310303702255"><ele>302.0</ele><time>2026-04-11T08:40:10.998Z</time></trkpt><trkpt lat="45.6410577260668" lon="8.603227145899135"><ele>302.0</ele><time>2026-04-11T08:40:12.998Z</time></trkpt><trkpt lat="45.64116539451688" lon="8.60309953455345"><ele>302.0</ele><time>2026-04-11T08:40:14.998Z</time></trkpt><trkpt lat="45.641217700400695" lon="8.603026287920263"><ele>302.0</ele><time>2026-04-11T08:40:15.998Z</time></trkpt><trkpt lat="45.64127522573048" lon="8.602950468620978"><ele>302.0</ele><time>2026-04-11T08:40:16.998Z</time></trkpt><trkpt lat="45.64133869962995" lon="8.602875719784205"><ele>302.0</ele><time>2026-04-11T08:40:17.998Z</time></trkpt><trkpt lat="45.641420020499886" lon="8.602769813992184"><ele>302.0</ele><time>2026-04-11T08:40:19.998Z</time></trkpt><trkpt lat="45.6415273710405" lon="8.602666144679208"><ele>302.0</ele><time>2026-04-11T08:40:21.998Z</time></trkpt><trkpt lat="45.64160433580681" lon="8.602624799804598"><ele>302.0</ele><time>2026-04-11T08:40:22.998Z</time></trkpt><trkpt lat="45.64167197551904" lon="8.602573024453777"><ele>302.0</ele><time>2026-04-11T08:40:23.998Z</time></trkpt><trkpt lat="45.641731336805925" lon="8.602455305112956"><ele>302.0</ele><time>2026-04-11T08:40:25.998Z</time></trkpt><trkpt lat="45.64170332110071" lon="8.602245763809059"><ele>302.0</ele><time>2026-04-11T08:40:27.998Z</time></trkpt><trkpt lat="45.641713698961915" lon="8.602144812861178"><ele>302.0</ele><time>2026-04-11T08:40:28.998Z</time></trkpt><trkpt lat="45.64177346334636" lon="8.602010185756207"><ele>302.0</ele><time>2026-04-11T08:40:30.998Z</time></trkpt><trkpt lat="45.64183575780666" lon="8.601933950122811"><ele>302.0</ele><time>2026-04-11T08:40:31.998Z</time></trkpt><trkpt lat="45.64191146048022" lon="8.601863123939838"><ele>302.6666666666667</ele><time>2026-04-11T08:40:32.997Z</time></trkpt><trkpt lat="45.64197798291112" lon="8.601785455731438"><ele>303.33333333333337</ele><time>2026-04-11T08:40:33.997Z</time></trkpt><trkpt lat="45.64206723570879" lon="8.601681746683123"><ele>304.0</ele><time>2026-04-11T08:40:35.997Z</time></trkpt><trkpt lat="45.64210130223155" lon="8.60159886131846"><ele>304.6666666666667</ele><time>2026-04-11T08:40:36.997Z</time></trkpt><trkpt lat="45.64214228517326" lon="8.601502355037836"><ele>305.3333333333333</ele><time>2026-04-11T08:40:37.997Z</time></trkpt><trkpt lat="45.64218299277498" lon="8.601403785269744"><ele>306.0</ele><time>2026-04-11T08:40:38.997Z</time></trkpt><trkpt lat="45.64222484277884" lon="8.601289482461826"><ele>306.0</ele><time>2026-04-11T08:40:39.997Z</time></trkpt><trkpt lat="45.642275115642214" lon="8.601187014060557"><ele>306.0</ele><time>2026-04-11T08:40:40.997Z</time></trkpt><trkpt lat="45.6423321978778" lon="8.601092156270854"><ele>306.0</ele><time>2026-04-11T08:40:41.997Z</time></trkpt><trkpt lat="45.64238320018515" lon="8.601004838770361"><ele>306.0</ele><time>2026-04-11T08:40:42.997Z</time></trkpt><trkpt lat="45.64241407146717" lon="8.600925636650706"><ele>306.0</ele><time>2026-04-11T08:40:43.997Z</time></trkpt><trkpt lat="45.64246106657151" lon="8.600759068319729"><ele>306.0</ele><time>2026-04-11T08:40:45.997Z</time></trkpt><trkpt lat="45.64249455723482" lon="8.60066766950779"><ele>305.8</ele><time>2026-04-11T08:40:46.997Z</time></trkpt><trkpt lat="45.64255951580062" lon="8.600517534993264"><ele>305.6</ele><time>2026-04-11T08:40:48.999Z</time></trkpt><trkpt lat="45.642602084441364" lon="8.60043164478687"><ele>305.4</ele><time>2026-04-11T08:40:49.999Z</time></trkpt><trkpt lat="45.642643315115144" lon="8.600275174655863"><ele>305.2</ele><time>2026-04-11T08:40:51.999Z</time></trkpt><trkpt lat="45.64267761467902" lon="8.600137587857036"><ele>305.0</ele><time>2026-04-11T08:40:53.999Z</time></trkpt><trkpt lat="45.64272778321152" lon="8.600015978514966"><ele>305.6</ele><time>2026-04-11T08:40:55.999Z</time></trkpt><trkpt lat="45.64281136278903" lon="8.599909979781652"><ele>306.2</ele><time>2026-04-11T08:40:57.999Z</time></trkpt><trkpt lat="45.6428839467439" lon="8.599762954757875"><ele>306.8</ele><time>2026-04-11T08:40:59.999Z</time></trkpt><trkpt lat="45.64293635081774" lon="8.599677269848216"><ele>307.4</ele><time>2026-04-11T08:41:00.999Z</time></trkpt><trkpt lat="45.64297728010649" lon="8.599594108890289"><ele>308.0</ele><time>2026-04-11T08:41:01.999Z</time></trkpt><trkpt lat="45.643016858111736" lon="8.599503776796626"><ele>308.0</ele><time>2026-04-11T08:41:02.999Z</time></trkpt><trkpt lat="45.64305577260914" lon="8.599418562325654"><ele>308.0</ele><time>2026-04-11T08:41:03.999Z</time></trkpt><trkpt lat="45.64309744889217" lon="8.59931916720249"><ele>308.0</ele><time>2026-04-11T08:41:04.999Z</time></trkpt><trkpt lat="45.643140393786105" lon="8.599246367826845"><ele>308.0</ele><time>2026-04-11T08:41:05.999Z</time></trkpt><trkpt lat="45.64320702461544" lon="8.599183867581049"><ele>308.0</ele><time>2026-04-11T08:41:06.999Z</time></trkpt><trkpt lat="45.643271368769234" lon="8.599116202831585"><ele>308.0</ele><time>2026-04-11T08:41:07.999Z</time></trkpt><trkpt lat="45.64333145553239" lon="8.599083407686201"><ele>308.0</ele><time>2026-04-11T08:41:08.999Z</time></trkpt><trkpt lat="45.64339922801218" lon="8.599044140970589"><ele>308.0</ele><time>2026-04-11T08:41:09.999Z</time></trkpt><trkpt lat="45.6434733149638" lon="8.59902150156947"><ele>308.0</ele><time>2026-04-11T08:41:10.999Z</time></trkpt><trkpt lat="45.643546791968646" lon="8.59900961203836"><ele>308.0</ele><time>2026-04-11T08:41:11.999Z</time></trkpt><trkpt lat="45.64368780008205" lon="8.598986795206201"><ele>308.0</ele><time>2026-04-11T08:41:13.999Z</time></trkpt><trkpt lat="45.64375637089831" lon="8.598975734346977"><ele>308.0</ele><time>2026-04-11T08:41:14.999Z</time></trkpt><trkpt lat="45.64383100735824" lon="8.59897336256082"><ele>308.0</ele><time>2026-04-11T08:41:15.999Z</time></trkpt><trkpt lat="45.64392100646964" lon="8.598957123758725"><ele>308.33333333333337</ele><time>2026-04-11T08:41:16.999Z</time></trkpt><trkpt lat="45.64400155689951" lon="8.598933734492103"><ele>308.6666666666667</ele><time>2026-04-11T08:41:17.999Z</time></trkpt><trkpt lat="45.644068867549315" lon="8.59891535445514"><ele>309.0</ele><time>2026-04-11T08:41:18.999Z</time></trkpt><trkpt lat="45.64413927690437" lon="8.59889195169592"><ele>309.3333333333333</ele><time>2026-04-11T08:41:19.999Z</time></trkpt><trkpt lat="45.64422037479687" lon="8.598880517865025"><ele>309.66666666666663</ele><time>2026-04-11T08:41:20.999Z</time></trkpt><trkpt lat="45.644324674693145" lon="8.598857395350931"><ele>310.0</ele><time>2026-04-11T08:41:22.999Z</time></trkpt><trkpt lat="45.6444232412298" lon="8.598814050955706"><ele>309.8</ele><time>2026-04-11T08:41:23.999Z</time></trkpt><trkpt lat="45.644528808809554" lon="8.598802952350736"><ele>309.6</ele><time>2026-04-11T08:41:24.999Z</time></trkpt><trkpt lat="45.64462609536385" lon="8.598782242567493"><ele>309.4</ele><time>2026-04-11T08:41:25.999Z</time></trkpt><trkpt lat="45.64471731785683" lon="8.598764586789438"><ele>309.2</ele><time>2026-04-11T08:41:26.999Z</time></trkpt><trkpt lat="45.64465982757434" lon="8.59868324626929"><ele>309.0</ele><time>2026-04-11T08:41:34.999Z</time></trkpt><trkpt lat="45.64457802557892" lon="8.598600532194038"><ele>309.0</ele><time>2026-04-11T08:41:36.999Z</time></trkpt><trkpt lat="45.64452282132433" lon="8.598554041674722"><ele>309.0</ele><time>2026-04-11T08:41:38.999Z</time></trkpt><trkpt lat="45.64452744384987" lon="8.59841659492826"><ele>309.0</ele><time>2026-04-11T08:41:40.999Z</time></trkpt><trkpt lat="45.64455147406908" lon="8.598294266343109"><ele>309.0</ele><time>2026-04-11T08:41:41.999Z</time></trkpt><trkpt lat="45.64450521025538" lon="8.598140842801163"><ele>309.0</ele><time>2026-04-11T08:41:43.999Z</time></trkpt><trkpt lat="45.64446828561417" lon="8.598006010560436"><ele>307.8</ele><time>2026-04-11T08:41:45.999Z</time></trkpt><trkpt lat="45.64448091578076" lon="8.59782916543165"><ele>306.59999999999997</ele><time>2026-04-11T08:41:47.999Z</time></trkpt><trkpt lat="45.64448945782774" lon="8.597713178519646"><ele>305.4</ele><time>2026-04-11T08:41:48.999Z</time></trkpt><trkpt lat="45.644494472494216" lon="8.597602062094186"><ele>304.2</ele><time>2026-04-11T08:41:49.999Z</time></trkpt><trkpt lat="45.644510928759466" lon="8.597506304653878"><ele>303.0</ele><time>2026-04-11T08:41:50.999Z</time></trkpt><trkpt lat="45.644572879578526" lon="8.5973384596008"><ele>303.0</ele><time>2026-04-11T08:41:52.999Z</time></trkpt><trkpt lat="45.644580096210255" lon="8.597194914032993"><ele>303.0</ele><time>2026-04-11T08:41:54.999Z</time></trkpt><trkpt lat="45.64450272335159" lon="8.597170337950814"><ele>303.0</ele><time>2026-04-11T08:41:56.999Z</time></trkpt><trkpt lat="45.6443900710838" lon="8.597160954461183"><ele>303.0</ele><time>2026-04-11T08:41:58.998Z</time></trkpt><trkpt lat="45.644312128898875" lon="8.597153866568538"><ele>303.0</ele><time>2026-04-11T08:41:59.998Z</time></trkpt><trkpt lat="45.64421318533643" lon="8.597143691962266"><ele>302.6666666666667</ele><time>2026-04-11T08:42:00.998Z</time></trkpt><trkpt lat="45.64411267964281" lon="8.597135542593756"><ele>302.3333333333333</ele><time>2026-04-11T08:42:01.998Z</time></trkpt><trkpt lat="45.6440246365575" lon="8.59713125388566"><ele>302.0</ele><time>2026-04-11T08:42:02.998Z</time></trkpt><trkpt lat="45.64394604059639" lon="8.59712513406263"><ele>301.66666666666663</ele><time>2026-04-11T08:42:03.998Z</time></trkpt><trkpt lat="45.64385045970149" lon="8.597129578347744"><ele>301.3333333333333</ele><time>2026-04-11T08:42:04.998Z</time></trkpt><trkpt lat="45.643767346107325" lon="8.597126609965832"><ele>301.0</ele><time>2026-04-11T08:42:05.998Z</time></trkpt><trkpt lat="45.64369771017975" lon="8.597114126197443"><ele>300.6</ele><time>2026-04-11T08:42:06.998Z</time></trkpt><trkpt lat="45.643599915008835" lon="8.597107808006031"><ele>300.20000000000005</ele><time>2026-04-11T08:42:07.998Z</time></trkpt><trkpt lat="45.64349525975358" lon="8.597111974502916"><ele>299.79999999999995</ele><time>2026-04-11T08:42:08.998Z</time></trkpt><trkpt lat="45.64339754200743" lon="8.59710696058597"><ele>299.4</ele><time>2026-04-11T08:42:09.998Z</time></trkpt><trkpt lat="45.64330816115321" lon="8.597107777332946"><ele>299.0</ele><time>2026-04-11T08:42:10.998Z</time></trkpt><trkpt lat="45.6432321752755" lon="8.597090502807367"><ele>299.0</ele><time>2026-04-11T08:42:11.998Z</time></trkpt><trkpt lat="45.64311344453696" lon="8.597095681594709"><ele>299.0</ele><time>2026-04-11T08:42:13.998Z</time></trkpt><trkpt lat="45.643036126234" lon="8.597081904114882"><ele>299.0</ele><time>2026-04-11T08:42:14.998Z</time></trkpt><trkpt lat="45.64295855302995" lon="8.597060718228711"><ele>299.0</ele><time>2026-04-11T08:42:15.998Z</time></trkpt><trkpt lat="45.642815827251944" lon="8.597108963101965"><ele>299.0</ele><time>2026-04-11T08:42:17.998Z</time></trkpt><trkpt lat="45.64272929928603" lon="8.597121417800297"><ele>299.2</ele><time>2026-04-11T08:42:18.998Z</time></trkpt><trkpt lat="45.642629062657726" lon="8.59714674278126"><ele>299.4</ele><time>2026-04-11T08:42:19.998Z</time></trkpt><trkpt lat="45.64253204368645" lon="8.597174191608167"><ele>299.6</ele><time>2026-04-11T08:42:20.998Z</time></trkpt><trkpt lat="45.64243644393773" lon="8.597179341901011"><ele>299.8</ele><time>2026-04-11T08:42:21.998Z</time></trkpt><trkpt lat="45.642332722206056" lon="8.597189788573512"><ele>300.0</ele><time>2026-04-11T08:42:22.998Z</time></trkpt><trkpt lat="45.642234105389335" lon="8.59720108706661"><ele>300.0</ele><time>2026-04-11T08:42:23.998Z</time></trkpt><trkpt lat="45.64215009921288" lon="8.59721105086441"><ele>300.0</ele><time>2026-04-11T08:42:24.998Z</time></trkpt><trkpt lat="45.64207321676485" lon="8.597217360411005"><ele>300.0</ele><time>2026-04-11T08:42:25.998Z</time></trkpt><trkpt lat="45.64198672076614" lon="8.597217826505835"><ele>300.0</ele><time>2026-04-11T08:42:26.998Z</time></trkpt><trkpt lat="45.64191016937159" lon="8.597199251809732"><ele>300.0</ele><time>2026-04-11T08:42:27.998Z</time></trkpt><trkpt lat="45.6418304247942" lon="8.59717502983385"><ele>300.0</ele><time>2026-04-11T08:42:28.998Z</time></trkpt><trkpt lat="45.64176643350263" lon="8.597166968215397"><ele>299.8333333333333</ele><time>2026-04-11T08:42:29.998Z</time></trkpt><trkpt lat="45.64163740141895" lon="8.597107669651763"><ele>299.6666666666667</ele><time>2026-04-11T08:42:31.998Z</time></trkpt><trkpt lat="45.64156292085486" lon="8.597060862599395"><ele>299.5</ele><time>2026-04-11T08:42:32.998Z</time></trkpt><trkpt lat="45.64150708365165" lon="8.597005672333193"><ele>299.33333333333337</ele><time>2026-04-11T08:42:33.998Z</time></trkpt><trkpt lat="45.64144857653362" lon="8.596941873035139"><ele>299.1666666666667</ele><time>2026-04-11T08:42:34.998Z</time></trkpt><trkpt lat="45.641381285986085" lon="8.596909173013646"><ele>299.0</ele><time>2026-04-11T08:42:35.998Z</time></trkpt><trkpt lat="45.64130891189184" lon="8.596889625734908"><ele>298.33333333333337</ele><time>2026-04-11T08:42:36.998Z</time></trkpt><trkpt lat="45.64124783468453" lon="8.596854543135596"><ele>297.6666666666667</ele><time>2026-04-11T08:42:37.998Z</time></trkpt><trkpt lat="45.641194194787595" lon="8.596802344807834"><ele>297.0</ele><time>2026-04-11T08:42:38.998Z</time></trkpt><trkpt lat="45.64113760369309" lon="8.596747199498061"><ele>296.3333333333333</ele><time>2026-04-11T08:42:39.998Z</time></trkpt><trkpt lat="45.64100927130083" lon="8.596743532736973"><ele>295.66666666666663</ele><time>2026-04-11T08:42:41.998Z</time></trkpt><trkpt lat="45.64090248306185" lon="8.596788343680661"><ele>295.0</ele><time>2026-04-11T08:42:43.998Z</time></trkpt><trkpt lat="45.64081799065882" lon="8.596886148249764"><ele>295.0</ele><time>2026-04-11T08:42:45.998Z</time></trkpt><trkpt lat="45.64075491810307" lon="8.596936406746838"><ele>295.0</ele><time>2026-04-11T08:42:46.998Z</time></trkpt><trkpt lat="45.6406729413644" lon="8.59699920583349"><ele>295.0</ele><time>2026-04-11T08:42:47.997Z</time></trkpt><trkpt lat="45.64059071880029" lon="8.597063209217726"><ele>295.0</ele><time>2026-04-11T08:42:48.997Z</time></trkpt><trkpt lat="45.64051403335322" lon="8.597125973583799"><ele>295.0</ele><time>2026-04-11T08:42:49.997Z</time></trkpt><trkpt lat="45.64041916745475" lon="8.597182935433947"><ele>294.8333333333333</ele><time>2026-04-11T08:42:50.997Z</time></trkpt><trkpt lat="45.640320285369555" lon="8.597230656020315"><ele>294.66666666666663</ele><time>2026-04-11T08:42:51.997Z</time></trkpt><trkpt lat="45.640237199219854" lon="8.597263355671567"><ele>294.5</ele><time>2026-04-11T08:42:52.997Z</time></trkpt><trkpt lat="45.64016188483345" lon="8.597301138350243"><ele>294.3333333333333</ele><time>2026-04-11T08:42:54Z</time></trkpt><trkpt lat="45.640091405071466" lon="8.59736918466413"><ele>294.1666666666667</ele><time>2026-04-11T08:42:55Z</time></trkpt><trkpt lat="45.640023185272504" lon="8.597434214908663"><ele>294.0</ele><time>2026-04-11T08:42:55.999Z</time></trkpt><trkpt lat="45.63995143287154" lon="8.597490627661369"><ele>294.0</ele><time>2026-04-11T08:42:56.999Z</time></trkpt><trkpt lat="45.6398803747615" lon="8.59755203962037"><ele>294.0</ele><time>2026-04-11T08:42:58Z</time></trkpt><trkpt lat="45.63978062775041" lon="8.597612656994063"><ele>294.0</ele><time>2026-04-11T08:42:59.999Z</time></trkpt><trkpt lat="45.639716569915855" lon="8.597662049162027"><ele>294.0</ele><time>2026-04-11T08:43:01Z</time></trkpt><trkpt lat="45.6396542273388" lon="8.597702240247227"><ele>294.0</ele><time>2026-04-11T08:43:01.999Z</time></trkpt><trkpt lat="45.63958114391337" lon="8.597750863643759"><ele>294.0</ele><time>2026-04-11T08:43:02.999Z</time></trkpt><trkpt lat="45.63950541109177" lon="8.597809658481276"><ele>294.0</ele><time>2026-04-11T08:43:04Z</time></trkpt><trkpt lat="45.6394205105309" lon="8.59787033684471"><ele>294.0</ele><time>2026-04-11T08:43:04.999Z</time></trkpt><trkpt lat="45.6393445250039" lon="8.5979238661266"><ele>294.0</ele><time>2026-04-11T08:43:06Z</time></trkpt><trkpt lat="45.639277003061764" lon="8.597979840594657"><ele>294.0</ele><time>2026-04-11T08:43:07Z</time></trkpt><trkpt lat="45.6391844031629" lon="8.598052671837447"><ele>294.0</ele><time>2026-04-11T08:43:08Z</time></trkpt><trkpt lat="45.639098416303675" lon="8.598114368375382"><ele>294.0</ele><time>2026-04-11T08:43:08.999Z</time></trkpt><trkpt lat="45.6390385763322" lon="8.59816739785317"><ele>294.0</ele><time>2026-04-11T08:43:09.999Z</time></trkpt><trkpt lat="45.63896833475295" lon="8.598234937725806"><ele>294.0</ele><time>2026-04-11T08:43:10.999Z</time></trkpt><trkpt lat="45.63888298669207" lon="8.5983152849061"><ele>294.0</ele><time>2026-04-11T08:43:11.999Z</time></trkpt><trkpt lat="45.638805302009" lon="8.59839068415272"><ele>294.0</ele><time>2026-04-11T08:43:12.999Z</time></trkpt><trkpt lat="45.63870703858037" lon="8.598455516961119"><ele>294.0</ele><time>2026-04-11T08:43:13.999Z</time></trkpt><trkpt lat="45.63862305221164" lon="8.5985192107601"><ele>294.0</ele><time>2026-04-11T08:43:14.999Z</time></trkpt><trkpt lat="45.63854020501881" lon="8.598576558254464"><ele>294.0</ele><time>2026-04-11T08:43:15.999Z</time></trkpt><trkpt lat="45.638451659739566" lon="8.598628603833525"><ele>294.0</ele><time>2026-04-11T08:43:16.999Z</time></trkpt><trkpt lat="45.63836573239041" lon="8.598683192686929"><ele>294.0</ele><time>2026-04-11T08:43:17.999Z</time></trkpt><trkpt lat="45.63828294801316" lon="8.5987448878425"><ele>294.0</ele><time>2026-04-11T08:43:18.999Z</time></trkpt><trkpt lat="45.6382028091813" lon="8.598800357715819"><ele>294.0</ele><time>2026-04-11T08:43:19.999Z</time></trkpt><trkpt lat="45.63812426901124" lon="8.598849896426671"><ele>294.0</ele><time>2026-04-11T08:43:20.999Z</time></trkpt><trkpt lat="45.63804946881551" lon="8.598906442258576"><ele>294.0</ele><time>2026-04-11T08:43:21.999Z</time></trkpt><trkpt lat="45.637975276084305" lon="8.5989693114179"><ele>294.0</ele><time>2026-04-11T08:43:22.999Z</time></trkpt><trkpt lat="45.63788849957819" lon="8.599033923130504"><ele>294.0</ele><time>2026-04-11T08:43:23.999Z</time></trkpt><trkpt lat="45.63780125476995" lon="8.599101203059938"><ele>292.59999999999997</ele><time>2026-04-11T08:43:24.999Z</time></trkpt><trkpt lat="45.63770433642943" lon="8.599170162522865"><ele>291.2</ele><time>2026-04-11T08:43:25.999Z</time></trkpt><trkpt lat="45.637618046738744" lon="8.599229236771786"><ele>289.79999999999995</ele><time>2026-04-11T08:43:26.999Z</time></trkpt><trkpt lat="45.63752845365771" lon="8.599295854151633"><ele>288.4</ele><time>2026-04-11T08:43:27.999Z</time></trkpt><trkpt lat="45.63743876097944" lon="8.599361421102621"><ele>287.0</ele><time>2026-04-11T08:43:28.999Z</time></trkpt><trkpt lat="45.6373412892743" lon="8.59942460471223"><ele>287.0</ele><time>2026-04-11T08:43:29.999Z</time></trkpt><trkpt lat="45.63724880463913" lon="8.59947907916834"><ele>287.0</ele><time>2026-04-11T08:43:30.999Z</time></trkpt><trkpt lat="45.637155912784046" lon="8.599532874999785"><ele>287.0</ele><time>2026-04-11T08:43:31.999Z</time></trkpt><trkpt lat="45.63705409119303" lon="8.59957951608643"><ele>287.0</ele><time>2026-04-11T08:43:32.999Z</time></trkpt><trkpt lat="45.63694934192559" lon="8.59962266758081"><ele>287.0</ele><time>2026-04-11T08:43:33.999Z</time></trkpt><trkpt lat="45.63683799274256" lon="8.599675354708696"><ele>286.5</ele><time>2026-04-11T08:43:34.999Z</time></trkpt><trkpt lat="45.63672735488427" lon="8.599730493327193"><ele>286.0</ele><time>2026-04-11T08:43:35.999Z</time></trkpt><trkpt lat="45.63662325073035" lon="8.59978125102066"><ele>285.5</ele><time>2026-04-11T08:43:36.999Z</time></trkpt><trkpt lat="45.636512910836124" lon="8.599821759588377"><ele>285.0</ele><time>2026-04-11T08:43:37.999Z</time></trkpt><trkpt lat="45.63640538603139" lon="8.599865697349717"><ele>285.0</ele><time>2026-04-11T08:43:38.999Z</time></trkpt><trkpt lat="45.63628848017999" lon="8.59992655632778"><ele>285.0</ele><time>2026-04-11T08:43:39.999Z</time></trkpt><trkpt lat="45.63616892508488" lon="8.599982003438816"><ele>285.0</ele><time>2026-04-11T08:43:40.999Z</time></trkpt><trkpt lat="45.63607792750066" lon="8.600022439592902"><ele>285.0</ele><time>2026-04-11T08:43:41.999Z</time></trkpt><trkpt lat="45.63599845456408" lon="8.600071576018628"><ele>285.0</ele><time>2026-04-11T08:43:42.999Z</time></trkpt><trkpt lat="45.63590464492289" lon="8.600112522000012"><ele>285.6</ele><time>2026-04-11T08:43:43.999Z</time></trkpt><trkpt lat="45.63581135046293" lon="8.60014984899617"><ele>286.2</ele><time>2026-04-11T08:43:44.999Z</time></trkpt><trkpt lat="45.63569328736537" lon="8.600205733495446"><ele>286.8</ele><time>2026-04-11T08:43:45.999Z</time></trkpt><trkpt lat="45.635580589214484" lon="8.600261406016598"><ele>287.4</ele><time>2026-04-11T08:43:46.999Z</time></trkpt><trkpt lat="45.63548187157214" lon="8.600307237671265"><ele>288.0</ele><time>2026-04-11T08:43:47.999Z</time></trkpt><trkpt lat="45.63538237597631" lon="8.600347164256986"><ele>287.25</ele><time>2026-04-11T08:43:48.999Z</time></trkpt><trkpt lat="45.63526247402716" lon="8.600397744720011"><ele>286.5</ele><time>2026-04-11T08:43:49.999Z</time></trkpt><trkpt lat="45.6351430865075" lon="8.600449324883249"><ele>285.75</ele><time>2026-04-11T08:43:50.999Z</time></trkpt><trkpt lat="45.63502053661757" lon="8.600505468727633"><ele>285.0</ele><time>2026-04-11T08:43:51.999Z</time></trkpt><trkpt lat="45.634900212915646" lon="8.600557212752232"><ele>285.0</ele><time>2026-04-11T08:43:52.999Z</time></trkpt><trkpt lat="45.63479912014346" lon="8.600600585743532"><ele>285.0</ele><time>2026-04-11T08:43:53.999Z</time></trkpt><trkpt lat="45.634703712063526" lon="8.600650385268201"><ele>285.0</ele><time>2026-04-11T08:43:54.999Z</time></trkpt><trkpt lat="45.63460079016833" lon="8.60071677481866"><ele>285.0</ele><time>2026-04-11T08:43:55.999Z</time></trkpt><trkpt lat="45.63449184638677" lon="8.600795959523726"><ele>285.0</ele><time>2026-04-11T08:43:56.999Z</time></trkpt><trkpt lat="45.63437698326076" lon="8.600879561101515"><ele>284.75</ele><time>2026-04-11T08:43:57.999Z</time></trkpt><trkpt lat="45.63426334945573" lon="8.600972351136749"><ele>284.5</ele><time>2026-04-11T08:43:58.998Z</time></trkpt><trkpt lat="45.6341560865521" lon="8.601050993643376"><ele>284.25</ele><time>2026-04-11T08:43:59.998Z</time></trkpt><trkpt lat="45.63405851570655" lon="8.601112614872646"><ele>284.0</ele><time>2026-04-11T08:44:00.998Z</time></trkpt><trkpt lat="45.63397416400717" lon="8.601166643394782"><ele>284.0</ele><time>2026-04-11T08:44:01.998Z</time></trkpt><trkpt lat="45.63388809373462" lon="8.601225934580944"><ele>284.0</ele><time>2026-04-11T08:44:02.998Z</time></trkpt><trkpt lat="45.63381223595092" lon="8.60127713795149"><ele>284.0</ele><time>2026-04-11T08:44:03.998Z</time></trkpt><trkpt lat="45.63375108180806" lon="8.601314000957272"><ele>284.0</ele><time>2026-04-11T08:44:04.998Z</time></trkpt><trkpt lat="45.63363433427943" lon="8.601325326867979"><ele>284.0</ele><time>2026-04-11T08:44:06.998Z</time></trkpt><trkpt lat="45.63354855722214" lon="8.601299046115741"><ele>282.5</ele><time>2026-04-11T08:44:07.998Z</time></trkpt><trkpt lat="45.6334449508743" lon="8.601298735228804"><ele>281.0</ele><time>2026-04-11T08:44:08.998Z</time></trkpt><trkpt lat="45.633319064106985" lon="8.601337861827231"><ele>279.5</ele><time>2026-04-11T08:44:09.998Z</time></trkpt><trkpt lat="45.63316060264322" lon="8.601396476361144"><ele>278.0</ele><time>2026-04-11T08:44:10.998Z</time></trkpt><trkpt lat="45.63299640350789" lon="8.60142108671024"><ele>278.0</ele><time>2026-04-11T08:44:11.998Z</time></trkpt><trkpt lat="45.632863526068526" lon="8.60142430787849"><ele>278.0</ele><time>2026-04-11T08:44:12.998Z</time></trkpt><trkpt lat="45.63273658040566" lon="8.601469748060328"><ele>278.0</ele><time>2026-04-11T08:44:13.998Z</time></trkpt><trkpt lat="45.632621818138176" lon="8.601492101369157"><ele>278.0</ele><time>2026-04-11T08:44:14.998Z</time></trkpt><trkpt lat="45.6325194665253" lon="8.601503731131567"><ele>277.33333333333337</ele><time>2026-04-11T08:44:15.998Z</time></trkpt><trkpt lat="45.632431064922095" lon="8.601535787112432"><ele>276.6666666666667</ele><time>2026-04-11T08:44:16.998Z</time></trkpt><trkpt lat="45.63236798201231" lon="8.601527654398259"><ele>276.0</ele><time>2026-04-11T08:44:17.998Z</time></trkpt><trkpt lat="45.632300960667685" lon="8.601449855485379"><ele>275.3333333333333</ele><time>2026-04-11T08:44:19.998Z</time></trkpt><trkpt lat="45.63230614439853" lon="8.601350541232168"><ele>274.66666666666663</ele><time>2026-04-11T08:44:20.998Z</time></trkpt><trkpt lat="45.632292112877465" lon="8.601187573274286"><ele>274.0</ele><time>2026-04-11T08:44:21.998Z</time></trkpt><trkpt lat="45.63227991714317" lon="8.600964838508458"><ele>273.5</ele><time>2026-04-11T08:44:22.998Z</time></trkpt><trkpt lat="45.63226905468115" lon="8.600735605901429"><ele>273.0</ele><time>2026-04-11T08:44:23.998Z</time></trkpt><trkpt lat="45.63226417473135" lon="8.600549453416978"><ele>272.5</ele><time>2026-04-11T08:44:24.998Z</time></trkpt><trkpt lat="45.63225345868648" lon="8.60042030029572"><ele>272.0</ele><time>2026-04-11T08:44:25.998Z</time></trkpt><trkpt lat="45.632218441392894" lon="8.600335222165212"><ele>271.5</ele><time>2026-04-11T08:44:26.998Z</time></trkpt><trkpt lat="45.632122086380505" lon="8.600293050511606"><ele>271.0</ele><time>2026-04-11T08:44:28.998Z</time></trkpt><trkpt lat="45.63202927799381" lon="8.60022050784055"><ele>270.5</ele><time>2026-04-11T08:44:29.998Z</time></trkpt><trkpt lat="45.63191594529181" lon="8.600133102217717"><ele>270.0</ele><time>2026-04-11T08:44:30.998Z</time></trkpt><trkpt lat="45.63176308371244" lon="8.600040000676543"><ele>269.8</ele><time>2026-04-11T08:44:31.998Z</time></trkpt><trkpt lat="45.63163261513498" lon="8.599935736345572"><ele>269.6</ele><time>2026-04-11T08:44:32.998Z</time></trkpt><trkpt lat="45.63153195781834" lon="8.599853948882101"><ele>269.4</ele><time>2026-04-11T08:44:33.998Z</time></trkpt><trkpt lat="45.63144551477052" lon="8.599807355507043"><ele>269.2</ele><time>2026-04-11T08:44:34.998Z</time></trkpt><trkpt lat="45.63137659733357" lon="8.599784451342074"><ele>269.0</ele><time>2026-04-11T08:44:35.998Z</time></trkpt><trkpt lat="45.63127948912048" lon="8.599773323778269"><ele>269.0</ele><time>2026-04-11T08:44:37.998Z</time></trkpt><trkpt lat="45.63121971985214" lon="8.59973728778433"><ele>269.0</ele><time>2026-04-11T08:44:48.997Z</time></trkpt><trkpt lat="45.631147811724624" lon="8.599756093178717"><ele>269.0</ele><time>2026-04-11T08:44:50.997Z</time></trkpt><trkpt lat="45.63102402058738" lon="8.599868766526889"><ele>269.0</ele><time>2026-04-11T08:44:52.997Z</time></trkpt><trkpt lat="45.63095785349708" lon="8.59985952076022"><ele>269.0</ele><time>2026-04-11T08:44:53.997Z</time></trkpt><trkpt lat="45.630882473987946" lon="8.599841000826649"><ele>269.0</ele><time>2026-04-11T08:44:54.997Z</time></trkpt><trkpt lat="45.630811141874794" lon="8.599820354162516"><ele>270.0</ele><time>2026-04-11T08:44:55.997Z</time></trkpt><trkpt lat="45.630720558856076" lon="8.599799964278127"><ele>271.0</ele><time>2026-04-11T08:44:57.997Z</time></trkpt><trkpt lat="45.63076309085208" lon="8.599107659988933"><ele>272.8</ele><time>2026-04-11T08:45:01Z</time></trkpt><trkpt lat="45.630819251765374" lon="8.599021646109485"><ele>274.6</ele><time>2026-04-11T08:45:02Z</time></trkpt><trkpt lat="45.6308435624192" lon="8.598913852514114"><ele>276.4</ele><time>2026-04-11T08:45:03Z</time></trkpt><trkpt lat="45.63091718014999" lon="8.598805437429245"><ele>278.2</ele><time>2026-04-11T08:45:05Z</time></trkpt><trkpt lat="45.63090329433546" lon="8.598667444862418"><ele>280.0</ele><time>2026-04-11T08:45:07Z</time></trkpt><trkpt lat="45.63081265807415" lon="8.598606558285605"><ele>282.4</ele><time>2026-04-11T08:45:08.999Z</time></trkpt><trkpt lat="45.63071101191249" lon="8.598525461313308"><ele>284.8</ele><time>2026-04-11T08:45:10.999Z</time></trkpt><trkpt lat="45.63069530000706" lon="8.598359168331726"><ele>287.2</ele><time>2026-04-11T08:45:12.999Z</time></trkpt><trkpt lat="45.63068976717382" lon="8.598245603878226"><ele>289.6</ele><time>2026-04-11T08:45:13.999Z</time></trkpt><trkpt lat="45.630664266752724" lon="8.598137219173823"><ele>292.0</ele><time>2026-04-11T08:45:14.999Z</time></trkpt><trkpt lat="45.630596440322876" lon="8.59795680420467"><ele>292.0</ele><time>2026-04-11T08:45:16.999Z</time></trkpt><trkpt lat="45.630576815752484" lon="8.597859286762636"><ele>292.0</ele><time>2026-04-11T08:45:17.999Z</time></trkpt><trkpt lat="45.63054466890873" lon="8.597766378009368"><ele>292.0</ele><time>2026-04-11T08:45:18.999Z</time></trkpt><trkpt lat="45.63048981500101" lon="8.597626967585764"><ele>292.0</ele><time>2026-04-11T08:45:20.999Z</time></trkpt><trkpt lat="45.630461120880554" lon="8.597463172151745"><ele>292.0</ele><time>2026-04-11T08:45:22.999Z</time></trkpt><trkpt lat="45.630429730213685" lon="8.59736784648821"><ele>292.0</ele><time>2026-04-11T08:45:23.999Z</time></trkpt><trkpt lat="45.63039171857679" lon="8.597241898427416"><ele>292.5</ele><time>2026-04-11T08:45:25.999Z</time></trkpt><trkpt lat="45.63044627442998" lon="8.597160921920025"><ele>293.0</ele><time>2026-04-11T08:47:23Z</time></trkpt><trkpt lat="45.63051172729357" lon="8.597128946968134"><ele>293.5</ele><time>2026-04-11T08:47:24Z</time></trkpt><trkpt lat="45.63058671392642" lon="8.597099880024905"><ele>294.0</ele><time>2026-04-11T08:47:25Z</time></trkpt><trkpt lat="45.63067845517314" lon="8.597110055409482"><ele>294.5</ele><time>2026-04-11T08:47:26Z</time></trkpt><trkpt lat="45.6307384975352" lon="8.59707871093553"><ele>295.0</ele><time>2026-04-11T08:47:27Z</time></trkpt><trkpt lat="45.63085194488625" lon="8.597019981437748"><ele>294.5</ele><time>2026-04-11T08:47:29Z</time></trkpt><trkpt lat="45.63091505014809" lon="8.596988687417525"><ele>294.0</ele><time>2026-04-11T08:47:30Z</time></trkpt><trkpt lat="45.630985172825746" lon="8.596958047601248"><ele>293.5</ele><time>2026-04-11T08:47:31Z</time></trkpt><trkpt lat="45.631064076308064" lon="8.59692325250448"><ele>293.0</ele><time>2026-04-11T08:47:32Z</time></trkpt><trkpt lat="45.63115208319074" lon="8.596884442953632"><ele>292.5</ele><time>2026-04-11T08:47:33Z</time></trkpt><trkpt lat="45.631242803068496" lon="8.596842872117335"><ele>292.0</ele><time>2026-04-11T08:47:33.999Z</time></trkpt><trkpt lat="45.63132796296117" lon="8.596802296405075"><ele>292.0</ele><time>2026-04-11T08:47:34.999Z</time></trkpt><trkpt lat="45.631415161635154" lon="8.59676092388917"><ele>292.0</ele><time>2026-04-11T08:47:35.999Z</time></trkpt><trkpt lat="45.63150219806417" lon="8.5967213091367"><ele>292.0</ele><time>2026-04-11T08:47:36.999Z</time></trkpt><trkpt lat="45.631593448049514" lon="8.596678393675994"><ele>292.0</ele><time>2026-04-11T08:47:37.999Z</time></trkpt><trkpt lat="45.63168424264153" lon="8.596626559236567"><ele>292.0</ele><time>2026-04-11T08:47:38.999Z</time></trkpt><trkpt lat="45.63177774473972" lon="8.596562006563458"><ele>292.0</ele><time>2026-04-11T08:47:39.999Z</time></trkpt><trkpt lat="45.63185609442776" lon="8.596499830388387"><ele>292.0</ele><time>2026-04-11T08:47:40.999Z</time></trkpt><trkpt lat="45.63193444703169" lon="8.596403517834734"><ele>292.0</ele><time>2026-04-11T08:47:41.999Z</time></trkpt><trkpt lat="45.6320126981933" lon="8.596328247752913"><ele>292.0</ele><time>2026-04-11T08:47:42.999Z</time></trkpt><trkpt lat="45.63209484632109" lon="8.596250112102743"><ele>292.0</ele><time>2026-04-11T08:47:43.999Z</time></trkpt><trkpt lat="45.63217573926107" lon="8.59617143911965"><ele>292.8</ele><time>2026-04-11T08:47:44.999Z</time></trkpt><trkpt lat="45.63225771700161" lon="8.59608860612393"><ele>293.6</ele><time>2026-04-11T08:47:45.999Z</time></trkpt><trkpt lat="45.63233912970588" lon="8.596006344062824"><ele>294.40000000000003</ele><time>2026-04-11T08:47:46.999Z</time></trkpt><trkpt lat="45.63242007557293" lon="8.595924335724193"><ele>295.2</ele><time>2026-04-11T08:47:47.999Z</time></trkpt><trkpt lat="45.632503463466286" lon="8.595841238181851"><ele>296.0</ele><time>2026-04-11T08:47:48.999Z</time></trkpt><trkpt lat="45.632584688022256" lon="8.595759783206887"><ele>296.0</ele><time>2026-04-11T08:47:49.999Z</time></trkpt><trkpt lat="45.63266326411487" lon="8.59568119326252"><ele>296.0</ele><time>2026-04-11T08:47:50.999Z</time></trkpt><trkpt lat="45.63273924246592" lon="8.595605971041957"><ele>296.0</ele><time>2026-04-11T08:47:51.999Z</time></trkpt><trkpt lat="45.632810503068065" lon="8.595535554309857"><ele>296.0</ele><time>2026-04-11T08:47:52.999Z</time></trkpt><trkpt lat="45.632883921942735" lon="8.59546558050535"><ele>296.0</ele><time>2026-04-11T08:47:53.999Z</time></trkpt><trkpt lat="45.63296000169697" lon="8.595393407782934"><ele>297.5</ele><time>2026-04-11T08:47:54.999Z</time></trkpt><trkpt lat="45.63303589868073" lon="8.595318171930943"><ele>299.0</ele><time>2026-04-11T08:47:55.999Z</time></trkpt><trkpt lat="45.63311146372297" lon="8.595241354898294"><ele>300.5</ele><time>2026-04-11T08:47:56.999Z</time></trkpt><trkpt lat="45.633193119269976" lon="8.595164307885195"><ele>302.0</ele><time>2026-04-11T08:47:57.999Z</time></trkpt><trkpt lat="45.633263538480385" lon="8.595100865554189"><ele>303.5</ele><time>2026-04-11T08:47:58.999Z</time></trkpt><trkpt lat="45.633319834200016" lon="8.595055106600636"><ele>305.0</ele><time>2026-04-11T08:47:59.999Z</time></trkpt><trkpt lat="45.63337269280589" lon="8.594994930131424"><ele>305.0</ele><time>2026-04-11T08:48:00.999Z</time></trkpt><trkpt lat="45.633407512847675" lon="8.594903479578972"><ele>305.0</ele><time>2026-04-11T08:48:01.999Z</time></trkpt><trkpt lat="45.63335978792406" lon="8.594764451388706"><ele>305.0</ele><time>2026-04-11T08:48:02.999Z</time></trkpt><trkpt lat="45.633345752913826" lon="8.59462899176989"><ele>305.0</ele><time>2026-04-11T08:48:03.999Z</time></trkpt><trkpt lat="45.633318890131314" lon="8.594479476265583"><ele>305.0</ele><time>2026-04-11T08:48:04.999Z</time></trkpt><trkpt lat="45.63329046433933" lon="8.594318068735067"><ele>304.8</ele><time>2026-04-11T08:48:05.999Z</time></trkpt><trkpt lat="45.633261653676485" lon="8.594157674257627"><ele>304.6</ele><time>2026-04-11T08:48:06.999Z</time></trkpt><trkpt lat="45.63323852534722" lon="8.594026006544098"><ele>304.4</ele><time>2026-04-11T08:48:07.999Z</time></trkpt><trkpt lat="45.633217083739616" lon="8.59389915046754"><ele>304.2</ele><time>2026-04-11T08:48:08.999Z</time></trkpt><trkpt lat="45.63319881101958" lon="8.59379104267095"><ele>304.0</ele><time>2026-04-11T08:48:09.999Z</time></trkpt><trkpt lat="45.633178588921474" lon="8.59367130780197"><ele>303.5</ele><time>2026-04-11T08:48:10.999Z</time></trkpt><trkpt lat="45.63315564295857" lon="8.593542699165903"><ele>303.0</ele><time>2026-04-11T08:48:11.999Z</time></trkpt><trkpt lat="45.633132737870845" lon="8.593426198566467"><ele>302.5</ele><time>2026-04-11T08:48:12.999Z</time></trkpt><trkpt lat="45.63311167043556" lon="8.593321896966083"><ele>302.0</ele><time>2026-04-11T08:48:13.999Z</time></trkpt><trkpt lat="45.633091539943614" lon="8.59322370558268"><ele>301.5</ele><time>2026-04-11T08:48:14.999Z</time></trkpt><trkpt lat="45.633073024458696" lon="8.593129520115184"><ele>301.0</ele><time>2026-04-11T08:48:15.999Z</time></trkpt><trkpt lat="45.63305129301555" lon="8.593028655288883"><ele>301.0</ele><time>2026-04-11T08:48:17.999Z</time></trkpt><trkpt lat="45.63317518689683" lon="8.59303926986952"><ele>301.0</ele><time>2026-04-11T08:48:20.998Z</time></trkpt><trkpt lat="45.633242355299906" lon="8.592996007946315"><ele>301.0</ele><time>2026-04-11T08:48:21.998Z</time></trkpt><trkpt lat="45.633324099981756" lon="8.592998492534226"><ele>301.0</ele><time>2026-04-11T08:48:22.998Z</time></trkpt><trkpt lat="45.63341292335197" lon="8.592976838659256"><ele>301.0</ele><time>2026-04-11T08:48:23.998Z</time></trkpt><trkpt lat="45.63349559006596" lon="8.592935393736798"><ele>301.0</ele><time>2026-04-11T08:48:24.998Z</time></trkpt><trkpt lat="45.63358412871018" lon="8.592936070063626"><ele>301.0</ele><time>2026-04-11T08:48:25.998Z</time></trkpt><trkpt lat="45.63368156034133" lon="8.59291356140993"><ele>301.0</ele><time>2026-04-11T08:48:26.998Z</time></trkpt><trkpt lat="45.63377654652805" lon="8.592892138677966"><ele>301.0</ele><time>2026-04-11T08:48:27.998Z</time></trkpt><trkpt lat="45.63388167553154" lon="8.592868870967504"><ele>301.0</ele><time>2026-04-11T08:48:28.998Z</time></trkpt><trkpt lat="45.63396871212572" lon="8.592849607577472"><ele>301.16666666666663</ele><time>2026-04-11T08:48:29.998Z</time></trkpt><trkpt lat="45.6340489993715" lon="8.592807293695074"><ele>301.3333333333333</ele><time>2026-04-11T08:48:30.998Z</time></trkpt><trkpt lat="45.6341273768007" lon="8.59279259032741"><ele>301.5</ele><time>2026-04-11T08:48:31.998Z</time></trkpt><trkpt lat="45.63421448456717" lon="8.592786077110715"><ele>301.6666666666667</ele><time>2026-04-11T08:48:32.998Z</time></trkpt><trkpt lat="45.63429898851329" lon="8.592767358773846"><ele>301.83333333333337</ele><time>2026-04-11T08:48:33.998Z</time></trkpt><trkpt lat="45.634391694094035" lon="8.592749879154567"><ele>302.0</ele><time>2026-04-11T08:48:34.998Z</time></trkpt><trkpt lat="45.634493720959654" lon="8.592730641992665"><ele>302.0</ele><time>2026-04-11T08:48:35.998Z</time></trkpt><trkpt lat="45.63460154011448" lon="8.592708993870591"><ele>302.0</ele><time>2026-04-11T08:48:36.998Z</time></trkpt><trkpt lat="45.634711670788676" lon="8.592662842814748"><ele>302.0</ele><time>2026-04-11T08:48:37.998Z</time></trkpt><trkpt lat="45.63481223107651" lon="8.5926254321532"><ele>302.0</ele><time>2026-04-11T08:48:38.998Z</time></trkpt><trkpt lat="45.63490718756276" lon="8.59259053668266"><ele>302.0</ele><time>2026-04-11T08:48:39.998Z</time></trkpt><trkpt lat="45.63499620258543" lon="8.592566787075752"><ele>302.0</ele><time>2026-04-11T08:48:40.998Z</time></trkpt><trkpt lat="45.63508434514627" lon="8.592528828211648"><ele>302.0</ele><time>2026-04-11T08:48:41.998Z</time></trkpt><trkpt lat="45.63517844285499" lon="8.592505256418391"><ele>302.0</ele><time>2026-04-11T08:48:42.998Z</time></trkpt><trkpt lat="45.635270551197905" lon="8.592495312434721"><ele>302.0</ele><time>2026-04-11T08:48:43.998Z</time></trkpt><trkpt lat="45.635368747762" lon="8.592449629235857"><ele>302.0</ele><time>2026-04-11T08:48:44.998Z</time></trkpt><trkpt lat="45.63546598349885" lon="8.592418972470513"><ele>302.2</ele><time>2026-04-11T08:48:45.998Z</time></trkpt><trkpt lat="45.6355735614823" lon="8.592382412236809"><ele>302.4</ele><time>2026-04-11T08:48:46.998Z</time></trkpt><trkpt lat="45.635678839564896" lon="8.592344829567889"><ele>302.6</ele><time>2026-04-11T08:48:47.998Z</time></trkpt><trkpt lat="45.63578471350982" lon="8.592310022170981"><ele>302.8</ele><time>2026-04-11T08:48:48.998Z</time></trkpt><trkpt lat="45.63587693561663" lon="8.592287532238283"><ele>303.0</ele><time>2026-04-11T08:48:49.998Z</time></trkpt><trkpt lat="45.63596376044989" lon="8.592264940322377"><ele>303.0</ele><time>2026-04-11T08:48:50.998Z</time></trkpt><trkpt lat="45.63604434494832" lon="8.592235962746223"><ele>303.0</ele><time>2026-04-11T08:48:51.998Z</time></trkpt><trkpt lat="45.636120913900626" lon="8.592222438260835"><ele>303.0</ele><time>2026-04-11T08:48:53.998Z</time></trkpt><trkpt lat="45.63618717234325" lon="8.592208367585599"><ele>303.0</ele><time>2026-04-11T08:49:13Z</time></trkpt><trkpt lat="45.636265080505524" lon="8.592183795388527"><ele>303.0</ele><time>2026-04-11T08:49:23Z</time></trkpt><trkpt lat="45.636383505243906" lon="8.59212309694919"><ele>303.0</ele><time>2026-04-11T08:49:25Z</time></trkpt><trkpt lat="45.636453986893464" lon="8.592124214406251"><ele>303.4</ele><time>2026-04-11T08:49:26Z</time></trkpt><trkpt lat="45.6365278594848" lon="8.592101198272651"><ele>303.8</ele><time>2026-04-11T08:49:27Z</time></trkpt><trkpt lat="45.636618079132134" lon="8.592075268764015"><ele>304.2</ele><time>2026-04-11T08:49:28Z</time></trkpt><trkpt lat="45.63670035303466" lon="8.592029955821042"><ele>304.6</ele><time>2026-04-11T08:49:29Z</time></trkpt><trkpt lat="45.63679693098095" lon="8.592002022827796"><ele>305.0</ele><time>2026-04-11T08:49:30Z</time></trkpt><trkpt lat="45.63689962689596" lon="8.591964184455406"><ele>306.0</ele><time>2026-04-11T08:49:31Z</time></trkpt><trkpt lat="45.63700432696378" lon="8.591922437268988"><ele>307.0</ele><time>2026-04-11T08:49:32Z</time></trkpt><trkpt lat="45.63710613430168" lon="8.591901375438168"><ele>308.0</ele><time>2026-04-11T08:49:33Z</time></trkpt><trkpt lat="45.63718581578958" lon="8.59183204599951"><ele>309.0</ele><time>2026-04-11T08:49:34.999Z</time></trkpt><trkpt lat="45.63725175130385" lon="8.591786773585671"><ele>310.0</ele><time>2026-04-11T08:49:47.999Z</time></trkpt><trkpt lat="45.6371840240965" lon="8.591269736011654"><ele>309.6</ele><time>2026-04-11T08:49:49.999Z</time></trkpt><trkpt lat="45.63718465589655" lon="8.591117986899775"><ele>309.2</ele><time>2026-04-11T08:49:50.999Z</time></trkpt><trkpt lat="45.63718713384161" lon="8.590959286542018"><ele>308.8</ele><time>2026-04-11T08:49:51.999Z</time></trkpt><trkpt lat="45.6371930736134" lon="8.590814506478921"><ele>308.4</ele><time>2026-04-11T08:49:52.999Z</time></trkpt><trkpt lat="45.63720228065012" lon="8.590668636380473"><ele>308.0</ele><time>2026-04-11T08:49:53.999Z</time></trkpt><trkpt lat="45.63720336404591" lon="8.590528682056698"><ele>308.0</ele><time>2026-04-11T08:49:54.999Z</time></trkpt><trkpt lat="45.63720131027927" lon="8.590381043073807"><ele>308.0</ele><time>2026-04-11T08:49:55.999Z</time></trkpt><trkpt lat="45.637200863644814" lon="8.590231400406054"><ele>308.0</ele><time>2026-04-11T08:49:56.999Z</time></trkpt><trkpt lat="45.637206255051126" lon="8.590096529625994"><ele>308.0</ele><time>2026-04-11T08:49:57.999Z</time></trkpt><trkpt lat="45.63720687928243" lon="8.589951822324998"><ele>308.0</ele><time>2026-04-11T08:49:58.999Z</time></trkpt><trkpt lat="45.63721385278749" lon="8.589824521013842"><ele>308.0</ele><time>2026-04-11T08:49:59.999Z</time></trkpt><trkpt lat="45.637218940054815" lon="8.589717763700481"><ele>308.0</ele><time>2026-04-11T08:50:00.999Z</time></trkpt><trkpt lat="45.637222225134806" lon="8.589618949864514"><ele>308.0</ele><time>2026-04-11T08:50:01.999Z</time></trkpt><trkpt lat="45.63723747448662" lon="8.58949235638479"><ele>308.0</ele><time>2026-04-11T08:50:02.999Z</time></trkpt><trkpt lat="45.637252673211414" lon="8.589351602774977"><ele>308.0</ele><time>2026-04-11T08:50:03.999Z</time></trkpt><trkpt lat="45.637260197938204" lon="8.589203142501715"><ele>308.0</ele><time>2026-04-11T08:50:04.999Z</time></trkpt><trkpt lat="45.637264193592955" lon="8.589082348534959"><ele>308.0</ele><time>2026-04-11T08:50:05.999Z</time></trkpt><trkpt lat="45.63727261583919" lon="8.588982995958514"><ele>308.0</ele><time>2026-04-11T08:50:06.999Z</time></trkpt><trkpt lat="45.63727975027046" lon="8.588893405866557"><ele>308.0</ele><time>2026-04-11T08:50:07.999Z</time></trkpt><trkpt lat="45.63728707543475" lon="8.588802725409856"><ele>308.0</ele><time>2026-04-11T08:50:08.999Z</time></trkpt><trkpt lat="45.63729209984179" lon="8.5886923326226"><ele>308.0</ele><time>2026-04-11T08:50:09.999Z</time></trkpt><trkpt lat="45.637285604721995" lon="8.588558107224497"><ele>308.0</ele><time>2026-04-11T08:50:10.999Z</time></trkpt><trkpt lat="45.63728300035222" lon="8.588410438262368"><ele>307.8</ele><time>2026-04-11T08:50:11.999Z</time></trkpt><trkpt lat="45.63728242055948" lon="8.588267461249025"><ele>307.6</ele><time>2026-04-11T08:50:12.999Z</time></trkpt><trkpt lat="45.6372836968673" lon="8.588147264384212"><ele>307.4</ele><time>2026-04-11T08:50:13.999Z</time></trkpt><trkpt lat="45.637287735689426" lon="8.588009990530425"><ele>307.2</ele><time>2026-04-11T08:50:14.999Z</time></trkpt><trkpt lat="45.63727711162458" lon="8.587853043867788"><ele>307.0</ele><time>2026-04-11T08:50:15.999Z</time></trkpt><trkpt lat="45.63726466213396" lon="8.587702851099735"><ele>306.4</ele><time>2026-04-11T08:50:16.999Z</time></trkpt><trkpt lat="45.637253587440306" lon="8.587577375430975"><ele>305.79999999999995</ele><time>2026-04-11T08:50:17.999Z</time></trkpt><trkpt lat="45.63724897393929" lon="8.58747465084985"><ele>305.2</ele><time>2026-04-11T08:50:18.999Z</time></trkpt><trkpt lat="45.63732768229433" lon="8.587360086631604"><ele>304.59999999999997</ele><time>2026-04-11T08:50:20.998Z</time></trkpt><trkpt lat="45.637446784917785" lon="8.587313003399426"><ele>304.0</ele><time>2026-04-11T08:50:21.998Z</time></trkpt><trkpt lat="45.63757607215149" lon="8.587256994382875"><ele>304.0</ele><time>2026-04-11T08:50:22.998Z</time></trkpt><trkpt lat="45.637719257844005" lon="8.587170962857527"><ele>304.0</ele><time>2026-04-11T08:50:23.998Z</time></trkpt><trkpt lat="45.63784907963471" lon="8.587092061714563"><ele>304.0</ele><time>2026-04-11T08:50:24.998Z</time></trkpt><trkpt lat="45.63797248877293" lon="8.587028400599625"><ele>304.0</ele><time>2026-04-11T08:50:25.998Z</time></trkpt><trkpt lat="45.63807097818509" lon="8.586976168027592"><ele>304.8</ele><time>2026-04-11T08:50:26.998Z</time></trkpt><trkpt lat="45.638139856891044" lon="8.586924759120082"><ele>305.59999999999997</ele><time>2026-04-11T08:50:27.998Z</time></trkpt><trkpt lat="45.63819138002073" lon="8.586809487556941"><ele>306.4</ele><time>2026-04-11T08:50:29.998Z</time></trkpt><trkpt lat="45.638178981216086" lon="8.586712338818739"><ele>307.2</ele><time>2026-04-11T08:50:30.998Z</time></trkpt><trkpt lat="45.638149804271535" lon="8.58658489673101"><ele>308.0</ele><time>2026-04-11T08:50:31.998Z</time></trkpt><trkpt lat="45.63810654261051" lon="8.586426290514707"><ele>308.0</ele><time>2026-04-11T08:50:32.998Z</time></trkpt><trkpt lat="45.63806345003681" lon="8.586255453111606"><ele>308.0</ele><time>2026-04-11T08:50:33.998Z</time></trkpt><trkpt lat="45.638022380460434" lon="8.586088743843142"><ele>308.0</ele><time>2026-04-11T08:50:34.998Z</time></trkpt><trkpt lat="45.63798875319318" lon="8.585924148736561"><ele>308.0</ele><time>2026-04-11T08:50:35.998Z</time></trkpt><trkpt lat="45.63796358130989" lon="8.58575686119174"><ele>308.0</ele><time>2026-04-11T08:50:36.998Z</time></trkpt><trkpt lat="45.63794114530225" lon="8.585597465575571"><ele>308.0</ele><time>2026-04-11T08:50:37.998Z</time></trkpt><trkpt lat="45.63791197366539" lon="8.585450621571407"><ele>308.0</ele><time>2026-04-11T08:50:38.998Z</time></trkpt><trkpt lat="45.6378729463831" lon="8.585304101454001"><ele>308.0</ele><time>2026-04-11T08:50:39.998Z</time></trkpt><trkpt lat="45.637834054395185" lon="8.585159999439862"><ele>308.0</ele><time>2026-04-11T08:50:40.998Z</time></trkpt><trkpt lat="45.637799971072546" lon="8.585020679545865"><ele>307.5</ele><time>2026-04-11T08:50:41.998Z</time></trkpt><trkpt lat="45.63777797016435" lon="8.584911144173082"><ele>307.0</ele><time>2026-04-11T08:50:42.998Z</time></trkpt><trkpt lat="45.637748423327196" lon="8.584824446639379"><ele>306.5</ele><time>2026-04-11T08:50:43.998Z</time></trkpt><trkpt lat="45.637714629291416" lon="8.584716457061857"><ele>306.0</ele><time>2026-04-11T08:50:45.998Z</time></trkpt><trkpt lat="45.637731638897506" lon="8.58457019420851"><ele>305.5</ele><time>2026-04-11T08:50:54.998Z</time></trkpt><trkpt lat="45.63769665250973" lon="8.584413103211167"><ele>305.0</ele><time>2026-04-11T08:50:56.998Z</time></trkpt><trkpt lat="45.63764463740355" lon="8.58434255299115"><ele>304.83333333333337</ele><time>2026-04-11T08:50:57.998Z</time></trkpt><trkpt lat="45.637608870439465" lon="8.584267315455136"><ele>304.6666666666667</ele><time>2026-04-11T08:50:58.998Z</time></trkpt><trkpt lat="45.63758497182487" lon="8.584170447057488"><ele>304.5</ele><time>2026-04-11T08:50:59.998Z</time></trkpt><trkpt lat="45.637568281466805" lon="8.584067761675017"><ele>304.3333333333333</ele><time>2026-04-11T08:51:00.998Z</time></trkpt><trkpt lat="45.63754988624811" lon="8.583937638264807"><ele>304.16666666666663</ele><time>2026-04-11T08:51:02.998Z</time></trkpt><trkpt lat="45.63745221486531" lon="8.583947095646316"><ele>304.0</ele><time>2026-04-11T08:51:06.998Z</time></trkpt><trkpt lat="45.637368524171244" lon="8.583967537382218"><ele>304.0</ele><time>2026-04-11T08:51:07.997Z</time></trkpt><trkpt lat="45.63729824973108" lon="8.584019955393634"><ele>304.0</ele><time>2026-04-11T08:51:09.997Z</time></trkpt><trkpt lat="45.63726172228194" lon="8.584098802331718"><ele>304.0</ele><time>2026-04-11T08:51:11.997Z</time></trkpt><trkpt lat="45.63719779435248" lon="8.584098557328662"><ele>304.0</ele><time>2026-04-11T08:51:13.997Z</time></trkpt><trkpt lat="45.63710893544965" lon="8.584054899389143"><ele>304.0</ele><time>2026-04-11T08:51:16.997Z</time></trkpt><trkpt lat="45.63704083122273" lon="8.584090698565866"><ele>304.0</ele><time>2026-04-11T08:51:17.999Z</time></trkpt><trkpt lat="45.63698297888164" lon="8.584127803349041"><ele>304.0</ele><time>2026-04-11T08:51:18.999Z</time></trkpt><trkpt lat="45.63688260582842" lon="8.58411229041414"><ele>303.0</ele><time>2026-04-11T08:51:20.999Z</time></trkpt><trkpt lat="45.63679617355298" lon="8.5840374172003"><ele>302.0</ele><time>2026-04-11T08:51:22.999Z</time></trkpt><trkpt lat="45.63675966976327" lon="8.583901497952663"><ele>301.0</ele><time>2026-04-11T08:51:24.999Z</time></trkpt><trkpt lat="45.636682264954935" lon="8.583850294461799"><ele>300.0</ele><time>2026-04-11T08:51:26.999Z</time></trkpt><trkpt lat="45.636610488372575" lon="8.583841405699632"><ele>299.0</ele><time>2026-04-11T08:51:27.999Z</time></trkpt><trkpt lat="45.63652185517011" lon="8.583782898985662"><ele>297.59999999999997</ele><time>2026-04-11T08:51:29.999Z</time></trkpt><trkpt lat="45.63644046080307" lon="8.58366551732004"><ele>296.2</ele><time>2026-04-11T08:51:31.999Z</time></trkpt><trkpt lat="45.636402975180786" lon="8.583559525342409"><ele>294.79999999999995</ele><time>2026-04-11T08:51:33.999Z</time></trkpt><trkpt lat="45.63636425530518" lon="8.583437505959546"><ele>293.4</ele><time>2026-04-11T08:51:35.999Z</time></trkpt><trkpt lat="45.63634381230908" lon="8.583237540341784"><ele>292.0</ele><time>2026-04-11T08:51:37.999Z</time></trkpt><trkpt lat="45.63637060857141" lon="8.583103729518234"><ele>292.0</ele><time>2026-04-11T08:51:38.999Z</time></trkpt><trkpt lat="45.63638959804837" lon="8.582999244159994"><ele>292.0</ele><time>2026-04-11T08:51:39.999Z</time></trkpt><trkpt lat="45.63643605460812" lon="8.582927390723256"><ele>292.0</ele><time>2026-04-11T08:51:41.999Z</time></trkpt><trkpt lat="45.63653064079467" lon="8.582948230477792"><ele>292.0</ele><time>2026-04-11T08:51:43.999Z</time></trkpt><trkpt lat="45.636659915464406" lon="8.582935278205786"><ele>292.0</ele><time>2026-04-11T08:51:45.999Z</time></trkpt><trkpt lat="45.636761775383086" lon="8.582937734517406"><ele>292.0</ele><time>2026-04-11T08:51:47.999Z</time></trkpt><trkpt lat="45.63686191426628" lon="8.582899746187461"><ele>292.0</ele><time>2026-04-11T08:51:51.999Z</time></trkpt><trkpt lat="45.636951999324864" lon="8.582846448247835"><ele>292.0</ele><time>2026-04-11T08:51:53.999Z</time></trkpt><trkpt lat="45.63704851633898" lon="8.582863454057245"><ele>292.0</ele><time>2026-04-11T08:51:55.999Z</time></trkpt><trkpt lat="45.6371480710869" lon="8.582773921189819"><ele>292.0</ele><time>2026-04-11T08:51:57.999Z</time></trkpt><trkpt lat="45.63724910589645" lon="8.58277308719977"><ele>291.3333333333333</ele><time>2026-04-11T08:51:59.999Z</time></trkpt><trkpt lat="45.63733320441703" lon="8.582808825766481"><ele>290.66666666666663</ele><time>2026-04-11T08:52:01.999Z</time></trkpt><trkpt lat="45.6373828944326" lon="8.582733393135658"><ele>290.0</ele><time>2026-04-11T08:52:03.999Z</time></trkpt><trkpt lat="45.63739075642592" lon="8.582637419908174"><ele>289.3333333333333</ele><time>2026-04-11T08:52:05.999Z</time></trkpt><trkpt lat="45.63745154006947" lon="8.582585656088947"><ele>288.6666666666667</ele><time>2026-04-11T08:52:08.999Z</time></trkpt><trkpt lat="45.637548861870776" lon="8.582556902813472"><ele>288.0</ele><time>2026-04-11T08:52:10.999Z</time></trkpt><trkpt lat="45.6376367375872" lon="8.582583921720468"><ele>288.0</ele><time>2026-04-11T08:52:18Z</time></trkpt><trkpt lat="45.63771426937459" lon="8.582613917974388"><ele>288.0</ele><time>2026-04-11T08:52:19.999Z</time></trkpt><trkpt lat="45.63775239708956" lon="8.58249978004707"><ele>288.0</ele><time>2026-04-11T08:52:21.999Z</time></trkpt><trkpt lat="45.63773404586346" lon="8.582358404860516"><ele>288.0</ele><time>2026-04-11T08:52:22.999Z</time></trkpt><trkpt lat="45.637720325621125" lon="8.582232384347726"><ele>288.0</ele><time>2026-04-11T08:52:23.999Z</time></trkpt><trkpt lat="45.637711857674155" lon="8.582117985554033"><ele>288.0</ele><time>2026-04-11T08:52:24.999Z</time></trkpt><trkpt lat="45.63769221928439" lon="8.582020045488276"><ele>288.8333333333333</ele><time>2026-04-11T08:52:25.999Z</time></trkpt><trkpt lat="45.63769428751061" lon="8.581923382443929"><ele>289.6666666666667</ele><time>2026-04-11T08:52:26.999Z</time></trkpt><trkpt lat="45.63773066644314" lon="8.58183138719617"><ele>290.5</ele><time>2026-04-11T08:52:27.999Z</time></trkpt><trkpt lat="45.6377676715206" lon="8.581737545345185"><ele>291.33333333333337</ele><time>2026-04-11T08:52:28.999Z</time></trkpt><trkpt lat="45.63777756076683" lon="8.581629306883256"><ele>292.1666666666667</ele><time>2026-04-11T08:52:29.999Z</time></trkpt><trkpt lat="45.63776485780539" lon="8.581527834257848"><ele>293.0</ele><time>2026-04-11T08:52:30.999Z</time></trkpt><trkpt lat="45.637746923997945" lon="8.581400911655637"><ele>293.0</ele><time>2026-04-11T08:52:31.999Z</time></trkpt><trkpt lat="45.637726278638745" lon="8.581270398101333"><ele>293.0</ele><time>2026-04-11T08:52:32.999Z</time></trkpt><trkpt lat="45.63770832009476" lon="8.581151387628681"><ele>293.0</ele><time>2026-04-11T08:52:33.999Z</time></trkpt><trkpt lat="45.637694589247275" lon="8.581023831052008"><ele>293.0</ele><time>2026-04-11T08:52:34.999Z</time></trkpt><trkpt lat="45.63768582024158" lon="8.580892482312128"><ele>293.0</ele><time>2026-04-11T08:52:35.999Z</time></trkpt><trkpt lat="45.637679308536356" lon="8.580778509603846"><ele>293.0</ele><time>2026-04-11T08:52:36.999Z</time></trkpt><trkpt lat="45.6376765486174" lon="8.580665596283966"><ele>293.4</ele><time>2026-04-11T08:52:37.999Z</time></trkpt><trkpt lat="45.637684745510555" lon="8.580491458761168"><ele>293.8</ele><time>2026-04-11T08:52:39.999Z</time></trkpt><trkpt lat="45.63772993207988" lon="8.580384995340744"><ele>294.2</ele><time>2026-04-11T08:52:40.999Z</time></trkpt><trkpt lat="45.637784286042034" lon="8.580262157351186"><ele>294.6</ele><time>2026-04-11T08:52:41.999Z</time></trkpt><trkpt lat="45.63781962892024" lon="8.580143531196628"><ele>295.0</ele><time>2026-04-11T08:52:42.999Z</time></trkpt><trkpt lat="45.637847926924024" lon="8.580021926315009"><ele>295.0</ele><time>2026-04-11T08:52:43.999Z</time></trkpt><trkpt lat="45.637877937291115" lon="8.579891587145152"><ele>295.0</ele><time>2026-04-11T08:52:44.999Z</time></trkpt><trkpt lat="45.63789814710816" lon="8.579800158153848"><ele>295.0</ele><time>2026-04-11T08:52:45.999Z</time></trkpt><trkpt lat="45.637969048970874" lon="8.57977042352548"><ele>295.0</ele><time>2026-04-11T08:52:47.999Z</time></trkpt><trkpt lat="45.63807534466994" lon="8.579746410574007"><ele>295.0</ele><time>2026-04-11T08:52:49.999Z</time></trkpt><trkpt lat="45.63814953757208" lon="8.579722417309053"><ele>295.0</ele><time>2026-04-11T08:52:51.999Z</time></trkpt><trkpt lat="45.63818311466332" lon="8.57959610526089"><ele>296.2</ele><time>2026-04-11T08:52:53.999Z</time></trkpt><trkpt lat="45.63817560256277" lon="8.579479375435957"><ele>297.4</ele><time>2026-04-11T08:52:54.999Z</time></trkpt><trkpt lat="45.63816179082378" lon="8.579326727630892"><ele>298.6</ele><time>2026-04-11T08:52:55.999Z</time></trkpt><trkpt lat="45.63815561462113" lon="8.579169155564852"><ele>299.8</ele><time>2026-04-11T08:52:56.999Z</time></trkpt><trkpt lat="45.63815160581209" lon="8.579032132635273"><ele>301.0</ele><time>2026-04-11T08:52:57.999Z</time></trkpt><trkpt lat="45.63814681070311" lon="8.578910539418125"><ele>301.0</ele><time>2026-04-11T08:52:58.999Z</time></trkpt><trkpt lat="45.638136930001714" lon="8.578780167995216"><ele>301.0</ele><time>2026-04-11T08:52:59.999Z</time></trkpt><trkpt lat="45.63813134801254" lon="8.578662002577925"><ele>301.0</ele><time>2026-04-11T08:53:00.999Z</time></trkpt><trkpt lat="45.638114954852426" lon="8.57849736212812"><ele>301.0</ele><time>2026-04-11T08:53:02.999Z</time></trkpt><trkpt lat="45.638113352261456" lon="8.578396329572017"><ele>301.0</ele><time>2026-04-11T08:53:03.999Z</time></trkpt><trkpt lat="45.63809895774212" lon="8.578251952676814"><ele>301.40000000000003</ele><time>2026-04-11T08:53:04.999Z</time></trkpt><trkpt lat="45.638089498859905" lon="8.57810847420264"><ele>301.8</ele><time>2026-04-11T08:53:05.999Z</time></trkpt><trkpt lat="45.63809045520332" lon="8.577939821156948"><ele>302.20000000000005</ele><time>2026-04-11T08:53:06.999Z</time></trkpt><trkpt lat="45.63807892678299" lon="8.577785275191538"><ele>302.6</ele><time>2026-04-11T08:53:07.999Z</time></trkpt><trkpt lat="45.63806134956246" lon="8.577652397655479"><ele>303.0</ele><time>2026-04-11T08:53:08.998Z</time></trkpt><trkpt lat="45.63804776627609" lon="8.577527946967532"><ele>303.0</ele><time>2026-04-11T08:53:09.998Z</time></trkpt><trkpt lat="45.6380600234525" lon="8.577396566384362"><ele>303.0</ele><time>2026-04-11T08:53:10.998Z</time></trkpt><trkpt lat="45.638063639100004" lon="8.577294740892787"><ele>303.0</ele><time>2026-04-11T08:53:11.998Z</time></trkpt><trkpt lat="45.63804904641109" lon="8.577201720415594"><ele>303.0</ele><time>2026-04-11T08:53:12.998Z</time></trkpt><trkpt lat="45.63806034426357" lon="8.577086577022914"><ele>303.0</ele><time>2026-04-11T08:53:13.998Z</time></trkpt><trkpt lat="45.63805736577508" lon="8.57694752637314"><ele>303.0</ele><time>2026-04-11T08:53:14.998Z</time></trkpt><trkpt lat="45.63804907009012" lon="8.576773845919826"><ele>302.8</ele><time>2026-04-11T08:53:15.998Z</time></trkpt><trkpt lat="45.63804012257802" lon="8.576605653437582"><ele>302.6</ele><time>2026-04-11T08:53:16.998Z</time></trkpt><trkpt lat="45.63803119108936" lon="8.576460197687389"><ele>302.4</ele><time>2026-04-11T08:53:17.998Z</time></trkpt><trkpt lat="45.63802135146015" lon="8.576316460737207"><ele>302.2</ele><time>2026-04-11T08:53:18.998Z</time></trkpt><trkpt lat="45.63801235969976" lon="8.576185136241357"><ele>302.0</ele><time>2026-04-11T08:53:19.998Z</time></trkpt><trkpt lat="45.63800263384744" lon="8.576042471787853"><ele>301.8</ele><time>2026-04-11T08:53:20.998Z</time></trkpt><trkpt lat="45.637992617503734" lon="8.575882057930164"><ele>301.6</ele><time>2026-04-11T08:53:21.998Z</time></trkpt><trkpt lat="45.63798234943176" lon="8.5757176125947"><ele>301.40000000000003</ele><time>2026-04-11T08:53:23Z</time></trkpt><trkpt lat="45.63797239229912" lon="8.575560142879565"><ele>301.2</ele><time>2026-04-11T08:53:24Z</time></trkpt><trkpt lat="45.63796377504583" lon="8.575409304657624"><ele>301.0</ele><time>2026-04-11T08:53:25Z</time></trkpt><trkpt lat="45.63795539479181" lon="8.575259830015836"><ele>301.0</ele><time>2026-04-11T08:53:26Z</time></trkpt><trkpt lat="45.63794781755902" lon="8.575126470685184"><ele>301.0</ele><time>2026-04-11T08:53:27Z</time></trkpt><trkpt lat="45.63794215030347" lon="8.57499292702301"><ele>301.0</ele><time>2026-04-11T08:53:28Z</time></trkpt><trkpt lat="45.637937452204426" lon="8.574871628333483"><ele>301.0</ele><time>2026-04-11T08:53:29Z</time></trkpt><trkpt lat="45.63793323055743" lon="8.574765637985212"><ele>301.0</ele><time>2026-04-11T08:53:30Z</time></trkpt><trkpt lat="45.637927678477105" lon="8.574610607582633"><ele>301.0</ele><time>2026-04-11T08:53:32Z</time></trkpt><trkpt lat="45.63795773533176" lon="8.574525252917866"><ele>301.0</ele><time>2026-04-11T08:53:35Z</time></trkpt><trkpt lat="45.63813455506375" lon="8.574497673192061"><ele>301.0</ele><time>2026-04-11T08:53:37Z</time></trkpt><trkpt lat="45.63825961649097" lon="8.574428357859473"><ele>301.0</ele><time>2026-04-11T08:53:38Z</time></trkpt><trkpt lat="45.638396692987186" lon="8.574352879227295"><ele>300.75</ele><time>2026-04-11T08:53:39Z</time></trkpt><trkpt lat="45.63853659814551" lon="8.574276201924503"><ele>300.5</ele><time>2026-04-11T08:53:40Z</time></trkpt><trkpt lat="45.63866999217718" lon="8.574201786241927"><ele>300.25</ele><time>2026-04-11T08:53:41Z</time></trkpt><trkpt lat="45.63880433866088" lon="8.574127988285335"><ele>300.0</ele><time>2026-04-11T08:53:42Z</time></trkpt><trkpt lat="45.63893576489335" lon="8.574059935646314"><ele>300.0</ele><time>2026-04-11T08:53:43Z</time></trkpt><trkpt lat="45.63907287670309" lon="8.5739895626076"><ele>300.0</ele><time>2026-04-11T08:53:44Z</time></trkpt><trkpt lat="45.63922210747926" lon="8.573912969456083"><ele>300.0</ele><time>2026-04-11T08:53:45Z</time></trkpt><trkpt lat="45.63936247068259" lon="8.573837772367895"><ele>299.6666666666667</ele><time>2026-04-11T08:53:46Z</time></trkpt><trkpt lat="45.639507819922784" lon="8.573759314583038"><ele>299.33333333333337</ele><time>2026-04-11T08:53:47Z</time></trkpt><trkpt lat="45.63965541733725" lon="8.573678276648032"><ele>299.0</ele><time>2026-04-11T08:53:48Z</time></trkpt><trkpt lat="45.63980283540415" lon="8.573596184462483"><ele>299.0</ele><time>2026-04-11T08:53:49Z</time></trkpt><trkpt lat="45.6399475465167" lon="8.573514988877863"><ele>299.0</ele><time>2026-04-11T08:53:50Z</time></trkpt><trkpt lat="45.64007461376276" lon="8.573442855321215"><ele>299.0</ele><time>2026-04-11T08:53:51Z</time></trkpt><trkpt lat="45.640195795207106" lon="8.573369624434852"><ele>299.0</ele><time>2026-04-11T08:53:52Z</time></trkpt><trkpt lat="45.64031166302783" lon="8.573295271397456"><ele>299.0</ele><time>2026-04-11T08:53:53Z</time></trkpt><trkpt lat="45.640429576215496" lon="8.573205654972819"><ele>299.0</ele><time>2026-04-11T08:53:54Z</time></trkpt><trkpt lat="45.64054106969259" lon="8.573096563476787"><ele>299.0</ele><time>2026-04-11T08:53:55Z</time></trkpt><trkpt lat="45.64063655293473" lon="8.57299376720082"><ele>299.0</ele><time>2026-04-11T08:53:56Z</time></trkpt><trkpt lat="45.640729306799976" lon="8.572889379596171"><ele>298.2</ele><time>2026-04-11T08:53:57Z</time></trkpt><trkpt lat="45.64081904575211" lon="8.572785639758917"><ele>297.4</ele><time>2026-04-11T08:53:58Z</time></trkpt><trkpt lat="45.640896830735734" lon="8.572695136393598"><ele>296.6</ele><time>2026-04-11T08:53:59Z</time></trkpt><trkpt lat="45.64097068380786" lon="8.57260920782878"><ele>295.8</ele><time>2026-04-11T08:54:00Z</time></trkpt><trkpt lat="45.64104002985204" lon="8.57252166677371"><ele>295.0</ele><time>2026-04-11T08:54:01Z</time></trkpt><trkpt lat="45.641102930679935" lon="8.572440773639382"><ele>295.0</ele><time>2026-04-11T08:54:02Z</time></trkpt><trkpt lat="45.64117173710651" lon="8.57235312775676"><ele>295.0</ele><time>2026-04-11T08:54:03Z</time></trkpt><trkpt lat="45.64125439388227" lon="8.57225299518864"><ele>295.0</ele><time>2026-04-11T08:54:04Z</time></trkpt><trkpt lat="45.641354496270175" lon="8.572134065461562"><ele>295.0</ele><time>2026-04-11T08:54:05Z</time></trkpt><trkpt lat="45.641445124688396" lon="8.572027962785675"><ele>295.0</ele><time>2026-04-11T08:54:06Z</time></trkpt><trkpt lat="45.64152557709983" lon="8.571935597367919"><ele>295.4</ele><time>2026-04-11T08:54:07Z</time></trkpt><trkpt lat="45.641584451261764" lon="8.571844112515306"><ele>295.8</ele><time>2026-04-11T08:54:08Z</time></trkpt><trkpt lat="45.641616851722596" lon="8.571702973860129"><ele>296.2</ele><time>2026-04-11T08:54:10Z</time></trkpt><trkpt lat="45.64157512878722" lon="8.571572090074435"><ele>296.6</ele><time>2026-04-11T08:54:11Z</time></trkpt><trkpt lat="45.64153176938619" lon="8.571393591013779"><ele>297.0</ele><time>2026-04-11T08:54:12Z</time></trkpt><trkpt lat="45.64147008545622" lon="8.571218397970323"><ele>297.3333333333333</ele><time>2026-04-11T08:54:13Z</time></trkpt><trkpt lat="45.64142521689063" lon="8.571085422070638"><ele>297.6666666666667</ele><time>2026-04-11T08:54:14Z</time></trkpt><trkpt lat="45.641386710501386" lon="8.570944630760744"><ele>298.0</ele><time>2026-04-11T08:54:16Z</time></trkpt><trkpt lat="45.641363263519246" lon="8.570817869824841"><ele>298.33333333333337</ele><time>2026-04-11T08:54:18Z</time></trkpt><trkpt lat="45.64134885380397" lon="8.570729841809188"><ele>298.6666666666667</ele><time>2026-04-11T08:54:19Z</time></trkpt><trkpt lat="45.64133011485905" lon="8.57061536687629"><ele>299.0</ele><time>2026-04-11T08:54:20Z</time></trkpt><trkpt lat="45.64130776323404" lon="8.570478148569904"><ele>299.0</ele><time>2026-04-11T08:54:20.999Z</time></trkpt><trkpt lat="45.6412807780735" lon="8.570326090841462"><ele>299.0</ele><time>2026-04-11T08:54:21.999Z</time></trkpt><trkpt lat="45.641252263527115" lon="8.570173991639777"><ele>299.0</ele><time>2026-04-11T08:54:22.999Z</time></trkpt><trkpt lat="45.64122671305157" lon="8.57002738447032"><ele>299.0</ele><time>2026-04-11T08:54:23.999Z</time></trkpt><trkpt lat="45.64120859799013" lon="8.569897849975106"><ele>299.0</ele><time>2026-04-11T08:54:24.999Z</time></trkpt><trkpt lat="45.64119505579222" lon="8.569781009871079"><ele>299.0</ele><time>2026-04-11T08:54:25.999Z</time></trkpt><trkpt lat="45.6411822621776" lon="8.569668473042615"><ele>299.0</ele><time>2026-04-11T08:54:26.999Z</time></trkpt><trkpt lat="45.641167555271956" lon="8.569561385697769"><ele>299.0</ele><time>2026-04-11T08:54:27.999Z</time></trkpt><trkpt lat="45.64115211563536" lon="8.569461600613524"><ele>299.0</ele><time>2026-04-11T08:54:28.999Z</time></trkpt><trkpt lat="45.64113332377886" lon="8.569354048563389"><ele>299.0</ele><time>2026-04-11T08:54:29.999Z</time></trkpt><trkpt lat="45.641107789847986" lon="8.569215905264182"><ele>299.0</ele><time>2026-04-11T08:54:30.999Z</time></trkpt><trkpt lat="45.641073248673806" lon="8.569049470012686"><ele>297.2</ele><time>2026-04-11T08:54:31.999Z</time></trkpt><trkpt lat="45.641033407906164" lon="8.56888687029088"><ele>295.4</ele><time>2026-04-11T08:54:32.999Z</time></trkpt><trkpt lat="45.64097502427391" lon="8.568733664447798"><ele>293.6</ele><time>2026-04-11T08:54:33.999Z</time></trkpt><trkpt lat="45.640923462374914" lon="8.568614756040894"><ele>291.8</ele><time>2026-04-11T08:54:34.999Z</time></trkpt><trkpt lat="45.640884508019994" lon="8.568493631070217"><ele>290.0</ele><time>2026-04-11T08:54:35.999Z</time></trkpt><trkpt lat="45.6408556053024" lon="8.568389048533845"><ele>289.6666666666667</ele><time>2026-04-11T08:54:36.999Z</time></trkpt><trkpt lat="45.64084758402871" lon="8.568280559350544"><ele>289.33333333333337</ele><time>2026-04-11T08:54:37.999Z</time></trkpt><trkpt lat="45.64084996351339" lon="8.568150883251068"><ele>289.0</ele><time>2026-04-11T08:54:38.999Z</time></trkpt><trkpt lat="45.64085934723721" lon="8.568019447496958"><ele>288.6666666666667</ele><time>2026-04-11T08:54:39.999Z</time></trkpt><trkpt lat="45.640866767432414" lon="8.567920561125714"><ele>288.3333333333333</ele><time>2026-04-11T08:54:40.999Z</time></trkpt><trkpt lat="45.64087168395684" lon="8.567786000330814"><ele>288.0</ele><time>2026-04-11T08:54:42.999Z</time></trkpt><trkpt lat="45.64096828906267" lon="8.56775766021995"><ele>288.4</ele><time>2026-04-11T08:54:45.999Z</time></trkpt><trkpt lat="45.64107815245739" lon="8.56776241089141"><ele>288.8</ele><time>2026-04-11T08:54:46.999Z</time></trkpt><trkpt lat="45.64117915931216" lon="8.567763860434372"><ele>289.2</ele><time>2026-04-11T08:54:47.999Z</time></trkpt><trkpt lat="45.64128139376611" lon="8.567755760713037"><ele>289.6</ele><time>2026-04-11T08:54:48.999Z</time></trkpt><trkpt lat="45.641364495604755" lon="8.567734289783601"><ele>290.0</ele><time>2026-04-11T08:54:49.999Z</time></trkpt><trkpt lat="45.641425136821674" lon="8.567653214125777"><ele>290.0</ele><time>2026-04-11T08:54:50.999Z</time></trkpt><trkpt lat="45.64148127828287" lon="8.567562217982791"><ele>290.0</ele><time>2026-04-11T08:54:51.999Z</time></trkpt><trkpt lat="45.64156190605335" lon="8.567506032128984"><ele>290.0</ele><time>2026-04-11T08:54:52.999Z</time></trkpt><trkpt lat="45.641661643034766" lon="8.567485011093728"><ele>290.0</ele><time>2026-04-11T08:54:53.999Z</time></trkpt><trkpt lat="45.64178628959068" lon="8.56745702911059"><ele>290.0</ele><time>2026-04-11T08:54:54.999Z</time></trkpt><trkpt lat="45.641939028172494" lon="8.567399537033804"><ele>290.6</ele><time>2026-04-11T08:54:55.999Z</time></trkpt><trkpt lat="45.64207693813981" lon="8.567333355020928"><ele>291.2</ele><time>2026-04-11T08:54:56.999Z</time></trkpt><trkpt lat="45.642184118203275" lon="8.567274973942759"><ele>291.8</ele><time>2026-04-11T08:54:57.999Z</time></trkpt><trkpt lat="45.64227037489365" lon="8.567212074318489"><ele>292.4</ele><time>2026-04-11T08:54:58.999Z</time></trkpt><trkpt lat="45.642339370942516" lon="8.567139952364254"><ele>293.0</ele><time>2026-04-11T08:54:59.999Z</time></trkpt><trkpt lat="45.64240070029303" lon="8.567077863498588"><ele>292.2</ele><time>2026-04-11T08:55:00.999Z</time></trkpt><trkpt lat="45.64251333553404" lon="8.566975050397776"><ele>291.4</ele><time>2026-04-11T08:55:02.999Z</time></trkpt><trkpt lat="45.64257855651401" lon="8.566910627177556"><ele>290.59999999999997</ele><time>2026-04-11T08:55:03.999Z</time></trkpt><trkpt lat="45.642645089822125" lon="8.566842590996423"><ele>289.8</ele><time>2026-04-11T08:55:04.999Z</time></trkpt><trkpt lat="45.642702574269805" lon="8.56678362219248"><ele>289.0</ele><time>2026-04-11T08:55:05.999Z</time></trkpt><trkpt lat="45.642791163591475" lon="8.566659296455898"><ele>289.8333333333333</ele><time>2026-04-11T08:55:07.999Z</time></trkpt><trkpt lat="45.64282493594586" lon="8.566557220115609"><ele>290.66666666666663</ele><time>2026-04-11T08:55:08.999Z</time></trkpt><trkpt lat="45.64285824428418" lon="8.56644572445225"><ele>291.5</ele><time>2026-04-11T08:55:09.999Z</time></trkpt><trkpt lat="45.642901796907864" lon="8.566345135620391"><ele>292.3333333333333</ele><time>2026-04-11T08:55:10.998Z</time></trkpt><trkpt lat="45.6429391071197" lon="8.566259544409565"><ele>293.1666666666667</ele><time>2026-04-11T08:55:11.998Z</time></trkpt><trkpt lat="45.64294578284755" lon="8.56616461558837"><ele>294.0</ele><time>2026-04-11T08:55:12.998Z</time></trkpt><trkpt lat="45.64293395288581" lon="8.566061204669765"><ele>294.1666666666667</ele><time>2026-04-11T08:55:13.998Z</time></trkpt><trkpt lat="45.64294699965549" lon="8.56594806912767"><ele>294.3333333333333</ele><time>2026-04-11T08:55:15.998Z</time></trkpt><trkpt lat="45.64304719980143" lon="8.565924038449063"><ele>294.5</ele><time>2026-04-11T08:55:17.998Z</time></trkpt><trkpt lat="45.643124245216256" lon="8.565917567797527"><ele>294.66666666666663</ele><time>2026-04-11T08:55:19.998Z</time></trkpt><trkpt lat="45.64323549304589" lon="8.565902623306858"><ele>294.8333333333333</ele><time>2026-04-11T08:56:15Z</time></trkpt><trkpt lat="45.6433086579046" lon="8.565891037709854"><ele>295.0</ele><time>2026-04-11T08:56:16Z</time></trkpt><trkpt lat="45.64339812920488" lon="8.565878553639719"><ele>295.0</ele><time>2026-04-11T08:56:17Z</time></trkpt><trkpt lat="45.6434802432672" lon="8.56587642287241"><ele>295.0</ele><time>2026-04-11T08:56:18Z</time></trkpt><trkpt lat="45.64356857841758" lon="8.565869737740137"><ele>295.0</ele><time>2026-04-11T08:56:19Z</time></trkpt><trkpt lat="45.64366193192219" lon="8.56584738359029"><ele>295.0</ele><time>2026-04-11T08:56:20Z</time></trkpt><trkpt lat="45.6437453658187" lon="8.565814330782624"><ele>295.0</ele><time>2026-04-11T08:56:21Z</time></trkpt><trkpt lat="45.64382486265935" lon="8.565773523000363"><ele>295.0</ele><time>2026-04-11T08:56:22Z</time></trkpt><trkpt lat="45.64390649691116" lon="8.565755481913923"><ele>296.0</ele><time>2026-04-11T08:56:23Z</time></trkpt><trkpt lat="45.64399391544886" lon="8.565759132401265"><ele>297.0</ele><time>2026-04-11T08:56:24Z</time></trkpt><trkpt lat="45.64408053286228" lon="8.565781883374985"><ele>298.0</ele><time>2026-04-11T08:56:25Z</time></trkpt><trkpt lat="45.644148203972314" lon="8.5658173108695"><ele>299.0</ele><time>2026-04-11T08:56:26Z</time></trkpt><trkpt lat="45.64423943615519" lon="8.565845027941297"><ele>300.0</ele><time>2026-04-11T08:56:27.999Z</time></trkpt><trkpt lat="45.64435227804043" lon="8.565842516871971"><ele>300.0</ele><time>2026-04-11T08:56:29.999Z</time></trkpt><trkpt lat="45.64443259466559" lon="8.565870333041747"><ele>300.0</ele><time>2026-04-11T08:56:30.999Z</time></trkpt><trkpt lat="45.64451036721268" lon="8.565889658475868"><ele>300.0</ele><time>2026-04-11T08:56:31.999Z</time></trkpt><trkpt lat="45.64463146247628" lon="8.565822261476233"><ele>300.0</ele><time>2026-04-11T08:56:33.999Z</time></trkpt><trkpt lat="45.64471598103835" lon="8.565741945502875"><ele>300.0</ele><time>2026-04-11T08:56:35.999Z</time></trkpt><trkpt lat="45.64478593643765" lon="8.56569124641638"><ele>299.4</ele><time>2026-04-11T08:56:37.999Z</time></trkpt><trkpt lat="45.64484098829994" lon="8.565547270705823"><ele>298.8</ele><time>2026-04-11T08:56:39.999Z</time></trkpt><trkpt lat="45.64493848662083" lon="8.56542007133295"><ele>298.2</ele><time>2026-04-11T08:56:41.999Z</time></trkpt><trkpt lat="45.64496093883324" lon="8.56532505401706"><ele>297.6</ele><time>2026-04-11T08:56:42.999Z</time></trkpt><trkpt lat="45.64503588951327" lon="8.565248922633785"><ele>297.0</ele><time>2026-04-11T08:56:44.999Z</time></trkpt><trkpt lat="45.644980556906596" lon="8.565139423689315"><ele>296.0</ele><time>2026-04-11T08:56:46.999Z</time></trkpt><trkpt lat="45.64492507066098" lon="8.565049048945454"><ele>295.0</ele><time>2026-04-11T08:56:47.999Z</time></trkpt><trkpt lat="45.6448823031349" lon="8.564945250984312"><ele>294.0</ele><time>2026-04-11T08:56:48.999Z</time></trkpt><trkpt lat="45.644896137857984" lon="8.564782915739734"><ele>293.0</ele><time>2026-04-11T08:56:50.999Z</time></trkpt><trkpt lat="45.64493062401556" lon="8.564692197990288"><ele>292.0</ele><time>2026-04-11T08:56:51.999Z</time></trkpt><trkpt lat="45.64497531591504" lon="8.564615775062157"><ele>291.0</ele><time>2026-04-11T08:56:52.999Z</time></trkpt><trkpt lat="45.64502462456654" lon="8.564557288611024"><ele>289.8333333333333</ele><time>2026-04-11T08:56:53.999Z</time></trkpt><trkpt lat="45.64508193903172" lon="8.564504333036174"><ele>288.6666666666667</ele><time>2026-04-11T08:56:54.999Z</time></trkpt><trkpt lat="45.64517348563516" lon="8.564397626462444"><ele>287.5</ele><time>2026-04-11T08:56:56.999Z</time></trkpt><trkpt lat="45.64520184415241" lon="8.564274551428353"><ele>286.33333333333337</ele><time>2026-04-11T08:56:58.999Z</time></trkpt><trkpt lat="45.64518689376743" lon="8.56417194273029"><ele>285.1666666666667</ele><time>2026-04-11T08:56:59.999Z</time></trkpt><trkpt lat="45.645204957099196" lon="8.564070463136156"><ele>284.0</ele><time>2026-04-11T08:57:00.999Z</time></trkpt><trkpt lat="45.645235461140366" lon="8.563972842336437"><ele>284.0</ele><time>2026-04-11T08:57:01.999Z</time></trkpt><trkpt lat="45.64527707349586" lon="8.563875810053746"><ele>284.0</ele><time>2026-04-11T08:57:02.999Z</time></trkpt><trkpt lat="45.64532630630182" lon="8.56379365012506"><ele>284.0</ele><time>2026-04-11T08:57:03.999Z</time></trkpt><trkpt lat="45.64541045717725" lon="8.563680112321967"><ele>284.0</ele><time>2026-04-11T08:57:05.999Z</time></trkpt><trkpt lat="45.64544815552059" lon="8.563607487020857"><ele>284.0</ele><time>2026-04-11T08:57:20.998Z</time></trkpt><trkpt lat="45.645395480348455" lon="8.563529899729899"><ele>284.0</ele><time>2026-04-11T08:57:23.998Z</time></trkpt><trkpt lat="45.64534212728532" lon="8.563622844676956"><ele>285.1666666666667</ele><time>2026-04-11T08:57:25.998Z</time></trkpt><trkpt lat="45.64534662772983" lon="8.563721743463937"><ele>286.33333333333337</ele><time>2026-04-11T08:57:27.998Z</time></trkpt><trkpt lat="45.645380156320854" lon="8.563798588232078"><ele>287.5</ele><time>2026-04-11T08:57:29.998Z</time></trkpt><trkpt lat="45.6454717311512" lon="8.563917927087683"><ele>288.6666666666667</ele><time>2026-04-11T08:57:31.998Z</time></trkpt><trkpt lat="45.64553490070314" lon="8.563998183310028"><ele>289.8333333333333</ele><time>2026-04-11T08:57:32.998Z</time></trkpt><trkpt lat="45.64559160816051" lon="8.564055230829457"><ele>291.0</ele><time>2026-04-11T08:57:34.001Z</time></trkpt><trkpt lat="45.645694580964644" lon="8.564112112692944"><ele>291.0</ele><time>2026-04-11T08:57:36.001Z</time></trkpt><trkpt lat="45.645750212590336" lon="8.564181831543385"><ele>291.0</ele><time>2026-04-11T08:57:38.001Z</time></trkpt><trkpt lat="45.64580086511551" lon="8.564247339482078"><ele>291.0</ele><time>2026-04-11T08:57:40.001Z</time></trkpt><trkpt lat="45.64589697648205" lon="8.564359895724234"><ele>291.0</ele><time>2026-04-11T08:57:42.001Z</time></trkpt><trkpt lat="45.64595177976599" lon="8.564432288901248"><ele>291.0</ele><time>2026-04-11T08:57:43.001Z</time></trkpt><trkpt lat="45.646010698832335" lon="8.564500050318426"><ele>291.0</ele><time>2026-04-11T08:57:44.001Z</time></trkpt><trkpt lat="45.64606945376347" lon="8.564549943154205"><ele>291.0</ele><time>2026-04-11T08:57:45.001Z</time></trkpt><trkpt lat="45.64610654526505" lon="8.56463967458016"><ele>291.0</ele><time>2026-04-11T08:57:49.001Z</time></trkpt><trkpt lat="45.64603077526911" lon="8.564683092731213"><ele>291.0</ele><time>2026-04-11T08:57:52Z</time></trkpt><trkpt lat="45.64600556110644" lon="8.564579280140771"><ele>291.0</ele><time>2026-04-11T08:57:59Z</time></trkpt><trkpt lat="45.64609460670487" lon="8.564411594171577"><ele>291.0</ele><time>2026-04-11T08:58:01Z</time></trkpt><trkpt lat="45.6461488049356" lon="8.56430782393707"><ele>292.8333333333333</ele><time>2026-04-11T08:58:02Z</time></trkpt><trkpt lat="45.64620487446385" lon="8.564211293427748"><ele>294.6666666666667</ele><time>2026-04-11T08:58:03Z</time></trkpt><trkpt lat="45.64625128621355" lon="8.564124597691645"><ele>296.5</ele><time>2026-04-11T08:58:04Z</time></trkpt><trkpt lat="45.6463085815456" lon="8.564014200581598"><ele>298.33333333333337</ele><time>2026-04-11T08:58:06Z</time></trkpt><trkpt lat="45.64637253398408" lon="8.56399309076303"><ele>300.1666666666667</ele><time>2026-04-11T08:58:09Z</time></trkpt><trkpt lat="45.646373582547625" lon="8.564104561846326"><ele>302.0</ele><time>2026-04-11T08:58:12Z</time></trkpt><trkpt lat="45.64630553478902" lon="8.5642054348031"><ele>302.0</ele><time>2026-04-11T08:58:15Z</time></trkpt><trkpt lat="45.64620481109451" lon="8.564314231565763"><ele>302.0</ele><time>2026-04-11T08:58:17Z</time></trkpt><trkpt lat="45.64615179054445" lon="8.564379753630773"><ele>302.0</ele><time>2026-04-11T08:58:18Z</time></trkpt><trkpt lat="45.646097281253994" lon="8.564448589962748"><ele>302.0</ele><time>2026-04-11T08:58:19Z</time></trkpt><trkpt lat="45.64601300080721" lon="8.564547582064762"><ele>302.0</ele><time>2026-04-11T08:58:21Z</time></trkpt><trkpt lat="45.64597361460818" lon="8.564633959069424"><ele>302.0</ele><time>2026-04-11T08:58:24Z</time></trkpt><trkpt lat="45.646033474473114" lon="8.564577880003798"><ele>302.0</ele><time>2026-04-11T08:58:38.999Z</time></trkpt><trkpt lat="45.646083926817965" lon="8.564446220911863"><ele>302.0</ele><time>2026-04-11T08:58:40.999Z</time></trkpt><trkpt lat="45.646148494100984" lon="8.564379248082282"><ele>302.0</ele><time>2026-04-11T08:58:41.999Z</time></trkpt><trkpt lat="45.64622841312552" lon="8.564304144608998"><ele>302.0</ele><time>2026-04-11T08:58:42.999Z</time></trkpt><trkpt lat="45.646294518790434" lon="8.564233387437605"><ele>302.0</ele><time>2026-04-11T08:58:43.999Z</time></trkpt><trkpt lat="45.64635367671476" lon="8.564161459300077"><ele>302.0</ele><time>2026-04-11T08:58:44.999Z</time></trkpt><trkpt lat="45.64639478897209" lon="8.564090926644617"><ele>302.0</ele><time>2026-04-11T08:58:45.999Z</time></trkpt><trkpt lat="45.64636231894083" lon="8.563976433204546"><ele>302.0</ele><time>2026-04-11T08:58:48.999Z</time></trkpt><trkpt lat="45.64628493505373" lon="8.563988022858712"><ele>302.0</ele><time>2026-04-11T08:58:50.999Z</time></trkpt><trkpt lat="45.646289970275895" lon="8.564078596040865"><ele>302.0</ele><time>2026-04-11T08:58:54.999Z</time></trkpt><trkpt lat="45.646235654901396" lon="8.5641682335482"><ele>302.0</ele><time>2026-04-11T08:58:57.999Z</time></trkpt><trkpt lat="45.64616697998749" lon="8.564276151992491"><ele>300.83333333333337</ele><time>2026-04-11T08:58:59.999Z</time></trkpt><trkpt lat="45.64612177709454" lon="8.56437406825402"><ele>299.6666666666667</ele><time>2026-04-11T08:59:00.999Z</time></trkpt><trkpt lat="45.646080726172386" lon="8.564463413583729"><ele>298.5</ele><time>2026-04-11T08:59:01.999Z</time></trkpt><trkpt lat="45.646013995971735" lon="8.564567740288897"><ele>297.3333333333333</ele><time>2026-04-11T08:59:03.999Z</time></trkpt><trkpt lat="45.64604082542998" lon="8.56465234149886"><ele>296.16666666666663</ele><time>2026-04-11T08:59:10.999Z</time></trkpt><trkpt lat="45.64610573582506" lon="8.564668484901095"><ele>295.0</ele><time>2026-04-11T08:59:55.001Z</time></trkpt><trkpt lat="45.64618326584467" lon="8.564642368458953"><ele>295.00000000000006</ele><time>2026-04-11T08:59:57Z</time></trkpt><trkpt lat="45.64624566153916" lon="8.564707371144594"><ele>295.0</ele><time>2026-04-11T08:59:59Z</time></trkpt><trkpt lat="45.646315114648296" lon="8.564783394044209"><ele>295.0</ele><time>2026-04-11T09:00:01Z</time></trkpt><trkpt lat="45.64638162623547" lon="8.564836472827572"><ele>295.0</ele><time>2026-04-11T09:00:05Z</time></trkpt><trkpt lat="45.64643286953613" lon="8.564782006310296"><ele>295.0</ele><time>2026-04-11T09:00:09Z</time></trkpt><trkpt lat="45.64638135553206" lon="8.564709227414037"><ele>295.00000000000006</ele><time>2026-04-11T09:00:13Z</time></trkpt><trkpt lat="45.64631702111938" lon="8.564725572832632"><ele>295.0</ele><time>2026-04-11T09:00:15Z</time></trkpt><trkpt lat="45.64638111912047" lon="8.56471666393732"><ele>295.0</ele><time>2026-04-11T09:00:32Z</time></trkpt><trkpt lat="45.6464677452168" lon="8.564608957153354"><ele>295.0</ele><time>2026-04-11T09:00:34Z</time></trkpt><trkpt lat="45.64653971358095" lon="8.56449144704108"><ele>295.0</ele><time>2026-04-11T09:00:35Z</time></trkpt><trkpt lat="45.64659230814602" lon="8.56440709749138"><ele>295.0</ele><time>2026-04-11T09:00:36Z</time></trkpt><trkpt lat="45.64665312604851" lon="8.56429854031987"><ele>295.0</ele><time>2026-04-11T09:00:38Z</time></trkpt><trkpt lat="45.64670266793258" lon="8.564211811635943"><ele>295.0</ele><time>2026-04-11T09:00:40.999Z</time></trkpt><trkpt lat="45.6466528149735" lon="8.564283060364483"><ele>295.0</ele><time>2026-04-11T09:01:02.999Z</time></trkpt><trkpt lat="45.6465985764227" lon="8.564355582252213"><ele>295.0</ele><time>2026-04-11T09:01:05.999Z</time></trkpt><trkpt lat="45.6465335640473" lon="8.564468301863887"><ele>295.0</ele><time>2026-04-11T09:01:07.999Z</time></trkpt><trkpt lat="45.646481538717204" lon="8.564597035402334"><ele>295.0</ele><time>2026-04-11T09:01:08.999Z</time></trkpt><trkpt lat="45.64641828081431" lon="8.564680788178682"><ele>295.0</ele><time>2026-04-11T09:01:10.999Z</time></trkpt><trkpt lat="45.646353464446555" lon="8.564730046364446"><ele>295.0</ele><time>2026-04-11T09:01:12.999Z</time></trkpt><trkpt lat="45.64627444337087" lon="8.56471101482289"><ele>295.0</ele><time>2026-04-11T09:01:16.999Z</time></trkpt><trkpt lat="45.64617973772703" lon="8.56463394062133"><ele>295.0</ele><time>2026-04-11T09:01:18.999Z</time></trkpt><trkpt lat="45.64609986617586" lon="8.564583736781293"><ele>295.0</ele><time>2026-04-11T09:01:20.999Z</time></trkpt><trkpt lat="45.64606569504843" lon="8.564501963713722"><ele>295.0</ele><time>2026-04-11T09:01:22.999Z</time></trkpt><trkpt lat="45.646115483471036" lon="8.564392433544835"><ele>295.0</ele><time>2026-04-11T09:01:24.999Z</time></trkpt><trkpt lat="45.64617895493212" lon="8.564302205304923"><ele>296.00000000000006</ele><time>2026-04-11T09:01:25.999Z</time></trkpt><trkpt lat="45.64622575668684" lon="8.56421415613967"><ele>297.0</ele><time>2026-04-11T09:01:26.998Z</time></trkpt><trkpt lat="45.646267992916684" lon="8.564144605711599"><ele>298.0</ele><time>2026-04-11T09:01:27.998Z</time></trkpt><trkpt lat="45.64631975625608" lon="8.564044965385458"><ele>299.0</ele><time>2026-04-11T09:01:29.998Z</time></trkpt><trkpt lat="45.646385875225995" lon="8.563992945386506"><ele>300.0</ele><time>2026-04-11T09:01:41.998Z</time></trkpt><trkpt lat="45.646395413481486" lon="8.564086340095754"><ele>301.00000000000006</ele><time>2026-04-11T09:01:52.001Z</time></trkpt><trkpt lat="45.64635339715906" lon="8.56416962241902"><ele>302.0</ele><time>2026-04-11T09:01:55.001Z</time></trkpt><trkpt lat="45.64627924845487" lon="8.56424833375621"><ele>302.0</ele><time>2026-04-11T09:01:57.001Z</time></trkpt><trkpt lat="45.646175460887655" lon="8.564361497421123"><ele>302.0</ele><time>2026-04-11T09:01:59.001Z</time></trkpt><trkpt lat="45.6460958075225" lon="8.564454970715305"><ele>302.0</ele><time>2026-04-11T09:02:00.001Z</time></trkpt><trkpt lat="45.646035371237595" lon="8.564503062975813"><ele>302.0</ele><time>2026-04-11T09:02:02Z</time></trkpt><trkpt lat="45.645969223003824" lon="8.564429504956237"><ele>302.0</ele><time>2026-04-11T09:02:04Z</time></trkpt><trkpt lat="45.64590953239675" lon="8.564349614289515"><ele>300.1666666666667</ele><time>2026-04-11T09:02:05Z</time></trkpt><trkpt lat="45.64585570485613" lon="8.564273116230993"><ele>298.33333333333337</ele><time>2026-04-11T09:02:06Z</time></trkpt><trkpt lat="45.64579288835212" lon="8.564195673228987"><ele>296.5</ele><time>2026-04-11T09:02:07Z</time></trkpt><trkpt lat="45.64572446803061" lon="8.564130333613404"><ele>294.6666666666667</ele><time>2026-04-11T09:02:08Z</time></trkpt><trkpt lat="45.64566306678759" lon="8.56406722506041"><ele>292.8333333333333</ele><time>2026-04-11T09:02:09Z</time></trkpt><trkpt lat="45.645602958323835" lon="8.564032600147376"><ele>291.0</ele><time>2026-04-11T09:02:10Z</time></trkpt><trkpt lat="45.64549698666938" lon="8.563935625450814"><ele>291.0</ele><time>2026-04-11T09:02:12Z</time></trkpt><trkpt lat="45.645420057065735" lon="8.563829204413334"><ele>291.0</ele><time>2026-04-11T09:02:14Z</time></trkpt><trkpt lat="45.64537117993982" lon="8.563767065029785"><ele>291.0</ele><time>2026-04-11T09:03:01.999Z</time></trkpt><trkpt lat="45.64545336356628" lon="8.56361667883248"><ele>291.0</ele><time>2026-04-11T09:04:40Z</time></trkpt><trkpt lat="45.645523237204294" lon="8.563540112551133"><ele>291.0</ele><time>2026-04-11T09:04:41Z</time></trkpt><trkpt lat="45.645596645936934" lon="8.563435669286813"><ele>292.0</ele><time>2026-04-11T09:04:42Z</time></trkpt><trkpt lat="45.645654386667715" lon="8.563325696876829"><ele>293.0</ele><time>2026-04-11T09:04:43Z</time></trkpt><trkpt lat="45.64572186030218" lon="8.563203790734724"><ele>294.0</ele><time>2026-04-11T09:04:44Z</time></trkpt><trkpt lat="45.645785931546776" lon="8.563077675212517"><ele>295.0</ele><time>2026-04-11T09:04:45Z</time></trkpt><trkpt lat="45.64584809704335" lon="8.562950957097966"><ele>296.0</ele><time>2026-04-11T09:04:46Z</time></trkpt><trkpt lat="45.645916695013184" lon="8.562824520674438"><ele>296.40000000000003</ele><time>2026-04-11T09:04:47Z</time></trkpt><trkpt lat="45.645993029227135" lon="8.56271023837506"><ele>296.8</ele><time>2026-04-11T09:04:47.999Z</time></trkpt><trkpt lat="45.646071472682934" lon="8.562612713888441"><ele>297.20000000000005</ele><time>2026-04-11T09:04:48.999Z</time></trkpt><trkpt lat="45.64615125284671" lon="8.56252248033524"><ele>297.6</ele><time>2026-04-11T09:04:49.999Z</time></trkpt><trkpt lat="45.64622365729493" lon="8.562434019395281"><ele>298.0</ele><time>2026-04-11T09:04:50.999Z</time></trkpt><trkpt lat="45.646290633912464" lon="8.562380636837439"><ele>299.2</ele><time>2026-04-11T09:04:51.999Z</time></trkpt><trkpt lat="45.64636539603566" lon="8.562360484356274"><ele>300.4</ele><time>2026-04-11T09:04:52.999Z</time></trkpt><trkpt lat="45.64646597427571" lon="8.56236031317786"><ele>301.59999999999997</ele><time>2026-04-11T09:04:53.999Z</time></trkpt><trkpt lat="45.64657947092734" lon="8.56236836955438"><ele>302.8</ele><time>2026-04-11T09:04:54.999Z</time></trkpt><trkpt lat="45.646690380627895" lon="8.562395454069213"><ele>304.0</ele><time>2026-04-11T09:04:55.999Z</time></trkpt><trkpt lat="45.646814529559556" lon="8.562458849315018"><ele>304.0</ele><time>2026-04-11T09:04:56.999Z</time></trkpt><trkpt lat="45.64695016696532" lon="8.562532541663419"><ele>304.0</ele><time>2026-04-11T09:04:57.999Z</time></trkpt><trkpt lat="45.647066298152204" lon="8.562606640750804"><ele>304.0</ele><time>2026-04-11T09:04:58.999Z</time></trkpt><trkpt lat="45.64719313439232" lon="8.562658530026225"><ele>304.0</ele><time>2026-04-11T09:04:59.999Z</time></trkpt><trkpt lat="45.64731705850334" lon="8.562672753211437"><ele>304.5</ele><time>2026-04-11T09:05:00.999Z</time></trkpt><trkpt lat="45.647440019685945" lon="8.56268918449283"><ele>305.0</ele><time>2026-04-11T09:05:01.999Z</time></trkpt><trkpt lat="45.64757297996522" lon="8.562715363567484"><ele>305.5</ele><time>2026-04-11T09:05:02.999Z</time></trkpt><trkpt lat="45.64768682941313" lon="8.562731715916563"><ele>306.0</ele><time>2026-04-11T09:05:03.999Z</time></trkpt><trkpt lat="45.64778761265322" lon="8.562742853263247"><ele>306.6666666666667</ele><time>2026-04-11T09:05:04.999Z</time></trkpt><trkpt lat="45.64787504660292" lon="8.562753641322846"><ele>307.3333333333333</ele><time>2026-04-11T09:05:05.999Z</time></trkpt><trkpt lat="45.647957911816384" lon="8.562752251188972"><ele>308.0</ele><time>2026-04-11T09:05:06.999Z</time></trkpt><trkpt lat="45.64802332839861" lon="8.562718796670948"><ele>308.66666666666663</ele><time>2026-04-11T09:05:07.999Z</time></trkpt><trkpt lat="45.64806466269871" lon="8.562641610926983"><ele>309.3333333333333</ele><time>2026-04-11T09:05:08.999Z</time></trkpt><trkpt lat="45.64809323533481" lon="8.562491453991965"><ele>310.0</ele><time>2026-04-11T09:05:09.999Z</time></trkpt><trkpt lat="45.64809243699289" lon="8.562329422988784"><ele>310.0</ele><time>2026-04-11T09:05:10.999Z</time></trkpt><trkpt lat="45.64812651125307" lon="8.562186915557904"><ele>310.0</ele><time>2026-04-11T09:05:11.999Z</time></trkpt><trkpt lat="45.648166525519734" lon="8.562070609096294"><ele>310.0</ele><time>2026-04-11T09:05:12.999Z</time></trkpt><trkpt lat="45.64820306803337" lon="8.561943685009576"><ele>310.0</ele><time>2026-04-11T09:05:13.999Z</time></trkpt><trkpt lat="45.648217197823904" lon="8.561838138994545"><ele>310.0</ele><time>2026-04-11T09:05:14.999Z</time></trkpt><trkpt lat="45.64823849592691" lon="8.561733722961648"><ele>310.0</ele><time>2026-04-11T09:05:15.999Z</time></trkpt><trkpt lat="45.64826662208538" lon="8.56165245878669"><ele>308.8333333333333</ele><time>2026-04-11T09:05:16.999Z</time></trkpt><trkpt lat="45.648321867205716" lon="8.561605078303458"><ele>307.66666666666663</ele><time>2026-04-11T09:05:17.999Z</time></trkpt><trkpt lat="45.64838264856369" lon="8.561558997603775"><ele>306.5</ele><time>2026-04-11T09:05:18.999Z</time></trkpt><trkpt lat="45.648434409323436" lon="8.561483098839387"><ele>305.3333333333333</ele><time>2026-04-11T09:05:20.999Z</time></trkpt><trkpt lat="45.648395266053036" lon="8.561319115201785"><ele>304.1666666666667</ele><time>2026-04-11T09:05:29.999Z</time></trkpt><trkpt lat="45.648346464332505" lon="8.561223696232915"><ele>303.0</ele><time>2026-04-11T09:05:30.999Z</time></trkpt><trkpt lat="45.648293523978" lon="8.561126781858727"><ele>301.6666666666667</ele><time>2026-04-11T09:05:31.999Z</time></trkpt><trkpt lat="45.64824606571963" lon="8.561035035256689"><ele>300.3333333333333</ele><time>2026-04-11T09:05:32.998Z</time></trkpt><trkpt lat="45.64819899793318" lon="8.560940539494036"><ele>299.0</ele><time>2026-04-11T09:05:33.998Z</time></trkpt><trkpt lat="45.64815445934841" lon="8.56084866553383"><ele>297.66666666666663</ele><time>2026-04-11T09:05:34.998Z</time></trkpt><trkpt lat="45.64813369210096" lon="8.560736732353606"><ele>296.3333333333333</ele><time>2026-04-11T09:05:35.998Z</time></trkpt><trkpt lat="45.64810321837334" lon="8.560639029392567"><ele>295.0</ele><time>2026-04-11T09:05:36.998Z</time></trkpt><trkpt lat="45.648079666701086" lon="8.560538332829337"><ele>295.0</ele><time>2026-04-11T09:05:37.998Z</time></trkpt><trkpt lat="45.6480671103286" lon="8.560428885799618"><ele>295.0</ele><time>2026-04-11T09:05:38.998Z</time></trkpt><trkpt lat="45.6480653607641" lon="8.560312041854385"><ele>295.0</ele><time>2026-04-11T09:05:39.998Z</time></trkpt><trkpt lat="45.648072109165476" lon="8.560187312826994"><ele>295.0</ele><time>2026-04-11T09:05:40.998Z</time></trkpt><trkpt lat="45.64809277808596" lon="8.560061795841031"><ele>295.0</ele><time>2026-04-11T09:05:41.998Z</time></trkpt><trkpt lat="45.648123675948966" lon="8.559939485408433"><ele>295.0</ele><time>2026-04-11T09:05:42.998Z</time></trkpt><trkpt lat="45.648153780513304" lon="8.559820508630295"><ele>294.66666666666663</ele><time>2026-04-11T09:05:43.998Z</time></trkpt><trkpt lat="45.648182429390886" lon="8.559702950343832"><ele>294.3333333333333</ele><time>2026-04-11T09:05:44.998Z</time></trkpt><trkpt lat="45.64820956443634" lon="8.559584115860385"><ele>294.0</ele><time>2026-04-11T09:05:45.998Z</time></trkpt><trkpt lat="45.64823091243896" lon="8.559462079013704"><ele>293.6666666666667</ele><time>2026-04-11T09:05:46.998Z</time></trkpt><trkpt lat="45.648240762197425" lon="8.559344365611073"><ele>293.33333333333337</ele><time>2026-04-11T09:05:47.998Z</time></trkpt><trkpt lat="45.64824466866589" lon="8.559254140598563"><ele>293.0</ele><time>2026-04-11T09:05:48.998Z</time></trkpt><trkpt lat="45.6482686765874" lon="8.559157906949007"><ele>291.25</ele><time>2026-04-11T09:05:50.998Z</time></trkpt><trkpt lat="45.64826643869039" lon="8.559046820438205"><ele>289.5</ele><time>2026-04-11T09:05:52.998Z</time></trkpt><trkpt lat="45.64853542235619" lon="8.558997748723046"><ele>287.75</ele><time>2026-04-11T09:05:53.998Z</time></trkpt><trkpt lat="45.64861214605567" lon="8.558932183071818"><ele>286.0</ele><time>2026-04-11T09:05:55.998Z</time></trkpt><trkpt lat="45.64870076354311" lon="8.558863914418856"><ele>286.0</ele><time>2026-04-11T09:05:58.001Z</time></trkpt><trkpt lat="45.648766587432526" lon="8.55881620847913"><ele>286.0</ele><time>2026-04-11T09:05:59.001Z</time></trkpt><trkpt lat="45.64881480907889" lon="8.558756003534182"><ele>286.0</ele><time>2026-04-11T09:06:02.001Z</time></trkpt><trkpt lat="45.64891658296191" lon="8.558704332975863"><ele>286.0</ele><time>2026-04-11T09:06:04Z</time></trkpt><trkpt lat="45.64901409246109" lon="8.55861855323308"><ele>286.0</ele><time>2026-04-11T09:06:07Z</time></trkpt><trkpt lat="45.64907020204821" lon="8.558562310041353"><ele>286.0</ele><time>2026-04-11T09:06:09Z</time></trkpt><trkpt lat="45.64912874703538" lon="8.558527263759792"><ele>286.0</ele><time>2026-04-11T09:07:15.999Z</time></trkpt><trkpt lat="45.64922287683391" lon="8.558432365826178"><ele>286.0</ele><time>2026-04-11T09:07:17.999Z</time></trkpt><trkpt lat="45.649281975923536" lon="8.558383283790908"><ele>286.0</ele><time>2026-04-11T09:07:18.999Z</time></trkpt><trkpt lat="45.64935997763176" lon="8.558329546729217"><ele>286.0</ele><time>2026-04-11T09:07:19.999Z</time></trkpt><trkpt lat="45.64945758699798" lon="8.55827321442591"><ele>286.0</ele><time>2026-04-11T09:07:20.999Z</time></trkpt><trkpt lat="45.649549907907456" lon="8.558201791761762"><ele>287.16666666666663</ele><time>2026-04-11T09:07:21.999Z</time></trkpt><trkpt lat="45.64964363471213" lon="8.558127228517568"><ele>288.3333333333333</ele><time>2026-04-11T09:07:22.999Z</time></trkpt><trkpt lat="45.6497257126862" lon="8.558056650688645"><ele>289.5</ele><time>2026-04-11T09:07:23.999Z</time></trkpt><trkpt lat="45.649801326760326" lon="8.557996159809319"><ele>290.6666666666667</ele><time>2026-04-11T09:07:24.999Z</time></trkpt><trkpt lat="45.64986490292202" lon="8.557944535161981"><ele>291.83333333333337</ele><time>2026-04-11T09:07:25.999Z</time></trkpt><trkpt lat="45.64991678922281" lon="8.557883663586226"><ele>293.0</ele><time>2026-04-11T09:07:26.999Z</time></trkpt><trkpt lat="45.64998437408017" lon="8.55783872812506"><ele>294.2857142857143</ele><time>2026-04-11T09:07:27.999Z</time></trkpt><trkpt lat="45.650045244291555" lon="8.557801610106686"><ele>295.57142857142856</ele><time>2026-04-11T09:07:28.999Z</time></trkpt><trkpt lat="45.650135301270275" lon="8.557738213353842"><ele>296.8571428571429</ele><time>2026-04-11T09:07:29.999Z</time></trkpt><trkpt lat="45.65019474649291" lon="8.557689675677787"><ele>298.1428571428571</ele><time>2026-04-11T09:07:30.999Z</time></trkpt><trkpt lat="45.65025814258501" lon="8.557646154046642"><ele>299.42857142857144</ele><time>2026-04-11T09:07:31.999Z</time></trkpt><trkpt lat="45.65031661332891" lon="8.557591609454814"><ele>300.7142857142857</ele><time>2026-04-11T09:07:32.999Z</time></trkpt><trkpt lat="45.650378505972746" lon="8.557535554475319"><ele>302.0</ele><time>2026-04-11T09:07:33.999Z</time></trkpt><trkpt lat="45.65044403361475" lon="8.557499204239035"><ele>303.4</ele><time>2026-04-11T09:07:34.999Z</time></trkpt><trkpt lat="45.65053035055967" lon="8.557440153027878"><ele>304.79999999999995</ele><time>2026-04-11T09:07:36.999Z</time></trkpt><trkpt lat="45.650603268398" lon="8.557386200209548"><ele>306.2</ele><time>2026-04-11T09:07:38.998Z</time></trkpt><trkpt lat="45.650689587642255" lon="8.557330795385331"><ele>307.59999999999997</ele><time>2026-04-11T09:07:40.998Z</time></trkpt><trkpt lat="45.6507928145517" lon="8.557243452635365"><ele>309.0</ele><time>2026-04-11T09:07:42.998Z</time></trkpt><trkpt lat="45.65090301065782" lon="8.55716658497196"><ele>309.0</ele><time>2026-04-11T09:07:44.998Z</time></trkpt><trkpt lat="45.650965772273324" lon="8.557143187447576"><ele>309.0</ele><time>2026-04-11T09:07:45.998Z</time></trkpt><trkpt lat="45.65107648771995" lon="8.557085922973643"><ele>309.0</ele><time>2026-04-11T09:07:47.998Z</time></trkpt><trkpt lat="45.6511409774138" lon="8.55703914462627"><ele>309.0</ele><time>2026-04-11T09:07:48.998Z</time></trkpt><trkpt lat="45.65121325667162" lon="8.556970581233124"><ele>309.0</ele><time>2026-04-11T09:07:49.998Z</time></trkpt><trkpt lat="45.651271819760325" lon="8.556925840098955"><ele>309.0</ele><time>2026-04-11T09:07:50.998Z</time></trkpt><trkpt lat="45.65134406205956" lon="8.55688860743029"><ele>309.3333333333333</ele><time>2026-04-11T09:07:51.998Z</time></trkpt><trkpt lat="45.65140383607608" lon="8.556849036809297"><ele>309.6666666666667</ele><time>2026-04-11T09:07:52.998Z</time></trkpt><trkpt lat="45.651502596426035" lon="8.55678703715446"><ele>310.0</ele><time>2026-04-11T09:07:54.998Z</time></trkpt><trkpt lat="45.651574568290535" lon="8.556742036121118"><ele>310.33333333333337</ele><time>2026-04-11T09:07:55.998Z</time></trkpt><trkpt lat="45.6516771203402" lon="8.556683782551955"><ele>310.6666666666667</ele><time>2026-04-11T09:07:57.998Z</time></trkpt><trkpt lat="45.65174693357365" lon="8.556638654922093"><ele>311.0</ele><time>2026-04-11T09:07:58.998Z</time></trkpt><trkpt lat="45.651811884529344" lon="8.556589746514899"><ele>311.0</ele><time>2026-04-11T09:07:59.998Z</time></trkpt><trkpt lat="45.651880575072056" lon="8.55654843909201"><ele>311.0</ele><time>2026-04-11T09:08:00.998Z</time></trkpt><trkpt lat="45.65195363212868" lon="8.556526906780727"><ele>311.0</ele><time>2026-04-11T09:08:01.998Z</time></trkpt><trkpt lat="45.65201855819682" lon="8.55649276289483"><ele>311.0</ele><time>2026-04-11T09:08:02.998Z</time></trkpt><trkpt lat="45.65208361124518" lon="8.556448636079763"><ele>311.0</ele><time>2026-04-11T09:08:04.001Z</time></trkpt><trkpt lat="45.652150201112214" lon="8.556409429026488"><ele>311.0</ele><time>2026-04-11T09:08:05.001Z</time></trkpt><trkpt lat="45.65221881975509" lon="8.55637809363921"><ele>311.0</ele><time>2026-04-11T09:08:06.001Z</time></trkpt><trkpt lat="45.65228776253103" lon="8.556307558997487"><ele>311.5</ele><time>2026-04-11T09:08:08.001Z</time></trkpt><trkpt lat="45.652352923040866" lon="8.55620878017012"><ele>312.0</ele><time>2026-04-11T09:08:11.001Z</time></trkpt><trkpt lat="45.652422160092975" lon="8.556203920456653"><ele>312.5</ele><time>2026-04-11T09:08:16Z</time></trkpt><trkpt lat="45.65248658158569" lon="8.55618733892605"><ele>313.0</ele><time>2026-04-11T09:08:18Z</time></trkpt><trkpt lat="45.65255219482326" lon="8.556111017654288"><ele>313.5</ele><time>2026-04-11T09:08:20Z</time></trkpt><trkpt lat="45.65264005145186" lon="8.5560517902924"><ele>314.0</ele><time>2026-04-11T09:08:22Z</time></trkpt><trkpt lat="45.65272095079578" lon="8.555976164582857"><ele>314.4</ele><time>2026-04-11T09:08:24Z</time></trkpt><trkpt lat="45.65282008115872" lon="8.555968782265639"><ele>314.79999999999995</ele><time>2026-04-11T09:08:26Z</time></trkpt><trkpt lat="45.652943191162755" lon="8.555915343257483"><ele>315.20000000000005</ele><time>2026-04-11T09:08:28Z</time></trkpt><trkpt lat="45.65303405360341" lon="8.555865627852095"><ele>315.6</ele><time>2026-04-11T09:08:29Z</time></trkpt><trkpt lat="45.65310823979832" lon="8.55581727488331"><ele>316.0</ele><time>2026-04-11T09:08:30Z</time></trkpt><trkpt lat="45.65317532561656" lon="8.55578185849087"><ele>316.0</ele><time>2026-04-11T09:08:31Z</time></trkpt><trkpt lat="45.65324948489038" lon="8.555739060285736"><ele>316.0</ele><time>2026-04-11T09:08:32Z</time></trkpt><trkpt lat="45.653319497850006" lon="8.555702195968049"><ele>316.0</ele><time>2026-04-11T09:08:33Z</time></trkpt><trkpt lat="45.65340892235157" lon="8.555622991680133"><ele>316.0</ele><time>2026-04-11T09:08:35Z</time></trkpt><trkpt lat="45.65348470637353" lon="8.555557536547678"><ele>316.0</ele><time>2026-04-11T09:08:37Z</time></trkpt><trkpt lat="45.65354820636898" lon="8.55551039396699"><ele>316.0</ele><time>2026-04-11T09:08:40Z</time></trkpt><trkpt lat="45.6536017495595" lon="8.555453191753704"><ele>315.8333333333333</ele><time>2026-04-11T09:08:44Z</time></trkpt><trkpt lat="45.65366365748124" lon="8.555380866182341"><ele>315.66666666666663</ele><time>2026-04-11T09:08:46Z</time></trkpt><trkpt lat="45.65372869164528" lon="8.555326240747636"><ele>315.5</ele><time>2026-04-11T09:09:26.999Z</time></trkpt><trkpt lat="45.65378442053566" lon="8.555284126927397"><ele>315.3333333333333</ele><time>2026-04-11T09:09:27.999Z</time></trkpt><trkpt lat="45.653834659295335" lon="8.555227261512815"><ele>315.1666666666667</ele><time>2026-04-11T09:09:28.999Z</time></trkpt><trkpt lat="45.6539121299713" lon="8.555127189652065"><ele>315.0</ele><time>2026-04-11T09:09:30.999Z</time></trkpt><trkpt lat="45.6539630836778" lon="8.555074129399902"><ele>314.1666666666667</ele><time>2026-04-11T09:09:31.999Z</time></trkpt><trkpt lat="45.654061087521946" lon="8.554969599933832"><ele>313.3333333333333</ele><time>2026-04-11T09:09:33.999Z</time></trkpt><trkpt lat="45.65410517905308" lon="8.554902373969385"><ele>312.5</ele><time>2026-04-11T09:09:34.999Z</time></trkpt><trkpt lat="45.65420806411246" lon="8.554796043764632"><ele>311.66666666666663</ele><time>2026-04-11T09:09:36.999Z</time></trkpt><trkpt lat="45.65426417371139" lon="8.554735446120421"><ele>310.8333333333333</ele><time>2026-04-11T09:09:37.999Z</time></trkpt><trkpt lat="45.65430976827536" lon="8.554668560382654"><ele>310.0</ele><time>2026-04-11T09:09:39.999Z</time></trkpt><trkpt lat="45.65436007919539" lon="8.554600281402704"><ele>308.8</ele><time>2026-04-11T09:09:40.999Z</time></trkpt><trkpt lat="45.65442647252283" lon="8.554519287088622"><ele>307.6</ele><time>2026-04-11T09:09:43.998Z</time></trkpt><trkpt lat="45.654518378883886" lon="8.554418807280344"><ele>306.4</ele><time>2026-04-11T09:09:45.998Z</time></trkpt><trkpt lat="45.654580657795414" lon="8.554374980007005"><ele>305.2</ele><time>2026-04-11T09:09:47.998Z</time></trkpt><trkpt lat="45.654685893503924" lon="8.55424027514193"><ele>304.0</ele><time>2026-04-11T09:09:49.998Z</time></trkpt><trkpt lat="45.65473082149123" lon="8.554163676021384"><ele>303.8</ele><time>2026-04-11T09:09:50.998Z</time></trkpt><trkpt lat="45.65481145164949" lon="8.55406769810185"><ele>303.59999999999997</ele><time>2026-04-11T09:09:52.998Z</time></trkpt><trkpt lat="45.65490374527434" lon="8.553979868070744"><ele>303.4</ele><time>2026-04-11T09:09:54.998Z</time></trkpt><trkpt lat="45.65498011269765" lon="8.553902850517762"><ele>303.2</ele><time>2026-04-11T09:09:56.998Z</time></trkpt><trkpt lat="45.655049428116634" lon="8.55381943217589"><ele>303.0</ele><time>2026-04-11T09:09:58.998Z</time></trkpt><trkpt lat="45.655100505599684" lon="8.553753459445984"><ele>303.1666666666667</ele><time>2026-04-11T09:09:59.998Z</time></trkpt><trkpt lat="45.655154784171124" lon="8.553695943519166"><ele>303.3333333333333</ele><time>2026-04-11T09:10:00.998Z</time></trkpt><trkpt lat="45.65520694469797" lon="8.553618074593519"><ele>303.5</ele><time>2026-04-11T09:10:02.998Z</time></trkpt><trkpt lat="45.655253734173954" lon="8.553511640308908"><ele>303.66666666666663</ele><time>2026-04-11T09:10:21Z</time></trkpt><trkpt lat="45.6553194416203" lon="8.553441978832144"><ele>303.8333333333333</ele><time>2026-04-11T09:10:24Z</time></trkpt><trkpt lat="45.655407831011956" lon="8.553417299605133"><ele>304.0</ele><time>2026-04-11T09:12:07.998Z</time></trkpt><trkpt lat="45.65551111934316" lon="8.553359388217517"><ele>304.0</ele><time>2026-04-11T09:12:09.998Z</time></trkpt><trkpt lat="45.65558121063357" lon="8.553325971022339"><ele>304.0</ele><time>2026-04-11T09:12:10.998Z</time></trkpt><trkpt lat="45.6556492971591" lon="8.553292086978672"><ele>304.0</ele><time>2026-04-11T09:12:11.998Z</time></trkpt><trkpt lat="45.65573086324201" lon="8.553228614417472"><ele>304.0</ele><time>2026-04-11T09:12:12.998Z</time></trkpt><trkpt lat="45.655815337353104" lon="8.5531966988631"><ele>304.0</ele><time>2026-04-11T09:12:13.998Z</time></trkpt><trkpt lat="45.65590316095455" lon="8.553171303951654"><ele>304.0</ele><time>2026-04-11T09:12:14.998Z</time></trkpt><trkpt lat="45.65596659557038" lon="8.553127392887571"><ele>304.0</ele><time>2026-04-11T09:12:16Z</time></trkpt><trkpt lat="45.65607549219787" lon="8.553056660865737"><ele>304.0</ele><time>2026-04-11T09:12:18Z</time></trkpt><trkpt lat="45.65616726913083" lon="8.553004576268023"><ele>304.0</ele><time>2026-04-11T09:12:20Z</time></trkpt><trkpt lat="45.65626808898571" lon="8.552967174692233"><ele>304.0</ele><time>2026-04-11T09:12:22Z</time></trkpt><trkpt lat="45.65636354673954" lon="8.552905789116775"><ele>304.0</ele><time>2026-04-11T09:12:24Z</time></trkpt><trkpt lat="45.656424855582486" lon="8.552863139720436"><ele>306.75</ele><time>2026-04-11T09:12:25Z</time></trkpt><trkpt lat="45.656543321132574" lon="8.552800676587994"><ele>309.5</ele><time>2026-04-11T09:12:27Z</time></trkpt><trkpt lat="45.65664406117435" lon="8.552755284210749"><ele>312.25</ele><time>2026-04-11T09:12:29Z</time></trkpt><trkpt lat="45.656767049809105" lon="8.552698656609738"><ele>315.0</ele><time>2026-04-11T09:12:31Z</time></trkpt><trkpt lat="45.65686767014646" lon="8.552630560026344"><ele>315.1666666666667</ele><time>2026-04-11T09:12:33Z</time></trkpt><trkpt lat="45.656980074275516" lon="8.552573489958236"><ele>315.3333333333333</ele><time>2026-04-11T09:12:35Z</time></trkpt><trkpt lat="45.657045384663185" lon="8.552539456893745"><ele>315.5</ele><time>2026-04-11T09:12:36Z</time></trkpt><trkpt lat="45.65710820860402" lon="8.55249865400497"><ele>315.66666666666663</ele><time>2026-04-11T09:12:37Z</time></trkpt><trkpt lat="45.65716667524714" lon="8.552459390184728"><ele>315.8333333333333</ele><time>2026-04-11T09:12:38Z</time></trkpt><trkpt lat="45.657282410231474" lon="8.552392603362165"><ele>316.0</ele><time>2026-04-11T09:12:40Z</time></trkpt><trkpt lat="45.65740871781818" lon="8.552341764695207"><ele>316.00000000000006</ele><time>2026-04-11T09:12:42Z</time></trkpt><trkpt lat="45.65747489735173" lon="8.552311790351673"><ele>316.0</ele><time>2026-04-11T09:12:43Z</time></trkpt><trkpt lat="45.65753615683672" lon="8.552270504657756"><ele>316.0</ele><time>2026-04-11T09:12:44Z</time></trkpt><trkpt lat="45.6576018968346" lon="8.55223512012577"><ele>316.0</ele><time>2026-04-11T09:12:45Z</time></trkpt><trkpt lat="45.65765845538884" lon="8.552190597157212"><ele>316.0</ele><time>2026-04-11T09:12:46Z</time></trkpt><trkpt lat="45.657728291891665" lon="8.552147482874773"><ele>316.00000000000006</ele><time>2026-04-11T09:12:47Z</time></trkpt><trkpt lat="45.657788083610406" lon="8.552118480336956"><ele>316.0</ele><time>2026-04-11T09:12:48Z</time></trkpt><trkpt lat="45.657855062887414" lon="8.552082992015043"><ele>316.2</ele><time>2026-04-11T09:12:49Z</time></trkpt><trkpt lat="45.657945851599784" lon="8.552015316109122"><ele>316.40000000000003</ele><time>2026-04-11T09:12:51Z</time></trkpt><trkpt lat="45.658044905210424" lon="8.551951194730448"><ele>316.6</ele><time>2026-04-11T09:12:53Z</time></trkpt><trkpt lat="45.65814762915589" lon="8.551910909715227"><ele>316.8</ele><time>2026-04-11T09:12:55Z</time></trkpt><trkpt lat="45.658242170583954" lon="8.55185824868303"><ele>317.0</ele><time>2026-04-11T09:12:57Z</time></trkpt><trkpt lat="45.65835806493052" lon="8.551783315744139"><ele>317.0</ele><time>2026-04-11T09:12:59Z</time></trkpt><trkpt lat="45.6584250981032" lon="8.551745757371524"><ele>317.0</ele><time>2026-04-11T09:12:59.999Z</time></trkpt><trkpt lat="45.658491447043374" lon="8.551710100685991"><ele>317.0</ele><time>2026-04-11T09:13:01.999Z</time></trkpt><trkpt lat="45.65855784156434" lon="8.551671306402799"><ele>317.0</ele><time>2026-04-11T09:13:03.999Z</time></trkpt><trkpt lat="45.658633729190996" lon="8.55162955945266"><ele>317.0</ele><time>2026-04-11T09:13:06.999Z</time></trkpt><trkpt lat="45.65870706656268" lon="8.551576260177818"><ele>317.0</ele><time>2026-04-11T09:13:08.999Z</time></trkpt><trkpt lat="45.65882698960431" lon="8.551516262729503"><ele>317.4</ele><time>2026-04-11T09:13:10.999Z</time></trkpt><trkpt lat="45.658921680807246" lon="8.551463515146525"><ele>317.79999999999995</ele><time>2026-04-11T09:13:12.999Z</time></trkpt><trkpt lat="45.6590222626943" lon="8.551396063604725"><ele>318.2</ele><time>2026-04-11T09:13:14.999Z</time></trkpt><trkpt lat="45.65911955129876" lon="8.551344582078007"><ele>318.59999999999997</ele><time>2026-04-11T09:13:16.999Z</time></trkpt><trkpt lat="45.65920656044853" lon="8.551300391528612"><ele>319.0</ele><time>2026-04-11T09:13:18.999Z</time></trkpt><trkpt lat="45.65931926909811" lon="8.551237581162162"><ele>319.0</ele><time>2026-04-11T09:13:20.999Z</time></trkpt><trkpt lat="45.659390885939864" lon="8.55119006092324"><ele>319.0</ele><time>2026-04-11T09:13:21.999Z</time></trkpt><trkpt lat="45.65946032739008" lon="8.551157161842164"><ele>319.0</ele><time>2026-04-11T09:13:22.999Z</time></trkpt><trkpt lat="45.65952427627418" lon="8.551119191915035"><ele>319.0</ele><time>2026-04-11T09:13:23.999Z</time></trkpt><trkpt lat="45.65963628354282" lon="8.551046276816196"><ele>319.0</ele><time>2026-04-11T09:13:25.999Z</time></trkpt><trkpt lat="45.659740656811785" lon="8.550984286218482"><ele>319.0</ele><time>2026-04-11T09:13:27.999Z</time></trkpt><trkpt lat="45.6598399557395" lon="8.55093971460115"><ele>319.0</ele><time>2026-04-11T09:13:29.999Z</time></trkpt><trkpt lat="45.659924505403616" lon="8.550900842709039"><ele>319.0</ele><time>2026-04-11T09:13:31.999Z</time></trkpt><trkpt lat="45.66002649763962" lon="8.550828132855814"><ele>319.0</ele><time>2026-04-11T09:13:33.999Z</time></trkpt><trkpt lat="45.66013468806616" lon="8.550767412817791"><ele>319.0</ele><time>2026-04-11T09:13:35.999Z</time></trkpt><trkpt lat="45.660201370657994" lon="8.55071880396441"><ele>319.0</ele><time>2026-04-11T09:13:37.999Z</time></trkpt><trkpt lat="45.660258798668394" lon="8.550679869638483"><ele>319.0</ele><time>2026-04-11T09:13:39.999Z</time></trkpt><trkpt lat="45.660323182948936" lon="8.550654115638524"><ele>319.0</ele><time>2026-04-11T09:13:40.999Z</time></trkpt><trkpt lat="45.660448420024096" lon="8.550591643853704"><ele>319.0</ele><time>2026-04-11T09:13:42.998Z</time></trkpt><trkpt lat="45.66052193401426" lon="8.550540709158687"><ele>319.0</ele><time>2026-04-11T09:13:43.998Z</time></trkpt><trkpt lat="45.66058342696904" lon="8.550505631008004"><ele>319.0</ele><time>2026-04-11T09:13:44.998Z</time></trkpt><trkpt lat="45.6606483599044" lon="8.55047345794896"><ele>318.8333333333333</ele><time>2026-04-11T09:13:45.998Z</time></trkpt><trkpt lat="45.660722105772706" lon="8.550421924462857"><ele>318.66666666666663</ele><time>2026-04-11T09:13:46.998Z</time></trkpt><trkpt lat="45.66080962915897" lon="8.550377609794483"><ele>318.5</ele><time>2026-04-11T09:13:47.998Z</time></trkpt><trkpt lat="45.66087575533325" lon="8.55034792671327"><ele>318.3333333333333</ele><time>2026-04-11T09:13:48.998Z</time></trkpt><trkpt lat="45.66093938126887" lon="8.550325877484871"><ele>318.1666666666667</ele><time>2026-04-11T09:13:50.998Z</time></trkpt><trkpt lat="45.661000578563375" lon="8.550296396483459"><ele>318.0</ele><time>2026-04-11T09:13:52.998Z</time></trkpt><trkpt lat="45.66107367332847" lon="8.550251482324857"><ele>317.5</ele><time>2026-04-11T09:13:54.998Z</time></trkpt><trkpt lat="45.66117170978507" lon="8.550181024674504"><ele>317.0</ele><time>2026-04-11T09:13:56.998Z</time></trkpt><trkpt lat="45.661238780516804" lon="8.550134409744444"><ele>316.5</ele><time>2026-04-11T09:13:57.998Z</time></trkpt><trkpt lat="45.66131767517521" lon="8.550096918307016"><ele>316.0</ele><time>2026-04-11T09:13:58.998Z</time></trkpt><trkpt lat="45.66138380541872" lon="8.550060743858214"><ele>315.5</ele><time>2026-04-11T09:13:59.998Z</time></trkpt><trkpt lat="45.661478215050096" lon="8.549993890997165"><ele>315.0</ele><time>2026-04-11T09:14:01.998Z</time></trkpt><trkpt lat="45.66155131007815" lon="8.549945931114049"><ele>315.0</ele><time>2026-04-11T09:14:04.998Z</time></trkpt><trkpt lat="45.66162558188268" lon="8.549922984101919"><ele>315.0</ele><time>2026-04-11T09:14:07.998Z</time></trkpt><trkpt lat="45.661705177281426" lon="8.549896912002046"><ele>315.0</ele><time>2026-04-11T09:14:09.998Z</time></trkpt><trkpt lat="45.661777161449116" lon="8.549812539455035"><ele>315.0</ele><time>2026-04-11T09:14:11.998Z</time></trkpt><trkpt lat="45.66185328330186" lon="8.549771805175622"><ele>315.0</ele><time>2026-04-11T09:14:16.998Z</time></trkpt><trkpt lat="45.661951265040265" lon="8.549727055344032"><ele>315.0</ele><time>2026-04-11T09:14:18.998Z</time></trkpt><trkpt lat="45.66202648528249" lon="8.549698470560935"><ele>314.6666666666667</ele><time>2026-04-11T09:14:21Z</time></trkpt><trkpt lat="45.6620787953344" lon="8.549759411898867"><ele>314.3333333333333</ele><time>2026-04-11T09:14:25Z</time></trkpt><trkpt lat="45.662009735814514" lon="8.549938028822043"><ele>314.0</ele><time>2026-04-11T09:14:27Z</time></trkpt><trkpt lat="45.661978821491815" lon="8.550017549547771"><ele>313.66666666666663</ele><time>2026-04-11T09:14:28Z</time></trkpt><trkpt lat="45.66195857960887" lon="8.550139221954106"><ele>313.3333333333333</ele><time>2026-04-11T09:14:30Z</time></trkpt><trkpt lat="45.66201091849503" lon="8.55021807131949"><ele>313.0</ele><time>2026-04-11T09:14:32Z</time></trkpt><trkpt lat="45.66210983230414" lon="8.550322752157884"><ele>313.3333333333333</ele><time>2026-04-11T09:14:34Z</time></trkpt><trkpt lat="45.66217045742005" lon="8.550380802041648"><ele>313.66666666666663</ele><time>2026-04-11T09:14:35Z</time></trkpt><trkpt lat="45.662239243903315" lon="8.550446316668374"><ele>314.0</ele><time>2026-04-11T09:14:36Z</time></trkpt><trkpt lat="45.66230711593492" lon="8.550522841960289"><ele>314.3333333333333</ele><time>2026-04-11T09:14:37Z</time></trkpt><trkpt lat="45.66236573633986" lon="8.550572310363703"><ele>314.6666666666667</ele><time>2026-04-11T09:14:38Z</time></trkpt><trkpt lat="45.6624682790124" lon="8.550679360472058"><ele>315.0</ele><time>2026-04-11T09:14:40Z</time></trkpt><trkpt lat="45.6625882132947" lon="8.550792053163825"><ele>315.0</ele><time>2026-04-11T09:14:42Z</time></trkpt><trkpt lat="45.662648278391075" lon="8.550849300092839"><ele>315.0</ele><time>2026-04-11T09:14:43Z</time></trkpt><trkpt lat="45.662737586790044" lon="8.550942567678076"><ele>315.0</ele><time>2026-04-11T09:14:45Z</time></trkpt><trkpt lat="45.662818088450194" lon="8.550941855269274"><ele>315.0</ele><time>2026-04-11T09:14:47Z</time></trkpt><trkpt lat="45.66290395391625" lon="8.550904916815256"><ele>315.0</ele><time>2026-04-11T09:14:48Z</time></trkpt><trkpt lat="45.662985357552586" lon="8.550890651879238"><ele>315.0</ele><time>2026-04-11T09:14:49Z</time></trkpt><trkpt lat="45.66306635331086" lon="8.5509107213885"><ele>315.2</ele><time>2026-04-11T09:14:51Z</time></trkpt><trkpt lat="45.66317982506766" lon="8.550926488425427"><ele>315.4</ele><time>2026-04-11T09:15:10.999Z</time></trkpt><trkpt lat="45.66325941005717" lon="8.55093050464157"><ele>315.6</ele><time>2026-04-11T09:15:11.999Z</time></trkpt><trkpt lat="45.66335183128039" lon="8.550937011645125"><ele>315.8</ele><time>2026-04-11T09:15:12.999Z</time></trkpt><trkpt lat="45.66345193672216" lon="8.550941804706436"><ele>316.0</ele><time>2026-04-11T09:15:13.999Z</time></trkpt><trkpt lat="45.66354827377706" lon="8.550949808843008"><ele>316.40000000000003</ele><time>2026-04-11T09:15:14.999Z</time></trkpt><trkpt lat="45.66365209726769" lon="8.550956709320195"><ele>316.8</ele><time>2026-04-11T09:15:15.999Z</time></trkpt><trkpt lat="45.66374395504219" lon="8.550958719740313"><ele>317.20000000000005</ele><time>2026-04-11T09:15:16.999Z</time></trkpt><trkpt lat="45.6638337511052" lon="8.550961965962863"><ele>317.6</ele><time>2026-04-11T09:15:17.999Z</time></trkpt><trkpt lat="45.66391716325792" lon="8.55097069369557"><ele>318.0</ele><time>2026-04-11T09:15:18.999Z</time></trkpt><trkpt lat="45.664012867341626" lon="8.550990520914354"><ele>318.0</ele><time>2026-04-11T09:15:19.999Z</time></trkpt><trkpt lat="45.66410007049467" lon="8.551003959341122"><ele>318.0</ele><time>2026-04-11T09:15:20.999Z</time></trkpt><trkpt lat="45.66418419226836" lon="8.55101527947409"><ele>318.0</ele><time>2026-04-11T09:15:21.999Z</time></trkpt><trkpt lat="45.66428699795167" lon="8.5510319282035"><ele>318.0</ele><time>2026-04-11T09:15:22.999Z</time></trkpt><trkpt lat="45.66439110556668" lon="8.551047590494518"><ele>318.0</ele><time>2026-04-11T09:15:23.999Z</time></trkpt><trkpt lat="45.66449460282052" lon="8.551061883231325"><ele>318.6</ele><time>2026-04-11T09:15:24.999Z</time></trkpt><trkpt lat="45.66459685490514" lon="8.5510713718205"><ele>319.20000000000005</ele><time>2026-04-11T09:15:25.999Z</time></trkpt><trkpt lat="45.66468993121874" lon="8.551082974349654"><ele>319.8</ele><time>2026-04-11T09:15:26.999Z</time></trkpt><trkpt lat="45.66478604387566" lon="8.551099816636489"><ele>320.40000000000003</ele><time>2026-04-11T09:15:27.999Z</time></trkpt><trkpt lat="45.66489174665644" lon="8.551116691986755"><ele>321.0</ele><time>2026-04-11T09:15:28.999Z</time></trkpt><trkpt lat="45.66497417052769" lon="8.551118094974953"><ele>321.0</ele><time>2026-04-11T09:15:29.999Z</time></trkpt><trkpt lat="45.66506995950833" lon="8.551104069237631"><ele>321.0</ele><time>2026-04-11T09:15:30.999Z</time></trkpt><trkpt lat="45.66515928592728" lon="8.551100484794366"><ele>321.0</ele><time>2026-04-11T09:15:31.999Z</time></trkpt><trkpt lat="45.665240607305115" lon="8.551085642787292"><ele>321.0</ele><time>2026-04-11T09:15:32.999Z</time></trkpt><trkpt lat="45.66534841941588" lon="8.551059224497696"><ele>321.0</ele><time>2026-04-11T09:15:33.999Z</time></trkpt><trkpt lat="45.66544602599524" lon="8.551044933169539"><ele>321.20000000000005</ele><time>2026-04-11T09:15:34.999Z</time></trkpt><trkpt lat="45.66554219508122" lon="8.551039480780917"><ele>321.40000000000003</ele><time>2026-04-11T09:15:35.999Z</time></trkpt><trkpt lat="45.665640187827606" lon="8.551022695835412"><ele>321.6</ele><time>2026-04-11T09:15:36.999Z</time></trkpt><trkpt lat="45.665742940759536" lon="8.550994684854304"><ele>321.8</ele><time>2026-04-11T09:15:37.999Z</time></trkpt><trkpt lat="45.66582638808159" lon="8.550975443134215"><ele>322.0</ele><time>2026-04-11T09:15:38.999Z</time></trkpt><trkpt lat="45.66589265514007" lon="8.550974921730834"><ele>322.0</ele><time>2026-04-11T09:15:39.999Z</time></trkpt><trkpt lat="45.66597598531807" lon="8.550978547620305"><ele>322.0</ele><time>2026-04-11T09:15:40.999Z</time></trkpt><trkpt lat="45.66606777987016" lon="8.55097372538896"><ele>322.0</ele><time>2026-04-11T09:15:41.998Z</time></trkpt><trkpt lat="45.66617262295067" lon="8.550988636208322"><ele>322.0</ele><time>2026-04-11T09:15:42.998Z</time></trkpt><trkpt lat="45.666280591420744" lon="8.550991935121314"><ele>322.0</ele><time>2026-04-11T09:15:43.998Z</time></trkpt><trkpt lat="45.66638773640722" lon="8.550990538464491"><ele>322.6</ele><time>2026-04-11T09:15:44.998Z</time></trkpt><trkpt lat="45.666494139840594" lon="8.550981719728977"><ele>323.20000000000005</ele><time>2026-04-11T09:15:45.998Z</time></trkpt><trkpt lat="45.666593332936856" lon="8.550966211434611"><ele>323.8</ele><time>2026-04-11T09:15:46.998Z</time></trkpt><trkpt lat="45.66668399522708" lon="8.550959301110218"><ele>324.4</ele><time>2026-04-11T09:15:47.998Z</time></trkpt><trkpt lat="45.66676702051816" lon="8.55095435690738"><ele>325.0</ele><time>2026-04-11T09:15:48.998Z</time></trkpt><trkpt lat="45.66685659406332" lon="8.55094704202984"><ele>325.0</ele><time>2026-04-11T09:15:49.998Z</time></trkpt><trkpt lat="45.666941680488556" lon="8.550940390620951"><ele>325.0</ele><time>2026-04-11T09:15:50.998Z</time></trkpt><trkpt lat="45.667020122171884" lon="8.55093806240046"><ele>325.0</ele><time>2026-04-11T09:15:51.998Z</time></trkpt><trkpt lat="45.667106967005324" lon="8.550946281990122"><ele>325.0</ele><time>2026-04-11T09:15:52.998Z</time></trkpt><trkpt lat="45.667188548839064" lon="8.55094423146415"><ele>325.0</ele><time>2026-04-11T09:15:53.998Z</time></trkpt><trkpt lat="45.667272544120834" lon="8.550935434339548"><ele>325.0</ele><time>2026-04-11T09:15:54.998Z</time></trkpt><trkpt lat="45.66735542338673" lon="8.550930823612461"><ele>325.0</ele><time>2026-04-11T09:15:55.998Z</time></trkpt><trkpt lat="45.667444852347614" lon="8.550927207051927"><ele>325.0</ele><time>2026-04-11T09:15:56.998Z</time></trkpt><trkpt lat="45.667525900113375" lon="8.550929665850198"><ele>325.0</ele><time>2026-04-11T09:15:57.998Z</time></trkpt><trkpt lat="45.66761477670717" lon="8.55095512043805"><ele>325.0</ele><time>2026-04-11T09:15:58.998Z</time></trkpt><trkpt lat="45.667716738460506" lon="8.550973555629652"><ele>325.0</ele><time>2026-04-11T09:15:59.998Z</time></trkpt><trkpt lat="45.66782789375942" lon="8.550979245822274"><ele>324.4</ele><time>2026-04-11T09:16:00.998Z</time></trkpt><trkpt lat="45.6679385891166" lon="8.550961335478114"><ele>323.8</ele><time>2026-04-11T09:16:01.998Z</time></trkpt><trkpt lat="45.66802858916498" lon="8.550939281503899"><ele>323.20000000000005</ele><time>2026-04-11T09:16:02.998Z</time></trkpt><trkpt lat="45.66810690260978" lon="8.550919837406804"><ele>322.6</ele><time>2026-04-11T09:16:03.998Z</time></trkpt><trkpt lat="45.668179311304755" lon="8.55090278901361"><ele>322.0</ele><time>2026-04-11T09:16:04.998Z</time></trkpt><trkpt lat="45.66829344307317" lon="8.550877729252411"><ele>322.0</ele><time>2026-04-11T09:16:06.998Z</time></trkpt><trkpt lat="45.66835720727256" lon="8.550856929206589"><ele>322.0</ele><time>2026-04-11T09:16:16.998Z</time></trkpt><trkpt lat="45.668452729447594" lon="8.550851919767698"><ele>322.0</ele><time>2026-04-11T09:16:18.998Z</time></trkpt><trkpt lat="45.6685533647461" lon="8.550859379938943"><ele>322.0</ele><time>2026-04-11T09:16:20.998Z</time></trkpt><trkpt lat="45.668686239437584" lon="8.55084992551421"><ele>322.0</ele><time>2026-04-11T09:16:22.998Z</time></trkpt><trkpt lat="45.66876353446221" lon="8.550844252627986"><ele>322.16666666666663</ele><time>2026-04-11T09:16:23.998Z</time></trkpt><trkpt lat="45.66885268568803" lon="8.550840736185629"><ele>322.3333333333333</ele><time>2026-04-11T09:16:24.998Z</time></trkpt><trkpt lat="45.66894479613377" lon="8.550839931421493"><ele>322.5</ele><time>2026-04-11T09:16:25.997Z</time></trkpt><trkpt lat="45.66903748468731" lon="8.550839724661774"><ele>322.6666666666667</ele><time>2026-04-11T09:16:27Z</time></trkpt><trkpt lat="45.66912116262997" lon="8.550843034102225"><ele>322.83333333333337</ele><time>2026-04-11T09:16:28Z</time></trkpt><trkpt lat="45.669207790640804" lon="8.550845455075766"><ele>323.0</ele><time>2026-04-11T09:16:29Z</time></trkpt><trkpt lat="45.6692925532744" lon="8.550842196867176"><ele>323.0</ele><time>2026-04-11T09:16:30Z</time></trkpt><trkpt lat="45.669382191576574" lon="8.550810733389472"><ele>323.0</ele><time>2026-04-11T09:16:31Z</time></trkpt><trkpt lat="45.66946390962664" lon="8.550808244810622"><ele>323.0</ele><time>2026-04-11T09:16:32Z</time></trkpt><trkpt lat="45.66952896460321" lon="8.550801302979595"><ele>323.0</ele><time>2026-04-11T09:16:33Z</time></trkpt><trkpt lat="45.66959367554248" lon="8.550817265042339"><ele>323.0</ele><time>2026-04-11T09:16:34Z</time></trkpt><trkpt lat="45.66970601474721" lon="8.5507839499784"><ele>323.0</ele><time>2026-04-11T09:16:36Z</time></trkpt><trkpt lat="45.6698326545319" lon="8.550814251552874"><ele>323.33333333333337</ele><time>2026-04-11T09:16:38Z</time></trkpt><trkpt lat="45.66990400942427" lon="8.55081948655319"><ele>323.6666666666667</ele><time>2026-04-11T09:16:39Z</time></trkpt><trkpt lat="45.66997463437212" lon="8.550863478193314"><ele>324.0</ele><time>2026-04-11T09:16:40Z</time></trkpt><trkpt lat="45.670039561820374" lon="8.55092446047155"><ele>324.3333333333333</ele><time>2026-04-11T09:16:41Z</time></trkpt><trkpt lat="45.67010797260447" lon="8.550988874650304"><ele>324.66666666666663</ele><time>2026-04-11T09:16:42Z</time></trkpt><trkpt lat="45.670167579124126" lon="8.551073251798138"><ele>325.0</ele><time>2026-04-11T09:16:43Z</time></trkpt><trkpt lat="45.670216268778525" lon="8.551168792488957"><ele>325.0</ele><time>2026-04-11T09:16:44Z</time></trkpt><trkpt lat="45.6702690451294" lon="8.551252835961874"><ele>325.0</ele><time>2026-04-11T09:16:45Z</time></trkpt><trkpt lat="45.67032656060882" lon="8.551301952095873"><ele>325.0</ele><time>2026-04-11T09:16:46Z</time></trkpt><trkpt lat="45.67040560796193" lon="8.551320677713166"><ele>325.0</ele><time>2026-04-11T09:16:47Z</time></trkpt><trkpt lat="45.67052894240482" lon="8.551316998622003"><ele>325.0</ele><time>2026-04-11T09:16:48Z</time></trkpt><trkpt lat="45.67067888230967" lon="8.551343175195514"><ele>325.0</ele><time>2026-04-11T09:16:49Z</time></trkpt><trkpt lat="45.670825943112995" lon="8.551358545878266"><ele>325.0</ele><time>2026-04-11T09:16:50Z</time></trkpt><trkpt lat="45.67091932627176" lon="8.551369046597216"><ele>325.0</ele><time>2026-04-11T09:16:51Z</time></trkpt><trkpt lat="45.67103227630008" lon="8.551358918340695"><ele>325.0</ele><time>2026-04-11T09:16:53Z</time></trkpt><trkpt lat="45.67110298939386" lon="8.55137194109725"><ele>325.0</ele><time>2026-04-11T09:16:57Z</time></trkpt><trkpt lat="45.671180752727636" lon="8.55137510890445"><ele>325.66666666666663</ele><time>2026-04-11T09:16:59Z</time></trkpt><trkpt lat="45.67124506909819" lon="8.55140058182712"><ele>326.3333333333333</ele><time>2026-04-11T09:17:00Z</time></trkpt><trkpt lat="45.67138027293401" lon="8.551407986170721"><ele>327.0</ele><time>2026-04-11T09:17:01.999Z</time></trkpt><trkpt lat="45.67145930364786" lon="8.5514081753274"><ele>327.6666666666667</ele><time>2026-04-11T09:17:02.999Z</time></trkpt><trkpt lat="45.67154267943341" lon="8.551407556420727"><ele>328.33333333333337</ele><time>2026-04-11T09:17:03.999Z</time></trkpt><trkpt lat="45.671616105134675" lon="8.55140742208509"><ele>329.0</ele><time>2026-04-11T09:17:04.999Z</time></trkpt><trkpt lat="45.67169074802399" lon="8.551404917723545"><ele>329.0</ele><time>2026-04-11T09:17:05.999Z</time></trkpt><trkpt lat="45.671764519919364" lon="8.551401384123416"><ele>329.0</ele><time>2026-04-11T09:17:06.999Z</time></trkpt><trkpt lat="45.6718349354468" lon="8.551402650784006"><ele>329.0</ele><time>2026-04-11T09:17:07.999Z</time></trkpt><trkpt lat="45.67191052982472" lon="8.551403137215944"><ele>329.0</ele><time>2026-04-11T09:17:08.999Z</time></trkpt><trkpt lat="45.67199222550643" lon="8.551393134629324"><ele>329.0</ele><time>2026-04-11T09:17:09.999Z</time></trkpt><trkpt lat="45.67208228401829" lon="8.551387094096594"><ele>329.0</ele><time>2026-04-11T09:17:10.999Z</time></trkpt><trkpt lat="45.67217059774339" lon="8.551383184218244"><ele>329.0</ele><time>2026-04-11T09:17:11.999Z</time></trkpt><trkpt lat="45.67225949097374" lon="8.551381260971185"><ele>329.0</ele><time>2026-04-11T09:17:12.999Z</time></trkpt><trkpt lat="45.672345439080296" lon="8.551386379879908"><ele>329.0</ele><time>2026-04-11T09:17:13.999Z</time></trkpt><trkpt lat="45.6724338999725" lon="8.55139458548799"><ele>329.0</ele><time>2026-04-11T09:17:14.999Z</time></trkpt><trkpt lat="45.67251400325492" lon="8.551398383931794"><ele>329.0</ele><time>2026-04-11T09:17:15.999Z</time></trkpt><trkpt lat="45.672595775989436" lon="8.551399570689714"><ele>329.0</ele><time>2026-04-11T09:17:16.999Z</time></trkpt><trkpt lat="45.67267711405587" lon="8.55140628631132"><ele>329.0</ele><time>2026-04-11T09:17:17.999Z</time></trkpt><trkpt lat="45.67276675137468" lon="8.551412128448995"><ele>329.0</ele><time>2026-04-11T09:17:18.999Z</time></trkpt><trkpt lat="45.672859225853905" lon="8.551416985658427"><ele>329.0</ele><time>2026-04-11T09:17:19.999Z</time></trkpt><trkpt lat="45.67295502109833" lon="8.551422713819527"><ele>329.0</ele><time>2026-04-11T09:17:20.999Z</time></trkpt><trkpt lat="45.67305096750166" lon="8.551434508840199"><ele>329.0</ele><time>2026-04-11T09:17:21.999Z</time></trkpt><trkpt lat="45.67314607514006" lon="8.551437805714807"><ele>328.83333333333337</ele><time>2026-04-11T09:17:22.999Z</time></trkpt><trkpt lat="45.673233068976536" lon="8.551440408609954"><ele>328.6666666666667</ele><time>2026-04-11T09:17:23.999Z</time></trkpt><trkpt lat="45.673317280350105" lon="8.55145179212475"><ele>328.5</ele><time>2026-04-11T09:17:24.999Z</time></trkpt><trkpt lat="45.67339310413283" lon="8.551472149077636"><ele>328.3333333333333</ele><time>2026-04-11T09:17:25.999Z</time></trkpt><trkpt lat="45.67347932629463" lon="8.551489021407502"><ele>328.16666666666663</ele><time>2026-04-11T09:17:26.999Z</time></trkpt><trkpt lat="45.67357100851581" lon="8.551509519877436"><ele>328.0</ele><time>2026-04-11T09:17:27.999Z</time></trkpt><trkpt lat="45.673668130205094" lon="8.551538151085682"><ele>328.0</ele><time>2026-04-11T09:17:28.999Z</time></trkpt><trkpt lat="45.67376924001007" lon="8.551567370940655"><ele>328.0</ele><time>2026-04-11T09:17:29.999Z</time></trkpt><trkpt lat="45.67387363369719" lon="8.551588375294324"><ele>328.0</ele><time>2026-04-11T09:17:30.999Z</time></trkpt><trkpt lat="45.6739720665926" lon="8.551610673192773"><ele>328.0</ele><time>2026-04-11T09:17:31.999Z</time></trkpt><trkpt lat="45.67405909877879" lon="8.55163822986733"><ele>328.0</ele><time>2026-04-11T09:17:32.999Z</time></trkpt><trkpt lat="45.67414330167378" lon="8.551658544561377"><ele>328.0</ele><time>2026-04-11T09:17:33.999Z</time></trkpt><trkpt lat="45.67421822681029" lon="8.551684227908758"><ele>328.0</ele><time>2026-04-11T09:17:34.999Z</time></trkpt><trkpt lat="45.67428546396744" lon="8.551713035116883"><ele>328.0</ele><time>2026-04-11T09:17:35.999Z</time></trkpt><trkpt lat="45.67435013453315" lon="8.551733608047565"><ele>328.0</ele><time>2026-04-11T09:17:36.999Z</time></trkpt><trkpt lat="45.674443972268044" lon="8.551586320448628"><ele>328.0</ele><time>2026-04-11T09:17:39.999Z</time></trkpt><trkpt lat="45.67443391647088" lon="8.551445219391285"><ele>328.0</ele><time>2026-04-11T09:17:41.999Z</time></trkpt><trkpt lat="45.67442643535024" lon="8.551352685961703"><ele>328.0</ele><time>2026-04-11T09:17:44.999Z</time></trkpt><trkpt lat="45.674413646435944" lon="8.551251442597303"><ele>328.0</ele><time>2026-04-11T09:17:48.998Z</time></trkpt><trkpt lat="45.67437773306306" lon="8.551146936133078"><ele>328.0</ele><time>2026-04-11T09:17:49.998Z</time></trkpt><trkpt lat="45.67438847396369" lon="8.551010173770935"><ele>328.0</ele><time>2026-04-11T09:17:50.998Z</time></trkpt><trkpt lat="45.67437951198956" lon="8.55087929729022"><ele>328.0</ele><time>2026-04-11T09:17:51.998Z</time></trkpt><trkpt lat="45.674370279919586" lon="8.5507581206814"><ele>328.16666666666663</ele><time>2026-04-11T09:17:52.998Z</time></trkpt><trkpt lat="45.67436199134623" lon="8.55065146189321"><ele>328.3333333333333</ele><time>2026-04-11T09:17:53.998Z</time></trkpt><trkpt lat="45.67435269584208" lon="8.550542152707852"><ele>328.5</ele><time>2026-04-11T09:17:54.998Z</time></trkpt><trkpt lat="45.674342742021224" lon="8.550428021433142"><ele>328.6666666666667</ele><time>2026-04-11T09:17:55.998Z</time></trkpt><trkpt lat="45.674331825573546" lon="8.550301383588382"><ele>328.83333333333337</ele><time>2026-04-11T09:17:56.998Z</time></trkpt><trkpt lat="45.67431167996392" lon="8.550199091893752"><ele>329.0</ele><time>2026-04-11T09:17:57.998Z</time></trkpt><trkpt lat="45.67427279319912" lon="8.550105059400314"><ele>329.0</ele><time>2026-04-11T09:17:58.998Z</time></trkpt><trkpt lat="45.674214731228446" lon="8.55004436220142"><ele>329.0</ele><time>2026-04-11T09:17:59.998Z</time></trkpt><trkpt lat="45.674123868137414" lon="8.550038643404932"><ele>329.0</ele><time>2026-04-11T09:18:00.998Z</time></trkpt><trkpt lat="45.67402465668181" lon="8.550037704550158"><ele>329.0</ele><time>2026-04-11T09:18:01.998Z</time></trkpt><trkpt lat="45.67390193075784" lon="8.550054872889262"><ele>329.0</ele><time>2026-04-11T09:18:02.998Z</time></trkpt><trkpt lat="45.67376457510416" lon="8.550038103859881"><ele>329.0</ele><time>2026-04-11T09:18:03.998Z</time></trkpt><trkpt lat="45.67362514291962" lon="8.550063671020865"><ele>329.0</ele><time>2026-04-11T09:18:04.998Z</time></trkpt><trkpt lat="45.6735107611188" lon="8.550064669660538"><ele>329.0</ele><time>2026-04-11T09:18:05.998Z</time></trkpt><trkpt lat="45.67341229129678" lon="8.550064555282482"><ele>329.0</ele><time>2026-04-11T09:18:06.998Z</time></trkpt><trkpt lat="45.673344878785606" lon="8.550053099355763"><ele>329.0</ele><time>2026-04-11T09:18:07.998Z</time></trkpt><trkpt lat="45.67326311389625" lon="8.54999909957313"><ele>328.4</ele><time>2026-04-11T09:18:09.998Z</time></trkpt><trkpt lat="45.673237528907634" lon="8.54990883336186"><ele>327.79999999999995</ele><time>2026-04-11T09:18:11.998Z</time></trkpt><trkpt lat="45.6733134714836" lon="8.549727146762772"><ele>327.20000000000005</ele><time>2026-04-11T09:18:12.998Z</time></trkpt><trkpt lat="45.673333214580865" lon="8.549605460934467"><ele>326.6</ele><time>2026-04-11T09:18:13.998Z</time></trkpt><trkpt lat="45.673351795704285" lon="8.549468915596423"><ele>326.0</ele><time>2026-04-11T09:18:14.998Z</time></trkpt><trkpt lat="45.673380411865224" lon="8.549340370403714"><ele>325.83333333333337</ele><time>2026-04-11T09:18:15.998Z</time></trkpt><trkpt lat="45.673401275632905" lon="8.549218108174992"><ele>325.6666666666667</ele><time>2026-04-11T09:18:16.998Z</time></trkpt><trkpt lat="45.673421257983335" lon="8.549099051474528"><ele>325.5</ele><time>2026-04-11T09:18:17.998Z</time></trkpt><trkpt lat="45.67344428527007" lon="8.548980114850886"><ele>325.3333333333333</ele><time>2026-04-11T09:18:18.998Z</time></trkpt><trkpt lat="45.673478484122064" lon="8.54886183285686"><ele>325.16666666666663</ele><time>2026-04-11T09:18:19.998Z</time></trkpt><trkpt lat="45.67348764574112" lon="8.548748171393262"><ele>325.0</ele><time>2026-04-11T09:18:20.998Z</time></trkpt><trkpt lat="45.67361645056493" lon="8.54872282342139"><ele>325.66666666666663</ele><time>2026-04-11T09:18:22.998Z</time></trkpt><trkpt lat="45.673686443659314" lon="8.548739406197384"><ele>326.3333333333333</ele><time>2026-04-11T09:18:23.998Z</time></trkpt><trkpt lat="45.67375119567303" lon="8.548741144764834"><ele>327.0</ele><time>2026-04-11T09:18:24.998Z</time></trkpt><trkpt lat="45.67382377352936" lon="8.548737695547002"><ele>327.6666666666667</ele><time>2026-04-11T09:18:25.998Z</time></trkpt><trkpt lat="45.673902641176525" lon="8.54874437267899"><ele>328.33333333333337</ele><time>2026-04-11T09:18:26.998Z</time></trkpt><trkpt lat="45.673985576375635" lon="8.548748895018223"><ele>329.0</ele><time>2026-04-11T09:18:27.998Z</time></trkpt><trkpt lat="45.67407113935452" lon="8.548750824381399"><ele>329.0</ele><time>2026-04-11T09:18:28.998Z</time></trkpt><trkpt lat="45.67416114066054" lon="8.54875476085998"><ele>329.0</ele><time>2026-04-11T09:18:29.998Z</time></trkpt><trkpt lat="45.67424140513246" lon="8.548756976791502"><ele>329.0</ele><time>2026-04-11T09:18:30.997Z</time></trkpt><trkpt lat="45.674335439950255" lon="8.54875668253173"><ele>329.0</ele><time>2026-04-11T09:18:31.997Z</time></trkpt><trkpt lat="45.67443368602441" lon="8.548758702913076"><ele>329.0</ele><time>2026-04-11T09:18:33Z</time></trkpt><trkpt lat="45.6745381714373" lon="8.548762974043502"><ele>329.0</ele><time>2026-04-11T09:18:34Z</time></trkpt><trkpt lat="45.674642210646326" lon="8.548759262717994"><ele>329.0</ele><time>2026-04-11T09:18:35Z</time></trkpt><trkpt lat="45.67474198654405" lon="8.5487437232828"><ele>329.0</ele><time>2026-04-11T09:18:36Z</time></trkpt><trkpt lat="45.674833924594445" lon="8.548726546013231"><ele>329.0</ele><time>2026-04-11T09:18:37Z</time></trkpt><trkpt lat="45.674930213276554" lon="8.548713221811523"><ele>329.0</ele><time>2026-04-11T09:18:38Z</time></trkpt><trkpt lat="45.67503249399671" lon="8.548704348514462"><ele>329.5</ele><time>2026-04-11T09:18:39Z</time></trkpt><trkpt lat="45.67514054957664" lon="8.54869836257367"><ele>330.0</ele><time>2026-04-11T09:18:40Z</time></trkpt><trkpt lat="45.67525595986878" lon="8.54869480863164"><ele>330.5</ele><time>2026-04-11T09:18:41Z</time></trkpt><trkpt lat="45.67537561382649" lon="8.548700244523637"><ele>331.0</ele><time>2026-04-11T09:18:42Z</time></trkpt><trkpt lat="45.675486428482564" lon="8.548705969822924"><ele>331.16666666666663</ele><time>2026-04-11T09:18:43Z</time></trkpt><trkpt lat="45.675578970000714" lon="8.548719351687028"><ele>331.3333333333333</ele><time>2026-04-11T09:18:44Z</time></trkpt><trkpt lat="45.67567138659921" lon="8.548730159968603"><ele>331.5</ele><time>2026-04-11T09:18:45Z</time></trkpt><trkpt lat="45.67575440472782" lon="8.548768841373247"><ele>331.6666666666667</ele><time>2026-04-11T09:18:46Z</time></trkpt><trkpt lat="45.67583990277307" lon="8.548791867972138"><ele>331.83333333333337</ele><time>2026-04-11T09:18:47Z</time></trkpt><trkpt lat="45.67591021705207" lon="8.548818286070778"><ele>332.0</ele><time>2026-04-11T09:18:48Z</time></trkpt><trkpt lat="45.67597584065243" lon="8.548842494386884"><ele>332.25</ele><time>2026-04-11T09:18:49Z</time></trkpt><trkpt lat="45.676045646311024" lon="8.548577906302192"><ele>332.5</ele><time>2026-04-11T09:18:53Z</time></trkpt><trkpt lat="45.67603273394034" lon="8.548413567022944"><ele>332.75</ele><time>2026-04-11T09:18:54Z</time></trkpt><trkpt lat="45.67602129098721" lon="8.548246767236424"><ele>333.0</ele><time>2026-04-11T09:18:55Z</time></trkpt><trkpt lat="45.67601677420637" lon="8.548128750241668"><ele>333.0</ele><time>2026-04-11T09:18:56Z</time></trkpt><trkpt lat="45.676007988916126" lon="8.548015959825989"><ele>333.0</ele><time>2026-04-11T09:18:57Z</time></trkpt><trkpt lat="45.67599168911001" lon="8.547899634113024"><ele>333.0</ele><time>2026-04-11T09:18:58Z</time></trkpt><trkpt lat="45.67598087614386" lon="8.547772737163516"><ele>333.0</ele><time>2026-04-11T09:18:59Z</time></trkpt><trkpt lat="45.675970804315426" lon="8.54764975936387"><ele>333.0</ele><time>2026-04-11T09:19:00Z</time></trkpt><trkpt lat="45.67595544154474" lon="8.547523383381446"><ele>333.0</ele><time>2026-04-11T09:19:01Z</time></trkpt><trkpt lat="45.67593327492661" lon="8.547402078151055"><ele>332.6666666666667</ele><time>2026-04-11T09:19:02Z</time></trkpt><trkpt lat="45.67590379758472" lon="8.547289049232733"><ele>332.3333333333333</ele><time>2026-04-11T09:19:03Z</time></trkpt><trkpt lat="45.67585877565159" lon="8.54719220578135"><ele>332.0</ele><time>2026-04-11T09:19:04Z</time></trkpt><trkpt lat="45.675813613397715" lon="8.547096781143932"><ele>331.66666666666663</ele><time>2026-04-11T09:19:05Z</time></trkpt><trkpt lat="45.67575509995121" lon="8.547013533759676"><ele>331.3333333333333</ele><time>2026-04-11T09:19:05.999Z</time></trkpt><trkpt lat="45.67570379379516" lon="8.54692687960505"><ele>331.0</ele><time>2026-04-11T09:19:06.999Z</time></trkpt><trkpt lat="45.67565945886293" lon="8.546820712012208"><ele>329.8333333333333</ele><time>2026-04-11T09:19:07.999Z</time></trkpt><trkpt lat="45.67564199342974" lon="8.546729631496222"><ele>328.66666666666663</ele><time>2026-04-11T09:19:08.999Z</time></trkpt><trkpt lat="45.675625503583866" lon="8.546606668381001"><ele>327.5</ele><time>2026-04-11T09:19:09.999Z</time></trkpt><trkpt lat="45.675604158134746" lon="8.546488332411915"><ele>326.3333333333333</ele><time>2026-04-11T09:19:10.999Z</time></trkpt><trkpt lat="45.67556993263769" lon="8.546402803995193"><ele>325.1666666666667</ele><time>2026-04-11T09:19:11.999Z</time></trkpt><trkpt lat="45.67551236624254" lon="8.54630029501781"><ele>324.0</ele><time>2026-04-11T09:19:13.999Z</time></trkpt><trkpt lat="45.675455084488675" lon="8.546226683461377"><ele>322.0</ele><time>2026-04-11T09:19:14.999Z</time></trkpt><trkpt lat="45.675406542901065" lon="8.546156011452801"><ele>320.0</ele><time>2026-04-11T09:19:15.999Z</time></trkpt><trkpt lat="45.67541357738029" lon="8.545985386268743"><ele>318.0</ele><time>2026-04-11T09:19:17.999Z</time></trkpt><trkpt lat="45.67542187743601" lon="8.545867845100114"><ele>316.0</ele><time>2026-04-11T09:19:18.999Z</time></trkpt><trkpt lat="45.675489292989134" lon="8.545659054036538"><ele>314.0</ele><time>2026-04-11T09:19:19.999Z</time></trkpt><trkpt lat="45.675521467025206" lon="8.545530462663741"><ele>314.0</ele><time>2026-04-11T09:19:20.999Z</time></trkpt><trkpt lat="45.6755350976052" lon="8.545403227513296"><ele>314.0</ele><time>2026-04-11T09:19:21.999Z</time></trkpt><trkpt lat="45.675576787369835" lon="8.54526832836942"><ele>314.0</ele><time>2026-04-11T09:19:22.999Z</time></trkpt><trkpt lat="45.67560761434799" lon="8.545158471899972"><ele>314.0</ele><time>2026-04-11T09:19:23.999Z</time></trkpt><trkpt lat="45.675635408534966" lon="8.545064413049248"><ele>314.0</ele><time>2026-04-11T09:19:24.999Z</time></trkpt><trkpt lat="45.6756046871288" lon="8.544933958409757"><ele>314.0</ele><time>2026-04-11T09:19:26.999Z</time></trkpt><trkpt lat="45.675534171851254" lon="8.544860254494514"><ele>314.8</ele><time>2026-04-11T09:19:27.999Z</time></trkpt><trkpt lat="45.67544845281013" lon="8.544770423009828"><ele>315.59999999999997</ele><time>2026-04-11T09:19:28.999Z</time></trkpt><trkpt lat="45.675349356174" lon="8.544656707809"><ele>316.4</ele><time>2026-04-11T09:19:29.999Z</time></trkpt><trkpt lat="45.67526413946059" lon="8.544578301120993"><ele>317.2</ele><time>2026-04-11T09:19:30.999Z</time></trkpt><trkpt lat="45.675194637279006" lon="8.544497895462316"><ele>318.0</ele><time>2026-04-11T09:19:31.999Z</time></trkpt><trkpt lat="45.67511809988841" lon="8.54443962719161"><ele>316.2</ele><time>2026-04-11T09:19:32.999Z</time></trkpt><trkpt lat="45.675048939742375" lon="8.544369239207358"><ele>314.4</ele><time>2026-04-11T09:19:33.999Z</time></trkpt><trkpt lat="45.67497182317722" lon="8.54432581581223"><ele>312.59999999999997</ele><time>2026-04-11T09:19:34.999Z</time></trkpt><trkpt lat="45.67486989219004" lon="8.54429647734572"><ele>310.8</ele><time>2026-04-11T09:19:35.999Z</time></trkpt><trkpt lat="45.67477995059195" lon="8.544287212267367"><ele>309.0</ele><time>2026-04-11T09:19:36.999Z</time></trkpt><trkpt lat="45.67468342487752" lon="8.544299468319002"><ele>309.0</ele><time>2026-04-11T09:19:37.999Z</time></trkpt><trkpt lat="45.674598586066836" lon="8.544322055473316"><ele>309.0</ele><time>2026-04-11T09:19:38.999Z</time></trkpt><trkpt lat="45.674531986952566" lon="8.544364878499806"><ele>309.0</ele><time>2026-04-11T09:19:39.999Z</time></trkpt><trkpt lat="45.674423451827735" lon="8.544295285579572"><ele>309.0</ele><time>2026-04-11T09:19:41.999Z</time></trkpt><trkpt lat="45.674365769795855" lon="8.544184277651425"><ele>309.0</ele><time>2026-04-11T09:19:42.999Z</time></trkpt><trkpt lat="45.67429056845773" lon="8.544061158122648"><ele>310.0</ele><time>2026-04-11T09:19:43.999Z</time></trkpt><trkpt lat="45.67423350169839" lon="8.543948055658722"><ele>311.0</ele><time>2026-04-11T09:19:44.999Z</time></trkpt><trkpt lat="45.674180708151034" lon="8.543836968333022"><ele>312.0</ele><time>2026-04-11T09:19:45.999Z</time></trkpt><trkpt lat="45.674132747932795" lon="8.543756549278104"><ele>313.0</ele><time>2026-04-11T09:19:46.999Z</time></trkpt><trkpt lat="45.67401402586579" lon="8.543785648565244"><ele>314.0</ele><time>2026-04-11T09:19:48.999Z</time></trkpt><trkpt lat="45.67392740820955" lon="8.543830514081973"><ele>314.0</ele><time>2026-04-11T09:19:49.999Z</time></trkpt><trkpt lat="45.6738563356516" lon="8.543830663730079"><ele>314.0</ele><time>2026-04-11T09:19:50.999Z</time></trkpt><trkpt lat="45.673796305139646" lon="8.54380290107926"><ele>314.0</ele><time>2026-04-11T09:19:51.998Z</time></trkpt><trkpt lat="45.67370819172931" lon="8.54373849713243"><ele>314.0</ele><time>2026-04-11T09:19:53.998Z</time></trkpt><trkpt lat="45.67366047402534" lon="8.543645488472144"><ele>314.0</ele><time>2026-04-11T09:19:54.998Z</time></trkpt><trkpt lat="45.6735948293608" lon="8.543593960442635"><ele>314.0</ele><time>2026-04-11T09:19:55.998Z</time></trkpt><trkpt lat="45.67352775516117" lon="8.543556277740361"><ele>313.1666666666667</ele><time>2026-04-11T09:19:56.998Z</time></trkpt><trkpt lat="45.673436759022366" lon="8.543448334551362"><ele>312.33333333333337</ele><time>2026-04-11T09:19:58.998Z</time></trkpt><trkpt lat="45.67341709167838" lon="8.543322406556449"><ele>311.5</ele><time>2026-04-11T09:20:00.998Z</time></trkpt><trkpt lat="45.67342110590623" lon="8.543232320806172"><ele>310.6666666666667</ele><time>2026-04-11T09:20:01.998Z</time></trkpt><trkpt lat="45.67340384357699" lon="8.543094896804126"><ele>309.8333333333333</ele><time>2026-04-11T09:20:02.998Z</time></trkpt><trkpt lat="45.673421368434106" lon="8.542985361673326"><ele>309.0</ele><time>2026-04-11T09:20:03.998Z</time></trkpt><trkpt lat="45.67340913425098" lon="8.542856493183551"><ele>309.0</ele><time>2026-04-11T09:20:05.998Z</time></trkpt><trkpt lat="45.6735191456454" lon="8.54287379404443"><ele>309.0</ele><time>2026-04-11T09:20:12.998Z</time></trkpt><trkpt lat="45.67358091463026" lon="8.542893142349945"><ele>309.0</ele><time>2026-04-11T09:20:13.998Z</time></trkpt><trkpt lat="45.67366067125051" lon="8.542920622886628"><ele>309.0</ele><time>2026-04-11T09:20:14.998Z</time></trkpt><trkpt lat="45.673727873369074" lon="8.542948492313796"><ele>309.0</ele><time>2026-04-11T09:20:15.998Z</time></trkpt><trkpt lat="45.673790112165946" lon="8.542979115514491"><ele>309.0</ele><time>2026-04-11T09:20:16.998Z</time></trkpt><trkpt lat="45.67386258446836" lon="8.54301114306302"><ele>308.0</ele><time>2026-04-11T09:20:17.998Z</time></trkpt><trkpt lat="45.67392598094895" lon="8.543052852153792"><ele>307.0</ele><time>2026-04-11T09:20:18.998Z</time></trkpt><trkpt lat="45.6739981087583" lon="8.54311717026592"><ele>306.0</ele><time>2026-04-11T09:20:19.998Z</time></trkpt><trkpt lat="45.67406052290348" lon="8.543168784885731"><ele>305.0</ele><time>2026-04-11T09:20:20.998Z</time></trkpt><trkpt lat="45.67413371009928" lon="8.543252515240805"><ele>304.0</ele><time>2026-04-11T09:20:21.998Z</time></trkpt><trkpt lat="45.674205620805" lon="8.543333403702208"><ele>303.0</ele><time>2026-04-11T09:20:22.998Z</time></trkpt><trkpt lat="45.67427958779842" lon="8.543417718378743"><ele>303.0</ele><time>2026-04-11T09:20:23.998Z</time></trkpt><trkpt lat="45.67435141087839" lon="8.5434874526701"><ele>303.0</ele><time>2026-04-11T09:20:24.998Z</time></trkpt><trkpt lat="45.67443315938425" lon="8.54355191903588"><ele>303.0</ele><time>2026-04-11T09:20:25.998Z</time></trkpt><trkpt lat="45.6745102488281" lon="8.54361377049616"><ele>303.0</ele><time>2026-04-11T09:20:26.998Z</time></trkpt><trkpt lat="45.6745882426813" lon="8.543653580579644"><ele>303.0</ele><time>2026-04-11T09:20:27.998Z</time></trkpt><trkpt lat="45.67467950508218" lon="8.54370623236674"><ele>304.2</ele><time>2026-04-11T09:20:28.998Z</time></trkpt><trkpt lat="45.67476949281097" lon="8.543747133843393"><ele>305.4</ele><time>2026-04-11T09:20:29.998Z</time></trkpt><trkpt lat="45.67486662345933" lon="8.543790510235707"><ele>306.59999999999997</ele><time>2026-04-11T09:20:30.998Z</time></trkpt><trkpt lat="45.674964520131525" lon="8.543834679602885"><ele>307.8</ele><time>2026-04-11T09:20:31.998Z</time></trkpt><trkpt lat="45.67505347248104" lon="8.54387866544231"><ele>309.0</ele><time>2026-04-11T09:20:32.998Z</time></trkpt><trkpt lat="45.675145291842526" lon="8.54392613122007"><ele>309.0</ele><time>2026-04-11T09:20:33.998Z</time></trkpt><trkpt lat="45.67523327241825" lon="8.543972546059738"><ele>309.0</ele><time>2026-04-11T09:20:34.998Z</time></trkpt><trkpt lat="45.67531539974161" lon="8.544026664874545"><ele>309.0</ele><time>2026-04-11T09:20:35.998Z</time></trkpt><trkpt lat="45.67540539167893" lon="8.5441032290782"><ele>309.0</ele><time>2026-04-11T09:20:36.997Z</time></trkpt><trkpt lat="45.6754849663316" lon="8.544190044607456"><ele>309.0</ele><time>2026-04-11T09:20:37.997Z</time></trkpt><trkpt lat="45.67556294268007" lon="8.544265654659464"><ele>308.8333333333333</ele><time>2026-04-11T09:20:39Z</time></trkpt><trkpt lat="45.67563886529664" lon="8.544363275463267"><ele>308.6666666666667</ele><time>2026-04-11T09:20:40Z</time></trkpt><trkpt lat="45.67570453949286" lon="8.544456601987383"><ele>308.5</ele><time>2026-04-11T09:20:41Z</time></trkpt><trkpt lat="45.67577009540261" lon="8.54455346238675"><ele>308.33333333333337</ele><time>2026-04-11T09:20:42Z</time></trkpt><trkpt lat="45.67582314140004" lon="8.544638822534884"><ele>308.1666666666667</ele><time>2026-04-11T09:20:43Z</time></trkpt><trkpt lat="45.67586767944534" lon="8.544709209825662"><ele>308.0</ele><time>2026-04-11T09:20:44Z</time></trkpt><trkpt lat="45.67592631587164" lon="8.544793163255981"><ele>308.0</ele><time>2026-04-11T09:20:46Z</time></trkpt><trkpt lat="45.675990165829155" lon="8.544811194791242"><ele>308.0</ele><time>2026-04-11T09:20:48Z</time></trkpt><trkpt lat="45.67605396602782" lon="8.544814429682567"><ele>308.0</ele><time>2026-04-11T09:20:49Z</time></trkpt><trkpt lat="45.67613053859843" lon="8.544814116114132"><ele>308.0</ele><time>2026-04-11T09:20:50Z</time></trkpt><trkpt lat="45.67623233727703" lon="8.544837259532153"><ele>308.0</ele><time>2026-04-11T09:20:51Z</time></trkpt><trkpt lat="45.67635327040896" lon="8.544883311524192"><ele>308.0</ele><time>2026-04-11T09:20:52Z</time></trkpt><trkpt lat="45.676496134462866" lon="8.544910373530504"><ele>307.75</ele><time>2026-04-11T09:20:53Z</time></trkpt><trkpt lat="45.67664257542788" lon="8.544912346615703"><ele>307.5</ele><time>2026-04-11T09:20:54Z</time></trkpt><trkpt lat="45.67677720584946" lon="8.544900305003873"><ele>307.25</ele><time>2026-04-11T09:20:55Z</time></trkpt><trkpt lat="45.67688132433078" lon="8.544917779963214"><ele>307.0</ele><time>2026-04-11T09:20:56Z</time></trkpt><trkpt lat="45.67697232988741" lon="8.54494134910405"><ele>305.4</ele><time>2026-04-11T09:20:57Z</time></trkpt><trkpt lat="45.67707294693281" lon="8.544978039949957"><ele>303.79999999999995</ele><time>2026-04-11T09:20:58Z</time></trkpt><trkpt lat="45.67716782160145" lon="8.545018361427157"><ele>302.2</ele><time>2026-04-11T09:20:59Z</time></trkpt><trkpt lat="45.6772679294978" lon="8.54507095152031"><ele>300.59999999999997</ele><time>2026-04-11T09:21:00Z</time></trkpt><trkpt lat="45.67736807967154" lon="8.54514055143887"><ele>299.0</ele><time>2026-04-11T09:21:01Z</time></trkpt><trkpt lat="45.67747623090497" lon="8.545205576109607"><ele>299.0</ele><time>2026-04-11T09:21:02Z</time></trkpt><trkpt lat="45.67758377275166" lon="8.545268921886437"><ele>299.0</ele><time>2026-04-11T09:21:03Z</time></trkpt><trkpt lat="45.67768491499344" lon="8.545362851944908"><ele>299.0</ele><time>2026-04-11T09:21:04Z</time></trkpt><trkpt lat="45.67779068948144" lon="8.545447803977028"><ele>299.0</ele><time>2026-04-11T09:21:05Z</time></trkpt><trkpt lat="45.67788895475409" lon="8.545519269523362"><ele>300.0</ele><time>2026-04-11T09:21:06Z</time></trkpt><trkpt lat="45.67798170428899" lon="8.545578585620422"><ele>301.0</ele><time>2026-04-11T09:21:07Z</time></trkpt><trkpt lat="45.67809261098335" lon="8.54561631311629"><ele>302.0</ele><time>2026-04-11T09:21:08Z</time></trkpt><trkpt lat="45.67822048515247" lon="8.545673990767563"><ele>303.0</ele><time>2026-04-11T09:21:09Z</time></trkpt><trkpt lat="45.6783489105725" lon="8.545742777145472"><ele>303.0</ele><time>2026-04-11T09:21:10Z</time></trkpt><trkpt lat="45.67845013339931" lon="8.545794309916259"><ele>303.0</ele><time>2026-04-11T09:21:11Z</time></trkpt><trkpt lat="45.67855163972667" lon="8.545856044432737"><ele>303.0</ele><time>2026-04-11T09:21:12Z</time></trkpt><trkpt lat="45.678648005501856" lon="8.545932669612775"><ele>303.0</ele><time>2026-04-11T09:21:13Z</time></trkpt><trkpt lat="45.67873845755945" lon="8.546000518177767"><ele>303.0</ele><time>2026-04-11T09:21:14Z</time></trkpt><trkpt lat="45.67881928527134" lon="8.546048390262825"><ele>302.0</ele><time>2026-04-11T09:21:14.999Z</time></trkpt><trkpt lat="45.678912770180524" lon="8.546095984838301"><ele>301.0</ele><time>2026-04-11T09:21:15.999Z</time></trkpt><trkpt lat="45.678994931254984" lon="8.546179628166968"><ele>300.0</ele><time>2026-04-11T09:21:16.999Z</time></trkpt><trkpt lat="45.679076346102946" lon="8.546256426587236"><ele>299.0</ele><time>2026-04-11T09:21:17.999Z</time></trkpt><trkpt lat="45.679156597162894" lon="8.546331806535722"><ele>298.0</ele><time>2026-04-11T09:21:18.999Z</time></trkpt><trkpt lat="45.67922270961465" lon="8.546386766575672"><ele>298.4</ele><time>2026-04-11T09:21:19.999Z</time></trkpt><trkpt lat="45.67929599324609" lon="8.54644792579264"><ele>298.8</ele><time>2026-04-11T09:21:20.999Z</time></trkpt><trkpt lat="45.67937781167334" lon="8.546513752126472"><ele>299.2</ele><time>2026-04-11T09:21:21.999Z</time></trkpt><trkpt lat="45.67945587906855" lon="8.54655833150455"><ele>299.6</ele><time>2026-04-11T09:21:22.999Z</time></trkpt><trkpt lat="45.67955401536423" lon="8.546613548916081"><ele>300.0</ele><time>2026-04-11T09:21:23.999Z</time></trkpt><trkpt lat="45.67968238526642" lon="8.546692486053313"><ele>300.0</ele><time>2026-04-11T09:21:24.999Z</time></trkpt><trkpt lat="45.67980244228954" lon="8.546772894565748"><ele>300.0</ele><time>2026-04-11T09:21:25.999Z</time></trkpt><trkpt lat="45.67990774613076" lon="8.546843524799675"><ele>300.0</ele><time>2026-04-11T09:21:26.999Z</time></trkpt><trkpt lat="45.67998991191918" lon="8.546898061881167"><ele>300.0</ele><time>2026-04-11T09:21:27.999Z</time></trkpt><trkpt lat="45.680076874631204" lon="8.546942018833779"><ele>300.0</ele><time>2026-04-11T09:21:28.999Z</time></trkpt><trkpt lat="45.68015455280436" lon="8.546973723129263"><ele>300.0</ele><time>2026-04-11T09:21:29.999Z</time></trkpt><trkpt lat="45.680246968789874" lon="8.546976976896577"><ele>300.0</ele><time>2026-04-11T09:21:30.999Z</time></trkpt><trkpt lat="45.68035453637802" lon="8.546970780463392"><ele>300.0</ele><time>2026-04-11T09:21:31.999Z</time></trkpt><trkpt lat="45.680464883580186" lon="8.546983879575292"><ele>300.0</ele><time>2026-04-11T09:21:32.999Z</time></trkpt><trkpt lat="45.680561567068665" lon="8.546990855291678"><ele>300.0</ele><time>2026-04-11T09:21:33.999Z</time></trkpt><trkpt lat="45.68064522561047" lon="8.546968804201029"><ele>299.8</ele><time>2026-04-11T09:21:34.999Z</time></trkpt><trkpt lat="45.68072877964779" lon="8.546877795281071"><ele>299.6</ele><time>2026-04-11T09:21:35.999Z</time></trkpt><trkpt lat="45.680803771078345" lon="8.546764130226284"><ele>299.4</ele><time>2026-04-11T09:21:36.999Z</time></trkpt><trkpt lat="45.680867115883" lon="8.5466874114558"><ele>299.2</ele><time>2026-04-11T09:21:37.999Z</time></trkpt><trkpt lat="45.680945487396706" lon="8.546670628671443"><ele>299.0</ele><time>2026-04-11T09:21:38.999Z</time></trkpt><trkpt lat="45.68104267127019" lon="8.546665838908476"><ele>298.75</ele><time>2026-04-11T09:21:39.999Z</time></trkpt><trkpt lat="45.68119163593318" lon="8.546682518726346"><ele>298.5</ele><time>2026-04-11T09:21:40.999Z</time></trkpt><trkpt lat="45.68132100281272" lon="8.546692542911389"><ele>298.25</ele><time>2026-04-11T09:21:41.999Z</time></trkpt><trkpt lat="45.681420920128026" lon="8.546722371271414"><ele>298.0</ele><time>2026-04-11T09:21:42.999Z</time></trkpt><trkpt lat="45.68153228001869" lon="8.546779879295757"><ele>298.0</ele><time>2026-04-11T09:21:43.999Z</time></trkpt><trkpt lat="45.68166580497698" lon="8.546847720642692"><ele>298.0</ele><time>2026-04-11T09:21:44.999Z</time></trkpt><trkpt lat="45.68177098747297" lon="8.546906383948375"><ele>298.0</ele><time>2026-04-11T09:21:45.999Z</time></trkpt><trkpt lat="45.68190099343476" lon="8.546965684135527"><ele>298.0</ele><time>2026-04-11T09:21:47.999Z</time></trkpt><trkpt lat="45.68199356847625" lon="8.54705696118258"><ele>299.2</ele><time>2026-04-11T09:21:49.999Z</time></trkpt><trkpt lat="45.68209876272936" lon="8.547142754128839"><ele>300.4</ele><time>2026-04-11T09:21:51.999Z</time></trkpt><trkpt lat="45.682186291436295" lon="8.547192627033354"><ele>301.59999999999997</ele><time>2026-04-11T09:21:53.999Z</time></trkpt><trkpt lat="45.68224007941851" lon="8.54724662925448"><ele>302.8</ele><time>2026-04-11T09:21:55.999Z</time></trkpt><trkpt lat="45.68229935570803" lon="8.54728968976382"><ele>304.0</ele><time>2026-04-11T09:21:57.999Z</time></trkpt><trkpt lat="45.68239613085206" lon="8.547360727456448"><ele>304.0</ele><time>2026-04-11T09:21:59.999Z</time></trkpt><trkpt lat="45.68245264958034" lon="8.5474046096581"><ele>304.0</ele><time>2026-04-11T09:22:00.999Z</time></trkpt><trkpt lat="45.68251600476859" lon="8.547446712755695"><ele>304.0</ele><time>2026-04-11T09:22:01.998Z</time></trkpt><trkpt lat="45.682582477927525" lon="8.547496423731669"><ele>304.0</ele><time>2026-04-11T09:22:02.998Z</time></trkpt><trkpt lat="45.682653260714844" lon="8.547558184686755"><ele>304.0</ele><time>2026-04-11T09:22:03.998Z</time></trkpt><trkpt lat="45.68272065818219" lon="8.547611925510168"><ele>304.0</ele><time>2026-04-11T09:22:04.998Z</time></trkpt><trkpt lat="45.68278133542284" lon="8.547642891500491"><ele>304.0</ele><time>2026-04-11T09:22:05.998Z</time></trkpt><trkpt lat="45.68288891987838" lon="8.547713396783157"><ele>303.5</ele><time>2026-04-11T09:22:07.998Z</time></trkpt><trkpt lat="45.68298557488849" lon="8.54776280804363"><ele>303.0</ele><time>2026-04-11T09:22:09.998Z</time></trkpt><trkpt lat="45.68302326232397" lon="8.547837449722051"><ele>302.5</ele><time>2026-04-11T09:26:04.999Z</time></trkpt><trkpt lat="45.68301959247447" lon="8.547940177330037"><ele>302.0</ele><time>2026-04-11T09:26:05.999Z</time></trkpt><trkpt lat="45.68302538657048" lon="8.548063428743237"><ele>301.5</ele><time>2026-04-11T09:26:06.999Z</time></trkpt><trkpt lat="45.68299971542772" lon="8.548214625024919"><ele>301.0</ele><time>2026-04-11T09:26:08.999Z</time></trkpt><trkpt lat="45.68299393945925" lon="8.548352456698538"><ele>303.5</ele><time>2026-04-11T09:26:10.999Z</time></trkpt><trkpt lat="45.68299126556781" lon="8.548467776800099"><ele>306.0</ele><time>2026-04-11T09:26:13.999Z</time></trkpt><trkpt lat="45.682996810363605" lon="8.548560840247628"><ele>308.5</ele><time>2026-04-11T09:26:17.998Z</time></trkpt><trkpt lat="45.68298739710391" lon="8.54865220704274"><ele>311.0</ele><time>2026-04-11T09:26:19.998Z</time></trkpt><trkpt lat="45.68297757127397" lon="8.548780853803168"><ele>313.5</ele><time>2026-04-11T09:26:21.998Z</time></trkpt><trkpt lat="45.68295993240005" lon="8.548876925433921"><ele>316.0</ele><time>2026-04-11T09:26:23.998Z</time></trkpt><trkpt lat="45.68297284087874" lon="8.548754385458906"><ele>316.0</ele><time>2026-04-11T09:27:25Z</time></trkpt><trkpt lat="45.68299105946813" lon="8.548647454244504"><ele>316.0</ele><time>2026-04-11T09:27:27Z</time></trkpt><trkpt lat="45.68299548946099" lon="8.5485431624843"><ele>316.0</ele><time>2026-04-11T09:27:30Z</time></trkpt><trkpt lat="45.682986485372226" lon="8.548430462739066"><ele>316.0</ele><time>2026-04-11T09:27:34Z</time></trkpt><trkpt lat="45.68299382153879" lon="8.548309426664268"><ele>316.0</ele><time>2026-04-11T09:27:36.999Z</time></trkpt><trkpt lat="45.683006017582954" lon="8.548194638849004"><ele>316.0</ele><time>2026-04-11T09:27:38.999Z</time></trkpt><trkpt lat="45.68302480157718" lon="8.548077577647623"><ele>316.0</ele><time>2026-04-11T09:27:40.999Z</time></trkpt><trkpt lat="45.683016535011284" lon="8.547924174158917"><ele>316.0</ele><time>2026-04-11T09:27:42.999Z</time></trkpt><trkpt lat="45.6830168013686" lon="8.547792301081923"><ele>301.0</ele><time>2026-04-11T09:28:31.998Z</time></trkpt></trkseg><trkseg><trkpt lat="45.68708248822471" lon="8.547006645839105"><ele>310.8333333333333</ele><time>2026-04-11T09:55:50.998Z</time></trkpt><trkpt lat="45.68706547052967" lon="8.5470941752094"><ele>311.66666666666663</ele><time>2026-04-11T09:55:52.998Z</time></trkpt><trkpt lat="45.686980334504256" lon="8.547157506565137"><ele>312.5</ele><time>2026-04-11T09:55:55.998Z</time></trkpt><trkpt lat="45.686902424083584" lon="8.547196715336103"><ele>313.3333333333333</ele><time>2026-04-11T09:55:56.998Z</time></trkpt><trkpt lat="45.68682526097643" lon="8.547247994906034"><ele>314.1666666666667</ele><time>2026-04-11T09:55:57.998Z</time></trkpt><trkpt lat="45.686741838531645" lon="8.547308604262067"><ele>315.0</ele><time>2026-04-11T09:55:58.998Z</time></trkpt><trkpt lat="45.68665300926009" lon="8.547337826162597"><ele>315.0</ele><time>2026-04-11T09:55:59.998Z</time></trkpt><trkpt lat="45.68656368229742" lon="8.547394310514516"><ele>315.0</ele><time>2026-04-11T09:56:00.998Z</time></trkpt><trkpt lat="45.68647362799571" lon="8.547452007117446"><ele>315.0</ele><time>2026-04-11T09:56:01.998Z</time></trkpt><trkpt lat="45.6864046341138" lon="8.547497304024581"><ele>315.0</ele><time>2026-04-11T09:56:02.998Z</time></trkpt><trkpt lat="45.68634069444743" lon="8.547528454434136"><ele>315.0</ele><time>2026-04-11T09:56:03.998Z</time></trkpt><trkpt lat="45.68627562342977" lon="8.547563559070456"><ele>315.0</ele><time>2026-04-11T09:56:04.998Z</time></trkpt><trkpt lat="45.68621380819181" lon="8.547618683287673"><ele>315.0</ele><time>2026-04-11T09:56:05.998Z</time></trkpt><trkpt lat="45.6861417240786" lon="8.547673722338972"><ele>315.0</ele><time>2026-04-11T09:56:06.998Z</time></trkpt><trkpt lat="45.686079866325976" lon="8.547730731988262"><ele>315.0</ele><time>2026-04-11T09:56:07.998Z</time></trkpt><trkpt lat="45.686031663877486" lon="8.547808358797578"><ele>315.0</ele><time>2026-04-11T09:56:08.998Z</time></trkpt><trkpt lat="45.68600328779427" lon="8.54790019320473"><ele>315.0</ele><time>2026-04-11T09:56:09.998Z</time></trkpt><trkpt lat="45.68599706290958" lon="8.548005660106336"><ele>315.0</ele><time>2026-04-11T09:56:10.998Z</time></trkpt><trkpt lat="45.68600165148919" lon="8.548141055141611"><ele>315.3333333333333</ele><time>2026-04-11T09:56:12.998Z</time></trkpt><trkpt lat="45.68597826809551" lon="8.548270821593677"><ele>315.6666666666667</ele><time>2026-04-11T09:56:18Z</time></trkpt><trkpt lat="45.68597575011523" lon="8.548427084510744"><ele>316.0</ele><time>2026-04-11T09:56:20Z</time></trkpt><trkpt lat="45.68596845830699" lon="8.548543243180863"><ele>316.33333333333337</ele><time>2026-04-11T09:56:21Z</time></trkpt><trkpt lat="45.68595844772095" lon="8.54866041556484"><ele>316.6666666666667</ele><time>2026-04-11T09:56:22Z</time></trkpt><trkpt lat="45.68595785293562" lon="8.548767910117263"><ele>317.0</ele><time>2026-04-11T09:56:23Z</time></trkpt><trkpt lat="45.68595000258726" lon="8.548876722553"><ele>318.5</ele><time>2026-04-11T09:56:24Z</time></trkpt><trkpt lat="45.68593807771303" lon="8.548998201532129"><ele>320.0</ele><time>2026-04-11T09:56:25Z</time></trkpt><trkpt lat="45.68592292363639" lon="8.549116763601349"><ele>321.5</ele><time>2026-04-11T09:56:26Z</time></trkpt><trkpt lat="45.68591233263008" lon="8.54922611040857"><ele>323.0</ele><time>2026-04-11T09:56:27Z</time></trkpt><trkpt lat="45.68590978842767" lon="8.549328706993611"><ele>324.5</ele><time>2026-04-11T09:56:28Z</time></trkpt><trkpt lat="45.68591344646554" lon="8.549433251939268"><ele>326.0</ele><time>2026-04-11T09:56:29Z</time></trkpt><trkpt lat="45.68592732611744" lon="8.549553632284336"><ele>327.0</ele><time>2026-04-11T09:56:30Z</time></trkpt><trkpt lat="45.68593843194135" lon="8.549675876498595"><ele>328.0</ele><time>2026-04-11T09:56:31Z</time></trkpt><trkpt lat="45.68594696941119" lon="8.549788087772054"><ele>329.0</ele><time>2026-04-11T09:56:32Z</time></trkpt><trkpt lat="45.6859571448387" lon="8.549901894527148"><ele>330.0</ele><time>2026-04-11T09:56:33Z</time></trkpt><trkpt lat="45.68595871840863" lon="8.550014242213937"><ele>331.0</ele><time>2026-04-11T09:56:34Z</time></trkpt><trkpt lat="45.685949361975545" lon="8.550120627145324"><ele>332.0</ele><time>2026-04-11T09:56:35Z</time></trkpt><trkpt lat="45.685947340312545" lon="8.550221468070525"><ele>332.0</ele><time>2026-04-11T09:56:36Z</time></trkpt><trkpt lat="45.68595254894696" lon="8.550326253586336"><ele>332.0</ele><time>2026-04-11T09:56:37Z</time></trkpt><trkpt lat="45.68595988542095" lon="8.550436991024684"><ele>332.0</ele><time>2026-04-11T09:56:38Z</time></trkpt><trkpt lat="45.68597178778327" lon="8.55057820061856"><ele>332.0</ele><time>2026-04-11T09:56:40Z</time></trkpt><trkpt lat="45.685968631339826" lon="8.550677072081475"><ele>332.0</ele><time>2026-04-11T09:56:53Z</time></trkpt><trkpt lat="45.685972945122906" lon="8.550767947778692"><ele>332.0</ele><time>2026-04-11T09:57:21.999Z</time></trkpt><trkpt lat="45.685922284064574" lon="8.550839533953303"><ele>333.1666666666667</ele><time>2026-04-11T09:58:31Z</time></trkpt><trkpt lat="45.6858508666203" lon="8.550893519133728"><ele>334.33333333333337</ele><time>2026-04-11T09:58:35Z</time></trkpt><trkpt lat="45.68577683031843" lon="8.55077603147868"><ele>335.5</ele><time>2026-04-11T09:58:37Z</time></trkpt><trkpt lat="45.68572629923738" lon="8.550711117360082"><ele>336.6666666666667</ele><time>2026-04-11T09:58:38Z</time></trkpt><trkpt lat="45.68566567347533" lon="8.55063407819568"><ele>337.8333333333333</ele><time>2026-04-11T09:58:39Z</time></trkpt><trkpt lat="45.68560956067502" lon="8.550559635133293"><ele>339.0</ele><time>2026-04-11T09:58:40Z</time></trkpt><trkpt lat="45.68552443870747" lon="8.550457861036792"><ele>339.0</ele><time>2026-04-11T09:58:42Z</time></trkpt><trkpt lat="45.685494820112616" lon="8.550366559050458"><ele>339.0</ele><time>2026-04-11T09:58:43Z</time></trkpt><trkpt lat="45.68541961839204" lon="8.550377948200499"><ele>339.0</ele><time>2026-04-11T09:58:45Z</time></trkpt><trkpt lat="45.68540432112085" lon="8.550472332348914"><ele>339.0</ele><time>2026-04-11T09:58:46Z</time></trkpt><trkpt lat="45.68541375557662" lon="8.550573853797276"><ele>339.0</ele><time>2026-04-11T09:58:47Z</time></trkpt><trkpt lat="45.685414180083846" lon="8.550676685528236"><ele>339.0</ele><time>2026-04-11T09:58:48Z</time></trkpt><trkpt lat="45.68542631408644" lon="8.550793506001707"><ele>339.0</ele><time>2026-04-11T09:58:49Z</time></trkpt><trkpt lat="45.68543856871251" lon="8.55090953847412"><ele>339.0</ele><time>2026-04-11T09:58:50Z</time></trkpt><trkpt lat="45.685460549248454" lon="8.551008396465658"><ele>339.0</ele><time>2026-04-11T09:58:51Z</time></trkpt><trkpt lat="45.68549247471351" lon="8.551165622039996"><ele>339.0</ele><time>2026-04-11T09:58:53Z</time></trkpt><trkpt lat="45.68551472045744" lon="8.55126860432003"><ele>339.0</ele><time>2026-04-11T09:58:54Z</time></trkpt><trkpt lat="45.685533713283924" lon="8.551377276743894"><ele>339.0</ele><time>2026-04-11T09:58:55Z</time></trkpt><trkpt lat="45.685537647801915" lon="8.551487457806909"><ele>339.0</ele><time>2026-04-11T09:58:56Z</time></trkpt><trkpt lat="45.68555202905167" lon="8.551587666840684"><ele>340.79999999999995</ele><time>2026-04-11T09:58:57Z</time></trkpt><trkpt lat="45.68558926357387" lon="8.551677483492398"><ele>342.59999999999997</ele><time>2026-04-11T09:58:58Z</time></trkpt><trkpt lat="45.68563666954178" lon="8.551799908741273"><ele>344.4</ele><time>2026-04-11T09:59:00Z</time></trkpt><trkpt lat="45.68564951835115" lon="8.551903279961385"><ele>346.2</ele><time>2026-04-11T09:59:02Z</time></trkpt><trkpt lat="45.68550773563171" lon="8.551869837038181"><ele>348.0</ele><time>2026-04-11T09:59:04.999Z</time></trkpt><trkpt lat="45.6854378151509" lon="8.55182989838414"><ele>348.0</ele><time>2026-04-11T09:59:06.999Z</time></trkpt><trkpt lat="45.685386468708835" lon="8.551885444084169"><ele>348.0</ele><time>2026-04-11T09:59:12.999Z</time></trkpt><trkpt lat="45.68531174579871" lon="8.551898989484453"><ele>348.0</ele><time>2026-04-11T09:59:24.999Z</time></trkpt><trkpt lat="45.68524987253099" lon="8.551881005530316"><ele>348.0</ele><time>2026-04-11T10:00:10.998Z</time></trkpt><trkpt lat="45.68517934982582" lon="8.551857927917295"><ele>348.0</ele><time>2026-04-11T10:01:20.999Z</time></trkpt><trkpt lat="45.68509348842108" lon="8.551847316363988"><ele>348.0</ele><time>2026-04-11T10:01:22.999Z</time></trkpt><trkpt lat="45.6849923433023" lon="8.551840662919231"><ele>348.59999999999997</ele><time>2026-04-11T10:01:24.999Z</time></trkpt><trkpt lat="45.684884923587866" lon="8.551845058955093"><ele>349.2</ele><time>2026-04-11T10:01:26.999Z</time></trkpt><trkpt lat="45.684762082686454" lon="8.551868787408758"><ele>349.8</ele><time>2026-04-11T10:01:28.999Z</time></trkpt><trkpt lat="45.684690777465654" lon="8.55187860992167"><ele>350.4</ele><time>2026-04-11T10:01:29.999Z</time></trkpt><trkpt lat="45.68461280317653" lon="8.551890483667366"><ele>351.0</ele><time>2026-04-11T10:01:30.999Z</time></trkpt><trkpt lat="45.6845424979401" lon="8.551908633909257"><ele>351.0</ele><time>2026-04-11T10:01:31.999Z</time></trkpt><trkpt lat="45.684474198596924" lon="8.55191947644076"><ele>351.0</ele><time>2026-04-11T10:01:32.999Z</time></trkpt><trkpt lat="45.6843991706443" lon="8.551928561483916"><ele>351.0</ele><time>2026-04-11T10:01:33.999Z</time></trkpt><trkpt lat="45.684330384600486" lon="8.551938945054221"><ele>351.0</ele><time>2026-04-11T10:01:34.999Z</time></trkpt><trkpt lat="45.68421387244445" lon="8.55185537393782"><ele>351.0</ele><time>2026-04-11T10:01:36.999Z</time></trkpt><trkpt lat="45.684145349967686" lon="8.551816648277395"><ele>351.0</ele><time>2026-04-11T10:01:37.999Z</time></trkpt><trkpt lat="45.68406492300397" lon="8.551797143190658"><ele>350.1666666666667</ele><time>2026-04-11T10:01:38.999Z</time></trkpt><trkpt lat="45.6839857113372" lon="8.551760881674642"><ele>349.3333333333333</ele><time>2026-04-11T10:01:39.999Z</time></trkpt><trkpt lat="45.683917082995414" lon="8.55172908998424"><ele>348.5</ele><time>2026-04-11T10:01:40.999Z</time></trkpt><trkpt lat="45.683842563649804" lon="8.551701313951583"><ele>347.66666666666663</ele><time>2026-04-11T10:01:41.999Z</time></trkpt><trkpt lat="45.68375849807319" lon="8.551666994544773"><ele>346.8333333333333</ele><time>2026-04-11T10:01:42.999Z</time></trkpt><trkpt lat="45.68367565518528" lon="8.551661681009602"><ele>346.0</ele><time>2026-04-11T10:01:43.999Z</time></trkpt><trkpt lat="45.683596074763756" lon="8.551654689050308"><ele>345.7142857142857</ele><time>2026-04-11T10:01:44.999Z</time></trkpt><trkpt lat="45.68352786361827" lon="8.55163944035617"><ele>345.42857142857144</ele><time>2026-04-11T10:01:45.999Z</time></trkpt><trkpt lat="45.683457840245346" lon="8.551618399860526"><ele>345.14285714285717</ele><time>2026-04-11T10:01:46.999Z</time></trkpt><trkpt lat="45.683393082408216" lon="8.551600132391934"><ele>344.8571428571429</ele><time>2026-04-11T10:01:47.999Z</time></trkpt><trkpt lat="45.68332816111767" lon="8.551584360227608"><ele>344.57142857142856</ele><time>2026-04-11T10:01:48.999Z</time></trkpt><trkpt lat="45.68325528283983" lon="8.551568301903155"><ele>344.28571428571433</ele><time>2026-04-11T10:01:49.999Z</time></trkpt><trkpt lat="45.68318211953824" lon="8.55154930090847"><ele>344.0</ele><time>2026-04-11T10:01:50.998Z</time></trkpt><trkpt lat="45.68310267179468" lon="8.551536067269685"><ele>344.0</ele><time>2026-04-11T10:01:51.998Z</time></trkpt><trkpt lat="45.6830244516207" lon="8.551526112770249"><ele>344.0</ele><time>2026-04-11T10:01:52.998Z</time></trkpt><trkpt lat="45.68294715007524" lon="8.55151396908316"><ele>344.0</ele><time>2026-04-11T10:01:53.998Z</time></trkpt><trkpt lat="45.68285219558259" lon="8.551553075284446"><ele>344.0</ele><time>2026-04-11T10:01:55.998Z</time></trkpt><trkpt lat="45.68282420208123" lon="8.55166446661908"><ele>344.0</ele><time>2026-04-11T10:01:57.998Z</time></trkpt><trkpt lat="45.68281142086185" lon="8.551864947627012"><ele>344.0</ele><time>2026-04-11T10:01:59.998Z</time></trkpt><trkpt lat="45.682806991638735" lon="8.551985205138505"><ele>344.0</ele><time>2026-04-11T10:02:00.998Z</time></trkpt><trkpt lat="45.6827999907351" lon="8.552093870990362"><ele>344.0</ele><time>2026-04-11T10:02:01.998Z</time></trkpt><trkpt lat="45.68279288937085" lon="8.552197868691072"><ele>344.0</ele><time>2026-04-11T10:02:02.998Z</time></trkpt><trkpt lat="45.682780900071734" lon="8.552347353405457"><ele>344.0</ele><time>2026-04-11T10:02:04.998Z</time></trkpt><trkpt lat="45.682763635768545" lon="8.55249222449021"><ele>344.0</ele><time>2026-04-11T10:02:06.998Z</time></trkpt><trkpt lat="45.68274703828287" lon="8.552643010594718"><ele>344.6</ele><time>2026-04-11T10:02:08.998Z</time></trkpt><trkpt lat="45.682703158434386" lon="8.552751198733741"><ele>345.2</ele><time>2026-04-11T10:02:10.998Z</time></trkpt><trkpt lat="45.6827761456274" lon="8.55283354982018"><ele>345.8</ele><time>2026-04-11T10:02:13.998Z</time></trkpt><trkpt lat="45.68284748942662" lon="8.552839329327467"><ele>346.40000000000003</ele><time>2026-04-11T10:02:14.998Z</time></trkpt><trkpt lat="45.68295551884072" lon="8.552805014342018"><ele>347.0</ele><time>2026-04-11T10:02:16.998Z</time></trkpt><trkpt lat="45.683063227965036" lon="8.552823918116504"><ele>347.20000000000005</ele><time>2026-04-11T10:02:18.998Z</time></trkpt><trkpt lat="45.6831572642876" lon="8.55285237366499"><ele>347.4</ele><time>2026-04-11T10:02:20.998Z</time></trkpt><trkpt lat="45.68327287366299" lon="8.552857248888456"><ele>347.6</ele><time>2026-04-11T10:02:22.998Z</time></trkpt><trkpt lat="45.68333633204626" lon="8.552865969595448"><ele>347.79999999999995</ele><time>2026-04-11T10:02:23.998Z</time></trkpt><trkpt lat="45.68342406604266" lon="8.552894435187444"><ele>348.0</ele><time>2026-04-11T10:02:25.998Z</time></trkpt><trkpt lat="45.68353860037527" lon="8.55291104379289"><ele>348.0</ele><time>2026-04-11T10:02:27.998Z</time></trkpt><trkpt lat="45.68360144582315" lon="8.55291827019737"><ele>348.0</ele><time>2026-04-11T10:02:28.998Z</time></trkpt><trkpt lat="45.683669346139546" lon="8.552976167486827"><ele>348.0</ele><time>2026-04-11T10:02:32Z</time></trkpt><trkpt lat="45.6837351029685" lon="8.553043500842296"><ele>348.0</ele><time>2026-04-11T10:02:36Z</time></trkpt><trkpt lat="45.68375198472156" lon="8.55294357103047"><ele>348.0</ele><time>2026-04-11T10:02:40Z</time></trkpt><trkpt lat="45.68364151625498" lon="8.552928107170109"><ele>348.0</ele><time>2026-04-11T10:02:42Z</time></trkpt><trkpt lat="45.68356264854109" lon="8.552921193991939"><ele>348.0</ele><time>2026-04-11T10:02:44Z</time></trkpt><trkpt lat="45.68346121528869" lon="8.55290504748898"><ele>348.0</ele><time>2026-04-11T10:02:46Z</time></trkpt><trkpt lat="45.68334955753327" lon="8.552891227318474"><ele>348.0</ele><time>2026-04-11T10:02:48Z</time></trkpt><trkpt lat="45.683296591127714" lon="8.552978502624956"><ele>348.0</ele><time>2026-04-11T10:02:52Z</time></trkpt><trkpt lat="45.68331712133969" lon="8.553109827932872"><ele>348.0</ele><time>2026-04-11T10:02:54Z</time></trkpt><trkpt lat="45.68333422385163" lon="8.553221531040347"><ele>348.0</ele><time>2026-04-11T10:02:56Z</time></trkpt><trkpt lat="45.68332057299629" lon="8.553383006864141"><ele>348.0</ele><time>2026-04-11T10:02:58Z</time></trkpt><trkpt lat="45.68331296798408" lon="8.553486212081465"><ele>348.0</ele><time>2026-04-11T10:02:59Z</time></trkpt><trkpt lat="45.6833172742204" lon="8.553617262716035"><ele>348.0</ele><time>2026-04-11T10:03:01Z</time></trkpt><trkpt lat="45.68334762097455" lon="8.553709663546158"><ele>348.0</ele><time>2026-04-11T10:03:09Z</time></trkpt><trkpt lat="45.68336089712332" lon="8.553822266788238"><ele>348.0</ele><time>2026-04-11T10:03:21.999Z</time></trkpt><trkpt lat="45.68332097112969" lon="8.55391168152936"><ele>347.8333333333333</ele><time>2026-04-11T10:03:24.999Z</time></trkpt><trkpt lat="45.68326074402807" lon="8.553956897401036"><ele>347.6666666666667</ele><time>2026-04-11T10:03:27.999Z</time></trkpt><trkpt lat="45.68321135477259" lon="8.554022914757644"><ele>347.5</ele><time>2026-04-11T10:03:31.999Z</time></trkpt><trkpt lat="45.68323209184614" lon="8.554168195786097"><ele>347.33333333333337</ele><time>2026-04-11T10:03:34.999Z</time></trkpt><trkpt lat="45.683234462494" lon="8.554278164488464"><ele>347.1666666666667</ele><time>2026-04-11T10:03:36.999Z</time></trkpt><trkpt lat="45.68323032326661" lon="8.554374970562247"><ele>347.0</ele><time>2026-04-11T10:03:39.999Z</time></trkpt><trkpt lat="45.68325755674767" lon="8.554494457117116"><ele>346.83333333333337</ele><time>2026-04-11T10:03:44.999Z</time></trkpt><trkpt lat="45.68326359186455" lon="8.554595971212898"><ele>346.6666666666667</ele><time>2026-04-11T10:03:49.999Z</time></trkpt><trkpt lat="45.683258849083245" lon="8.554708758754524"><ele>346.5</ele><time>2026-04-11T10:03:53.999Z</time></trkpt><trkpt lat="45.683282942960815" lon="8.554800419740582"><ele>346.3333333333333</ele><time>2026-04-11T10:03:55.999Z</time></trkpt><trkpt lat="45.6833050623009" lon="8.554933258898046"><ele>346.16666666666663</ele><time>2026-04-11T10:03:57.999Z</time></trkpt><trkpt lat="45.683333455593214" lon="8.55506965909905"><ele>346.0</ele><time>2026-04-11T10:03:59.999Z</time></trkpt><trkpt lat="45.68334353794619" lon="8.555227172300514"><ele>346.0</ele><time>2026-04-11T10:04:01.998Z</time></trkpt><trkpt lat="45.68338097412005" lon="8.555362113738981"><ele>346.0</ele><time>2026-04-11T10:04:03.998Z</time></trkpt><trkpt lat="45.68336142135427" lon="8.55547538222015"><ele>346.0</ele><time>2026-04-11T10:04:06.998Z</time></trkpt><trkpt lat="45.68347779315316" lon="8.555594118731058"><ele>346.0</ele><time>2026-04-11T10:04:08.998Z</time></trkpt><trkpt lat="45.68354195484751" lon="8.555643649860095"><ele>346.0</ele><time>2026-04-11T10:04:09.998Z</time></trkpt><trkpt lat="45.68360938607115" lon="8.555701405368849"><ele>346.8</ele><time>2026-04-11T10:04:10.998Z</time></trkpt><trkpt lat="45.68367671568588" lon="8.55577230184063"><ele>347.6</ele><time>2026-04-11T10:04:11.998Z</time></trkpt><trkpt lat="45.68374369904789" lon="8.555860909334333"><ele>348.4</ele><time>2026-04-11T10:04:12.998Z</time></trkpt><trkpt lat="45.68381043456398" lon="8.555961172953896"><ele>349.2</ele><time>2026-04-11T10:04:13.998Z</time></trkpt><trkpt lat="45.68387218698764" lon="8.556074273178195"><ele>350.0</ele><time>2026-04-11T10:04:14.998Z</time></trkpt><trkpt lat="45.68392577021873" lon="8.556187325226427"><ele>350.8</ele><time>2026-04-11T10:04:15.998Z</time></trkpt><trkpt lat="45.68397493774816" lon="8.556299968952752"><ele>351.6</ele><time>2026-04-11T10:04:16.998Z</time></trkpt><trkpt lat="45.684030092681404" lon="8.556414721083748"><ele>352.4</ele><time>2026-04-11T10:04:17.998Z</time></trkpt><trkpt lat="45.684088634779414" lon="8.556525867032082"><ele>353.2</ele><time>2026-04-11T10:04:18.998Z</time></trkpt><trkpt lat="45.684148791989365" lon="8.556636923362294"><ele>354.0</ele><time>2026-04-11T10:04:19.998Z</time></trkpt><trkpt lat="45.68421599414599" lon="8.556743934403011"><ele>354.0</ele><time>2026-04-11T10:04:20.998Z</time></trkpt><trkpt lat="45.684287562852134" lon="8.556847501602993"><ele>354.0</ele><time>2026-04-11T10:04:21.998Z</time></trkpt><trkpt lat="45.68436309955086" lon="8.556950509207205"><ele>354.0</ele><time>2026-04-11T10:04:22.998Z</time></trkpt><trkpt lat="45.68444212627705" lon="8.557051812979829"><ele>354.0</ele><time>2026-04-11T10:04:23.998Z</time></trkpt><trkpt lat="45.684524012629915" lon="8.557151055391078"><ele>354.0</ele><time>2026-04-11T10:04:24.998Z</time></trkpt><trkpt lat="45.68460815411559" lon="8.557248637273071"><ele>355.4</ele><time>2026-04-11T10:04:25.998Z</time></trkpt><trkpt lat="45.684695341789435" lon="8.557338734427974"><ele>356.79999999999995</ele><time>2026-04-11T10:04:26.998Z</time></trkpt><trkpt lat="45.684782218970184" lon="8.557421770482515"><ele>358.20000000000005</ele><time>2026-04-11T10:04:27.998Z</time></trkpt><trkpt lat="45.6848630948556" lon="8.557505670579227"><ele>359.6</ele><time>2026-04-11T10:04:28.998Z</time></trkpt><trkpt lat="45.684941275058804" lon="8.557589695802836"><ele>361.0</ele><time>2026-04-11T10:04:29.998Z</time></trkpt><trkpt lat="45.68502149822208" lon="8.5576686154487"><ele>361.0</ele><time>2026-04-11T10:04:30.998Z</time></trkpt><trkpt lat="45.6851037753137" lon="8.557742964809004"><ele>361.0</ele><time>2026-04-11T10:04:31.998Z</time></trkpt><trkpt lat="45.6851923078223" lon="8.55780991651956"><ele>361.0</ele><time>2026-04-11T10:04:32.998Z</time></trkpt><trkpt lat="45.68528343440657" lon="8.55787768558354"><ele>361.0</ele><time>2026-04-11T10:04:33.998Z</time></trkpt><trkpt lat="45.685379768886115" lon="8.55793534175573"><ele>361.0</ele><time>2026-04-11T10:04:34.998Z</time></trkpt><trkpt lat="45.68548076035787" lon="8.557990343800178"><ele>361.0</ele><time>2026-04-11T10:04:35.998Z</time></trkpt><trkpt lat="45.68558627606246" lon="8.558039161648685"><ele>361.0</ele><time>2026-04-11T10:04:37Z</time></trkpt><trkpt lat="45.6856992061692" lon="8.558084386998038"><ele>361.0</ele><time>2026-04-11T10:04:38Z</time></trkpt><trkpt lat="45.68581660848978" lon="8.55812569241171"><ele>361.0</ele><time>2026-04-11T10:04:39Z</time></trkpt><trkpt lat="45.68592641136" lon="8.558166854602366"><ele>361.0</ele><time>2026-04-11T10:04:40Z</time></trkpt><trkpt lat="45.6860297291626" lon="8.558199724920609"><ele>361.0</ele><time>2026-04-11T10:04:41Z</time></trkpt><trkpt lat="45.686124627449075" lon="8.558237357933313"><ele>361.0</ele><time>2026-04-11T10:04:42Z</time></trkpt><trkpt lat="45.686215401200094" lon="8.558263282181612"><ele>361.0</ele><time>2026-04-11T10:04:43Z</time></trkpt><trkpt lat="45.68629897817515" lon="8.558299130246416"><ele>361.0</ele><time>2026-04-11T10:04:44Z</time></trkpt><trkpt lat="45.68637520250368" lon="8.558331682411874"><ele>360.2857142857143</ele><time>2026-04-11T10:04:45Z</time></trkpt><trkpt lat="45.686448727028015" lon="8.558345761151141"><ele>359.57142857142856</ele><time>2026-04-11T10:04:46Z</time></trkpt><trkpt lat="45.68651951050435" lon="8.558349078777528"><ele>358.85714285714283</ele><time>2026-04-11T10:04:47Z</time></trkpt><trkpt lat="45.68658742382777" lon="8.558341125584903"><ele>358.1428571428571</ele><time>2026-04-11T10:04:48Z</time></trkpt><trkpt lat="45.68665088359228" lon="8.55832571290998"><ele>357.42857142857144</ele><time>2026-04-11T10:04:49Z</time></trkpt><trkpt lat="45.686714232951154" lon="8.558302845636806"><ele>356.71428571428567</ele><time>2026-04-11T10:04:50Z</time></trkpt><trkpt lat="45.6867771652451" lon="8.558305935910774"><ele>356.0</ele><time>2026-04-11T10:04:51Z</time></trkpt><trkpt lat="45.68683212824346" lon="8.558444477770038"><ele>356.0</ele><time>2026-04-11T10:04:53Z</time></trkpt><trkpt lat="45.68682784843888" lon="8.558623134482577"><ele>356.0</ele><time>2026-04-11T10:04:55Z</time></trkpt><trkpt lat="45.686834336930175" lon="8.558731562888953"><ele>356.0</ele><time>2026-04-11T10:04:56Z</time></trkpt><trkpt lat="45.68683769582384" lon="8.558842860999164"><ele>356.0</ele><time>2026-04-11T10:04:57Z</time></trkpt><trkpt lat="45.68684106583555" lon="8.558951669275471"><ele>356.0</ele><time>2026-04-11T10:04:58Z</time></trkpt><trkpt lat="45.686843777551324" lon="8.55906567690418"><ele>356.0</ele><time>2026-04-11T10:04:59Z</time></trkpt><trkpt lat="45.6868433022327" lon="8.559174579738222"><ele>356.0</ele><time>2026-04-11T10:05:00Z</time></trkpt><trkpt lat="45.68683386213371" lon="8.559287857873917"><ele>356.0</ele><time>2026-04-11T10:05:01Z</time></trkpt><trkpt lat="45.68681342743721" lon="8.559398369518506"><ele>356.0</ele><time>2026-04-11T10:05:02Z</time></trkpt><trkpt lat="45.68678954959751" lon="8.55950665395333"><ele>356.0</ele><time>2026-04-11T10:05:03Z</time></trkpt><trkpt lat="45.686761418594294" lon="8.55965009139186"><ele>356.0</ele><time>2026-04-11T10:05:05Z</time></trkpt><trkpt lat="45.686866357351334" lon="8.559724717820307"><ele>354.6666666666667</ele><time>2026-04-11T10:05:08Z</time></trkpt><trkpt lat="45.68693553570386" lon="8.55973614484311"><ele>353.33333333333337</ele><time>2026-04-11T10:05:09Z</time></trkpt><trkpt lat="45.68701503663759" lon="8.559713471060576"><ele>352.0</ele><time>2026-04-11T10:05:10Z</time></trkpt><trkpt lat="45.68710597254685" lon="8.559692950585482"><ele>350.6666666666667</ele><time>2026-04-11T10:05:11Z</time></trkpt><trkpt lat="45.687202861794546" lon="8.55965342852402"><ele>349.3333333333333</ele><time>2026-04-11T10:05:12Z</time></trkpt><trkpt lat="45.6873063994078" lon="8.559645077077752"><ele>348.0</ele><time>2026-04-11T10:05:13Z</time></trkpt><trkpt lat="45.68741325207534" lon="8.559631295676674"><ele>348.0</ele><time>2026-04-11T10:05:14Z</time></trkpt><trkpt lat="45.687512968237314" lon="8.559635998834533"><ele>348.0</ele><time>2026-04-11T10:05:15Z</time></trkpt><trkpt lat="45.68761160518351" lon="8.559623526525703"><ele>348.0</ele><time>2026-04-11T10:05:15.999Z</time></trkpt><trkpt lat="45.68771131448346" lon="8.559610891193739"><ele>348.0</ele><time>2026-04-11T10:05:16.999Z</time></trkpt><trkpt lat="45.68781316225168" lon="8.559596933926857"><ele>348.0</ele><time>2026-04-11T10:05:17.999Z</time></trkpt><trkpt lat="45.687913367635865" lon="8.559583199645518"><ele>349.0</ele><time>2026-04-11T10:05:18.999Z</time></trkpt><trkpt lat="45.68800559880584" lon="8.559548644024709"><ele>350.0</ele><time>2026-04-11T10:05:19.999Z</time></trkpt><trkpt lat="45.68809102195347" lon="8.55955761313728"><ele>351.0</ele><time>2026-04-11T10:05:20.999Z</time></trkpt><trkpt lat="45.68818372777482" lon="8.55954393139508"><ele>352.0</ele><time>2026-04-11T10:05:21.999Z</time></trkpt><trkpt lat="45.68827369389592" lon="8.559531073016952"><ele>353.0</ele><time>2026-04-11T10:05:22.999Z</time></trkpt><trkpt lat="45.688359354256356" lon="8.55949526391984"><ele>353.0</ele><time>2026-04-11T10:05:23.999Z</time></trkpt><trkpt lat="45.68845334378395" lon="8.559484369546047"><ele>353.0</ele><time>2026-04-11T10:05:24.999Z</time></trkpt><trkpt lat="45.688544681196404" lon="8.559492342222672"><ele>353.0</ele><time>2026-04-11T10:05:25.999Z</time></trkpt><trkpt lat="45.688632667511804" lon="8.559481282462816"><ele>353.0</ele><time>2026-04-11T10:05:26.999Z</time></trkpt><trkpt lat="45.688727666316964" lon="8.559469898314571"><ele>353.0</ele><time>2026-04-11T10:05:27.999Z</time></trkpt><trkpt lat="45.688828139119494" lon="8.559457858179899"><ele>352.79999999999995</ele><time>2026-04-11T10:05:28.999Z</time></trkpt><trkpt lat="45.68891609202821" lon="8.559425139076616"><ele>352.6</ele><time>2026-04-11T10:05:29.999Z</time></trkpt><trkpt lat="45.689004648764566" lon="8.55940765423093"><ele>352.4</ele><time>2026-04-11T10:05:30.999Z</time></trkpt><trkpt lat="45.68910274701784" lon="8.559390088195897"><ele>352.20000000000005</ele><time>2026-04-11T10:05:31.999Z</time></trkpt><trkpt lat="45.689185835312124" lon="8.559372507166314"><ele>352.0</ele><time>2026-04-11T10:05:32.999Z</time></trkpt><trkpt lat="45.68928245801314" lon="8.559376581629438"><ele>352.0</ele><time>2026-04-11T10:05:33.999Z</time></trkpt><trkpt lat="45.68937217834627" lon="8.559346427360262"><ele>352.0</ele><time>2026-04-11T10:05:34.999Z</time></trkpt><trkpt lat="45.68947107497785" lon="8.559334790706968"><ele>352.0</ele><time>2026-04-11T10:05:35.999Z</time></trkpt><trkpt lat="45.689565305438485" lon="8.559328998956852"><ele>352.0</ele><time>2026-04-11T10:05:36.999Z</time></trkpt><trkpt lat="45.68966463004773" lon="8.559318683422095"><ele>352.0</ele><time>2026-04-11T10:05:37.999Z</time></trkpt><trkpt lat="45.68975644347997" lon="8.559309579425634"><ele>352.16666666666663</ele><time>2026-04-11T10:05:38.999Z</time></trkpt><trkpt lat="45.68985311268119" lon="8.559294894976727"><ele>352.3333333333333</ele><time>2026-04-11T10:05:39.999Z</time></trkpt><trkpt lat="45.6899506953238" lon="8.559282777093534"><ele>352.5</ele><time>2026-04-11T10:05:40.999Z</time></trkpt><trkpt lat="45.69003454855935" lon="8.559266427120285"><ele>352.6666666666667</ele><time>2026-04-11T10:05:41.999Z</time></trkpt><trkpt lat="45.69011485328673" lon="8.559256608434753"><ele>352.83333333333337</ele><time>2026-04-11T10:05:42.999Z</time></trkpt><trkpt lat="45.6901772154077" lon="8.559244072498405"><ele>353.0</ele><time>2026-04-11T10:05:43.999Z</time></trkpt><trkpt lat="45.69024798609931" lon="8.559228834303754"><ele>353.0</ele><time>2026-04-11T10:05:45.999Z</time></trkpt><trkpt lat="45.69033173591723" lon="8.559216008404645"><ele>353.0</ele><time>2026-04-11T10:05:48.999Z</time></trkpt><trkpt lat="45.69039938256729" lon="8.559222157199995"><ele>353.0</ele><time>2026-04-11T10:05:49.999Z</time></trkpt><trkpt lat="45.69047124112849" lon="8.559219474534816"><ele>353.0</ele><time>2026-04-11T10:05:50.999Z</time></trkpt><trkpt lat="45.69053947479284" lon="8.559219935834788"><ele>353.0</ele><time>2026-04-11T10:05:51.999Z</time></trkpt><trkpt lat="45.69062243046911" lon="8.55923162216307"><ele>353.0</ele><time>2026-04-11T10:05:52.999Z</time></trkpt><trkpt lat="45.690691322156" lon="8.559227015943367"><ele>353.0</ele><time>2026-04-11T10:05:53.999Z</time></trkpt><trkpt lat="45.690764618644565" lon="8.55922757844289"><ele>353.0</ele><time>2026-04-11T10:05:54.999Z</time></trkpt><trkpt lat="45.69088408177757" lon="8.559303092190982"><ele>353.0</ele><time>2026-04-11T10:05:56.999Z</time></trkpt><trkpt lat="45.69094061157453" lon="8.559377891110957"><ele>353.0</ele><time>2026-04-11T10:05:57.999Z</time></trkpt><trkpt lat="45.69099639474641" lon="8.559467386278278"><ele>353.0</ele><time>2026-04-11T10:05:58.999Z</time></trkpt><trkpt lat="45.69105833841747" lon="8.559533736272181"><ele>353.0</ele><time>2026-04-11T10:05:59.999Z</time></trkpt><trkpt lat="45.691135615281965" lon="8.559570610909153"><ele>352.59999999999997</ele><time>2026-04-11T10:06:00.999Z</time></trkpt><trkpt lat="45.691225595388524" lon="8.559589682536181"><ele>352.2</ele><time>2026-04-11T10:06:01.998Z</time></trkpt><trkpt lat="45.69131297024632" lon="8.559606854416206"><ele>351.8</ele><time>2026-04-11T10:06:02.998Z</time></trkpt><trkpt lat="45.69140917781966" lon="8.55962843928975"><ele>351.4</ele><time>2026-04-11T10:06:03.998Z</time></trkpt><trkpt lat="45.69149405354363" lon="8.559660362050591"><ele>351.0</ele><time>2026-04-11T10:06:04.998Z</time></trkpt><trkpt lat="45.691589782400435" lon="8.559692413529568"><ele>351.0</ele><time>2026-04-11T10:06:05.998Z</time></trkpt><trkpt lat="45.69168291738973" lon="8.559726524234064"><ele>351.0</ele><time>2026-04-11T10:06:06.998Z</time></trkpt><trkpt lat="45.691782291538175" lon="8.559755801230429"><ele>351.0</ele><time>2026-04-11T10:06:07.998Z</time></trkpt><trkpt lat="45.69187319619041" lon="8.55978089953089"><ele>351.0</ele><time>2026-04-11T10:06:08.998Z</time></trkpt><trkpt lat="45.69196757439151" lon="8.55980442580307"><ele>351.0</ele><time>2026-04-11T10:06:09.998Z</time></trkpt><trkpt lat="45.69204769943992" lon="8.55983151198428"><ele>351.1666666666667</ele><time>2026-04-11T10:06:10.998Z</time></trkpt><trkpt lat="45.692124261244615" lon="8.559872305352739"><ele>351.3333333333333</ele><time>2026-04-11T10:06:11.998Z</time></trkpt><trkpt lat="45.692181766673414" lon="8.559920980044758"><ele>351.5</ele><time>2026-04-11T10:06:12.998Z</time></trkpt><trkpt lat="45.692235882455414" lon="8.560003693096206"><ele>351.66666666666663</ele><time>2026-04-11T10:06:13.998Z</time></trkpt><trkpt lat="45.692262295282426" lon="8.56010405310158"><ele>351.8333333333333</ele><time>2026-04-11T10:06:14.998Z</time></trkpt><trkpt lat="45.69226345187286" lon="8.560211829391017"><ele>352.0</ele><time>2026-04-11T10:06:15.998Z</time></trkpt><trkpt lat="45.692266950517634" lon="8.560314789896479"><ele>352.40000000000003</ele><time>2026-04-11T10:06:16.998Z</time></trkpt><trkpt lat="45.6922818884133" lon="8.560438270960024"><ele>352.8</ele><time>2026-04-11T10:06:17.998Z</time></trkpt><trkpt lat="45.6923024297108" lon="8.560567953937214"><ele>353.2</ele><time>2026-04-11T10:06:18.998Z</time></trkpt><trkpt lat="45.69233067138614" lon="8.560700304995818"><ele>353.6</ele><time>2026-04-11T10:06:19.998Z</time></trkpt><trkpt lat="45.69236956822849" lon="8.560831398352672"><ele>354.0</ele><time>2026-04-11T10:06:20.998Z</time></trkpt><trkpt lat="45.69240243486603" lon="8.560965725875516"><ele>354.0</ele><time>2026-04-11T10:06:21.998Z</time></trkpt><trkpt lat="45.692427850319206" lon="8.561113837834576"><ele>354.0</ele><time>2026-04-11T10:06:22.998Z</time></trkpt><trkpt lat="45.692458564712524" lon="8.561264000435026"><ele>354.0</ele><time>2026-04-11T10:06:23.998Z</time></trkpt><trkpt lat="45.6924883940182" lon="8.561417294017955"><ele>354.0</ele><time>2026-04-11T10:06:24.998Z</time></trkpt><trkpt lat="45.69251076162991" lon="8.561556618800878"><ele>354.0</ele><time>2026-04-11T10:06:25.998Z</time></trkpt><trkpt lat="45.692542342448476" lon="8.56170167696865"><ele>353.4</ele><time>2026-04-11T10:06:26.998Z</time></trkpt><trkpt lat="45.6925703211005" lon="8.561842060728669"><ele>352.79999999999995</ele><time>2026-04-11T10:06:27.998Z</time></trkpt><trkpt lat="45.69259651038722" lon="8.56197895928272"><ele>352.20000000000005</ele><time>2026-04-11T10:06:28.998Z</time></trkpt><trkpt lat="45.69262069412969" lon="8.56212452529496"><ele>351.6</ele><time>2026-04-11T10:06:29.998Z</time></trkpt><trkpt lat="45.69264036054164" lon="8.562275680627097"><ele>351.0</ele><time>2026-04-11T10:06:30.998Z</time></trkpt><trkpt lat="45.69265604571796" lon="8.562435726519709"><ele>350.0</ele><time>2026-04-11T10:06:31.998Z</time></trkpt><trkpt lat="45.69267086262681" lon="8.562604912321007"><ele>349.0</ele><time>2026-04-11T10:06:32.998Z</time></trkpt><trkpt lat="45.69268467098334" lon="8.562764603509837"><ele>348.0</ele><time>2026-04-11T10:06:33.998Z</time></trkpt><trkpt lat="45.69269931108123" lon="8.562937656129746"><ele>347.0</ele><time>2026-04-11T10:06:34.998Z</time></trkpt><trkpt lat="45.69271453849398" lon="8.563104278562406"><ele>346.8</ele><time>2026-04-11T10:06:35.998Z</time></trkpt><trkpt lat="45.692731473335975" lon="8.563268068162978"><ele>346.6</ele><time>2026-04-11T10:06:36.998Z</time></trkpt><trkpt lat="45.69275224129347" lon="8.563427042903639"><ele>346.40000000000003</ele><time>2026-04-11T10:06:37.998Z</time></trkpt><trkpt lat="45.69277672375243" lon="8.563583645627881"><ele>346.20000000000005</ele><time>2026-04-11T10:06:38.998Z</time></trkpt><trkpt lat="45.69280489115152" lon="8.563720094097606"><ele>346.0</ele><time>2026-04-11T10:06:39.998Z</time></trkpt><trkpt lat="45.69282945162896" lon="8.563860035605087"><ele>346.20000000000005</ele><time>2026-04-11T10:06:40.998Z</time></trkpt><trkpt lat="45.6928588515654" lon="8.56398902109946"><ele>346.40000000000003</ele><time>2026-04-11T10:06:42Z</time></trkpt><trkpt lat="45.69288815441035" lon="8.564119461473323"><ele>346.6</ele><time>2026-04-11T10:06:43Z</time></trkpt><trkpt lat="45.692915659996636" lon="8.56426516460352"><ele>346.8</ele><time>2026-04-11T10:06:44Z</time></trkpt><trkpt lat="45.6929457864437" lon="8.564416059027476"><ele>347.0</ele><time>2026-04-11T10:06:45Z</time></trkpt><trkpt lat="45.69297529577579" lon="8.564566019919303"><ele>347.0</ele><time>2026-04-11T10:06:46Z</time></trkpt><trkpt lat="45.693008583478225" lon="8.564704305374613"><ele>347.0</ele><time>2026-04-11T10:06:47Z</time></trkpt><trkpt lat="45.69304909141914" lon="8.564835528800202"><ele>347.0</ele><time>2026-04-11T10:06:48Z</time></trkpt><trkpt lat="45.6930793067512" lon="8.56495756453862"><ele>347.0</ele><time>2026-04-11T10:06:49Z</time></trkpt><trkpt lat="45.69310192574573" lon="8.565073474458858"><ele>347.0</ele><time>2026-04-11T10:06:50Z</time></trkpt><trkpt lat="45.6931424141077" lon="8.565213098717951"><ele>347.0</ele><time>2026-04-11T10:06:52Z</time></trkpt><trkpt lat="45.69317870072199" lon="8.565298088061528"><ele>347.0</ele><time>2026-04-11T10:06:54Z</time></trkpt><trkpt lat="45.69325300117371" lon="8.565380519714665"><ele>347.0</ele><time>2026-04-11T10:06:56Z</time></trkpt><trkpt lat="45.693275150771605" lon="8.56549446599119"><ele>347.0</ele><time>2026-04-11T10:06:58Z</time></trkpt><trkpt lat="45.69323626382589" lon="8.56558582907948"><ele>347.0</ele><time>2026-04-11T10:07:01Z</time></trkpt><trkpt lat="45.69318064814347" lon="8.565648696001695"><ele>347.0</ele><time>2026-04-11T10:07:03Z</time></trkpt><trkpt lat="45.69315649492713" lon="8.56574750133401"><ele>347.0</ele><time>2026-04-11T10:07:04Z</time></trkpt><trkpt lat="45.693124418088175" lon="8.565856377565161"><ele>347.0</ele><time>2026-04-11T10:07:05Z</time></trkpt><trkpt lat="45.69309530663704" lon="8.565957746090875"><ele>347.0</ele><time>2026-04-11T10:07:06Z</time></trkpt><trkpt lat="45.69306823919556" lon="8.566044858095031"><ele>347.0</ele><time>2026-04-11T10:07:07Z</time></trkpt><trkpt lat="45.69301364100528" lon="8.566163027786825"><ele>347.0</ele><time>2026-04-11T10:07:09Z</time></trkpt><trkpt lat="45.69289731571393" lon="8.56613192136248"><ele>347.0</ele><time>2026-04-11T10:07:11Z</time></trkpt><trkpt lat="45.69280846407338" lon="8.566192301856123"><ele>347.1666666666667</ele><time>2026-04-11T10:07:13Z</time></trkpt><trkpt lat="45.692807927776265" lon="8.56631978294017"><ele>347.33333333333337</ele><time>2026-04-11T10:07:15Z</time></trkpt><trkpt lat="45.69281832817851" lon="8.566410990424556"><ele>347.5</ele><time>2026-04-11T10:07:15.999Z</time></trkpt><trkpt lat="45.69281975806852" lon="8.566524382798471"><ele>347.6666666666667</ele><time>2026-04-11T10:07:16.999Z</time></trkpt><trkpt lat="45.69280707417924" lon="8.566630520863125"><ele>347.8333333333333</ele><time>2026-04-11T10:07:17.999Z</time></trkpt><trkpt lat="45.69279011864333" lon="8.56674607902463"><ele>348.0</ele><time>2026-04-11T10:07:18.999Z</time></trkpt><trkpt lat="45.692782526579364" lon="8.56685914053953"><ele>348.0</ele><time>2026-04-11T10:07:19.999Z</time></trkpt><trkpt lat="45.692780452294485" lon="8.566971662504976"><ele>348.0</ele><time>2026-04-11T10:07:20.999Z</time></trkpt><trkpt lat="45.692770910879325" lon="8.567103166144145"><ele>348.0</ele><time>2026-04-11T10:07:21.999Z</time></trkpt><trkpt lat="45.69274935826922" lon="8.567222453878811"><ele>348.0</ele><time>2026-04-11T10:07:22.999Z</time></trkpt><trkpt lat="45.69273281657933" lon="8.5673364565233"><ele>348.0</ele><time>2026-04-11T10:07:23.999Z</time></trkpt><trkpt lat="45.69275375442226" lon="8.56750532389187"><ele>347.3333333333333</ele><time>2026-04-11T10:07:25.999Z</time></trkpt><trkpt lat="45.69276581604372" lon="8.567620892271773"><ele>346.6666666666667</ele><time>2026-04-11T10:07:26.999Z</time></trkpt><trkpt lat="45.69278366970356" lon="8.5677256959846"><ele>346.0</ele><time>2026-04-11T10:07:27.999Z</time></trkpt><trkpt lat="45.69279336394345" lon="8.567826388914163"><ele>345.33333333333337</ele><time>2026-04-11T10:07:28.999Z</time></trkpt><trkpt lat="45.69279208703179" lon="8.567951935186008"><ele>344.6666666666667</ele><time>2026-04-11T10:07:29.999Z</time></trkpt><trkpt lat="45.69279767689679" lon="8.568077230036558"><ele>344.0</ele><time>2026-04-11T10:07:30.999Z</time></trkpt><trkpt lat="45.69280729197408" lon="8.56821928007826"><ele>343.83333333333337</ele><time>2026-04-11T10:07:31.999Z</time></trkpt><trkpt lat="45.69282643113283" lon="8.568333490210913"><ele>343.6666666666667</ele><time>2026-04-11T10:07:32.999Z</time></trkpt><trkpt lat="45.69283318747451" lon="8.568439441742003"><ele>343.5</ele><time>2026-04-11T10:07:33.999Z</time></trkpt><trkpt lat="45.69283155041144" lon="8.568549680333991"><ele>343.3333333333333</ele><time>2026-04-11T10:07:34.999Z</time></trkpt><trkpt lat="45.69282215476998" lon="8.568679644265329"><ele>343.16666666666663</ele><time>2026-04-11T10:07:35.999Z</time></trkpt><trkpt lat="45.69281592016472" lon="8.568799525216324"><ele>343.0</ele><time>2026-04-11T10:07:36.999Z</time></trkpt><trkpt lat="45.692830585587004" lon="8.568921814441927"><ele>343.0</ele><time>2026-04-11T10:07:37.999Z</time></trkpt><trkpt lat="45.69283573433965" lon="8.569046629491826"><ele>343.0</ele><time>2026-04-11T10:07:38.999Z</time></trkpt><trkpt lat="45.69285451906458" lon="8.569172696487131"><ele>343.0</ele><time>2026-04-11T10:07:39.999Z</time></trkpt><trkpt lat="45.692890194061945" lon="8.569296082468794"><ele>343.0</ele><time>2026-04-11T10:07:40.999Z</time></trkpt><trkpt lat="45.692936214761666" lon="8.569434153563847"><ele>343.0</ele><time>2026-04-11T10:07:41.999Z</time></trkpt><trkpt lat="45.69297589502917" lon="8.569561233255168"><ele>342.0</ele><time>2026-04-11T10:07:42.999Z</time></trkpt><trkpt lat="45.693027920046056" lon="8.56969607430918"><ele>341.0</ele><time>2026-04-11T10:07:43.999Z</time></trkpt><trkpt lat="45.693069494073775" lon="8.56984210074811"><ele>340.0</ele><time>2026-04-11T10:07:44.999Z</time></trkpt><trkpt lat="45.693114034426486" lon="8.569965559631902"><ele>339.0</ele><time>2026-04-11T10:07:45.999Z</time></trkpt><trkpt lat="45.69315517591131" lon="8.57008039202113"><ele>338.0</ele><time>2026-04-11T10:07:46.999Z</time></trkpt><trkpt lat="45.69319026127111" lon="8.570189783192218"><ele>338.0</ele><time>2026-04-11T10:07:47.999Z</time></trkpt><trkpt lat="45.693227294440526" lon="8.57032701968535"><ele>338.0</ele><time>2026-04-11T10:07:49.999Z</time></trkpt><trkpt lat="45.6932745564074" lon="8.570423304238982"><ele>338.0</ele><time>2026-04-11T10:07:51.999Z</time></trkpt><trkpt lat="45.69327734447035" lon="8.570596002638869"><ele>338.0</ele><time>2026-04-11T10:07:53.999Z</time></trkpt><trkpt lat="45.693255720378154" lon="8.570694254951942"><ele>338.0</ele><time>2026-04-11T10:07:54.999Z</time></trkpt><trkpt lat="45.69324411053552" lon="8.570797459515157"><ele>337.79999999999995</ele><time>2026-04-11T10:07:55.999Z</time></trkpt><trkpt lat="45.6932220021708" lon="8.570973125497376"><ele>337.6</ele><time>2026-04-11T10:07:57.999Z</time></trkpt><trkpt lat="45.693176284820794" lon="8.571084627306126"><ele>337.4</ele><time>2026-04-11T10:07:58.999Z</time></trkpt><trkpt lat="45.69312169474378" lon="8.571201759257796"><ele>337.20000000000005</ele><time>2026-04-11T10:07:59.999Z</time></trkpt><trkpt lat="45.69307902368945" lon="8.571298640902244"><ele>337.0</ele><time>2026-04-11T10:08:00.999Z</time></trkpt><trkpt lat="45.69304607266375" lon="8.57142109068769"><ele>337.0</ele><time>2026-04-11T10:08:01.999Z</time></trkpt><trkpt lat="45.69301559991688" lon="8.571545077417541"><ele>337.0</ele><time>2026-04-11T10:08:02.999Z</time></trkpt><trkpt lat="45.69298223232887" lon="8.571644141787084"><ele>337.0</ele><time>2026-04-11T10:08:03.999Z</time></trkpt><trkpt lat="45.69294511405225" lon="8.571759073904392"><ele>337.0</ele><time>2026-04-11T10:08:04.998Z</time></trkpt><trkpt lat="45.69293361468844" lon="8.571884387598557"><ele>337.0</ele><time>2026-04-11T10:08:05.998Z</time></trkpt><trkpt lat="45.692914078974596" lon="8.572031444752279"><ele>336.40000000000003</ele><time>2026-04-11T10:08:06.998Z</time></trkpt><trkpt lat="45.69290198338527" lon="8.572181524668625"><ele>335.8</ele><time>2026-04-11T10:08:07.998Z</time></trkpt><trkpt lat="45.69289518366631" lon="8.572342808892133"><ele>335.2</ele><time>2026-04-11T10:08:08.998Z</time></trkpt><trkpt lat="45.692895916152324" lon="8.572496012449738"><ele>334.6</ele><time>2026-04-11T10:08:09.998Z</time></trkpt><trkpt lat="45.69289570484356" lon="8.572624805508747"><ele>334.0</ele><time>2026-04-11T10:08:10.998Z</time></trkpt><trkpt lat="45.692902445380426" lon="8.572752209308769"><ele>334.0</ele><time>2026-04-11T10:08:11.998Z</time></trkpt><trkpt lat="45.69289296988116" lon="8.572894804264715"><ele>334.0</ele><time>2026-04-11T10:08:12.998Z</time></trkpt><trkpt lat="45.69286236151901" lon="8.57304018613613"><ele>334.0</ele><time>2026-04-11T10:08:13.998Z</time></trkpt><trkpt lat="45.69283369357413" lon="8.573160103812969"><ele>334.0</ele><time>2026-04-11T10:08:14.998Z</time></trkpt><trkpt lat="45.69281198529529" lon="8.573260185981654"><ele>334.0</ele><time>2026-04-11T10:08:15.998Z</time></trkpt><trkpt lat="45.692783079332386" lon="8.573343094339569"><ele>334.0</ele><time>2026-04-11T10:08:16.998Z</time></trkpt><trkpt lat="45.69269102167104" lon="8.573439383182876"><ele>334.0</ele><time>2026-04-11T10:08:18.998Z</time></trkpt><trkpt lat="45.692647939690744" lon="8.573578052590818"><ele>334.0</ele><time>2026-04-11T10:08:19.998Z</time></trkpt><trkpt lat="45.692586129507355" lon="8.573765870765346"><ele>334.0</ele><time>2026-04-11T10:08:20.998Z</time></trkpt><trkpt lat="45.69252936118272" lon="8.573936427867409"><ele>334.0</ele><time>2026-04-11T10:08:21.998Z</time></trkpt><trkpt lat="45.69248299117705" lon="8.574087648417162"><ele>333.79999999999995</ele><time>2026-04-11T10:08:22.998Z</time></trkpt><trkpt lat="45.69244327540193" lon="8.574223919323178"><ele>333.59999999999997</ele><time>2026-04-11T10:08:23.998Z</time></trkpt><trkpt lat="45.69241644302922" lon="8.574366437218021"><ele>333.4</ele><time>2026-04-11T10:08:24.998Z</time></trkpt><trkpt lat="45.69240083072687" lon="8.574525695837567"><ele>333.2</ele><time>2026-04-11T10:08:25.998Z</time></trkpt><trkpt lat="45.69238108902006" lon="8.574697227662599"><ele>333.0</ele><time>2026-04-11T10:08:26.998Z</time></trkpt><trkpt lat="45.69236616343168" lon="8.574858018838254"><ele>333.0</ele><time>2026-04-11T10:08:27.998Z</time></trkpt><trkpt lat="45.69235965381966" lon="8.574991628050226"><ele>333.0</ele><time>2026-04-11T10:08:28.998Z</time></trkpt><trkpt lat="45.69235946432291" lon="8.575095891036074"><ele>333.0</ele><time>2026-04-11T10:08:29.998Z</time></trkpt><trkpt lat="45.692321750860835" lon="8.575271898776027"><ele>333.0</ele><time>2026-04-11T10:08:31.998Z</time></trkpt><trkpt lat="45.69225473021685" lon="8.575376880978096"><ele>333.0</ele><time>2026-04-11T10:08:32.998Z</time></trkpt><trkpt lat="45.69221026762879" lon="8.57546915140563"><ele>333.4</ele><time>2026-04-11T10:08:33.998Z</time></trkpt><trkpt lat="45.69216813611539" lon="8.575582586129228"><ele>333.79999999999995</ele><time>2026-04-11T10:08:34.998Z</time></trkpt><trkpt lat="45.69212383394736" lon="8.575726925836069"><ele>334.2</ele><time>2026-04-11T10:08:35.998Z</time></trkpt><trkpt lat="45.6920833084153" lon="8.575843380697439"><ele>334.6</ele><time>2026-04-11T10:08:36.998Z</time></trkpt><trkpt lat="45.69203227206177" lon="8.576019721214232"><ele>335.0</ele><time>2026-04-11T10:08:38.998Z</time></trkpt><trkpt lat="45.692016270678344" lon="8.576146193668174"><ele>335.0</ele><time>2026-04-11T10:08:39.998Z</time></trkpt><trkpt lat="45.69198982960338" lon="8.576289522819298"><ele>335.0</ele><time>2026-04-11T10:08:40.998Z</time></trkpt><trkpt lat="45.691949585000806" lon="8.576432992706332"><ele>335.0</ele><time>2026-04-11T10:08:41.998Z</time></trkpt><trkpt lat="45.691899577306884" lon="8.576573269380347"><ele>335.0</ele><time>2026-04-11T10:08:42.998Z</time></trkpt><trkpt lat="45.69187244208534" lon="8.576718409448654"><ele>335.0</ele><time>2026-04-11T10:08:43.998Z</time></trkpt><trkpt lat="45.69185473231367" lon="8.576842428777402"><ele>334.33333333333337</ele><time>2026-04-11T10:08:44.998Z</time></trkpt><trkpt lat="45.69183497777095" lon="8.576940434818768"><ele>333.6666666666667</ele><time>2026-04-11T10:08:45.998Z</time></trkpt><trkpt lat="45.69181257837948" lon="8.57706617840241"><ele>333.0</ele><time>2026-04-11T10:08:48Z</time></trkpt><trkpt lat="45.691762937714635" lon="8.577133093954602"><ele>332.3333333333333</ele><time>2026-04-11T10:09:16Z</time></trkpt><trkpt lat="45.69165643065842" lon="8.577078336099028"><ele>331.66666666666663</ele><time>2026-04-11T10:09:20Z</time></trkpt><trkpt lat="45.69158484655841" lon="8.57704546706712"><ele>331.0</ele><time>2026-04-11T10:09:21Z</time></trkpt><trkpt lat="45.69147276706688" lon="8.5769874262317"><ele>331.0</ele><time>2026-04-11T10:09:22.999Z</time></trkpt><trkpt lat="45.69142321710853" lon="8.576805692713801"><ele>331.0</ele><time>2026-04-11T10:09:24.999Z</time></trkpt><trkpt lat="45.69139236933032" lon="8.57669052012762"><ele>331.0</ele><time>2026-04-11T10:09:25.999Z</time></trkpt><trkpt lat="45.69133398893442" lon="8.576610061721487"><ele>331.0</ele><time>2026-04-11T10:09:26.999Z</time></trkpt><trkpt lat="45.69124821467356" lon="8.576544657304696"><ele>331.0</ele><time>2026-04-11T10:09:27.999Z</time></trkpt><trkpt lat="45.69118540005587" lon="8.576482687298448"><ele>331.0</ele><time>2026-04-11T10:09:28.999Z</time></trkpt><trkpt lat="45.69110315311466" lon="8.576400666604743"><ele>331.0</ele><time>2026-04-11T10:09:30.999Z</time></trkpt><trkpt lat="45.691025973027536" lon="8.576427058879176"><ele>331.0</ele><time>2026-04-11T10:09:32.999Z</time></trkpt><trkpt lat="45.69090936365616" lon="8.57636728828615"><ele>331.0</ele><time>2026-04-11T10:09:34.999Z</time></trkpt><trkpt lat="45.69083457661105" lon="8.576387665756092"><ele>331.0</ele><time>2026-04-11T10:09:35.999Z</time></trkpt><trkpt lat="45.69074930920973" lon="8.57636885414075"><ele>331.6</ele><time>2026-04-11T10:09:36.999Z</time></trkpt><trkpt lat="45.69067699459778" lon="8.576305119909588"><ele>332.20000000000005</ele><time>2026-04-11T10:09:37.999Z</time></trkpt><trkpt lat="45.69062744918654" lon="8.576249420508855"><ele>332.79999999999995</ele><time>2026-04-11T10:09:38.999Z</time></trkpt><trkpt lat="45.69057249115815" lon="8.57611436761484"><ele>333.4</ele><time>2026-04-11T10:09:40.999Z</time></trkpt><trkpt lat="45.69045871869201" lon="8.576093464177967"><ele>334.0</ele><time>2026-04-11T10:09:42.999Z</time></trkpt><trkpt lat="45.6903666969895" lon="8.576052377078605"><ele>336.79999999999995</ele><time>2026-04-11T10:09:44.999Z</time></trkpt><trkpt lat="45.690238884326504" lon="8.576051935097587"><ele>339.59999999999997</ele><time>2026-04-11T10:09:46.999Z</time></trkpt><trkpt lat="45.69019283876916" lon="8.57616347243421"><ele>342.4</ele><time>2026-04-11T10:09:48.999Z</time></trkpt><trkpt lat="45.69017376791698" lon="8.576304339942423"><ele>345.2</ele><time>2026-04-11T10:09:49.999Z</time></trkpt><trkpt lat="45.69014386671841" lon="8.576446739289889"><ele>348.0</ele><time>2026-04-11T10:09:50.999Z</time></trkpt><trkpt lat="45.690121735703364" lon="8.576569961285538"><ele>348.25</ele><time>2026-04-11T10:09:52.999Z</time></trkpt><trkpt lat="45.69008409878409" lon="8.57674496914794"><ele>348.5</ele><time>2026-04-11T10:09:54.999Z</time></trkpt><trkpt lat="45.69004899292325" lon="8.576856673336994"><ele>348.75</ele><time>2026-04-11T10:09:55.999Z</time></trkpt><trkpt lat="45.69001637557313" lon="8.577014345318336"><ele>349.0</ele><time>2026-04-11T10:09:56.999Z</time></trkpt><trkpt lat="45.68997620235105" lon="8.577181833070998"><ele>348.4</ele><time>2026-04-11T10:09:57.999Z</time></trkpt><trkpt lat="45.689939846045085" lon="8.577335945365549"><ele>347.79999999999995</ele><time>2026-04-11T10:09:58.999Z</time></trkpt><trkpt lat="45.68992416033758" lon="8.577462548196568"><ele>347.20000000000005</ele><time>2026-04-11T10:09:59.999Z</time></trkpt><trkpt lat="45.68990417723865" lon="8.577598842450303"><ele>346.6</ele><time>2026-04-11T10:10:00.999Z</time></trkpt><trkpt lat="45.68987991708223" lon="8.577751574581463"><ele>346.0</ele><time>2026-04-11T10:10:01.999Z</time></trkpt><trkpt lat="45.68985446240651" lon="8.577887755094679"><ele>345.20000000000005</ele><time>2026-04-11T10:10:02.999Z</time></trkpt><trkpt lat="45.68982355198083" lon="8.578025067326305"><ele>344.40000000000003</ele><time>2026-04-11T10:10:03.999Z</time></trkpt><trkpt lat="45.68979738834207" lon="8.578142411105498"><ele>343.6</ele><time>2026-04-11T10:10:04.999Z</time></trkpt><trkpt lat="45.68979473790619" lon="8.578249383532826"><ele>342.8</ele><time>2026-04-11T10:10:05.999Z</time></trkpt><trkpt lat="45.68978084074815" lon="8.578389815416715"><ele>342.0</ele><time>2026-04-11T10:10:06.999Z</time></trkpt><trkpt lat="45.6897486361354" lon="8.578521439783632"><ele>342.0</ele><time>2026-04-11T10:10:07.999Z</time></trkpt><trkpt lat="45.68971729065841" lon="8.578618618276389"><ele>342.0</ele><time>2026-04-11T10:10:08.999Z</time></trkpt><trkpt lat="45.68970023202128" lon="8.578722414512448"><ele>342.0</ele><time>2026-04-11T10:10:09.999Z</time></trkpt><trkpt lat="45.68968779993259" lon="8.578836295265846"><ele>342.0</ele><time>2026-04-11T10:10:10.999Z</time></trkpt><trkpt lat="45.689662059167595" lon="8.578965484734415"><ele>342.0</ele><time>2026-04-11T10:10:11.999Z</time></trkpt><trkpt lat="45.689649822612665" lon="8.579055597609909"><ele>342.0</ele><time>2026-04-11T10:10:12.998Z</time></trkpt><trkpt lat="45.689660515476454" lon="8.579196510201488"><ele>341.3333333333333</ele><time>2026-04-11T10:10:14.998Z</time></trkpt><trkpt lat="45.68968138699137" lon="8.579299210776755"><ele>340.6666666666667</ele><time>2026-04-11T10:10:16.998Z</time></trkpt><trkpt lat="45.68973729994327" lon="8.579401340770605"><ele>340.0</ele><time>2026-04-11T10:10:26.998Z</time></trkpt><trkpt lat="45.68976574152398" lon="8.57949476923786"><ele>339.33333333333337</ele><time>2026-04-11T10:10:29.998Z</time></trkpt><trkpt lat="45.68979983253241" lon="8.579410164322413"><ele>338.6666666666667</ele><time>2026-04-11T10:10:34.998Z</time></trkpt><trkpt lat="45.68971906798804" lon="8.579383588533032"><ele>338.0</ele><time>2026-04-11T10:10:36.998Z</time></trkpt><trkpt lat="45.68966957973722" lon="8.579294025225497"><ele>338.0</ele><time>2026-04-11T10:10:38.998Z</time></trkpt><trkpt lat="45.68966588015589" lon="8.579127845235218"><ele>338.0</ele><time>2026-04-11T10:10:40.998Z</time></trkpt><trkpt lat="45.68967930441689" lon="8.578975433848111"><ele>338.0</ele><time>2026-04-11T10:10:42.998Z</time></trkpt><trkpt lat="45.689696330057956" lon="8.578854725129082"><ele>338.0</ele><time>2026-04-11T10:10:43.998Z</time></trkpt><trkpt lat="45.68971467168341" lon="8.578753354680538"><ele>338.0</ele><time>2026-04-11T10:10:44.998Z</time></trkpt><trkpt lat="45.689725982411886" lon="8.578661604964884"><ele>338.0</ele><time>2026-04-11T10:10:45.998Z</time></trkpt><trkpt lat="45.68975344151125" lon="8.57848091624027"><ele>338.79999999999995</ele><time>2026-04-11T10:10:47.998Z</time></trkpt><trkpt lat="45.68979185572198" lon="8.578359640750293"><ele>339.6</ele><time>2026-04-11T10:10:48.998Z</time></trkpt><trkpt lat="45.68980923596332" lon="8.578205111967701"><ele>340.4</ele><time>2026-04-11T10:10:49.998Z</time></trkpt><trkpt lat="45.68981817277827" lon="8.578070012651484"><ele>341.20000000000005</ele><time>2026-04-11T10:10:50.998Z</time></trkpt><trkpt lat="45.68982661818436" lon="8.577960376837865"><ele>342.0</ele><time>2026-04-11T10:10:51.998Z</time></trkpt><trkpt lat="45.68986401520989" lon="8.577847939173026"><ele>342.8</ele><time>2026-04-11T10:10:52.998Z</time></trkpt><trkpt lat="45.689895547646145" lon="8.577709715045648"><ele>343.6</ele><time>2026-04-11T10:10:54Z</time></trkpt><trkpt lat="45.6899167636549" lon="8.577567323011728"><ele>344.40000000000003</ele><time>2026-04-11T10:10:55Z</time></trkpt><trkpt lat="45.689941468808016" lon="8.577452175136091"><ele>345.20000000000005</ele><time>2026-04-11T10:10:56Z</time></trkpt><trkpt lat="45.68995542689616" lon="8.577337273872113"><ele>346.0</ele><time>2026-04-11T10:10:57Z</time></trkpt><trkpt lat="45.68996613765439" lon="8.57721675063938"><ele>346.0</ele><time>2026-04-11T10:10:58Z</time></trkpt><trkpt lat="45.69000083104842" lon="8.577055981549263"><ele>346.0</ele><time>2026-04-11T10:10:59Z</time></trkpt><trkpt lat="45.69003828597187" lon="8.576871512577474"><ele>346.0</ele><time>2026-04-11T10:11:00Z</time></trkpt><trkpt lat="45.69007943142462" lon="8.576690249342258"><ele>346.0</ele><time>2026-04-11T10:11:01Z</time></trkpt><trkpt lat="45.69010211603902" lon="8.576565436318006"><ele>346.5</ele><time>2026-04-11T10:11:02Z</time></trkpt><trkpt lat="45.690122174108446" lon="8.57644111336865"><ele>347.0</ele><time>2026-04-11T10:11:03Z</time></trkpt><trkpt lat="45.690120693463676" lon="8.576334789596443"><ele>347.5</ele><time>2026-04-11T10:11:05Z</time></trkpt><trkpt lat="45.69004814858595" lon="8.576349714261946"><ele>348.0</ele><time>2026-04-11T10:11:08Z</time></trkpt><trkpt lat="45.68997768418905" lon="8.576294386371309"><ele>348.5</ele><time>2026-04-11T10:11:10Z</time></trkpt><trkpt lat="45.68988047230576" lon="8.576298798287718"><ele>349.0</ele><time>2026-04-11T10:11:12Z</time></trkpt><trkpt lat="45.689813879815055" lon="8.576294759204417"><ele>349.0</ele><time>2026-04-11T10:11:13Z</time></trkpt><trkpt lat="45.68974726911753" lon="8.57628204501385"><ele>349.0</ele><time>2026-04-11T10:11:14Z</time></trkpt><trkpt lat="45.689651395599164" lon="8.57626571395786"><ele>349.0</ele><time>2026-04-11T10:11:15Z</time></trkpt><trkpt lat="45.689550534116485" lon="8.576279694111056"><ele>349.0</ele><time>2026-04-11T10:11:16Z</time></trkpt><trkpt lat="45.68946723683624" lon="8.576277724911108"><ele>349.0</ele><time>2026-04-11T10:11:17Z</time></trkpt><trkpt lat="45.689386478765364" lon="8.576257625195794"><ele>349.0</ele><time>2026-04-11T10:11:18Z</time></trkpt><trkpt lat="45.689276349687475" lon="8.576296982222528"><ele>349.0</ele><time>2026-04-11T10:11:20Z</time></trkpt><trkpt lat="45.68921618558899" lon="8.576262140385582"><ele>349.0</ele><time>2026-04-11T10:11:22Z</time></trkpt><trkpt lat="45.68911189573807" lon="8.57631561181829"><ele>349.0</ele><time>2026-04-11T10:11:25Z</time></trkpt><trkpt lat="45.6890335424385" lon="8.576344336039652"><ele>349.0</ele><time>2026-04-11T10:11:26Z</time></trkpt><trkpt lat="45.68894961554866" lon="8.576343639070553"><ele>349.0</ele><time>2026-04-11T10:11:27Z</time></trkpt><trkpt lat="45.68886518563237" lon="8.576336779973722"><ele>349.0</ele><time>2026-04-11T10:11:28Z</time></trkpt><trkpt lat="45.68876547028442" lon="8.57633604751734"><ele>349.0</ele><time>2026-04-11T10:11:29Z</time></trkpt><trkpt lat="45.688658814519115" lon="8.576341410477228"><ele>349.0</ele><time>2026-04-11T10:11:30Z</time></trkpt><trkpt lat="45.68857002328224" lon="8.57635837017595"><ele>349.0</ele><time>2026-04-11T10:11:31Z</time></trkpt><trkpt lat="45.68848035563327" lon="8.576369243699972"><ele>349.0</ele><time>2026-04-11T10:11:32Z</time></trkpt><trkpt lat="45.68837499367156" lon="8.576377902401855"><ele>349.0</ele><time>2026-04-11T10:11:32.999Z</time></trkpt><trkpt lat="45.688283651065106" lon="8.5763709386086"><ele>348.6</ele><time>2026-04-11T10:11:33.999Z</time></trkpt><trkpt lat="45.688179919507" lon="8.576359328077727"><ele>348.2</ele><time>2026-04-11T10:11:34.999Z</time></trkpt><trkpt lat="45.68808982912095" lon="8.576361911910805"><ele>347.8</ele><time>2026-04-11T10:11:35.999Z</time></trkpt><trkpt lat="45.68799005031695" lon="8.576358475227032"><ele>347.40000000000003</ele><time>2026-04-11T10:11:36.999Z</time></trkpt><trkpt lat="45.68788217052097" lon="8.576347763361781"><ele>347.0</ele><time>2026-04-11T10:11:37.999Z</time></trkpt><trkpt lat="45.68777475205207" lon="8.576333961054424"><ele>348.0</ele><time>2026-04-11T10:11:38.999Z</time></trkpt><trkpt lat="45.68766679955288" lon="8.576329890819501"><ele>349.0</ele><time>2026-04-11T10:11:39.999Z</time></trkpt><trkpt lat="45.68757161976999" lon="8.576314242389557"><ele>350.0</ele><time>2026-04-11T10:11:40.999Z</time></trkpt><trkpt lat="45.687474546716324" lon="8.576303096433907"><ele>351.0</ele><time>2026-04-11T10:11:41.999Z</time></trkpt><trkpt lat="45.687376908857175" lon="8.57629608810921"><ele>352.0</ele><time>2026-04-11T10:11:42.999Z</time></trkpt><trkpt lat="45.687272745772944" lon="8.57630219963931"><ele>352.0</ele><time>2026-04-11T10:11:43.999Z</time></trkpt><trkpt lat="45.68717135633016" lon="8.576299138220266"><ele>352.0</ele><time>2026-04-11T10:11:44.999Z</time></trkpt><trkpt lat="45.6870627701665" lon="8.576293408982943"><ele>352.0</ele><time>2026-04-11T10:11:45.999Z</time></trkpt><trkpt lat="45.686949651860665" lon="8.576287325030373"><ele>352.0</ele><time>2026-04-11T10:11:46.999Z</time></trkpt><trkpt lat="45.68683847538384" lon="8.576281931928472"><ele>352.0</ele><time>2026-04-11T10:11:47.999Z</time></trkpt><trkpt lat="45.68673437870085" lon="8.576267764686715"><ele>352.6</ele><time>2026-04-11T10:11:48.999Z</time></trkpt><trkpt lat="45.686633663386054" lon="8.576261908124247"><ele>353.20000000000005</ele><time>2026-04-11T10:11:49.999Z</time></trkpt><trkpt lat="45.686540114309395" lon="8.576265041621049"><ele>353.8</ele><time>2026-04-11T10:11:50.999Z</time></trkpt><trkpt lat="45.686435140560036" lon="8.576268308174681"><ele>354.4</ele><time>2026-04-11T10:11:51.999Z</time></trkpt><trkpt lat="45.68632835372512" lon="8.57626475893078"><ele>355.0</ele><time>2026-04-11T10:11:52.999Z</time></trkpt><trkpt lat="45.68624293722359" lon="8.57626234104346"><ele>355.0</ele><time>2026-04-11T10:11:53.999Z</time></trkpt><trkpt lat="45.68617438048536" lon="8.576258247028342"><ele>355.0</ele><time>2026-04-11T10:11:54.999Z</time></trkpt><trkpt lat="45.68611139791639" lon="8.576185975403765"><ele>355.0</ele><time>2026-04-11T10:11:57.999Z</time></trkpt><trkpt lat="45.68600958792028" lon="8.576032281785638"><ele>355.0</ele><time>2026-04-11T10:11:59.999Z</time></trkpt><trkpt lat="45.6859405692153" lon="8.575947509044536"><ele>355.0</ele><time>2026-04-11T10:12:00.999Z</time></trkpt><trkpt lat="45.68586673097305" lon="8.57586392370595"><ele>354.8333333333333</ele><time>2026-04-11T10:12:01.999Z</time></trkpt><trkpt lat="45.68578689957987" lon="8.575762702230326"><ele>354.66666666666663</ele><time>2026-04-11T10:12:02.999Z</time></trkpt><trkpt lat="45.685724227102966" lon="8.57567919850371"><ele>354.5</ele><time>2026-04-11T10:12:03.999Z</time></trkpt><trkpt lat="45.685668569279336" lon="8.575609817989257"><ele>354.3333333333333</ele><time>2026-04-11T10:12:04.999Z</time></trkpt><trkpt lat="45.685591887052276" lon="8.575515103508026"><ele>354.1666666666667</ele><time>2026-04-11T10:12:06.999Z</time></trkpt><trkpt lat="45.685554814629306" lon="8.575441765054787"><ele>354.0</ele><time>2026-04-11T10:12:07.999Z</time></trkpt><trkpt lat="45.68547101269882" lon="8.575304097419489"><ele>354.0</ele><time>2026-04-11T10:12:09.999Z</time></trkpt><trkpt lat="45.685419045879726" lon="8.575223405353155"><ele>354.0</ele><time>2026-04-11T10:12:10.999Z</time></trkpt><trkpt lat="45.68535834314012" lon="8.575149466969092"><ele>354.0</ele><time>2026-04-11T10:12:11.999Z</time></trkpt><trkpt lat="45.685288196105525" lon="8.575072820754361"><ele>354.0</ele><time>2026-04-11T10:12:12.999Z</time></trkpt><trkpt lat="45.685214504790416" lon="8.574987642984654"><ele>354.0</ele><time>2026-04-11T10:12:13.999Z</time></trkpt><trkpt lat="45.685142670754715" lon="8.57489515942622"><ele>354.0</ele><time>2026-04-11T10:12:14.999Z</time></trkpt><trkpt lat="45.68507515444228" lon="8.574803073917368"><ele>355.0</ele><time>2026-04-11T10:12:15.999Z</time></trkpt><trkpt lat="45.68500687031175" lon="8.574723274549095"><ele>356.0</ele><time>2026-04-11T10:12:16.999Z</time></trkpt><trkpt lat="45.68492091772982" lon="8.574661763930747"><ele>357.0</ele><time>2026-04-11T10:12:17.999Z</time></trkpt><trkpt lat="45.68483220677633" lon="8.574633594530308"><ele>358.0</ele><time>2026-04-11T10:12:18.999Z</time></trkpt><trkpt lat="45.68474855683096" lon="8.574590840036008"><ele>359.0</ele><time>2026-04-11T10:12:19.999Z</time></trkpt><trkpt lat="45.68465874231852" lon="8.574560476877453"><ele>359.0</ele><time>2026-04-11T10:12:20.999Z</time></trkpt><trkpt lat="45.68455804163645" lon="8.574525995695515"><ele>359.0</ele><time>2026-04-11T10:12:21.998Z</time></trkpt><trkpt lat="45.6844467139456" lon="8.574485899933267"><ele>359.0</ele><time>2026-04-11T10:12:22.998Z</time></trkpt><trkpt lat="45.68433491576825" lon="8.574447395918463"><ele>359.0</ele><time>2026-04-11T10:12:23.998Z</time></trkpt><trkpt lat="45.68423899917751" lon="8.57441534516198"><ele>359.0</ele><time>2026-04-11T10:12:24.998Z</time></trkpt><trkpt lat="45.684144752905475" lon="8.574383852550445"><ele>358.4</ele><time>2026-04-11T10:12:25.998Z</time></trkpt><trkpt lat="45.684049923065714" lon="8.574350379960167"><ele>357.79999999999995</ele><time>2026-04-11T10:12:26.998Z</time></trkpt><trkpt lat="45.68394801934557" lon="8.574333811262038"><ele>357.20000000000005</ele><time>2026-04-11T10:12:27.998Z</time></trkpt><trkpt lat="45.68384234378884" lon="8.574288718746486"><ele>356.6</ele><time>2026-04-11T10:12:28.998Z</time></trkpt><trkpt lat="45.683744438151166" lon="8.574254811927776"><ele>356.0</ele><time>2026-04-11T10:12:29.998Z</time></trkpt><trkpt lat="45.68365809718194" lon="8.574217392643625"><ele>355.83333333333337</ele><time>2026-04-11T10:12:30.998Z</time></trkpt><trkpt lat="45.68357554424942" lon="8.574182583983887"><ele>355.6666666666667</ele><time>2026-04-11T10:12:31.998Z</time></trkpt><trkpt lat="45.68350024357238" lon="8.574154264654313"><ele>355.5</ele><time>2026-04-11T10:12:32.998Z</time></trkpt><trkpt lat="45.68343257132266" lon="8.574129154758335"><ele>355.3333333333333</ele><time>2026-04-11T10:12:33.998Z</time></trkpt><trkpt lat="45.683325899165" lon="8.574088025247343"><ele>355.16666666666663</ele><time>2026-04-11T10:12:35.998Z</time></trkpt><trkpt lat="45.683263822426575" lon="8.574059316057369"><ele>355.0</ele><time>2026-04-11T10:12:37.998Z</time></trkpt><trkpt lat="45.68315035030835" lon="8.573994223009016"><ele>355.0</ele><time>2026-04-11T10:12:39.998Z</time></trkpt><trkpt lat="45.683057156305544" lon="8.57397144218439"><ele>355.0</ele><time>2026-04-11T10:12:40.998Z</time></trkpt><trkpt lat="45.682968489345875" lon="8.57384892818372"><ele>355.0</ele><time>2026-04-11T10:12:41.998Z</time></trkpt><trkpt lat="45.682869644411184" lon="8.573782660366168"><ele>355.0</ele><time>2026-04-11T10:12:42.998Z</time></trkpt><trkpt lat="45.68277005459728" lon="8.573717488494598"><ele>355.0</ele><time>2026-04-11T10:12:43.998Z</time></trkpt><trkpt lat="45.68266304404147" lon="8.5736458487664"><ele>354.6</ele><time>2026-04-11T10:12:44.998Z</time></trkpt><trkpt lat="45.68257008625378" lon="8.573583552723356"><ele>354.2</ele><time>2026-04-11T10:12:45.998Z</time></trkpt><trkpt lat="45.68248953351285" lon="8.573533640247264"><ele>353.79999999999995</ele><time>2026-04-11T10:12:46.998Z</time></trkpt><trkpt lat="45.68242593545326" lon="8.57348795478188"><ele>353.4</ele><time>2026-04-11T10:12:47.998Z</time></trkpt><trkpt lat="45.68233698642764" lon="8.573413986399112"><ele>353.0</ele><time>2026-04-11T10:12:48.998Z</time></trkpt><trkpt lat="45.68224101127918" lon="8.573360219285172"><ele>353.0</ele><time>2026-04-11T10:12:49.998Z</time></trkpt><trkpt lat="45.68213512915783" lon="8.573306078347459"><ele>353.0</ele><time>2026-04-11T10:12:50.998Z</time></trkpt><trkpt lat="45.682035450651554" lon="8.573262320348556"><ele>353.0</ele><time>2026-04-11T10:12:51.998Z</time></trkpt><trkpt lat="45.681940124382514" lon="8.573214321821212"><ele>353.0</ele><time>2026-04-11T10:12:52.998Z</time></trkpt><trkpt lat="45.68185518296628" lon="8.573153480883851"><ele>353.0</ele><time>2026-04-11T10:12:53.998Z</time></trkpt><trkpt lat="45.68175933089709" lon="8.573087002945455"><ele>352.59999999999997</ele><time>2026-04-11T10:12:54.998Z</time></trkpt><trkpt lat="45.68165528894883" lon="8.57302900753831"><ele>352.2</ele><time>2026-04-11T10:12:55.998Z</time></trkpt><trkpt lat="45.68155438628695" lon="8.572962425468326"><ele>351.8</ele><time>2026-04-11T10:12:56.998Z</time></trkpt><trkpt lat="45.68145746475893" lon="8.572899793708524"><ele>351.4</ele><time>2026-04-11T10:12:57.998Z</time></trkpt><trkpt lat="45.681369199248515" lon="8.572850855147324"><ele>351.0</ele><time>2026-04-11T10:12:58.998Z</time></trkpt><trkpt lat="45.68129215850702" lon="8.5728018122436"><ele>350.8333333333333</ele><time>2026-04-11T10:13:00Z</time></trkpt><trkpt lat="45.68122668479792" lon="8.572760392715665"><ele>350.6666666666667</ele><time>2026-04-11T10:13:01Z</time></trkpt><trkpt lat="45.68116429739962" lon="8.572727212729365"><ele>350.5</ele><time>2026-04-11T10:13:03Z</time></trkpt><trkpt lat="45.68108352536847" lon="8.57270311690852"><ele>350.33333333333337</ele><time>2026-04-11T10:13:06Z</time></trkpt><trkpt lat="45.680982652284676" lon="8.572772523323962"><ele>350.1666666666667</ele><time>2026-04-11T10:13:08Z</time></trkpt><trkpt lat="45.680900205762256" lon="8.572788750975986"><ele>350.0</ele><time>2026-04-11T10:13:09Z</time></trkpt><trkpt lat="45.68082558803768" lon="8.57281645123728"><ele>349.1666666666667</ele><time>2026-04-11T10:13:10Z</time></trkpt><trkpt lat="45.680750628466775" lon="8.57284670491317"><ele>348.33333333333337</ele><time>2026-04-11T10:13:11Z</time></trkpt><trkpt lat="45.68066338642984" lon="8.572886338974008"><ele>347.5</ele><time>2026-04-11T10:13:12Z</time></trkpt><trkpt lat="45.6805797036149" lon="8.572928556874976"><ele>346.6666666666667</ele><time>2026-04-11T10:13:13Z</time></trkpt><trkpt lat="45.68050111357744" lon="8.572967651011863"><ele>345.8333333333333</ele><time>2026-04-11T10:13:14Z</time></trkpt><trkpt lat="45.6804342127433" lon="8.573004099850463"><ele>345.0</ele><time>2026-04-11T10:13:15Z</time></trkpt><trkpt lat="45.68036229503755" lon="8.573040429570382"><ele>345.0</ele><time>2026-04-11T10:13:16Z</time></trkpt><trkpt lat="45.68029510786139" lon="8.5730712046059"><ele>345.0</ele><time>2026-04-11T10:13:17Z</time></trkpt><trkpt lat="45.68021266199974" lon="8.57310990223832"><ele>345.0</ele><time>2026-04-11T10:13:18Z</time></trkpt><trkpt lat="45.68012926520412" lon="8.573148862367765"><ele>345.0</ele><time>2026-04-11T10:13:19Z</time></trkpt><trkpt lat="45.68003830049994" lon="8.57319191046053"><ele>345.0</ele><time>2026-04-11T10:13:20Z</time></trkpt><trkpt lat="45.67994733600018" lon="8.573235283012465"><ele>345.0</ele><time>2026-04-11T10:13:21Z</time></trkpt><trkpt lat="45.67985392872941" lon="8.573280701491974"><ele>344.0</ele><time>2026-04-11T10:13:22Z</time></trkpt><trkpt lat="45.67975747338555" lon="8.57332817002415"><ele>343.0</ele><time>2026-04-11T10:13:23Z</time></trkpt><trkpt lat="45.67965880235701" lon="8.573375852345869"><ele>342.0</ele><time>2026-04-11T10:13:24Z</time></trkpt><trkpt lat="45.67955570645295" lon="8.573421495101606"><ele>341.0</ele><time>2026-04-11T10:13:25Z</time></trkpt><trkpt lat="45.6794461135178" lon="8.573471871372888"><ele>340.0</ele><time>2026-04-11T10:13:26Z</time></trkpt><trkpt lat="45.67933028978817" lon="8.573524315611206"><ele>339.75</ele><time>2026-04-11T10:13:27Z</time></trkpt><trkpt lat="45.67921432654291" lon="8.573580671599894"><ele>339.5</ele><time>2026-04-11T10:13:28Z</time></trkpt><trkpt lat="45.679093391370756" lon="8.573635526793888"><ele>339.25</ele><time>2026-04-11T10:13:29Z</time></trkpt><trkpt lat="45.6789755684617" lon="8.57369106765232"><ele>339.0</ele><time>2026-04-11T10:13:30Z</time></trkpt><trkpt lat="45.67885569520564" lon="8.57374608284705"><ele>339.0</ele><time>2026-04-11T10:13:31Z</time></trkpt><trkpt lat="45.67873510732518" lon="8.573802499901289"><ele>339.0</ele><time>2026-04-11T10:13:32Z</time></trkpt><trkpt lat="45.6786114763923" lon="8.573860028903516"><ele>339.0</ele><time>2026-04-11T10:13:33Z</time></trkpt><trkpt lat="45.67849017894157" lon="8.573916559246312"><ele>339.0</ele><time>2026-04-11T10:13:34Z</time></trkpt><trkpt lat="45.678363024715736" lon="8.573976872914084"><ele>337.75</ele><time>2026-04-11T10:13:35Z</time></trkpt><trkpt lat="45.67823200611523" lon="8.57403648437892"><ele>336.5</ele><time>2026-04-11T10:13:36Z</time></trkpt><trkpt lat="45.6780995401296" lon="8.574097103839868"><ele>335.25</ele><time>2026-04-11T10:13:37Z</time></trkpt><trkpt lat="45.67796810934214" lon="8.574155700772186"><ele>334.0</ele><time>2026-04-11T10:13:38Z</time></trkpt><trkpt lat="45.67782876366524" lon="8.574216089594218"><ele>333.0</ele><time>2026-04-11T10:13:39Z</time></trkpt><trkpt lat="45.677691715116055" lon="8.574277965095908"><ele>332.0</ele><time>2026-04-11T10:13:39.999Z</time></trkpt><trkpt lat="45.67755255644853" lon="8.574341243939037"><ele>331.0</ele><time>2026-04-11T10:13:40.999Z</time></trkpt><trkpt lat="45.677414114211224" lon="8.574411165101312"><ele>330.0</ele><time>2026-04-11T10:13:41.999Z</time></trkpt><trkpt lat="45.6772770532903" lon="8.57448501790463"><ele>330.75</ele><time>2026-04-11T10:13:42.999Z</time></trkpt><trkpt lat="45.67714389103349" lon="8.57454835791182"><ele>331.5</ele><time>2026-04-11T10:13:43.999Z</time></trkpt><trkpt lat="45.677007392242885" lon="8.574596477910397"><ele>332.25</ele><time>2026-04-11T10:13:44.999Z</time></trkpt><trkpt lat="45.67687137195517" lon="8.574610384227409"><ele>333.0</ele><time>2026-04-11T10:13:45.999Z</time></trkpt><trkpt lat="45.67673203434286" lon="8.574617023526033"><ele>334.75</ele><time>2026-04-11T10:13:46.999Z</time></trkpt><trkpt lat="45.676594883212125" lon="8.57461741110854"><ele>336.5</ele><time>2026-04-11T10:13:47.999Z</time></trkpt><trkpt lat="45.67645755401719" lon="8.574622663880133"><ele>338.25</ele><time>2026-04-11T10:13:48.999Z</time></trkpt><trkpt lat="45.676321494142336" lon="8.574635666827414"><ele>340.0</ele><time>2026-04-11T10:13:49.999Z</time></trkpt><trkpt lat="45.67618430332257" lon="8.574645707006914"><ele>339.25</ele><time>2026-04-11T10:13:50.999Z</time></trkpt><trkpt lat="45.67604348090736" lon="8.574656779829295"><ele>338.5</ele><time>2026-04-11T10:13:51.999Z</time></trkpt><trkpt lat="45.67590602158633" lon="8.574667355786405"><ele>337.75</ele><time>2026-04-11T10:13:52.999Z</time></trkpt><trkpt lat="45.675766428452015" lon="8.5746753754501"><ele>337.0</ele><time>2026-04-11T10:13:53.999Z</time></trkpt><trkpt lat="45.6756291609178" lon="8.574679462856635"><ele>337.0</ele><time>2026-04-11T10:13:54.999Z</time></trkpt><trkpt lat="45.67549422341359" lon="8.574689273087222"><ele>337.0</ele><time>2026-04-11T10:13:55.999Z</time></trkpt><trkpt lat="45.67535562976126" lon="8.57470162898254"><ele>337.0</ele><time>2026-04-11T10:13:56.999Z</time></trkpt><trkpt lat="45.67522139449705" lon="8.574707152097284"><ele>337.0</ele><time>2026-04-11T10:13:57.999Z</time></trkpt><trkpt lat="45.675088671926694" lon="8.574711682275305"><ele>336.5</ele><time>2026-04-11T10:13:58.999Z</time></trkpt><trkpt lat="45.67495629841901" lon="8.574714208986547"><ele>336.0</ele><time>2026-04-11T10:13:59.999Z</time></trkpt><trkpt lat="45.674822068902124" lon="8.574695316082119"><ele>335.5</ele><time>2026-04-11T10:14:00.999Z</time></trkpt><trkpt lat="45.674690536694655" lon="8.574656131766938"><ele>335.0</ele><time>2026-04-11T10:14:01.999Z</time></trkpt><trkpt lat="45.67455331456895" lon="8.574614397585648"><ele>335.0</ele><time>2026-04-11T10:14:02.999Z</time></trkpt><trkpt lat="45.674418642310414" lon="8.574574841771962"><ele>335.0</ele><time>2026-04-11T10:14:03.999Z</time></trkpt><trkpt lat="45.67428241999791" lon="8.574535913824755"><ele>335.0</ele><time>2026-04-11T10:14:04.999Z</time></trkpt><trkpt lat="45.674141411745474" lon="8.574494333796434"><ele>335.0</ele><time>2026-04-11T10:14:05.999Z</time></trkpt><trkpt lat="45.67400142573613" lon="8.574451162708106"><ele>335.0</ele><time>2026-04-11T10:14:06.999Z</time></trkpt><trkpt lat="45.67385265733675" lon="8.574408222651273"><ele>335.0</ele><time>2026-04-11T10:14:07.999Z</time></trkpt><trkpt lat="45.67370452577086" lon="8.574366264995131"><ele>335.0</ele><time>2026-04-11T10:14:08.999Z</time></trkpt><trkpt lat="45.67356195733506" lon="8.574322348565913"><ele>335.0</ele><time>2026-04-11T10:14:09.999Z</time></trkpt><trkpt lat="45.67341283939125" lon="8.574277732509522"><ele>335.0</ele><time>2026-04-11T10:14:10.999Z</time></trkpt><trkpt lat="45.67326733843206" lon="8.574239922156604"><ele>335.0</ele><time>2026-04-11T10:14:11.999Z</time></trkpt><trkpt lat="45.673119296477765" lon="8.574196436919783"><ele>335.0</ele><time>2026-04-11T10:14:12.999Z</time></trkpt><trkpt lat="45.67297398292728" lon="8.574156311929048"><ele>335.0</ele><time>2026-04-11T10:14:13.999Z</time></trkpt><trkpt lat="45.672837671684235" lon="8.574119023138508"><ele>334.0</ele><time>2026-04-11T10:14:14.999Z</time></trkpt><trkpt lat="45.67270069182715" lon="8.574078483778676"><ele>333.0</ele><time>2026-04-11T10:14:15.999Z</time></trkpt><trkpt lat="45.67256365682299" lon="8.574038348612833"><ele>332.0</ele><time>2026-04-11T10:14:16.999Z</time></trkpt><trkpt lat="45.67243196243463" lon="8.57400075310102"><ele>331.0</ele><time>2026-04-11T10:14:17.999Z</time></trkpt><trkpt lat="45.672299111961934" lon="8.573962480528538"><ele>331.0</ele><time>2026-04-11T10:14:18.999Z</time></trkpt><trkpt lat="45.67216861274646" lon="8.573923212757581"><ele>331.0</ele><time>2026-04-11T10:14:19.999Z</time></trkpt><trkpt lat="45.672035129907364" lon="8.57388401900984"><ele>331.0</ele><time>2026-04-11T10:14:20.999Z</time></trkpt><trkpt lat="45.671897262820615" lon="8.573844796359964"><ele>331.0</ele><time>2026-04-11T10:14:21.999Z</time></trkpt><trkpt lat="45.671759349153106" lon="8.573808215447858"><ele>330.75</ele><time>2026-04-11T10:14:22.999Z</time></trkpt><trkpt lat="45.67162377900914" lon="8.573768642069714"><ele>330.5</ele><time>2026-04-11T10:14:23.999Z</time></trkpt><trkpt lat="45.67149031648014" lon="8.57372923589635"><ele>330.25</ele><time>2026-04-11T10:14:24.999Z</time></trkpt><trkpt lat="45.67135076537295" lon="8.573690099125525"><ele>330.0</ele><time>2026-04-11T10:14:25.999Z</time></trkpt><trkpt lat="45.671212502462055" lon="8.573649644735864"><ele>329.5</ele><time>2026-04-11T10:14:26.999Z</time></trkpt><trkpt lat="45.67106798393985" lon="8.573605494024138"><ele>329.0</ele><time>2026-04-11T10:14:27.999Z</time></trkpt><trkpt lat="45.670923043661375" lon="8.573560595557339"><ele>328.5</ele><time>2026-04-11T10:14:28.999Z</time></trkpt><trkpt lat="45.67078046195591" lon="8.573521915823566"><ele>328.0</ele><time>2026-04-11T10:14:29.998Z</time></trkpt><trkpt lat="45.670646220046194" lon="8.573484855707912"><ele>328.0</ele><time>2026-04-11T10:14:30.998Z</time></trkpt><trkpt lat="45.67052681377552" lon="8.573444122634722"><ele>328.0</ele><time>2026-04-11T10:14:31.998Z</time></trkpt><trkpt lat="45.67041555509659" lon="8.573404049586552"><ele>328.0</ele><time>2026-04-11T10:14:32.998Z</time></trkpt><trkpt lat="45.67031574023829" lon="8.573363344641624"><ele>328.0</ele><time>2026-04-11T10:14:33.998Z</time></trkpt><trkpt lat="45.67021554356869" lon="8.5733212720267"><ele>328.0</ele><time>2026-04-11T10:14:34.998Z</time></trkpt><trkpt lat="45.67011686721185" lon="8.573287286648373"><ele>328.16666666666663</ele><time>2026-04-11T10:14:35.998Z</time></trkpt><trkpt lat="45.67002415315569" lon="8.573264833390846"><ele>328.3333333333333</ele><time>2026-04-11T10:14:36.998Z</time></trkpt><trkpt lat="45.66994109671531" lon="8.57326366704157"><ele>328.5</ele><time>2026-04-11T10:14:37.998Z</time></trkpt><trkpt lat="45.66985961209947" lon="8.573262846685985"><ele>328.6666666666667</ele><time>2026-04-11T10:14:38.998Z</time></trkpt><trkpt lat="45.6697848081095" lon="8.573260099902903"><ele>328.83333333333337</ele><time>2026-04-11T10:14:39.998Z</time></trkpt><trkpt lat="45.66971729855387" lon="8.573260883613328"><ele>329.0</ele><time>2026-04-11T10:14:40.998Z</time></trkpt><trkpt lat="45.6696507347561" lon="8.573258598519796"><ele>329.0</ele><time>2026-04-11T10:14:41.998Z</time></trkpt><trkpt lat="45.66958863245683" lon="8.573230470791216"><ele>329.0</ele><time>2026-04-11T10:14:42.998Z</time></trkpt><trkpt lat="45.66947058346455" lon="8.573236451482183"><ele>329.0</ele><time>2026-04-11T10:14:44.998Z</time></trkpt><trkpt lat="45.66936864796963" lon="8.573222538919334"><ele>329.0</ele><time>2026-04-11T10:14:46.998Z</time></trkpt><trkpt lat="45.669296384519456" lon="8.573207941865501"><ele>329.0</ele><time>2026-04-11T10:14:48.998Z</time></trkpt><trkpt lat="45.66922128682175" lon="8.573143534491388"><ele>329.0</ele><time>2026-04-11T10:14:51.998Z</time></trkpt><trkpt lat="45.66912663178815" lon="8.573126558159016"><ele>328.6666666666667</ele><time>2026-04-11T10:14:53.998Z</time></trkpt><trkpt lat="45.66907074694926" lon="8.573183066975117"><ele>328.33333333333337</ele><time>2026-04-11T10:14:54.998Z</time></trkpt><trkpt lat="45.669003771092335" lon="8.573241000555548"><ele>328.0</ele><time>2026-04-11T10:14:55.998Z</time></trkpt><trkpt lat="45.66891114379664" lon="8.573274993593037"><ele>327.6666666666667</ele><time>2026-04-11T10:14:56.998Z</time></trkpt><trkpt lat="45.66882156372532" lon="8.573302953644884"><ele>327.3333333333333</ele><time>2026-04-11T10:14:57.998Z</time></trkpt><trkpt lat="45.668732012352365" lon="8.573346426797288"><ele>327.0</ele><time>2026-04-11T10:14:58.998Z</time></trkpt><trkpt lat="45.668629739478135" lon="8.573390097156562"><ele>326.5</ele><time>2026-04-11T10:14:59.998Z</time></trkpt><trkpt lat="45.66852480000354" lon="8.57343273264777"><ele>326.0</ele><time>2026-04-11T10:15:00.998Z</time></trkpt><trkpt lat="45.66841511912834" lon="8.573475789963723"><ele>325.5</ele><time>2026-04-11T10:15:01.998Z</time></trkpt><trkpt lat="45.668301945489965" lon="8.57352027003166"><ele>325.0</ele><time>2026-04-11T10:15:02.998Z</time></trkpt><trkpt lat="45.66818946167656" lon="8.573574295434257"><ele>325.0</ele><time>2026-04-11T10:15:03.998Z</time></trkpt><trkpt lat="45.66807203662945" lon="8.573626544080598"><ele>325.0</ele><time>2026-04-11T10:15:04.998Z</time></trkpt><trkpt lat="45.667953908784476" lon="8.57367398100063"><ele>325.0</ele><time>2026-04-11T10:15:06Z</time></trkpt><trkpt lat="45.66783053919121" lon="8.573729594925629"><ele>325.0</ele><time>2026-04-11T10:15:07Z</time></trkpt><trkpt lat="45.667704083312465" lon="8.573784641889668"><ele>325.25</ele><time>2026-04-11T10:15:08Z</time></trkpt><trkpt lat="45.667575549984385" lon="8.573832135599716"><ele>325.5</ele><time>2026-04-11T10:15:09Z</time></trkpt><trkpt lat="45.667442103627394" lon="8.573871421924897"><ele>325.75</ele><time>2026-04-11T10:15:10Z</time></trkpt><trkpt lat="45.66731021932078" lon="8.573911374368224"><ele>326.0</ele><time>2026-04-11T10:15:11Z</time></trkpt><trkpt lat="45.667180558310555" lon="8.573971222434821"><ele>326.0</ele><time>2026-04-11T10:15:12Z</time></trkpt><trkpt lat="45.66705984406881" lon="8.574044111780852"><ele>326.0</ele><time>2026-04-11T10:15:13Z</time></trkpt><trkpt lat="45.666953503544555" lon="8.574139895180547"><ele>326.0</ele><time>2026-04-11T10:15:14Z</time></trkpt><trkpt lat="45.666859397811805" lon="8.574253077817067"><ele>326.0</ele><time>2026-04-11T10:15:15Z</time></trkpt><trkpt lat="45.66677075186546" lon="8.574371708659063"><ele>327.0</ele><time>2026-04-11T10:15:16Z</time></trkpt><trkpt lat="45.6666793727665" lon="8.574478326656743"><ele>328.0</ele><time>2026-04-11T10:15:17Z</time></trkpt><trkpt lat="45.66658967873554" lon="8.574586669459773"><ele>329.0</ele><time>2026-04-11T10:15:18Z</time></trkpt><trkpt lat="45.66650333048463" lon="8.574702327415382"><ele>330.0</ele><time>2026-04-11T10:15:19Z</time></trkpt><trkpt lat="45.66641263632268" lon="8.5748110603761"><ele>330.25</ele><time>2026-04-11T10:15:20Z</time></trkpt><trkpt lat="45.66631100101796" lon="8.574902284967063"><ele>330.5</ele><time>2026-04-11T10:15:21Z</time></trkpt><trkpt lat="45.666199416756925" lon="8.574963339569377"><ele>330.75</ele><time>2026-04-11T10:15:22Z</time></trkpt><trkpt lat="45.66608182546258" lon="8.57500260928911"><ele>331.0</ele><time>2026-04-11T10:15:23Z</time></trkpt><trkpt lat="45.665967341256696" lon="8.575045736843323"><ele>331.5</ele><time>2026-04-11T10:15:24Z</time></trkpt><trkpt lat="45.66585315496937" lon="8.575086717373509"><ele>332.0</ele><time>2026-04-11T10:15:25Z</time></trkpt><trkpt lat="45.665734760904456" lon="8.575129013160868"><ele>332.5</ele><time>2026-04-11T10:15:26Z</time></trkpt><trkpt lat="45.66561953704137" lon="8.575170216892854"><ele>333.0</ele><time>2026-04-11T10:15:27Z</time></trkpt><trkpt lat="45.66550771614119" lon="8.57521387232003"><ele>333.0</ele><time>2026-04-11T10:15:28Z</time></trkpt><trkpt lat="45.66539671586227" lon="8.575255567351242"><ele>333.0</ele><time>2026-04-11T10:15:29Z</time></trkpt><trkpt lat="45.66528439792416" lon="8.575282042239767"><ele>333.0</ele><time>2026-04-11T10:15:30Z</time></trkpt><trkpt lat="45.665169960943174" lon="8.575290827735072"><ele>333.0</ele><time>2026-04-11T10:15:31Z</time></trkpt><trkpt lat="45.665053598928765" lon="8.575279070538858"><ele>332.25</ele><time>2026-04-11T10:15:32Z</time></trkpt><trkpt lat="45.6649326239415" lon="8.575274554214364"><ele>331.5</ele><time>2026-04-11T10:15:33Z</time></trkpt><trkpt lat="45.66480571319111" lon="8.5752771115113"><ele>330.75</ele><time>2026-04-11T10:15:34Z</time></trkpt><trkpt lat="45.66467747776178" lon="8.575271721665404"><ele>330.0</ele><time>2026-04-11T10:15:35Z</time></trkpt><trkpt lat="45.6645499676965" lon="8.575259774808012"><ele>329.5</ele><time>2026-04-11T10:15:36Z</time></trkpt><trkpt lat="45.664422875696616" lon="8.575246142340477"><ele>329.0</ele><time>2026-04-11T10:15:37Z</time></trkpt><trkpt lat="45.66430011036154" lon="8.57522986568091"><ele>328.5</ele><time>2026-04-11T10:15:38Z</time></trkpt><trkpt lat="45.66418858561154" lon="8.575212671785174"><ele>328.0</ele><time>2026-04-11T10:15:39Z</time></trkpt><trkpt lat="45.66408599349174" lon="8.57518308354347"><ele>328.0</ele><time>2026-04-11T10:15:40Z</time></trkpt><trkpt lat="45.66399448246234" lon="8.575106842896172"><ele>328.0</ele><time>2026-04-11T10:15:41Z</time></trkpt><trkpt lat="45.66391580771852" lon="8.57500100287372"><ele>328.0</ele><time>2026-04-11T10:15:42Z</time></trkpt><trkpt lat="45.663838730736714" lon="8.574897985399693"><ele>328.0</ele><time>2026-04-11T10:15:43Z</time></trkpt><trkpt lat="45.663760646948965" lon="8.57479745114727"><ele>328.0</ele><time>2026-04-11T10:15:44Z</time></trkpt><trkpt lat="45.66368748089835" lon="8.574705939940273"><ele>327.4</ele><time>2026-04-11T10:15:45Z</time></trkpt><trkpt lat="45.66361064148696" lon="8.574611212958517"><ele>326.79999999999995</ele><time>2026-04-11T10:15:45.999Z</time></trkpt><trkpt lat="45.66353284305464" lon="8.574513009875325"><ele>326.2</ele><time>2026-04-11T10:15:46.999Z</time></trkpt><trkpt lat="45.66345282961993" lon="8.574408853821318"><ele>325.6</ele><time>2026-04-11T10:15:47.999Z</time></trkpt><trkpt lat="45.663370987037545" lon="8.574304156738137"><ele>325.0</ele><time>2026-04-11T10:15:48.999Z</time></trkpt><trkpt lat="45.663287907167756" lon="8.574201823061808"><ele>324.8</ele><time>2026-04-11T10:15:49.999Z</time></trkpt><trkpt lat="45.663205835369794" lon="8.574100539001876"><ele>324.6</ele><time>2026-04-11T10:15:50.999Z</time></trkpt><trkpt lat="45.663125209523464" lon="8.57399876731732"><ele>324.4</ele><time>2026-04-11T10:15:51.999Z</time></trkpt><trkpt lat="45.66304387592764" lon="8.573897085441267"><ele>324.2</ele><time>2026-04-11T10:15:52.999Z</time></trkpt><trkpt lat="45.66296289168805" lon="8.573795779689624"><ele>324.0</ele><time>2026-04-11T10:15:53.999Z</time></trkpt><trkpt lat="45.66288089378266" lon="8.573693095639317"><ele>324.25</ele><time>2026-04-11T10:15:54.999Z</time></trkpt><trkpt lat="45.66279990685" lon="8.573591846777314"><ele>324.5</ele><time>2026-04-11T10:15:55.999Z</time></trkpt><trkpt lat="45.66271439374976" lon="8.573488311379265"><ele>324.75</ele><time>2026-04-11T10:15:56.999Z</time></trkpt><trkpt lat="45.66263694295557" lon="8.573361564409359"><ele>325.0</ele><time>2026-04-11T10:15:57.999Z</time></trkpt><trkpt lat="45.662546166913295" lon="8.573246369678479"><ele>324.25</ele><time>2026-04-11T10:15:58.999Z</time></trkpt><trkpt lat="45.66245381101268" lon="8.573128640839514"><ele>323.5</ele><time>2026-04-11T10:15:59.999Z</time></trkpt><trkpt lat="45.662361638669466" lon="8.5730111460145"><ele>322.75</ele><time>2026-04-11T10:16:00.999Z</time></trkpt><trkpt lat="45.66225924399977" lon="8.572903128899945"><ele>322.0</ele><time>2026-04-11T10:16:01.999Z</time></trkpt><trkpt lat="45.66216528862207" lon="8.572782111773124"><ele>321.75</ele><time>2026-04-11T10:16:02.999Z</time></trkpt><trkpt lat="45.662068142615574" lon="8.572663315911754"><ele>321.5</ele><time>2026-04-11T10:16:03.999Z</time></trkpt><trkpt lat="45.66197068870178" lon="8.572544049758202"><ele>321.25</ele><time>2026-04-11T10:16:04.999Z</time></trkpt><trkpt lat="45.661872247625446" lon="8.572423924614494"><ele>321.0</ele><time>2026-04-11T10:16:05.999Z</time></trkpt><trkpt lat="45.66177282430745" lon="8.572293448265155"><ele>320.25</ele><time>2026-04-11T10:16:06.999Z</time></trkpt><trkpt lat="45.66167438322823" lon="8.57216604202028"><ele>319.5</ele><time>2026-04-11T10:16:07.999Z</time></trkpt><trkpt lat="45.66157712193997" lon="8.57203802967745"><ele>318.75</ele><time>2026-04-11T10:16:08.999Z</time></trkpt><trkpt lat="45.66147822816384" lon="8.571910449636446"><ele>318.0</ele><time>2026-04-11T10:16:09.999Z</time></trkpt><trkpt lat="45.66137495431892" lon="8.57178177798372"><ele>318.0</ele><time>2026-04-11T10:16:10.999Z</time></trkpt><trkpt lat="45.661274310381465" lon="8.571653732257868"><ele>318.0</ele><time>2026-04-11T10:16:11.999Z</time></trkpt><trkpt lat="45.661174931128826" lon="8.571527177862835"><ele>318.0</ele><time>2026-04-11T10:16:12.999Z</time></trkpt><trkpt lat="45.66107685029639" lon="8.571402755744101"><ele>318.0</ele><time>2026-04-11T10:16:13.999Z</time></trkpt><trkpt lat="45.66098121133061" lon="8.571281171932862"><ele>318.75</ele><time>2026-04-11T10:16:14.999Z</time></trkpt><trkpt lat="45.66088922561348" lon="8.57116094698994"><ele>319.5</ele><time>2026-04-11T10:16:15.999Z</time></trkpt><trkpt lat="45.66079820592513" lon="8.571043256098262"><ele>320.25</ele><time>2026-04-11T10:16:16.999Z</time></trkpt><trkpt lat="45.66070818680961" lon="8.570926075586708"><ele>321.0</ele><time>2026-04-11T10:16:17.999Z</time></trkpt><trkpt lat="45.6606134526673" lon="8.570807399591889"><ele>321.0</ele><time>2026-04-11T10:16:18.999Z</time></trkpt><trkpt lat="45.66051740357686" lon="8.57068852989411"><ele>321.0</ele><time>2026-04-11T10:16:19.999Z</time></trkpt><trkpt lat="45.66042071186902" lon="8.570565608791558"><ele>321.0</ele><time>2026-04-11T10:16:20.999Z</time></trkpt><trkpt lat="45.66032036315089" lon="8.570441373278998"><ele>321.0</ele><time>2026-04-11T10:16:21.999Z</time></trkpt><trkpt lat="45.66022043679537" lon="8.570314777737027"><ele>320.75</ele><time>2026-04-11T10:16:22.999Z</time></trkpt><trkpt lat="45.66011862819614" lon="8.570186280976706"><ele>320.5</ele><time>2026-04-11T10:16:23.999Z</time></trkpt><trkpt lat="45.660013570760704" lon="8.57005730356715"><ele>320.25</ele><time>2026-04-11T10:16:24.999Z</time></trkpt><trkpt lat="45.65990996434006" lon="8.56992735738682"><ele>320.0</ele><time>2026-04-11T10:16:25.999Z</time></trkpt><trkpt lat="45.65980860356202" lon="8.569800189366987"><ele>320.0</ele><time>2026-04-11T10:16:26.999Z</time></trkpt><trkpt lat="45.65971140108789" lon="8.56967324307113"><ele>320.0</ele><time>2026-04-11T10:16:27.999Z</time></trkpt><trkpt lat="45.65961532326731" lon="8.569543251978258"><ele>320.0</ele><time>2026-04-11T10:16:28.999Z</time></trkpt><trkpt lat="45.65952082699378" lon="8.569413966460209"><ele>320.0</ele><time>2026-04-11T10:16:29.999Z</time></trkpt><trkpt lat="45.659430371355555" lon="8.569286824139114"><ele>318.5</ele><time>2026-04-11T10:16:30.999Z</time></trkpt><trkpt lat="45.659343455700714" lon="8.569160766322094"><ele>317.0</ele><time>2026-04-11T10:16:31.999Z</time></trkpt><trkpt lat="45.65925588574917" lon="8.569034291342975"><ele>315.5</ele><time>2026-04-11T10:16:32.999Z</time></trkpt><trkpt lat="45.65918076498646" lon="8.568889575559007"><ele>314.0</ele><time>2026-04-11T10:16:33.999Z</time></trkpt><trkpt lat="45.659078092348274" lon="8.568759183919289"><ele>314.5</ele><time>2026-04-11T10:16:34.999Z</time></trkpt><trkpt lat="45.65898423014598" lon="8.568613305234924"><ele>315.0</ele><time>2026-04-11T10:16:35.998Z</time></trkpt><trkpt lat="45.65890684178041" lon="8.568457516395544"><ele>315.5</ele><time>2026-04-11T10:16:36.998Z</time></trkpt><trkpt lat="45.658818511912855" lon="8.568315947303267"><ele>316.0</ele><time>2026-04-11T10:16:37.998Z</time></trkpt><trkpt lat="45.658728054061264" lon="8.568172251269264"><ele>316.0</ele><time>2026-04-11T10:16:38.998Z</time></trkpt><trkpt lat="45.658630131149664" lon="8.568045567904415"><ele>316.0</ele><time>2026-04-11T10:16:39.998Z</time></trkpt><trkpt lat="45.658540645234304" lon="8.567904804448164"><ele>316.0</ele><time>2026-04-11T10:16:40.998Z</time></trkpt><trkpt lat="45.658445850735355" lon="8.567783060591648"><ele>316.0</ele><time>2026-04-11T10:16:41.998Z</time></trkpt><trkpt lat="45.65835295774851" lon="8.56766156594687"><ele>315.25</ele><time>2026-04-11T10:16:42.998Z</time></trkpt><trkpt lat="45.6582220383747" lon="8.567615332908305"><ele>314.5</ele><time>2026-04-11T10:16:43.998Z</time></trkpt><trkpt lat="45.658097183114016" lon="8.56756316837479"><ele>313.75</ele><time>2026-04-11T10:16:44.998Z</time></trkpt><trkpt lat="45.6579695893444" lon="8.567518148120689"><ele>313.0</ele><time>2026-04-11T10:16:45.998Z</time></trkpt><trkpt lat="45.657839319321646" lon="8.567475288380829"><ele>313.25</ele><time>2026-04-11T10:16:46.998Z</time></trkpt><trkpt lat="45.65770961095045" lon="8.567433263140877"><ele>313.5</ele><time>2026-04-11T10:16:47.998Z</time></trkpt><trkpt lat="45.65758195005459" lon="8.567394117935132"><ele>313.75</ele><time>2026-04-11T10:16:48.998Z</time></trkpt><trkpt lat="45.657451025668635" lon="8.5673590513997"><ele>314.0</ele><time>2026-04-11T10:16:49.998Z</time></trkpt><trkpt lat="45.6573196429334" lon="8.56732992639767"><ele>314.0</ele><time>2026-04-11T10:16:50.998Z</time></trkpt><trkpt lat="45.65718178285034" lon="8.567305706566216"><ele>314.0</ele><time>2026-04-11T10:16:51.998Z</time></trkpt><trkpt lat="45.65704229723685" lon="8.567268518166099"><ele>314.0</ele><time>2026-04-11T10:16:52.998Z</time></trkpt><trkpt lat="45.65690387838261" lon="8.567236815074228"><ele>314.0</ele><time>2026-04-11T10:16:53.998Z</time></trkpt><trkpt lat="45.65676679720419" lon="8.567202574818605"><ele>314.25</ele><time>2026-04-11T10:16:54.998Z</time></trkpt><trkpt lat="45.65662982428944" lon="8.567172360094654"><ele>314.5</ele><time>2026-04-11T10:16:55.998Z</time></trkpt><trkpt lat="45.65649973609166" lon="8.567144156693184"><ele>314.75</ele><time>2026-04-11T10:16:56.998Z</time></trkpt><trkpt lat="45.65637643491549" lon="8.567116531155117"><ele>315.0</ele><time>2026-04-11T10:16:57.998Z</time></trkpt><trkpt lat="45.65626169475356" lon="8.567089298680665"><ele>315.0</ele><time>2026-04-11T10:16:58.998Z</time></trkpt><trkpt lat="45.656151044397646" lon="8.567067709945759"><ele>315.0</ele><time>2026-04-11T10:16:59.998Z</time></trkpt><trkpt lat="45.656047674149015" lon="8.567047824915791"><ele>315.0</ele><time>2026-04-11T10:17:00.998Z</time></trkpt><trkpt lat="45.65594345419162" lon="8.56702264220947"><ele>315.0</ele><time>2026-04-11T10:17:01.998Z</time></trkpt><trkpt lat="45.65583600418288" lon="8.56699073888738"><ele>315.0</ele><time>2026-04-11T10:17:02.998Z</time></trkpt><trkpt lat="45.655724791818585" lon="8.566957747055792"><ele>314.6</ele><time>2026-04-11T10:17:03.998Z</time></trkpt><trkpt lat="45.655608891808434" lon="8.566929349213451"><ele>314.2</ele><time>2026-04-11T10:17:04.998Z</time></trkpt><trkpt lat="45.6554967370998" lon="8.566901170853592"><ele>313.8</ele><time>2026-04-11T10:17:05.998Z</time></trkpt><trkpt lat="45.65539605442421" lon="8.566876789054337"><ele>313.4</ele><time>2026-04-11T10:17:06.998Z</time></trkpt><trkpt lat="45.65530261647457" lon="8.566855190665576"><ele>313.0</ele><time>2026-04-11T10:17:07.998Z</time></trkpt><trkpt lat="45.65521473185646" lon="8.566835938218926"><ele>313.0</ele><time>2026-04-11T10:17:08.998Z</time></trkpt><trkpt lat="45.6551226467101" lon="8.566814846665812"><ele>313.0</ele><time>2026-04-11T10:17:09.998Z</time></trkpt><trkpt lat="45.655034327233125" lon="8.566791584435366"><ele>313.0</ele><time>2026-04-11T10:17:10.998Z</time></trkpt><trkpt lat="45.6549428131562" lon="8.566760965554987"><ele>313.0</ele><time>2026-04-11T10:17:12Z</time></trkpt><trkpt lat="45.6548499788661" lon="8.56673118184407"><ele>313.0</ele><time>2026-04-11T10:17:13Z</time></trkpt><trkpt lat="45.65475839077114" lon="8.566700878792572"><ele>313.0</ele><time>2026-04-11T10:17:14Z</time></trkpt><trkpt lat="45.65466525178748" lon="8.566664866191058"><ele>313.0</ele><time>2026-04-11T10:17:15Z</time></trkpt><trkpt lat="45.6545666558025" lon="8.566627713159654"><ele>313.0</ele><time>2026-04-11T10:17:16Z</time></trkpt><trkpt lat="45.65446570736972" lon="8.566588166253688"><ele>313.0</ele><time>2026-04-11T10:17:17Z</time></trkpt><trkpt lat="45.65436153943563" lon="8.566540551890023"><ele>313.0</ele><time>2026-04-11T10:17:18Z</time></trkpt><trkpt lat="45.65426112182856" lon="8.566494203045593"><ele>313.4</ele><time>2026-04-11T10:17:19Z</time></trkpt><trkpt lat="45.6541571690137" lon="8.566442400072022"><ele>313.8</ele><time>2026-04-11T10:17:20Z</time></trkpt><trkpt lat="45.65405534122084" lon="8.566386448300744"><ele>314.2</ele><time>2026-04-11T10:17:21Z</time></trkpt><trkpt lat="45.6539562558505" lon="8.566322482843642"><ele>314.6</ele><time>2026-04-11T10:17:22Z</time></trkpt><trkpt lat="45.6538568133571" lon="8.566258178898146"><ele>315.0</ele><time>2026-04-11T10:17:23Z</time></trkpt><trkpt lat="45.65376019238426" lon="8.566206537104378"><ele>315.0</ele><time>2026-04-11T10:17:24Z</time></trkpt><trkpt lat="45.653667806841284" lon="8.566158117753574"><ele>315.0</ele><time>2026-04-11T10:17:25Z</time></trkpt><trkpt lat="45.65358298159138" lon="8.566107736885197"><ele>315.0</ele><time>2026-04-11T10:17:26Z</time></trkpt><trkpt lat="45.6534931785877" lon="8.566054058513114"><ele>315.0</ele><time>2026-04-11T10:17:27Z</time></trkpt><trkpt lat="45.65340249809187" lon="8.566000925932892"><ele>315.0</ele><time>2026-04-11T10:17:28Z</time></trkpt><trkpt lat="45.653309379705576" lon="8.565945446805518"><ele>314.6666666666667</ele><time>2026-04-11T10:17:29Z</time></trkpt><trkpt lat="45.65321521677366" lon="8.565896873798588"><ele>314.3333333333333</ele><time>2026-04-11T10:17:30Z</time></trkpt><trkpt lat="45.653126092043905" lon="8.565847999453208"><ele>314.0</ele><time>2026-04-11T10:17:31Z</time></trkpt><trkpt lat="45.65304214789001" lon="8.56579298697028"><ele>313.66666666666663</ele><time>2026-04-11T10:17:32Z</time></trkpt><trkpt lat="45.652964563931064" lon="8.565747673283587"><ele>313.3333333333333</ele><time>2026-04-11T10:17:33Z</time></trkpt><trkpt lat="45.652898811023356" lon="8.56570574256597"><ele>313.0</ele><time>2026-04-11T10:17:34Z</time></trkpt><trkpt lat="45.65281752537771" lon="8.565646227459455"><ele>312.5</ele><time>2026-04-11T10:17:36Z</time></trkpt><trkpt lat="45.6527553803369" lon="8.565610065018577"><ele>312.0</ele><time>2026-04-11T10:17:41Z</time></trkpt><trkpt lat="45.65260089382237" lon="8.566137934291763"><ele>311.5</ele><time>2026-04-11T10:18:54.998Z</time></trkpt><trkpt lat="45.65255898153956" lon="8.566268422197625"><ele>311.0</ele><time>2026-04-11T10:18:55.998Z</time></trkpt><trkpt lat="45.65251428834244" lon="8.566421732200626"><ele>310.5</ele><time>2026-04-11T10:18:56.998Z</time></trkpt><trkpt lat="45.65246828594034" lon="8.566590039603602"><ele>310.0</ele><time>2026-04-11T10:18:57.998Z</time></trkpt><trkpt lat="45.65242620902659" lon="8.566748868624375"><ele>310.0</ele><time>2026-04-11T10:18:58.998Z</time></trkpt><trkpt lat="45.65237395508415" lon="8.566916031902217"><ele>310.0</ele><time>2026-04-11T10:18:59.998Z</time></trkpt><trkpt lat="45.65233013970333" lon="8.567073157905108"><ele>310.0</ele><time>2026-04-11T10:19:00.998Z</time></trkpt><trkpt lat="45.65230100742225" lon="8.56723733469162"><ele>310.0</ele><time>2026-04-11T10:19:01.998Z</time></trkpt><trkpt lat="45.6522725277549" lon="8.567425760149654"><ele>309.8</ele><time>2026-04-11T10:19:02.998Z</time></trkpt><trkpt lat="45.6522270163932" lon="8.56758166436013"><ele>309.6</ele><time>2026-04-11T10:19:03.998Z</time></trkpt><trkpt lat="45.65216085488618" lon="8.567681359699126"><ele>309.4</ele><time>2026-04-11T10:19:04.998Z</time></trkpt><trkpt lat="45.65207765227324" lon="8.567736912812137"><ele>309.2</ele><time>2026-04-11T10:19:05.998Z</time></trkpt><trkpt lat="45.651976362116486" lon="8.567747275961716"><ele>309.0</ele><time>2026-04-11T10:19:06.998Z</time></trkpt><trkpt lat="45.651844157144524" lon="8.567717915381206"><ele>310.0</ele><time>2026-04-11T10:19:07.998Z</time></trkpt><trkpt lat="45.65172849551905" lon="8.567670068576023"><ele>311.0</ele><time>2026-04-11T10:19:08.998Z</time></trkpt><trkpt lat="45.651605711433525" lon="8.567559437742707"><ele>312.0</ele><time>2026-04-11T10:19:09.998Z</time></trkpt><trkpt lat="45.65148101147023" lon="8.567447148360918"><ele>313.0</ele><time>2026-04-11T10:19:10.998Z</time></trkpt><trkpt lat="45.651385681412435" lon="8.567399779418384"><ele>313.0</ele><time>2026-04-11T10:19:11.998Z</time></trkpt><trkpt lat="45.65130678493997" lon="8.567390908144596"><ele>313.0</ele><time>2026-04-11T10:19:12.998Z</time></trkpt><trkpt lat="45.65120017499777" lon="8.56743191169025"><ele>313.0</ele><time>2026-04-11T10:19:13.998Z</time></trkpt><trkpt lat="45.65106638408593" lon="8.567505068563916"><ele>313.0</ele><time>2026-04-11T10:19:14.998Z</time></trkpt><trkpt lat="45.65089511767014" lon="8.567527194067395"><ele>312.66666666666663</ele><time>2026-04-11T10:19:15.998Z</time></trkpt><trkpt lat="45.650695992949686" lon="8.567544948958213"><ele>312.3333333333333</ele><time>2026-04-11T10:19:17Z</time></trkpt><trkpt lat="45.650499958858056" lon="8.567554697077295"><ele>312.0</ele><time>2026-04-11T10:19:18Z</time></trkpt><trkpt lat="45.650338596221566" lon="8.567569122217549"><ele>311.6666666666667</ele><time>2026-04-11T10:19:19Z</time></trkpt><trkpt lat="45.65016864280046" lon="8.567582346321974"><ele>311.33333333333337</ele><time>2026-04-11T10:19:20Z</time></trkpt><trkpt lat="45.64997101331951" lon="8.567617757948698"><ele>311.0</ele><time>2026-04-11T10:19:21Z</time></trkpt><trkpt lat="45.6497710441669" lon="8.567663861601801"><ele>311.0</ele><time>2026-04-11T10:19:22Z</time></trkpt><trkpt lat="45.64957105942901" lon="8.567699430144966"><ele>311.0</ele><time>2026-04-11T10:19:23Z</time></trkpt><trkpt lat="45.649397532244215" lon="8.56773678504126"><ele>311.0</ele><time>2026-04-11T10:19:24Z</time></trkpt><trkpt lat="45.64919258009423" lon="8.567772929622938"><ele>310.33333333333337</ele><time>2026-04-11T10:19:25Z</time></trkpt><trkpt lat="45.648968101241614" lon="8.567811055387805"><ele>309.6666666666667</ele><time>2026-04-11T10:19:26Z</time></trkpt><trkpt lat="45.64877078123924" lon="8.567857984598522"><ele>309.0</ele><time>2026-04-11T10:19:27Z</time></trkpt><trkpt lat="45.64861437357345" lon="8.567885098585563"><ele>308.75</ele><time>2026-04-11T10:19:28Z</time></trkpt><trkpt lat="45.6484661684564" lon="8.567904259746555"><ele>308.5</ele><time>2026-04-11T10:19:29Z</time></trkpt><trkpt lat="45.64833376308008" lon="8.567915475994662"><ele>308.25</ele><time>2026-04-11T10:19:30Z</time></trkpt><trkpt lat="45.648212348937506" lon="8.56791754168051"><ele>308.0</ele><time>2026-04-11T10:19:31Z</time></trkpt><trkpt lat="45.64807932111299" lon="8.567933962548485"><ele>308.0</ele><time>2026-04-11T10:19:32Z</time></trkpt><trkpt lat="45.6479536467408" lon="8.567957421454826"><ele>308.0</ele><time>2026-04-11T10:19:33Z</time></trkpt><trkpt lat="45.64783253151591" lon="8.56798567842931"><ele>308.0</ele><time>2026-04-11T10:19:34Z</time></trkpt><trkpt lat="45.64771924608288" lon="8.568051292053243"><ele>308.0</ele><time>2026-04-11T10:19:35Z</time></trkpt><trkpt lat="45.64760666757708" lon="8.56813370819852"><ele>308.0</ele><time>2026-04-11T10:19:36Z</time></trkpt><trkpt lat="45.64748929369311" lon="8.568218523579345"><ele>308.0</ele><time>2026-04-11T10:19:37Z</time></trkpt><trkpt lat="45.64737934885897" lon="8.568302939133623"><ele>308.0</ele><time>2026-04-11T10:19:38Z</time></trkpt><trkpt lat="45.647240073825735" lon="8.56840733347019"><ele>308.0</ele><time>2026-04-11T10:19:39Z</time></trkpt><trkpt lat="45.647081077393494" lon="8.568516560629764"><ele>308.25</ele><time>2026-04-11T10:19:40Z</time></trkpt><trkpt lat="45.646952757367266" lon="8.568610215988077"><ele>308.5</ele><time>2026-04-11T10:19:41Z</time></trkpt><trkpt lat="45.646821729739784" lon="8.568699137267414"><ele>308.75</ele><time>2026-04-11T10:19:42Z</time></trkpt><trkpt lat="45.64668128845793" lon="8.568783719782177"><ele>309.0</ele><time>2026-04-11T10:19:43Z</time></trkpt><trkpt lat="45.64653881519299" lon="8.568884296485384"><ele>308.0</ele><time>2026-04-11T10:19:44Z</time></trkpt><trkpt lat="45.64639997656543" lon="8.568993107211964"><ele>307.0</ele><time>2026-04-11T10:19:45Z</time></trkpt><trkpt lat="45.64627288714962" lon="8.569080849121216"><ele>306.0</ele><time>2026-04-11T10:19:46Z</time></trkpt><trkpt lat="45.64613267150163" lon="8.569167883884829"><ele>306.0</ele><time>2026-04-11T10:19:47Z</time></trkpt><trkpt lat="45.64600261809748" lon="8.569265706276507"><ele>306.0</ele><time>2026-04-11T10:19:48Z</time></trkpt><trkpt lat="45.64586019454409" lon="8.569363796007494"><ele>306.0</ele><time>2026-04-11T10:19:49Z</time></trkpt><trkpt lat="45.64570335514801" lon="8.569466606809806"><ele>306.40000000000003</ele><time>2026-04-11T10:19:50Z</time></trkpt><trkpt lat="45.64558488107278" lon="8.569540989007569"><ele>306.8</ele><time>2026-04-11T10:19:51Z</time></trkpt><trkpt lat="45.645505877348945" lon="8.56959618194902"><ele>307.20000000000005</ele><time>2026-04-11T10:19:52Z</time></trkpt><trkpt lat="45.64544840778284" lon="8.569722498788101"><ele>307.6</ele><time>2026-04-11T10:19:53.999Z</time></trkpt><trkpt lat="45.64545229577579" lon="8.569847336602448"><ele>308.0</ele><time>2026-04-11T10:19:54.999Z</time></trkpt><trkpt lat="45.64547802984201" lon="8.569992727756068"><ele>308.0</ele><time>2026-04-11T10:19:55.999Z</time></trkpt><trkpt lat="45.64549738936993" lon="8.570174886838705"><ele>308.0</ele><time>2026-04-11T10:19:56.999Z</time></trkpt><trkpt lat="45.64551376374359" lon="8.570401442072011"><ele>308.0</ele><time>2026-04-11T10:19:57.999Z</time></trkpt><trkpt lat="45.64553512923746" lon="8.570648931871077"><ele>308.0</ele><time>2026-04-11T10:19:58.999Z</time></trkpt><trkpt lat="45.645545188578694" lon="8.570898348417682"><ele>308.0</ele><time>2026-04-11T10:19:59.999Z</time></trkpt><trkpt lat="45.64555729170529" lon="8.571149793821938"><ele>308.0</ele><time>2026-04-11T10:20:00.999Z</time></trkpt><trkpt lat="45.645576763463914" lon="8.571419008442962"><ele>308.0</ele><time>2026-04-11T10:20:01.999Z</time></trkpt><trkpt lat="45.64559849221876" lon="8.571666189164661"><ele>308.0</ele><time>2026-04-11T10:20:02.999Z</time></trkpt><trkpt lat="45.64562239883555" lon="8.571883502308031"><ele>308.0</ele><time>2026-04-11T10:20:03.999Z</time></trkpt><trkpt lat="45.64564320081522" lon="8.572099320293397"><ele>307.75</ele><time>2026-04-11T10:20:04.999Z</time></trkpt><trkpt lat="45.64565843456858" lon="8.572308358938507"><ele>307.5</ele><time>2026-04-11T10:20:05.999Z</time></trkpt><trkpt lat="45.64566833524143" lon="8.572504265903259"><ele>307.25</ele><time>2026-04-11T10:20:06.999Z</time></trkpt><trkpt lat="45.645681773824684" lon="8.572683327321728"><ele>307.0</ele><time>2026-04-11T10:20:07.999Z</time></trkpt><trkpt lat="45.64569643303913" lon="8.572854859490048"><ele>306.4</ele><time>2026-04-11T10:20:08.999Z</time></trkpt><trkpt lat="45.64571354196543" lon="8.573014324240306"><ele>305.79999999999995</ele><time>2026-04-11T10:20:09.999Z</time></trkpt><trkpt lat="45.645724745445904" lon="8.573172848099894"><ele>305.2</ele><time>2026-04-11T10:20:10.999Z</time></trkpt><trkpt lat="45.64573303798113" lon="8.573303028565663"><ele>304.59999999999997</ele><time>2026-04-11T10:20:11.999Z</time></trkpt><trkpt lat="45.645698882205956" lon="8.573460276083766"><ele>304.0</ele><time>2026-04-11T10:20:13.999Z</time></trkpt><trkpt lat="45.64562548480061" lon="8.573520690705013"><ele>304.0</ele><time>2026-04-11T10:20:14.999Z</time></trkpt><trkpt lat="45.64550622757775" lon="8.573559820150018"><ele>304.0</ele><time>2026-04-11T10:20:15.999Z</time></trkpt><trkpt lat="45.64535641230963" lon="8.57361436804112"><ele>304.0</ele><time>2026-04-11T10:20:16.999Z</time></trkpt><trkpt lat="45.645202179448724" lon="8.573670085391884"><ele>304.0</ele><time>2026-04-11T10:20:17.999Z</time></trkpt><trkpt lat="45.64506163583564" lon="8.57372649453919"><ele>304.3333333333333</ele><time>2026-04-11T10:20:18.999Z</time></trkpt><trkpt lat="45.64495896067818" lon="8.573765618791516"><ele>304.66666666666663</ele><time>2026-04-11T10:20:19.999Z</time></trkpt><trkpt lat="45.64486555143363" lon="8.573794231775985"><ele>305.0</ele><time>2026-04-11T10:20:20.999Z</time></trkpt><trkpt lat="45.64478779431774" lon="8.573814299933636"><ele>305.3333333333333</ele><time>2026-04-11T10:20:21.999Z</time></trkpt><trkpt lat="45.64472535813279" lon="8.573828726890085"><ele>305.6666666666667</ele><time>2026-04-11T10:20:22.999Z</time></trkpt><trkpt lat="45.64464250395322" lon="8.573858789511004"><ele>306.0</ele><time>2026-04-11T10:20:24.999Z</time></trkpt><trkpt lat="45.64458364435999" lon="8.573921552224826"><ele>306.0</ele><time>2026-04-11T10:20:26.999Z</time></trkpt><trkpt lat="45.644581666164605" lon="8.57403020071136"><ele>306.0</ele><time>2026-04-11T10:20:28.999Z</time></trkpt><trkpt lat="45.64460485870399" lon="8.574137213215293"><ele>306.0</ele><time>2026-04-11T10:20:37.999Z</time></trkpt><trkpt lat="45.644616194036004" lon="8.574291403730584"><ele>306.0</ele><time>2026-04-11T10:20:39.999Z</time></trkpt><trkpt lat="45.64461936151862" lon="8.574401320776746"><ele>306.0</ele><time>2026-04-11T10:20:40.999Z</time></trkpt><trkpt lat="45.644629344597334" lon="8.574538342429422"><ele>306.0</ele><time>2026-04-11T10:20:41.999Z</time></trkpt><trkpt lat="45.64463737241753" lon="8.574669629255707"><ele>306.0</ele><time>2026-04-11T10:20:42.999Z</time></trkpt><trkpt lat="45.64464771838679" lon="8.57480552906896"><ele>306.0</ele><time>2026-04-11T10:20:43.999Z</time></trkpt><trkpt lat="45.64465774180484" lon="8.57493392315987"><ele>306.0</ele><time>2026-04-11T10:20:44.999Z</time></trkpt><trkpt lat="45.644666576136025" lon="8.575080480733613"><ele>306.0</ele><time>2026-04-11T10:20:45.999Z</time></trkpt><trkpt lat="45.644678763113575" lon="8.575240407489105"><ele>306.0</ele><time>2026-04-11T10:20:46.999Z</time></trkpt><trkpt lat="45.64469936761568" lon="8.575414976202584"><ele>305.75</ele><time>2026-04-11T10:20:47.998Z</time></trkpt><trkpt lat="45.64470885570548" lon="8.57559187259486"><ele>305.5</ele><time>2026-04-11T10:20:48.998Z</time></trkpt><trkpt lat="45.644722529115775" lon="8.575777817163575"><ele>305.25</ele><time>2026-04-11T10:20:49.998Z</time></trkpt><trkpt lat="45.64474703377554" lon="8.575959952361968"><ele>305.0</ele><time>2026-04-11T10:20:50.998Z</time></trkpt><trkpt lat="45.644771716644044" lon="8.57611979799752"><ele>304.75</ele><time>2026-04-11T10:20:51.998Z</time></trkpt><trkpt lat="45.6447938663403" lon="8.576276361216625"><ele>304.5</ele><time>2026-04-11T10:20:52.998Z</time></trkpt><trkpt lat="45.6447910740719" lon="8.576470132275036"><ele>304.25</ele><time>2026-04-11T10:20:53.998Z</time></trkpt><trkpt lat="45.64479560881079" lon="8.576644745590087"><ele>304.0</ele><time>2026-04-11T10:20:54.998Z</time></trkpt><trkpt lat="45.64481190846051" lon="8.57681057901961"><ele>304.0</ele><time>2026-04-11T10:20:55.998Z</time></trkpt><trkpt lat="45.64482151959718" lon="8.576988307857723"><ele>304.0</ele><time>2026-04-11T10:20:56.998Z</time></trkpt><trkpt lat="45.64483687134055" lon="8.577180224551341"><ele>304.0</ele><time>2026-04-11T10:20:57.998Z</time></trkpt><trkpt lat="45.64485524058172" lon="8.577374726521105"><ele>304.0</ele><time>2026-04-11T10:20:58.998Z</time></trkpt><trkpt lat="45.644876973985426" lon="8.577579337561648"><ele>305.0</ele><time>2026-04-11T10:20:59.998Z</time></trkpt><trkpt lat="45.644895025971536" lon="8.5777808832451"><ele>306.0</ele><time>2026-04-11T10:21:00.998Z</time></trkpt><trkpt lat="45.64490578967572" lon="8.57799252226992"><ele>307.0</ele><time>2026-04-11T10:21:01.998Z</time></trkpt><trkpt lat="45.644916226741095" lon="8.578178710922119"><ele>308.0</ele><time>2026-04-11T10:21:02.998Z</time></trkpt><trkpt lat="45.64493278958762" lon="8.57837397327173"><ele>309.4</ele><time>2026-04-11T10:21:03.998Z</time></trkpt><trkpt lat="45.64494890028268" lon="8.578543952064699"><ele>310.8</ele><time>2026-04-11T10:21:04.998Z</time></trkpt><trkpt lat="45.644970000911805" lon="8.578681677306383"><ele>312.2</ele><time>2026-04-11T10:21:05.998Z</time></trkpt><trkpt lat="45.64498155148295" lon="8.578790844983615"><ele>313.6</ele><time>2026-04-11T10:21:06.998Z</time></trkpt><trkpt lat="45.64497631678527" lon="8.578927234381066"><ele>315.0</ele><time>2026-04-11T10:21:07.998Z</time></trkpt><trkpt lat="45.64499083761655" lon="8.579087362186186"><ele>315.0</ele><time>2026-04-11T10:21:08.998Z</time></trkpt><trkpt lat="45.6450190048713" lon="8.579267278346439"><ele>315.0</ele><time>2026-04-11T10:21:09.998Z</time></trkpt><trkpt lat="45.64503153161028" lon="8.579432466743038"><ele>315.0</ele><time>2026-04-11T10:21:10.998Z</time></trkpt><trkpt lat="45.64503624689963" lon="8.579579450987406"><ele>315.0</ele><time>2026-04-11T10:21:11.998Z</time></trkpt><trkpt lat="45.64504277380306" lon="8.579722855534472"><ele>315.0</ele><time>2026-04-11T10:21:12.998Z</time></trkpt><trkpt lat="45.64505807330294" lon="8.579888720229018"><ele>315.0</ele><time>2026-04-11T10:21:13.998Z</time></trkpt><trkpt lat="45.64507219170049" lon="8.580044600411545"><ele>315.0</ele><time>2026-04-11T10:21:14.998Z</time></trkpt><trkpt lat="45.64508895599424" lon="8.580170532606504"><ele>315.0</ele><time>2026-04-11T10:21:15.998Z</time></trkpt><trkpt lat="45.64509928698721" lon="8.580282602780292"><ele>315.0</ele><time>2026-04-11T10:21:16.998Z</time></trkpt><trkpt lat="45.645107118438034" lon="8.580459417542922"><ele>315.0</ele><time>2026-04-11T10:21:18.998Z</time></trkpt><trkpt lat="45.64513316033467" lon="8.580584438561596"><ele>315.0</ele><time>2026-04-11T10:21:20.998Z</time></trkpt><trkpt lat="45.64512096591171" lon="8.580688970100711"><ele>315.0</ele><time>2026-04-11T10:21:23Z</time></trkpt><trkpt lat="45.6449877408616" lon="8.580717388443713"><ele>315.0</ele><time>2026-04-11T10:21:25Z</time></trkpt><trkpt lat="45.64488344727478" lon="8.5807298125947"><ele>315.0</ele><time>2026-04-11T10:21:26Z</time></trkpt><trkpt lat="45.64477728433604" lon="8.580748816756337"><ele>315.0</ele><time>2026-04-11T10:21:27Z</time></trkpt><trkpt lat="45.644673257662255" lon="8.580776426272768"><ele>315.0</ele><time>2026-04-11T10:21:28Z</time></trkpt><trkpt lat="45.64459279829905" lon="8.58079017776583"><ele>315.0</ele><time>2026-04-11T10:21:29Z</time></trkpt><trkpt lat="45.644490942499985" lon="8.58081286257659"><ele>315.0</ele><time>2026-04-11T10:21:30Z</time></trkpt><trkpt lat="45.64439078811029" lon="8.580837455321841"><ele>315.0</ele><time>2026-04-11T10:21:31Z</time></trkpt><trkpt lat="45.6442944258133" lon="8.58085569289601"><ele>315.0</ele><time>2026-04-11T10:21:32Z</time></trkpt><trkpt lat="45.64419251641459" lon="8.58087727622881"><ele>314.6</ele><time>2026-04-11T10:21:33Z</time></trkpt><trkpt lat="45.64409886454917" lon="8.580897127468406"><ele>314.2</ele><time>2026-04-11T10:21:34Z</time></trkpt><trkpt lat="45.64402797789225" lon="8.580925699263759"><ele>313.8</ele><time>2026-04-11T10:21:35Z</time></trkpt><trkpt lat="45.64393328454212" lon="8.580940673996992"><ele>313.4</ele><time>2026-04-11T10:21:38Z</time></trkpt><trkpt lat="45.64382196834014" lon="8.580952787431745"><ele>313.0</ele><time>2026-04-11T10:21:40Z</time></trkpt><trkpt lat="45.64370808100331" lon="8.580973418097964"><ele>312.2</ele><time>2026-04-11T10:21:42Z</time></trkpt><trkpt lat="45.6436164295714" lon="8.581005851651117"><ele>311.4</ele><time>2026-04-11T10:21:44Z</time></trkpt><trkpt lat="45.64349721556821" lon="8.581054708954968"><ele>310.59999999999997</ele><time>2026-04-11T10:21:46Z</time></trkpt><trkpt lat="45.64340894355004" lon="8.581068511025563"><ele>309.8</ele><time>2026-04-11T10:21:47Z</time></trkpt><trkpt lat="45.64333088173652" lon="8.581091483816172"><ele>309.0</ele><time>2026-04-11T10:21:48Z</time></trkpt><trkpt lat="45.64326028608926" lon="8.58110709443566"><ele>309.0</ele><time>2026-04-11T10:21:49Z</time></trkpt><trkpt lat="45.64319365357508" lon="8.581141309273852"><ele>309.0</ele><time>2026-04-11T10:21:50Z</time></trkpt><trkpt lat="45.643118238994255" lon="8.581187182604843"><ele>309.0</ele><time>2026-04-11T10:21:51Z</time></trkpt><trkpt lat="45.643030213102314" lon="8.581234429913287"><ele>309.0</ele><time>2026-04-11T10:21:52Z</time></trkpt><trkpt lat="45.64293968863421" lon="8.581270698016528"><ele>309.0</ele><time>2026-04-11T10:21:53Z</time></trkpt><trkpt lat="45.6428600330329" lon="8.581295700475232"><ele>309.0</ele><time>2026-04-11T10:21:54Z</time></trkpt><trkpt lat="45.64278056918336" lon="8.581321959694222"><ele>308.0</ele><time>2026-04-11T10:21:55Z</time></trkpt><trkpt lat="45.64269165937665" lon="8.581344450419722"><ele>307.0</ele><time>2026-04-11T10:21:56Z</time></trkpt><trkpt lat="45.64262649255098" lon="8.58135983363479"><ele>306.0</ele><time>2026-04-11T10:21:57Z</time></trkpt><trkpt lat="45.64255925532121" lon="8.58138397571127"><ele>305.0</ele><time>2026-04-11T10:21:58Z</time></trkpt><trkpt lat="45.64244328069836" lon="8.58143742852486"><ele>304.0</ele><time>2026-04-11T10:22:00Z</time></trkpt><trkpt lat="45.64235691713215" lon="8.58144921055606"><ele>303.0</ele><time>2026-04-11T10:22:02Z</time></trkpt><trkpt lat="45.642285908189535" lon="8.58148274685147"><ele>303.0</ele><time>2026-04-11T10:22:04Z</time></trkpt><trkpt lat="45.64220477519248" lon="8.581502423700831"><ele>303.0</ele><time>2026-04-11T10:22:06Z</time></trkpt><trkpt lat="45.64211385773546" lon="8.581488120596914"><ele>303.0</ele><time>2026-04-11T10:22:08Z</time></trkpt><trkpt lat="45.641983617314104" lon="8.581534633496789"><ele>303.0</ele><time>2026-04-11T10:22:10Z</time></trkpt><trkpt lat="45.64191486904627" lon="8.58158933975363"><ele>303.0</ele><time>2026-04-11T10:22:11Z</time></trkpt><trkpt lat="45.64183491997012" lon="8.581640734369595"><ele>302.8</ele><time>2026-04-11T10:22:13Z</time></trkpt><trkpt lat="45.64173005745282" lon="8.581708057597286"><ele>302.6</ele><time>2026-04-11T10:22:14.999Z</time></trkpt><trkpt lat="45.64163260907501" lon="8.58179642352237"><ele>302.4</ele><time>2026-04-11T10:22:16.999Z</time></trkpt><trkpt lat="45.64157276028674" lon="8.581849884165507"><ele>302.2</ele><time>2026-04-11T10:22:17.999Z</time></trkpt><trkpt lat="45.64150353594361" lon="8.581916687866672"><ele>302.0</ele><time>2026-04-11T10:22:18.999Z</time></trkpt><trkpt lat="45.64143464855623" lon="8.581992777710665"><ele>301.83333333333337</ele><time>2026-04-11T10:22:19.999Z</time></trkpt><trkpt lat="45.64136320963252" lon="8.582064343372641"><ele>301.6666666666667</ele><time>2026-04-11T10:22:20.999Z</time></trkpt><trkpt lat="45.64128851438632" lon="8.582131527705206"><ele>301.5</ele><time>2026-04-11T10:22:21.999Z</time></trkpt><trkpt lat="45.641222483165194" lon="8.582201909166304"><ele>301.3333333333333</ele><time>2026-04-11T10:22:22.999Z</time></trkpt><trkpt lat="45.64116594793051" lon="8.582261272708875"><ele>301.16666666666663</ele><time>2026-04-11T10:22:23.999Z</time></trkpt><trkpt lat="45.64111279997784" lon="8.582323151965863"><ele>301.0</ele><time>2026-04-11T10:22:24.999Z</time></trkpt><trkpt lat="45.64105802354794" lon="8.582393495864086"><ele>300.66666666666663</ele><time>2026-04-11T10:22:25.999Z</time></trkpt><trkpt lat="45.641006933225775" lon="8.58246168998876"><ele>300.3333333333333</ele><time>2026-04-11T10:22:26.999Z</time></trkpt><trkpt lat="45.64095396474474" lon="8.582542528072823"><ele>300.0</ele><time>2026-04-11T10:22:27.999Z</time></trkpt><trkpt lat="45.64088808761007" lon="8.582636255674863"><ele>299.6666666666667</ele><time>2026-04-11T10:22:28.999Z</time></trkpt><trkpt lat="45.640822444248094" lon="8.582698103876487"><ele>299.33333333333337</ele><time>2026-04-11T10:22:29.999Z</time></trkpt><trkpt lat="45.640747431239895" lon="8.582723240880766"><ele>299.0</ele><time>2026-04-11T10:22:30.999Z</time></trkpt><trkpt lat="45.640679978941854" lon="8.582719821231043"><ele>299.0</ele><time>2026-04-11T10:22:31.999Z</time></trkpt><trkpt lat="45.640603975177456" lon="8.582737774834547"><ele>299.0</ele><time>2026-04-11T10:22:33.999Z</time></trkpt><trkpt lat="45.64059467655536" lon="8.582909051384608"><ele>299.0</ele><time>2026-04-11T10:22:36.999Z</time></trkpt><trkpt lat="45.64061479433329" lon="8.58302202841376"><ele>299.0</ele><time>2026-04-11T10:22:37.999Z</time></trkpt><trkpt lat="45.64065139922812" lon="8.583112944065757"><ele>299.0</ele><time>2026-04-11T10:22:38.999Z</time></trkpt><trkpt lat="45.640642651755435" lon="8.583283576489563"><ele>299.59999999999997</ele><time>2026-04-11T10:22:40.999Z</time></trkpt><trkpt lat="45.64060678664552" lon="8.583422085923274"><ele>300.2</ele><time>2026-04-11T10:22:42.999Z</time></trkpt><trkpt lat="45.640515421606075" lon="8.583511291980615"><ele>300.79999999999995</ele><time>2026-04-11T10:22:44.999Z</time></trkpt><trkpt lat="45.64045037515533" lon="8.583607648995658"><ele>301.4</ele><time>2026-04-11T10:22:45.999Z</time></trkpt><trkpt lat="45.640382786646256" lon="8.583730391677332"><ele>302.0</ele><time>2026-04-11T10:22:46.999Z</time></trkpt><trkpt lat="45.64032158408623" lon="8.583851564362236"><ele>302.8</ele><time>2026-04-11T10:22:47.999Z</time></trkpt><trkpt lat="45.64025211317911" lon="8.583959151500178"><ele>303.6</ele><time>2026-04-11T10:22:48.999Z</time></trkpt><trkpt lat="45.64014808848389" lon="8.58403768930615"><ele>304.40000000000003</ele><time>2026-04-11T10:22:50.999Z</time></trkpt><trkpt lat="45.64005476641339" lon="8.584022532122392"><ele>305.2</ele><time>2026-04-11T10:22:51.999Z</time></trkpt><trkpt lat="45.63995603386362" lon="8.584028404859737"><ele>306.0</ele><time>2026-04-11T10:22:52.999Z</time></trkpt><trkpt lat="45.63985490738854" lon="8.584060980358368"><ele>306.0</ele><time>2026-04-11T10:22:53.999Z</time></trkpt><trkpt lat="45.639763407587544" lon="8.584075320653673"><ele>306.0</ele><time>2026-04-11T10:22:54.999Z</time></trkpt><trkpt lat="45.639671766563886" lon="8.58408833944383"><ele>306.0</ele><time>2026-04-11T10:22:55.999Z</time></trkpt><trkpt lat="45.63956271405785" lon="8.584127529797856"><ele>306.0</ele><time>2026-04-11T10:22:56.999Z</time></trkpt><trkpt lat="45.63944851444412" lon="8.584162664912517"><ele>306.0</ele><time>2026-04-11T10:22:57.999Z</time></trkpt><trkpt lat="45.63933374936957" lon="8.584190635365665"><ele>305.40000000000003</ele><time>2026-04-11T10:22:58.999Z</time></trkpt><trkpt lat="45.63921899859457" lon="8.584216943877841"><ele>304.8</ele><time>2026-04-11T10:22:59.999Z</time></trkpt><trkpt lat="45.639118547112226" lon="8.58424165923465"><ele>304.20000000000005</ele><time>2026-04-11T10:23:00.999Z</time></trkpt><trkpt lat="45.63902890438733" lon="8.584265694506255"><ele>303.6</ele><time>2026-04-11T10:23:01.999Z</time></trkpt><trkpt lat="45.63894828970053" lon="8.58427968294293"><ele>303.0</ele><time>2026-04-11T10:23:02.999Z</time></trkpt><trkpt lat="45.638841835194704" lon="8.584303332249846"><ele>303.0</ele><time>2026-04-11T10:23:04.999Z</time></trkpt><trkpt lat="45.638826149040455" lon="8.584402567488361"><ele>303.0</ele><time>2026-04-11T10:23:07.999Z</time></trkpt><trkpt lat="45.638850888086075" lon="8.584497152356057"><ele>303.0</ele><time>2026-04-11T10:23:08.998Z</time></trkpt><trkpt lat="45.63888064463865" lon="8.584607556897693"><ele>303.0</ele><time>2026-04-11T10:23:09.998Z</time></trkpt><trkpt lat="45.638906279199816" lon="8.584733039117452"><ele>303.0</ele><time>2026-04-11T10:23:10.998Z</time></trkpt><trkpt lat="45.638936571025994" lon="8.58485436283009"><ele>303.0</ele><time>2026-04-11T10:23:11.998Z</time></trkpt><trkpt lat="45.63896391063927" lon="8.584978171507341"><ele>304.0</ele><time>2026-04-11T10:23:12.998Z</time></trkpt><trkpt lat="45.638988390930386" lon="8.585093770052897"><ele>305.0</ele><time>2026-04-11T10:23:13.998Z</time></trkpt><trkpt lat="45.63900160089332" lon="8.585219190521778"><ele>306.0</ele><time>2026-04-11T10:23:14.998Z</time></trkpt><trkpt lat="45.6390117866913" lon="8.58532868727988"><ele>307.0</ele><time>2026-04-11T10:23:15.998Z</time></trkpt><trkpt lat="45.63902952003631" lon="8.58544542824896"><ele>308.0</ele><time>2026-04-11T10:23:16.998Z</time></trkpt><trkpt lat="45.639066733962494" lon="8.585550140103757"><ele>309.0</ele><time>2026-04-11T10:23:17.998Z</time></trkpt><trkpt lat="45.639098238104935" lon="8.585655275832604"><ele>309.6666666666667</ele><time>2026-04-11T10:23:18.998Z</time></trkpt><trkpt lat="45.6391264460044" lon="8.585772174042473"><ele>310.3333333333333</ele><time>2026-04-11T10:23:19.998Z</time></trkpt><trkpt lat="45.63914424537738" lon="8.58588793024321"><ele>311.0</ele><time>2026-04-11T10:23:20.998Z</time></trkpt><trkpt lat="45.63916517494992" lon="8.585993528615838"><ele>311.66666666666663</ele><time>2026-04-11T10:23:21.998Z</time></trkpt><trkpt lat="45.63919460683433" lon="8.586096588934707"><ele>312.3333333333333</ele><time>2026-04-11T10:23:22.998Z</time></trkpt><trkpt lat="45.63922136302608" lon="8.586224533275912"><ele>313.0</ele><time>2026-04-11T10:23:24.998Z</time></trkpt><trkpt lat="45.63928788997097" lon="8.586258251741429"><ele>313.4</ele><time>2026-04-11T10:23:26.998Z</time></trkpt><trkpt lat="45.6393840152571" lon="8.586329441940554"><ele>313.8</ele><time>2026-04-11T10:23:29Z</time></trkpt><trkpt lat="45.639467057737555" lon="8.586439304314434"><ele>314.2</ele><time>2026-04-11T10:23:31Z</time></trkpt><trkpt lat="45.639490591175395" lon="8.586534957048928"><ele>314.6</ele><time>2026-04-11T10:23:32Z</time></trkpt><trkpt lat="45.63952664021009" lon="8.586651079907462"><ele>315.0</ele><time>2026-04-11T10:23:33Z</time></trkpt><trkpt lat="45.639573480223945" lon="8.586758325715962"><ele>314.1666666666667</ele><time>2026-04-11T10:23:34Z</time></trkpt><trkpt lat="45.639625236097565" lon="8.586863967509565"><ele>313.3333333333333</ele><time>2026-04-11T10:23:35Z</time></trkpt><trkpt lat="45.63967403644059" lon="8.586944324515814"><ele>312.5</ele><time>2026-04-11T10:23:36Z</time></trkpt><trkpt lat="45.639727912693374" lon="8.587014120235697"><ele>311.66666666666663</ele><time>2026-04-11T10:23:37Z</time></trkpt><trkpt lat="45.63978411098531" lon="8.587072397784796"><ele>310.8333333333333</ele><time>2026-04-11T10:23:38Z</time></trkpt><trkpt lat="45.63984334648855" lon="8.587221832935345"><ele>310.0</ele><time>2026-04-11T10:23:40Z</time></trkpt><trkpt lat="45.63986844037901" lon="8.587324858753519"><ele>310.0</ele><time>2026-04-11T10:23:41Z</time></trkpt><trkpt lat="45.639891922226184" lon="8.587442685661838"><ele>310.0</ele><time>2026-04-11T10:23:42Z</time></trkpt><trkpt lat="45.63990548811337" lon="8.587548603749601"><ele>310.0</ele><time>2026-04-11T10:23:43Z</time></trkpt><trkpt lat="45.63991912280521" lon="8.587663488794655"><ele>310.0</ele><time>2026-04-11T10:23:44Z</time></trkpt><trkpt lat="45.63994132391982" lon="8.5878119874157"><ele>310.0</ele><time>2026-04-11T10:23:45Z</time></trkpt><trkpt lat="45.639964014818574" lon="8.58797931926861"><ele>309.8</ele><time>2026-04-11T10:23:46Z</time></trkpt><trkpt lat="45.63997895808253" lon="8.58812005263603"><ele>309.6</ele><time>2026-04-11T10:23:47Z</time></trkpt><trkpt lat="45.64000511613911" lon="8.58829551297494"><ele>309.4</ele><time>2026-04-11T10:23:48Z</time></trkpt><trkpt lat="45.64002399137528" lon="8.588458674750791"><ele>309.2</ele><time>2026-04-11T10:23:49Z</time></trkpt><trkpt lat="45.64004511016874" lon="8.588600165530616"><ele>309.0</ele><time>2026-04-11T10:23:50Z</time></trkpt><trkpt lat="45.64006825676342" lon="8.58876712594891"><ele>308.75</ele><time>2026-04-11T10:23:51Z</time></trkpt><trkpt lat="45.64009560123354" lon="8.588945686261084"><ele>308.5</ele><time>2026-04-11T10:23:52Z</time></trkpt><trkpt lat="45.640126816461084" lon="8.58912245837297"><ele>308.25</ele><time>2026-04-11T10:23:53Z</time></trkpt><trkpt lat="45.64014920767012" lon="8.58927540735216"><ele>308.0</ele><time>2026-04-11T10:23:54Z</time></trkpt><trkpt lat="45.64017225228788" lon="8.58943042078448"><ele>307.8</ele><time>2026-04-11T10:23:55Z</time></trkpt><trkpt lat="45.64020214764377" lon="8.589588625287064"><ele>307.6</ele><time>2026-04-11T10:23:56Z</time></trkpt><trkpt lat="45.64022417780165" lon="8.589711130948931"><ele>307.4</ele><time>2026-04-11T10:23:57Z</time></trkpt><trkpt lat="45.64023679902159" lon="8.589819483566808"><ele>307.2</ele><time>2026-04-11T10:23:58Z</time></trkpt><trkpt lat="45.64025019010265" lon="8.589926728819263"><ele>307.0</ele><time>2026-04-11T10:23:59Z</time></trkpt><trkpt lat="45.64027548289918" lon="8.590060682569293"><ele>307.16666666666663</ele><time>2026-04-11T10:24:01Z</time></trkpt><trkpt lat="45.64036458705496" lon="8.590083485997663"><ele>307.3333333333333</ele><time>2026-04-11T10:24:03Z</time></trkpt><trkpt lat="45.64045571944099" lon="8.590046667054649"><ele>307.5</ele><time>2026-04-11T10:24:04Z</time></trkpt><trkpt lat="45.64054336062365" lon="8.590018189072754"><ele>307.6666666666667</ele><time>2026-04-11T10:24:05Z</time></trkpt><trkpt lat="45.640608368327854" lon="8.590014654245232"><ele>307.83333333333337</ele><time>2026-04-11T10:24:06Z</time></trkpt><trkpt lat="45.640619901473045" lon="8.590143270159386"><ele>308.0</ele><time>2026-04-11T10:24:08.999Z</time></trkpt><trkpt lat="45.640618674978974" lon="8.590288669474345"><ele>308.33333333333337</ele><time>2026-04-11T10:24:09.999Z</time></trkpt><trkpt lat="45.640633058016995" lon="8.590451531743268"><ele>308.6666666666667</ele><time>2026-04-11T10:24:10.999Z</time></trkpt><trkpt lat="45.640645637305056" lon="8.590594999288323"><ele>309.0</ele><time>2026-04-11T10:24:11.999Z</time></trkpt><trkpt lat="45.64065621102836" lon="8.590696749847462"><ele>309.3333333333333</ele><time>2026-04-11T10:24:12.999Z</time></trkpt><trkpt lat="45.64066601608338" lon="8.590795362388814"><ele>309.66666666666663</ele><time>2026-04-11T10:24:13.999Z</time></trkpt><trkpt lat="45.640672103843926" lon="8.590895263038865"><ele>310.0</ele><time>2026-04-11T10:24:14.999Z</time></trkpt><trkpt lat="45.64069490012002" lon="8.5910341879942"><ele>310.0</ele><time>2026-04-11T10:24:16.999Z</time></trkpt><trkpt lat="45.64059234280014" lon="8.591100461838801"><ele>310.0</ele><time>2026-04-11T10:24:20.999Z</time></trkpt><trkpt lat="45.64053829926095" lon="8.591162834107546"><ele>310.0</ele><time>2026-04-11T10:24:22.999Z</time></trkpt><trkpt lat="45.640450763067555" lon="8.591200149977134"><ele>310.0</ele><time>2026-04-11T10:24:25.999Z</time></trkpt><trkpt lat="45.64033693042686" lon="8.591216231581972"><ele>310.0</ele><time>2026-04-11T10:24:27.999Z</time></trkpt><trkpt lat="45.640242753867376" lon="8.59121508135521"><ele>309.8</ele><time>2026-04-11T10:24:29.999Z</time></trkpt><trkpt lat="45.64019132066078" lon="8.59127906152294"><ele>309.6</ele><time>2026-04-11T10:24:31.999Z</time></trkpt><trkpt lat="45.640162245173954" lon="8.591395998824582"><ele>309.4</ele><time>2026-04-11T10:24:33.999Z</time></trkpt><trkpt lat="45.64011918600864" lon="8.591484066450132"><ele>309.2</ele><time>2026-04-11T10:24:35.999Z</time></trkpt><trkpt lat="45.64010606975245" lon="8.59164698688642"><ele>309.0</ele><time>2026-04-11T10:24:38.999Z</time></trkpt><trkpt lat="45.64008060969925" lon="8.591794827559227"><ele>309.0</ele><time>2026-04-11T10:24:40.999Z</time></trkpt><trkpt lat="45.64004748678658" lon="8.591911272326284"><ele>309.0</ele><time>2026-04-11T10:24:42.999Z</time></trkpt><trkpt lat="45.64001956730355" lon="8.592008803483495"><ele>309.0</ele><time>2026-04-11T10:24:45.999Z</time></trkpt><trkpt lat="45.63999333027142" lon="8.592153719075599"><ele>309.0</ele><time>2026-04-11T10:24:50.999Z</time></trkpt><trkpt lat="45.63996837246869" lon="8.592264687740254"><ele>309.0</ele><time>2026-04-11T10:24:52.999Z</time></trkpt><trkpt lat="45.639961017360655" lon="8.592386091633637"><ele>309.0</ele><time>2026-04-11T10:24:54.999Z</time></trkpt><trkpt lat="45.639943652922284" lon="8.592514144682736"><ele>308.6666666666667</ele><time>2026-04-11T10:24:56.999Z</time></trkpt><trkpt lat="45.63999418416337" lon="8.592670833910917"><ele>308.3333333333333</ele><time>2026-04-11T10:24:58.999Z</time></trkpt><trkpt lat="45.640025495628336" lon="8.5927622271283"><ele>308.0</ele><time>2026-04-11T10:24:59.998Z</time></trkpt><trkpt lat="45.640054476264325" lon="8.592854754235399"><ele>307.66666666666663</ele><time>2026-04-11T10:25:00.998Z</time></trkpt><trkpt lat="45.640080441212184" lon="8.592953190065856"><ele>307.3333333333333</ele><time>2026-04-11T10:25:01.998Z</time></trkpt><trkpt lat="45.6401132882221" lon="8.593058841717012"><ele>307.0</ele><time>2026-04-11T10:25:02.998Z</time></trkpt><trkpt lat="45.64015298243074" lon="8.593150995526713"><ele>306.16666666666663</ele><time>2026-04-11T10:25:03.998Z</time></trkpt><trkpt lat="45.64018812137069" lon="8.59323198828594"><ele>305.3333333333333</ele><time>2026-04-11T10:25:04.998Z</time></trkpt><trkpt lat="45.640225840344534" lon="8.593311076616851"><ele>304.5</ele><time>2026-04-11T10:25:05.998Z</time></trkpt><trkpt lat="45.640268261169304" lon="8.593475153790472"><ele>303.6666666666667</ele><time>2026-04-11T10:25:07.998Z</time></trkpt><trkpt lat="45.64028658322639" lon="8.59358547104018"><ele>302.83333333333337</ele><time>2026-04-11T10:25:08.998Z</time></trkpt><trkpt lat="45.640316060294275" lon="8.593700602557323"><ele>302.0</ele><time>2026-04-11T10:25:09.998Z</time></trkpt><trkpt lat="45.640349969458505" lon="8.593802055438248"><ele>300.6666666666667</ele><time>2026-04-11T10:25:10.998Z</time></trkpt><trkpt lat="45.64039031031883" lon="8.593892930245822"><ele>299.33333333333337</ele><time>2026-04-11T10:25:11.998Z</time></trkpt><trkpt lat="45.640446123684875" lon="8.593967411212601"><ele>298.0</ele><time>2026-04-11T10:25:12.998Z</time></trkpt><trkpt lat="45.640533490025994" lon="8.594023554477356"><ele>296.6666666666667</ele><time>2026-04-11T10:25:14.998Z</time></trkpt><trkpt lat="45.64054414158754" lon="8.594120499933691"><ele>295.3333333333333</ele><time>2026-04-11T10:25:16.998Z</time></trkpt><trkpt lat="45.64047296386156" lon="8.594182376222514"><ele>294.0</ele><time>2026-04-11T10:25:18.998Z</time></trkpt><trkpt lat="45.6403664413539" lon="8.594132837940569"><ele>294.0</ele><time>2026-04-11T10:25:20.998Z</time></trkpt><trkpt lat="45.64038078823426" lon="8.594233512043921"><ele>294.0</ele><time>2026-04-11T10:25:40Z</time></trkpt><trkpt lat="45.64046156709589" lon="8.594212738751487"><ele>294.0</ele><time>2026-04-11T10:25:43Z</time></trkpt><trkpt lat="45.64052173448959" lon="8.59415213075528"><ele>294.0</ele><time>2026-04-11T10:25:46Z</time></trkpt><trkpt lat="45.640520700742826" lon="8.594004660224329"><ele>294.0</ele><time>2026-04-11T10:25:49Z</time></trkpt><trkpt lat="45.64046507093305" lon="8.593949564758308"><ele>294.0</ele><time>2026-04-11T10:25:50Z</time></trkpt><trkpt lat="45.64039966776161" lon="8.593894310456356"><ele>294.0</ele><time>2026-04-11T10:25:51Z</time></trkpt><trkpt lat="45.64032428909644" lon="8.593763450700228"><ele>294.0</ele><time>2026-04-11T10:25:53Z</time></trkpt><trkpt lat="45.640300585747845" lon="8.593667975421432"><ele>294.0</ele><time>2026-04-11T10:25:54Z</time></trkpt><trkpt lat="45.640269420381266" lon="8.593544101156224"><ele>294.0</ele><time>2026-04-11T10:25:55Z</time></trkpt><trkpt lat="45.640251617616705" lon="8.593442738187834"><ele>294.0</ele><time>2026-04-11T10:25:56Z</time></trkpt><trkpt lat="45.64023768804021" lon="8.593332164129588"><ele>294.0</ele><time>2026-04-11T10:25:58Z</time></trkpt><trkpt lat="45.640181547220685" lon="8.593256500744472"><ele>295.59999999999997</ele><time>2026-04-11T10:26:04.999Z</time></trkpt><trkpt lat="45.64013439314807" lon="8.593132123804597"><ele>297.2</ele><time>2026-04-11T10:26:06.999Z</time></trkpt><trkpt lat="45.640068602221156" lon="8.592966487692498"><ele>298.79999999999995</ele><time>2026-04-11T10:26:08.999Z</time></trkpt><trkpt lat="45.64004520215162" lon="8.592875254827888"><ele>300.4</ele><time>2026-04-11T10:26:09.999Z</time></trkpt><trkpt lat="45.64000685070215" lon="8.59276174766208"><ele>302.0</ele><time>2026-04-11T10:26:11.999Z</time></trkpt><trkpt lat="45.63998849321378" lon="8.592666199332132"><ele>302.0</ele><time>2026-04-11T10:26:13.999Z</time></trkpt><trkpt lat="45.64001374363094" lon="8.592761773344101"><ele>302.0</ele><time>2026-04-11T10:26:31.999Z</time></trkpt><trkpt lat="45.640070710991445" lon="8.592944809685545"><ele>302.0</ele><time>2026-04-11T10:26:33.999Z</time></trkpt><trkpt lat="45.64010764718981" lon="8.59305264371425"><ele>302.0</ele><time>2026-04-11T10:26:34.999Z</time></trkpt><trkpt lat="45.64015392384163" lon="8.593183547628527"><ele>302.0</ele><time>2026-04-11T10:26:35.999Z</time></trkpt><trkpt lat="45.64020190311728" lon="8.593286063257095"><ele>302.0</ele><time>2026-04-11T10:26:36.999Z</time></trkpt><trkpt lat="45.64024915019221" lon="8.593377732652373"><ele>302.0</ele><time>2026-04-11T10:26:37.999Z</time></trkpt><trkpt lat="45.64028562405149" lon="8.593537712028073"><ele>302.0</ele><time>2026-04-11T10:26:39.999Z</time></trkpt><trkpt lat="45.640304844216736" lon="8.593644863344021"><ele>302.0</ele><time>2026-04-11T10:26:40.999Z</time></trkpt><trkpt lat="45.64033414831927" lon="8.593735339902988"><ele>302.0</ele><time>2026-04-11T10:26:41.999Z</time></trkpt><trkpt lat="45.64037152243987" lon="8.593843134645361"><ele>302.0</ele><time>2026-04-11T10:26:42.999Z</time></trkpt><trkpt lat="45.640415424972346" lon="8.593942150547598"><ele>300.6666666666667</ele><time>2026-04-11T10:26:43.999Z</time></trkpt><trkpt lat="45.64047077058034" lon="8.594004740074636"><ele>299.33333333333337</ele><time>2026-04-11T10:26:44.999Z</time></trkpt><trkpt lat="45.640560111009016" lon="8.594048651701605"><ele>298.0</ele><time>2026-04-11T10:26:46.999Z</time></trkpt><trkpt lat="45.64054925942316" lon="8.59415859277971"><ele>296.6666666666667</ele><time>2026-04-11T10:26:48.999Z</time></trkpt><trkpt lat="45.64045664682412" lon="8.594169155697008"><ele>295.3333333333333</ele><time>2026-04-11T10:26:50.999Z</time></trkpt><trkpt lat="45.64037169297678" lon="8.594137285287589"><ele>294.0</ele><time>2026-04-11T10:26:51.999Z</time></trkpt><trkpt lat="45.640306606287375" lon="8.594197693750159"><ele>294.4</ele><time>2026-04-11T10:26:53.999Z</time></trkpt><trkpt lat="45.64027456003646" lon="8.594313890250493"><ele>294.79999999999995</ele><time>2026-04-11T10:26:54.999Z</time></trkpt><trkpt lat="45.640207004463676" lon="8.594435664903935"><ele>295.20000000000005</ele><time>2026-04-11T10:26:55.999Z</time></trkpt><trkpt lat="45.64011279604571" lon="8.594530222774"><ele>295.6</ele><time>2026-04-11T10:26:57.998Z</time></trkpt><trkpt lat="45.64002651045933" lon="8.59459655072756"><ele>296.0</ele><time>2026-04-11T10:26:58.998Z</time></trkpt><trkpt lat="45.63992985960462" lon="8.594640520976238"><ele>296.0</ele><time>2026-04-11T10:26:59.998Z</time></trkpt><trkpt lat="45.63983810798825" lon="8.594680671101875"><ele>296.0</ele><time>2026-04-11T10:27:00.998Z</time></trkpt><trkpt lat="45.639766972720025" lon="8.594727421152008"><ele>296.0</ele><time>2026-04-11T10:27:01.998Z</time></trkpt><trkpt lat="45.63969955884423" lon="8.594773753160675"><ele>296.0</ele><time>2026-04-11T10:27:02.998Z</time></trkpt><trkpt lat="45.63962440532617" lon="8.594760938262406"><ele>296.0</ele><time>2026-04-11T10:27:03.998Z</time></trkpt><trkpt lat="45.639549215858096" lon="8.594782051335237"><ele>296.0</ele><time>2026-04-11T10:27:04.998Z</time></trkpt><trkpt lat="45.63946472070994" lon="8.594819907935658"><ele>296.0</ele><time>2026-04-11T10:27:05.998Z</time></trkpt><trkpt lat="45.63941479067173" lon="8.594921013220228"><ele>296.0</ele><time>2026-04-11T10:27:07.998Z</time></trkpt><trkpt lat="45.63940452410783" lon="8.595026708605321"><ele>296.0</ele><time>2026-04-11T10:27:11.998Z</time></trkpt><trkpt lat="45.63933922456508" lon="8.59500465183906"><ele>296.0</ele><time>2026-04-11T10:27:15.998Z</time></trkpt><trkpt lat="45.63927818301882" lon="8.595069244642538"><ele>296.0</ele><time>2026-04-11T10:27:18.998Z</time></trkpt><trkpt lat="45.639259019430334" lon="8.595193066458982"><ele>296.0</ele><time>2026-04-11T10:27:19.998Z</time></trkpt><trkpt lat="45.63926366861585" lon="8.5952990592208"><ele>294.40000000000003</ele><time>2026-04-11T10:27:20.998Z</time></trkpt><trkpt lat="45.63917437876159" lon="8.595354480523808"><ele>292.8</ele><time>2026-04-11T10:27:22.998Z</time></trkpt><trkpt lat="45.63907458185243" lon="8.595381123801463"><ele>291.20000000000005</ele><time>2026-04-11T10:27:23.998Z</time></trkpt><trkpt lat="45.63897714173524" lon="8.59544667746725"><ele>289.6</ele><time>2026-04-11T10:27:24.998Z</time></trkpt><trkpt lat="45.63890945537396" lon="8.595523215326052"><ele>288.0</ele><time>2026-04-11T10:27:25.998Z</time></trkpt><trkpt lat="45.638815298558875" lon="8.595618465761714"><ele>288.0</ele><time>2026-04-11T10:27:26.998Z</time></trkpt><trkpt lat="45.638741276703115" lon="8.595684993665044"><ele>288.0</ele><time>2026-04-11T10:27:27.998Z</time></trkpt><trkpt lat="45.63868392264199" lon="8.59575883011526"><ele>288.0</ele><time>2026-04-11T10:27:28.998Z</time></trkpt><trkpt lat="45.638640550190985" lon="8.595955142502383"><ele>288.0</ele><time>2026-04-11T10:27:30.998Z</time></trkpt><trkpt lat="45.63859897817033" lon="8.59608604520685"><ele>288.0</ele><time>2026-04-11T10:27:31.998Z</time></trkpt><trkpt lat="45.63855882966065" lon="8.59621164351624"><ele>287.8333333333333</ele><time>2026-04-11T10:27:32.998Z</time></trkpt><trkpt lat="45.63853024223098" lon="8.596349620111468"><ele>287.6666666666667</ele><time>2026-04-11T10:27:33.998Z</time></trkpt><trkpt lat="45.63849609281826" lon="8.59645638675524"><ele>287.5</ele><time>2026-04-11T10:27:34.998Z</time></trkpt><trkpt lat="45.6384499147695" lon="8.59652154801735"><ele>287.33333333333337</ele><time>2026-04-11T10:27:35.998Z</time></trkpt><trkpt lat="45.63838741282367" lon="8.596560117039415"><ele>287.1666666666667</ele><time>2026-04-11T10:27:36.998Z</time></trkpt><trkpt lat="45.63832703941341" lon="8.596588656485922"><ele>287.0</ele><time>2026-04-11T10:27:37.998Z</time></trkpt><trkpt lat="45.6382414089657" lon="8.596641746088455"><ele>287.0</ele><time>2026-04-11T10:27:40Z</time></trkpt><trkpt lat="45.63815113955953" lon="8.596697658666393"><ele>287.0</ele><time>2026-04-11T10:27:54Z</time></trkpt><trkpt lat="45.63809091291977" lon="8.596748605729802"><ele>287.0</ele><time>2026-04-11T10:27:55Z</time></trkpt><trkpt lat="45.63802328040188" lon="8.596802089545022"><ele>287.0</ele><time>2026-04-11T10:27:56Z</time></trkpt><trkpt lat="45.63796248574055" lon="8.596854003808218"><ele>287.0</ele><time>2026-04-11T10:27:57Z</time></trkpt><trkpt lat="45.6378385364896" lon="8.596853498607189"><ele>287.0</ele><time>2026-04-11T10:27:59Z</time></trkpt><trkpt lat="45.637758129020256" lon="8.596796753427464"><ele>287.8</ele><time>2026-04-11T10:28:00Z</time></trkpt><trkpt lat="45.63766840212564" lon="8.596695597252427"><ele>288.6</ele><time>2026-04-11T10:28:01Z</time></trkpt><trkpt lat="45.637567000214176" lon="8.596593413815167"><ele>289.40000000000003</ele><time>2026-04-11T10:28:02Z</time></trkpt><trkpt lat="45.63747750498966" lon="8.596510407042995"><ele>290.2</ele><time>2026-04-11T10:28:03Z</time></trkpt><trkpt lat="45.637405928232944" lon="8.596450432809235"><ele>291.0</ele><time>2026-04-11T10:28:04Z</time></trkpt><trkpt lat="45.637333624008434" lon="8.596409442539565"><ele>291.0</ele><time>2026-04-11T10:28:04.999Z</time></trkpt><trkpt lat="45.63724354132583" lon="8.596386523824291"><ele>291.0</ele><time>2026-04-11T10:28:05.999Z</time></trkpt><trkpt lat="45.63711939323452" lon="8.596360810140208"><ele>291.0</ele><time>2026-04-11T10:28:06.999Z</time></trkpt><trkpt lat="45.63701060764688" lon="8.596337681458907"><ele>291.0</ele><time>2026-04-11T10:28:07.999Z</time></trkpt><trkpt lat="45.636931019913" lon="8.596296119653829"><ele>291.0</ele><time>2026-04-11T10:28:08.999Z</time></trkpt><trkpt lat="45.63687799568616" lon="8.596184044840875"><ele>293.0</ele><time>2026-04-11T10:28:10.999Z</time></trkpt><trkpt lat="45.6368859766444" lon="8.596061665595744"><ele>295.0</ele><time>2026-04-11T10:28:11.999Z</time></trkpt><trkpt lat="45.63689336689645" lon="8.595886457410346"><ele>297.0</ele><time>2026-04-11T10:28:12.999Z</time></trkpt><trkpt lat="45.63688578271997" lon="8.59568723497752"><ele>299.0</ele><time>2026-04-11T10:28:13.999Z</time></trkpt><trkpt lat="45.63688783646364" lon="8.595510627379742"><ele>299.0</ele><time>2026-04-11T10:28:14.999Z</time></trkpt><trkpt lat="45.636884753604775" lon="8.595388508010148"><ele>299.0</ele><time>2026-04-11T10:28:15.999Z</time></trkpt><trkpt lat="45.63688473138734" lon="8.595241910188987"><ele>299.0</ele><time>2026-04-11T10:28:16.999Z</time></trkpt><trkpt lat="45.636884186844874" lon="8.595079249285604"><ele>299.0</ele><time>2026-04-11T10:28:17.999Z</time></trkpt><trkpt lat="45.63689084387814" lon="8.594922906211115"><ele>299.0</ele><time>2026-04-11T10:28:18.999Z</time></trkpt><trkpt lat="45.63689624576512" lon="8.594782195890206"><ele>300.0</ele><time>2026-04-11T10:28:19.999Z</time></trkpt><trkpt lat="45.63690293449594" lon="8.594650727510507"><ele>301.0</ele><time>2026-04-11T10:28:20.999Z</time></trkpt><trkpt lat="45.6369081137741" lon="8.594541689539952"><ele>302.0</ele><time>2026-04-11T10:28:21.999Z</time></trkpt><trkpt lat="45.63690096005574" lon="8.594426956951095"><ele>303.0</ele><time>2026-04-11T10:28:22.999Z</time></trkpt><trkpt lat="45.636865132639365" lon="8.594307998654743"><ele>304.0</ele><time>2026-04-11T10:28:23.999Z</time></trkpt><trkpt lat="45.63682830131704" lon="8.594153770226635"><ele>304.25</ele><time>2026-04-11T10:28:24.999Z</time></trkpt><trkpt lat="45.636795279830906" lon="8.593993248034753"><ele>304.5</ele><time>2026-04-11T10:28:25.999Z</time></trkpt><trkpt lat="45.636762949333765" lon="8.593821807455875"><ele>304.75</ele><time>2026-04-11T10:28:26.999Z</time></trkpt><trkpt lat="45.63673909417981" lon="8.593654444603137"><ele>305.0</ele><time>2026-04-11T10:28:27.999Z</time></trkpt><trkpt lat="45.6367155887017" lon="8.59350839620409"><ele>305.0</ele><time>2026-04-11T10:28:28.999Z</time></trkpt><trkpt lat="45.63669605962884" lon="8.59338652866969"><ele>305.0</ele><time>2026-04-11T10:28:29.999Z</time></trkpt><trkpt lat="45.636658256668774" lon="8.59325723003635"><ele>305.0</ele><time>2026-04-11T10:28:31.999Z</time></trkpt><trkpt lat="45.636561775936975" lon="8.593251863438542"><ele>305.0</ele><time>2026-04-11T10:28:33.999Z</time></trkpt><trkpt lat="45.63645555746196" lon="8.59331574487998"><ele>305.0</ele><time>2026-04-11T10:28:35.999Z</time></trkpt><trkpt lat="45.63638568026059" lon="8.593384848297745"><ele>305.0</ele><time>2026-04-11T10:28:45.999Z</time></trkpt><trkpt lat="45.636315781466486" lon="8.59334855006896"><ele>305.0</ele><time>2026-04-11T10:28:47.999Z</time></trkpt><trkpt lat="45.63627596276448" lon="8.59323964571051"><ele>305.0</ele><time>2026-04-11T10:28:49.999Z</time></trkpt><trkpt lat="45.63625909641804" lon="8.593123885928318"><ele>305.0</ele><time>2026-04-11T10:28:50.999Z</time></trkpt><trkpt lat="45.63624960185182" lon="8.593010075039448"><ele>305.0</ele><time>2026-04-11T10:28:51.999Z</time></trkpt><trkpt lat="45.63624339469589" lon="8.592889064812177"><ele>305.0</ele><time>2026-04-11T10:28:52.999Z</time></trkpt><trkpt lat="45.636228849264405" lon="8.59277685289574"><ele>305.0</ele><time>2026-04-11T10:28:53.999Z</time></trkpt><trkpt lat="45.636207458484485" lon="8.592672748408344"><ele>305.0</ele><time>2026-04-11T10:28:54.999Z</time></trkpt><trkpt lat="45.636190871620926" lon="8.59255799299239"><ele>305.0</ele><time>2026-04-11T10:28:55.999Z</time></trkpt><trkpt lat="45.636168557039184" lon="8.592434528823473"><ele>305.0</ele><time>2026-04-11T10:28:56.999Z</time></trkpt><trkpt lat="45.6361468653929" lon="8.592337965652503"><ele>305.0</ele><time>2026-04-11T10:28:57.999Z</time></trkpt><trkpt lat="45.636074606576294" lon="8.59224904144651"><ele>305.0</ele><time>2026-04-11T10:28:59.999Z</time></trkpt><trkpt lat="45.63600401808104" lon="8.592259108798986"><ele>304.6</ele><time>2026-04-11T10:29:01.998Z</time></trkpt><trkpt lat="45.63594015041531" lon="8.592258528923248"><ele>304.2</ele><time>2026-04-11T10:29:02.998Z</time></trkpt><trkpt lat="45.63584439588091" lon="8.592279688876088"><ele>303.8</ele><time>2026-04-11T10:29:03.998Z</time></trkpt><trkpt lat="45.635735052164016" lon="8.592316666426045"><ele>303.4</ele><time>2026-04-11T10:29:04.998Z</time></trkpt><trkpt lat="45.63557320343827" lon="8.592372628673543"><ele>303.0</ele><time>2026-04-11T10:29:05.998Z</time></trkpt><trkpt lat="45.635392982447065" lon="8.592410104375826"><ele>302.6666666666667</ele><time>2026-04-11T10:29:06.998Z</time></trkpt><trkpt lat="45.63521501059065" lon="8.592463353647442"><ele>302.33333333333337</ele><time>2026-04-11T10:29:07.998Z</time></trkpt><trkpt lat="45.635054147370475" lon="8.592511818270118"><ele>302.0</ele><time>2026-04-11T10:29:08.998Z</time></trkpt><trkpt lat="45.63487475468669" lon="8.592574963961964"><ele>302.0</ele><time>2026-04-11T10:29:09.998Z</time></trkpt><trkpt lat="45.63471358437728" lon="8.592649081137305"><ele>302.0</ele><time>2026-04-11T10:29:10.998Z</time></trkpt><trkpt lat="45.63456023661289" lon="8.592678407851368"><ele>302.0</ele><time>2026-04-11T10:29:11.998Z</time></trkpt><trkpt lat="45.63439722738324" lon="8.592721815435054"><ele>302.6666666666667</ele><time>2026-04-11T10:29:12.998Z</time></trkpt><trkpt lat="45.63419144452756" lon="8.592744006818934"><ele>303.3333333333333</ele><time>2026-04-11T10:29:13.998Z</time></trkpt><trkpt lat="45.63401664539169" lon="8.592808733836776"><ele>304.0</ele><time>2026-04-11T10:29:14.998Z</time></trkpt><trkpt lat="45.633852837572164" lon="8.592827233772312"><ele>304.0</ele><time>2026-04-11T10:29:15.998Z</time></trkpt><trkpt lat="45.63372644332823" lon="8.592855208027993"><ele>304.0</ele><time>2026-04-11T10:29:16.998Z</time></trkpt><trkpt lat="45.633602845449175" lon="8.592883675800943"><ele>304.0</ele><time>2026-04-11T10:29:17.998Z</time></trkpt><trkpt lat="45.63349176603844" lon="8.592933542039209"><ele>304.0</ele><time>2026-04-11T10:29:18.998Z</time></trkpt><trkpt lat="45.63337980764995" lon="8.592936771661206"><ele>303.4</ele><time>2026-04-11T10:29:19.998Z</time></trkpt><trkpt lat="45.63328367405741" lon="8.59298306013917"><ele>302.79999999999995</ele><time>2026-04-11T10:29:20.998Z</time></trkpt><trkpt lat="45.633198065597526" lon="8.59300401724513"><ele>302.20000000000005</ele><time>2026-04-11T10:29:21.998Z</time></trkpt><trkpt lat="45.63312118521653" lon="8.593021020992774"><ele>301.6</ele><time>2026-04-11T10:29:22.998Z</time></trkpt><trkpt lat="45.633046799333194" lon="8.593034158495534"><ele>301.0</ele><time>2026-04-11T10:29:24.998Z</time></trkpt><trkpt lat="45.63304970569776" lon="8.59319165562493"><ele>301.0</ele><time>2026-04-11T10:29:26.998Z</time></trkpt><trkpt lat="45.633080181505036" lon="8.593285509035763"><ele>301.0</ele><time>2026-04-11T10:29:27.998Z</time></trkpt><trkpt lat="45.63311719708351" lon="8.593440085977322"><ele>301.0</ele><time>2026-04-11T10:29:28.998Z</time></trkpt><trkpt lat="45.63314930933538" lon="8.593630522274342"><ele>301.0</ele><time>2026-04-11T10:29:29.998Z</time></trkpt><trkpt lat="45.633185158596426" lon="8.593840066882315"><ele>301.75</ele><time>2026-04-11T10:29:30.998Z</time></trkpt><trkpt lat="45.63322336531618" lon="8.59404486833621"><ele>302.5</ele><time>2026-04-11T10:29:31.998Z</time></trkpt><trkpt lat="45.63325748488658" lon="8.594250573981054"><ele>303.25</ele><time>2026-04-11T10:29:32.998Z</time></trkpt><trkpt lat="45.63328426030071" lon="8.594416635376286"><ele>304.0</ele><time>2026-04-11T10:29:33.998Z</time></trkpt><trkpt lat="45.63330727521016" lon="8.594569415817242"><ele>304.16666666666663</ele><time>2026-04-11T10:29:34.998Z</time></trkpt><trkpt lat="45.63333019892292" lon="8.594707492460296"><ele>304.3333333333333</ele><time>2026-04-11T10:29:35.998Z</time></trkpt><trkpt lat="45.63335106593882" lon="8.594828349497645"><ele>304.5</ele><time>2026-04-11T10:29:36.998Z</time></trkpt><trkpt lat="45.63336794728385" lon="8.594920520860052"><ele>304.6666666666667</ele><time>2026-04-11T10:29:37.998Z</time></trkpt><trkpt lat="45.633320413644824" lon="8.595036321712865"><ele>304.83333333333337</ele><time>2026-04-11T10:29:39.998Z</time></trkpt><trkpt lat="45.63323333921403" lon="8.59507193866196"><ele>305.0</ele><time>2026-04-11T10:29:41.998Z</time></trkpt><trkpt lat="45.63316596680618" lon="8.59513263606242"><ele>305.0</ele><time>2026-04-11T10:29:45Z</time></trkpt><trkpt lat="45.63308788296161" lon="8.595206766766488"><ele>305.0</ele><time>2026-04-11T10:29:48Z</time></trkpt><trkpt lat="45.63303030600693" lon="8.595265575513352"><ele>305.0</ele><time>2026-04-11T10:29:50Z</time></trkpt><trkpt lat="45.63297109964296" lon="8.595325118477236"><ele>305.0</ele><time>2026-04-11T10:29:52Z</time></trkpt><trkpt lat="45.63291130589753" lon="8.595382951070713"><ele>305.0</ele><time>2026-04-11T10:29:54Z</time></trkpt><trkpt lat="45.63286176783637" lon="8.595443991644114"><ele>305.0</ele><time>2026-04-11T10:29:56Z</time></trkpt><trkpt lat="45.63280418976796" lon="8.59550795341901"><ele>305.0</ele><time>2026-04-11T10:29:58Z</time></trkpt><trkpt lat="45.6327467331106" lon="8.595556106637721"><ele>303.2</ele><time>2026-04-11T10:30:00Z</time></trkpt><trkpt lat="45.63267516409715" lon="8.595625204637825"><ele>301.4</ele><time>2026-04-11T10:30:02Z</time></trkpt><trkpt lat="45.632578152160704" lon="8.595725073445728"><ele>299.6</ele><time>2026-04-11T10:30:04Z</time></trkpt><trkpt lat="45.63247660311755" lon="8.595824802654299"><ele>297.8</ele><time>2026-04-11T10:30:05.999Z</time></trkpt><trkpt lat="45.63241729123182" lon="8.595882798991111"><ele>296.0</ele><time>2026-04-11T10:30:06.999Z</time></trkpt><trkpt lat="45.63236345431635" lon="8.595935852569832"><ele>296.0</ele><time>2026-04-11T10:30:07.999Z</time></trkpt><trkpt lat="45.63230348566856" lon="8.595992900758704"><ele>296.0</ele><time>2026-04-11T10:30:08.999Z</time></trkpt><trkpt lat="45.63224088819159" lon="8.596053867142874"><ele>296.0</ele><time>2026-04-11T10:30:09.999Z</time></trkpt><trkpt lat="45.63217595423254" lon="8.596122511597173"><ele>296.0</ele><time>2026-04-11T10:30:10.999Z</time></trkpt><trkpt lat="45.63210791003753" lon="8.596191692141652"><ele>296.0</ele><time>2026-04-11T10:30:11.999Z</time></trkpt><trkpt lat="45.63202708299012" lon="8.596271390074858"><ele>296.0</ele><time>2026-04-11T10:30:12.999Z</time></trkpt><trkpt lat="45.63195413279947" lon="8.596340208597507"><ele>295.2</ele><time>2026-04-11T10:30:13.999Z</time></trkpt><trkpt lat="45.63188191167711" lon="8.596409871386857"><ele>294.40000000000003</ele><time>2026-04-11T10:30:14.999Z</time></trkpt><trkpt lat="45.63180343031004" lon="8.596489556689948"><ele>293.6</ele><time>2026-04-11T10:30:15.999Z</time></trkpt><trkpt lat="45.63172406615437" lon="8.596553430355849"><ele>292.8</ele><time>2026-04-11T10:30:16.999Z</time></trkpt><trkpt lat="45.631639800101325" lon="8.596613479989395"><ele>292.0</ele><time>2026-04-11T10:30:17.999Z</time></trkpt><trkpt lat="45.6315483258315" lon="8.59666268757137"><ele>292.0</ele><time>2026-04-11T10:30:18.999Z</time></trkpt><trkpt lat="45.63145566233478" lon="8.59670259117646"><ele>292.0</ele><time>2026-04-11T10:30:19.999Z</time></trkpt><trkpt lat="45.63137347367878" lon="8.59674058683065"><ele>292.0</ele><time>2026-04-11T10:30:20.999Z</time></trkpt><trkpt lat="45.63128634872196" lon="8.596778818723227"><ele>292.0</ele><time>2026-04-11T10:30:21.999Z</time></trkpt><trkpt lat="45.63119423090891" lon="8.596822704874025"><ele>292.0</ele><time>2026-04-11T10:30:22.999Z</time></trkpt><trkpt lat="45.63110315845413" lon="8.596865001199296"><ele>292.0</ele><time>2026-04-11T10:30:23.999Z</time></trkpt><trkpt lat="45.6310098912104" lon="8.59690681600325"><ele>292.0</ele><time>2026-04-11T10:30:24.999Z</time></trkpt><trkpt lat="45.63091989801328" lon="8.596948420486157"><ele>292.0</ele><time>2026-04-11T10:30:25.999Z</time></trkpt><trkpt lat="45.6308397109365" lon="8.596996177110288"><ele>292.0</ele><time>2026-04-11T10:30:26.999Z</time></trkpt><trkpt lat="45.63075859333235" lon="8.597039931912613"><ele>292.0</ele><time>2026-04-11T10:30:27.999Z</time></trkpt><trkpt lat="45.63066936418917" lon="8.597064207782292"><ele>292.6</ele><time>2026-04-11T10:30:28.999Z</time></trkpt><trkpt lat="45.63057000686247" lon="8.59711425258925"><ele>293.2</ele><time>2026-04-11T10:30:29.999Z</time></trkpt><trkpt lat="45.630492536262544" lon="8.597167204441073"><ele>293.8</ele><time>2026-04-11T10:30:30.999Z</time></trkpt><trkpt lat="45.630432385658764" lon="8.597200227879307"><ele>294.4</ele><time>2026-04-11T10:30:31.999Z</time></trkpt><trkpt lat="45.63036830401107" lon="8.597213438586042"><ele>295.0</ele><time>2026-04-11T10:30:33.999Z</time></trkpt><trkpt lat="45.63047930449304" lon="8.597555177194424"><ele>295.0</ele><time>2026-04-11T10:30:35.999Z</time></trkpt><trkpt lat="45.630521542591566" lon="8.597675814996537"><ele>295.0</ele><time>2026-04-11T10:30:36.999Z</time></trkpt><trkpt lat="45.63054713649698" lon="8.597780689094844"><ele>295.0</ele><time>2026-04-11T10:30:37.999Z</time></trkpt><trkpt lat="45.630590258583624" lon="8.59788310846988"><ele>295.0</ele><time>2026-04-11T10:30:39.999Z</time></trkpt><trkpt lat="45.63063095601256" lon="8.598038508772227"><ele>295.0</ele><time>2026-04-11T10:30:41.999Z</time></trkpt><trkpt lat="45.63066697568536" lon="8.59813241015852"><ele>295.0</ele><time>2026-04-11T10:30:42.999Z</time></trkpt><trkpt lat="45.630699943849066" lon="8.598302489722897"><ele>294.4</ele><time>2026-04-11T10:30:44.999Z</time></trkpt><trkpt lat="45.630724532387745" lon="8.598435599129312"><ele>293.8</ele><time>2026-04-11T10:30:46.999Z</time></trkpt><trkpt lat="45.630784319898595" lon="8.598546021839326"><ele>293.2</ele><time>2026-04-11T10:30:48.999Z</time></trkpt><trkpt lat="45.63088150688951" lon="8.598597330913568"><ele>292.6</ele><time>2026-04-11T10:30:50.999Z</time></trkpt><trkpt lat="45.630909256973645" lon="8.598739470730422"><ele>292.0</ele><time>2026-04-11T10:30:52.999Z</time></trkpt><trkpt lat="45.63086610135626" lon="8.598824720655026"><ele>290.0</ele><time>2026-04-11T10:30:53.999Z</time></trkpt><trkpt lat="45.63080541079808" lon="8.598896240079945"><ele>288.0</ele><time>2026-04-11T10:30:54.999Z</time></trkpt><trkpt lat="45.630759996394524" lon="8.598986357730116"><ele>286.0</ele><time>2026-04-11T10:30:55.999Z</time></trkpt><trkpt lat="45.630752119956625" lon="8.599095679078326"><ele>284.0</ele><time>2026-04-11T10:30:56.999Z</time></trkpt><trkpt lat="45.63070975813488" lon="8.599218580455588"><ele>282.0</ele><time>2026-04-11T10:30:58.999Z</time></trkpt><trkpt lat="45.63075228939366" lon="8.599293131370128"><ele>280.0</ele><time>2026-04-11T10:30:59.999Z</time></trkpt><trkpt lat="45.63087185118597" lon="8.599319266237272"><ele>280.0</ele><time>2026-04-11T10:31:01.999Z</time></trkpt><trkpt lat="45.630954646096306" lon="8.59930907575035"><ele>280.0</ele><time>2026-04-11T10:31:02.999Z</time></trkpt><trkpt lat="45.63102215377351" lon="8.599326718939956"><ele>280.0</ele><time>2026-04-11T10:31:03.999Z</time></trkpt><trkpt lat="45.63110571003801" lon="8.599391525845666"><ele>280.0</ele><time>2026-04-11T10:31:05.999Z</time></trkpt><trkpt lat="45.63118583104265" lon="8.599469353515538"><ele>280.0</ele><time>2026-04-11T10:31:07.998Z</time></trkpt><trkpt lat="45.631237716219175" lon="8.599524120133067"><ele>280.0</ele><time>2026-04-11T10:31:08.998Z</time></trkpt><trkpt lat="45.63123302928617" lon="8.599677959784893"><ele>278.16666666666663</ele><time>2026-04-11T10:31:10.998Z</time></trkpt><trkpt lat="45.6313062465127" lon="8.59977447365692"><ele>276.3333333333333</ele><time>2026-04-11T10:31:13.998Z</time></trkpt><trkpt lat="45.6313691254242" lon="8.599830689799102"><ele>274.5</ele><time>2026-04-11T10:31:14.998Z</time></trkpt><trkpt lat="45.63145348900142" lon="8.599860183902493"><ele>272.6666666666667</ele><time>2026-04-11T10:31:15.998Z</time></trkpt><trkpt lat="45.6315401959848" lon="8.59987374717538"><ele>270.83333333333337</ele><time>2026-04-11T10:31:16.998Z</time></trkpt><trkpt lat="45.63161733634942" lon="8.599955849601107"><ele>269.0</ele><time>2026-04-11T10:31:17.998Z</time></trkpt><trkpt lat="45.631705221154164" lon="8.600029392148256"><ele>269.0</ele><time>2026-04-11T10:31:18.998Z</time></trkpt><trkpt lat="45.63180799111799" lon="8.600083667193026"><ele>269.0</ele><time>2026-04-11T10:31:19.998Z</time></trkpt><trkpt lat="45.63189199440844" lon="8.600175853211589"><ele>269.0</ele><time>2026-04-11T10:31:20.998Z</time></trkpt><trkpt lat="45.6319629876532" lon="8.600235758616035"><ele>269.0</ele><time>2026-04-11T10:31:21.998Z</time></trkpt><trkpt lat="45.63202883651026" lon="8.600280855933805"><ele>269.0</ele><time>2026-04-11T10:31:22.998Z</time></trkpt><trkpt lat="45.63209529740702" lon="8.600302868327299"><ele>269.0</ele><time>2026-04-11T10:31:23.998Z</time></trkpt><trkpt lat="45.63218503086986" lon="8.600372020312845"><ele>269.75</ele><time>2026-04-11T10:31:25.998Z</time></trkpt><trkpt lat="45.632219237006794" lon="8.600506009650351"><ele>270.5</ele><time>2026-04-11T10:31:27.998Z</time></trkpt><trkpt lat="45.63221968844895" lon="8.600648067642975"><ele>271.25</ele><time>2026-04-11T10:31:28.998Z</time></trkpt><trkpt lat="45.63222432882367" lon="8.600844922053895"><ele>272.0</ele><time>2026-04-11T10:31:29.998Z</time></trkpt><trkpt lat="45.63224544982726" lon="8.601084359190793"><ele>272.4</ele><time>2026-04-11T10:31:30.998Z</time></trkpt><trkpt lat="45.63226206042958" lon="8.601268822484796"><ele>272.79999999999995</ele><time>2026-04-11T10:31:31.998Z</time></trkpt><trkpt lat="45.632266044118936" lon="8.601402246058107"><ele>273.2</ele><time>2026-04-11T10:31:32.998Z</time></trkpt><trkpt lat="45.63229667176636" lon="8.601490341728365"><ele>273.59999999999997</ele><time>2026-04-11T10:31:33.998Z</time></trkpt><trkpt lat="45.63235896561413" lon="8.60159456595476"><ele>274.0</ele><time>2026-04-11T10:31:35.998Z</time></trkpt><trkpt lat="45.63243970148009" lon="8.601599934740612"><ele>274.0</ele><time>2026-04-11T10:31:36.998Z</time></trkpt><trkpt lat="45.632579903020535" lon="8.601547142870315"><ele>274.0</ele><time>2026-04-11T10:31:37.998Z</time></trkpt><trkpt lat="45.632713035478716" lon="8.60152245101334"><ele>274.0</ele><time>2026-04-11T10:31:38.998Z</time></trkpt><trkpt lat="45.63286452567402" lon="8.601491273758212"><ele>274.0</ele><time>2026-04-11T10:31:39.998Z</time></trkpt><trkpt lat="45.633056873496265" lon="8.601453579957436"><ele>275.3333333333333</ele><time>2026-04-11T10:31:40.998Z</time></trkpt><trkpt lat="45.63325544302568" lon="8.601401377339206"><ele>276.6666666666667</ele><time>2026-04-11T10:31:41.998Z</time></trkpt><trkpt lat="45.63341545669387" lon="8.601396012455208"><ele>278.0</ele><time>2026-04-11T10:31:42.998Z</time></trkpt><trkpt lat="45.6335270751771" lon="8.60137928951956"><ele>278.0</ele><time>2026-04-11T10:31:43.998Z</time></trkpt><trkpt lat="45.633612599919836" lon="8.601368684880143"><ele>278.0</ele><time>2026-04-11T10:31:44.998Z</time></trkpt><trkpt lat="45.633675679603314" lon="8.601343468910976"><ele>278.0</ele><time>2026-04-11T10:31:45.998Z</time></trkpt><trkpt lat="45.63371868102256" lon="8.601414669451414"><ele>278.0</ele><time>2026-04-11T10:31:47.998Z</time></trkpt><trkpt lat="45.633696473642985" lon="8.601499097280175"><ele>278.0</ele><time>2026-04-11T10:31:50.999Z</time></trkpt><trkpt lat="45.63366611095482" lon="8.601584381111145"><ele>278.0</ele><time>2026-04-11T10:31:52.999Z</time></trkpt><trkpt lat="45.63369134549657" lon="8.601729110420022"><ele>279.2</ele><time>2026-04-11T10:31:54.999Z</time></trkpt><trkpt lat="45.63374682379612" lon="8.601782040568906"><ele>280.4</ele><time>2026-04-11T10:31:55.999Z</time></trkpt><trkpt lat="45.633840384432744" lon="8.60180094807279"><ele>281.59999999999997</ele><time>2026-04-11T10:31:56.999Z</time></trkpt><trkpt lat="45.6339719561345" lon="8.601820082665117"><ele>282.8</ele><time>2026-04-11T10:31:57.999Z</time></trkpt><trkpt lat="45.63410122107407" lon="8.601836650535072"><ele>284.0</ele><time>2026-04-11T10:31:58.999Z</time></trkpt><trkpt lat="45.63419647894946" lon="8.601866557143222"><ele>284.0</ele><time>2026-04-11T10:31:59.999Z</time></trkpt><trkpt lat="45.63426782772655" lon="8.601930150558392"><ele>284.0</ele><time>2026-04-11T10:32:00.999Z</time></trkpt><trkpt lat="45.634313571487915" lon="8.602027058086263"><ele>284.0</ele><time>2026-04-11T10:32:01.999Z</time></trkpt><trkpt lat="45.63434122239833" lon="8.602120106741507"><ele>284.0</ele><time>2026-04-11T10:32:02.999Z</time></trkpt><trkpt lat="45.63432588380472" lon="8.602266788393452"><ele>284.0</ele><time>2026-04-11T10:32:03.999Z</time></trkpt><trkpt lat="45.63431210949952" lon="8.6024459195443"><ele>284.0</ele><time>2026-04-11T10:32:04.999Z</time></trkpt><trkpt lat="45.6343203263776" lon="8.602677396919631"><ele>284.0</ele><time>2026-04-11T10:32:05.999Z</time></trkpt><trkpt lat="45.63430699994798" lon="8.602962665938632"><ele>284.0</ele><time>2026-04-11T10:32:06.999Z</time></trkpt><trkpt lat="45.63429234854105" lon="8.603238618465781"><ele>284.59999999999997</ele><time>2026-04-11T10:32:07.999Z</time></trkpt><trkpt lat="45.63428538251372" lon="8.60346437767989"><ele>285.2</ele><time>2026-04-11T10:32:08.999Z</time></trkpt><trkpt lat="45.63428759649167" lon="8.603625500445029"><ele>285.79999999999995</ele><time>2026-04-11T10:32:09.999Z</time></trkpt><trkpt lat="45.634300504848454" lon="8.603744443210429"><ele>286.4</ele><time>2026-04-11T10:32:10.999Z</time></trkpt><trkpt lat="45.6343112753666" lon="8.603837585641793"><ele>287.0</ele><time>2026-04-11T10:32:11.999Z</time></trkpt><trkpt lat="45.63420354377755" lon="8.60382222681834"><ele>287.0</ele><time>2026-04-11T10:32:14.999Z</time></trkpt><trkpt lat="45.63407619199724" lon="8.603764891554293"><ele>287.0</ele><time>2026-04-11T10:32:15.999Z</time></trkpt><trkpt lat="45.63393619333456" lon="8.603719358481523"><ele>287.0</ele><time>2026-04-11T10:32:16.999Z</time></trkpt><trkpt lat="45.6337872597744" lon="8.60367851435564"><ele>287.0</ele><time>2026-04-11T10:32:17.999Z</time></trkpt><trkpt lat="45.6336473255111" lon="8.603635121318002"><ele>286.5</ele><time>2026-04-11T10:32:18.999Z</time></trkpt><trkpt lat="45.63352296055997" lon="8.603595027107621"><ele>286.0</ele><time>2026-04-11T10:32:19.999Z</time></trkpt><trkpt lat="45.63340534307214" lon="8.603548351984712"><ele>285.5</ele><time>2026-04-11T10:32:20.999Z</time></trkpt><trkpt lat="45.633298376806636" lon="8.603507815687054"><ele>285.0</ele><time>2026-04-11T10:32:21.999Z</time></trkpt><trkpt lat="45.633200058740314" lon="8.603474153384736"><ele>285.0</ele><time>2026-04-11T10:32:22.999Z</time></trkpt><trkpt lat="45.63309049669609" lon="8.603445013105729"><ele>285.0</ele><time>2026-04-11T10:32:23.999Z</time></trkpt><trkpt lat="45.632986040861866" lon="8.603413356906106"><ele>285.0</ele><time>2026-04-11T10:32:24.999Z</time></trkpt><trkpt lat="45.63288607757803" lon="8.603372562355755"><ele>285.0</ele><time>2026-04-11T10:32:25.999Z</time></trkpt><trkpt lat="45.63278961088809" lon="8.603329099179211"><ele>285.0</ele><time>2026-04-11T10:32:26.999Z</time></trkpt><trkpt lat="45.63270575781971" lon="8.603285919343367"><ele>284.0</ele><time>2026-04-11T10:32:27.999Z</time></trkpt><trkpt lat="45.632602535006036" lon="8.603239471239998"><ele>283.0</ele><time>2026-04-11T10:32:28.999Z</time></trkpt><trkpt lat="45.63250178190257" lon="8.60321068304114"><ele>282.0</ele><time>2026-04-11T10:32:29.999Z</time></trkpt><trkpt lat="45.63239233073147" lon="8.603207319388677"><ele>281.0</ele><time>2026-04-11T10:32:30.999Z</time></trkpt><trkpt lat="45.63228901914084" lon="8.603204638733851"><ele>280.0</ele><time>2026-04-11T10:32:31.999Z</time></trkpt><trkpt lat="45.63218490811086" lon="8.603196843360713"><ele>280.0</ele><time>2026-04-11T10:32:32.999Z</time></trkpt><trkpt lat="45.63208164593677" lon="8.603166679653414"><ele>280.0</ele><time>2026-04-11T10:32:33.999Z</time></trkpt><trkpt lat="45.63195129375583" lon="8.603148540208258"><ele>280.0</ele><time>2026-04-11T10:32:34.999Z</time></trkpt><trkpt lat="45.6318142139478" lon="8.603138270180917"><ele>280.0</ele><time>2026-04-11T10:32:35.999Z</time></trkpt><trkpt lat="45.63170468432511" lon="8.603139560237034"><ele>279.8333333333333</ele><time>2026-04-11T10:32:36.999Z</time></trkpt><trkpt lat="45.63160392761103" lon="8.603126356074151"><ele>279.66666666666663</ele><time>2026-04-11T10:32:37.999Z</time></trkpt><trkpt lat="45.63152780502694" lon="8.603111343226677"><ele>279.5</ele><time>2026-04-11T10:32:38.999Z</time></trkpt><trkpt lat="45.63145964784368" lon="8.603088328968711"><ele>279.3333333333333</ele><time>2026-04-11T10:32:39.999Z</time></trkpt><trkpt lat="45.63139480715892" lon="8.603073165381655"><ele>279.1666666666667</ele><time>2026-04-11T10:32:40.999Z</time></trkpt><trkpt lat="45.63127914213638" lon="8.603063934141158"><ele>279.0</ele><time>2026-04-11T10:32:42.999Z</time></trkpt><trkpt lat="45.63115662474765" lon="8.603056854188885"><ele>278.5</ele><time>2026-04-11T10:32:44.999Z</time></trkpt><trkpt lat="45.63104368625487" lon="8.603055747334986"><ele>278.0</ele><time>2026-04-11T10:32:46.999Z</time></trkpt><trkpt lat="45.63099848559933" lon="8.603145369030036"><ele>277.5</ele><time>2026-04-11T10:32:49.999Z</time></trkpt><trkpt lat="45.63100342616945" lon="8.60324459401209"><ele>277.0</ele><time>2026-04-11T10:32:50.999Z</time></trkpt><trkpt lat="45.63101643094854" lon="8.603398576970456"><ele>276.5</ele><time>2026-04-11T10:32:51.999Z</time></trkpt><trkpt lat="45.631030384999605" lon="8.603491381029464"><ele>276.0</ele><time>2026-04-11T10:32:52.999Z</time></trkpt><trkpt lat="45.63106332838994" lon="8.603571718124174"><ele>276.0</ele><time>2026-04-11T10:32:53.999Z</time></trkpt><trkpt lat="45.63110852709856" lon="8.60365532876786"><ele>276.0</ele><time>2026-04-11T10:32:55.999Z</time></trkpt><trkpt lat="45.630993762861564" lon="8.603665033856672"><ele>276.0</ele><time>2026-04-11T10:32:58.999Z</time></trkpt><trkpt lat="45.63087202823832" lon="8.603609076844643"><ele>276.0</ele><time>2026-04-11T10:32:59.999Z</time></trkpt><trkpt lat="45.63073312861089" lon="8.603586850765865"><ele>276.0</ele><time>2026-04-11T10:33:00.999Z</time></trkpt><trkpt lat="45.63057401250202" lon="8.603582484321784"><ele>276.0</ele><time>2026-04-11T10:33:01.999Z</time></trkpt><trkpt lat="45.6304351004927" lon="8.60357927821572"><ele>276.0</ele><time>2026-04-11T10:33:02.999Z</time></trkpt><trkpt lat="45.63031475678585" lon="8.603577396380999"><ele>276.0</ele><time>2026-04-11T10:33:03.999Z</time></trkpt><trkpt lat="45.63020370960339" lon="8.603569953620761"><ele>276.0</ele><time>2026-04-11T10:33:04.999Z</time></trkpt><trkpt lat="45.63011642098466" lon="8.603557109690184"><ele>276.0</ele><time>2026-04-11T10:33:05.999Z</time></trkpt><trkpt lat="45.630018394716444" lon="8.603623879672584"><ele>276.0</ele><time>2026-04-11T10:33:07.999Z</time></trkpt><trkpt lat="45.62995380097024" lon="8.603733290968098"><ele>276.0</ele><time>2026-04-11T10:33:09.998Z</time></trkpt><trkpt lat="45.629987779055064" lon="8.603917230245163"><ele>276.0</ele><time>2026-04-11T10:33:11.998Z</time></trkpt><trkpt lat="45.630035249661084" lon="8.60409101367338"><ele>276.0</ele><time>2026-04-11T10:33:12.998Z</time></trkpt><trkpt lat="45.63007252208188" lon="8.604251065755614"><ele>276.0</ele><time>2026-04-11T10:33:13.998Z</time></trkpt><trkpt lat="45.63010097768102" lon="8.604385336583995"><ele>276.0</ele><time>2026-04-11T10:33:15.998Z</time></trkpt><trkpt lat="45.6301552847488" lon="8.604457355529116"><ele>276.0</ele><time>2026-04-11T10:33:16.998Z</time></trkpt><trkpt lat="45.630248261852216" lon="8.60456420900078"><ele>276.0</ele><time>2026-04-11T10:33:17.998Z</time></trkpt><trkpt lat="45.630318017993666" lon="8.604660837037414"><ele>278.6666666666667</ele><time>2026-04-11T10:33:18.998Z</time></trkpt><trkpt lat="45.630368777598065" lon="8.604858496257252"><ele>281.33333333333337</ele><time>2026-04-11T10:33:20.998Z</time></trkpt><trkpt lat="45.63052261437166" lon="8.605062008171162"><ele>284.0</ele><time>2026-04-11T10:33:21.998Z</time></trkpt><trkpt lat="45.630590905818224" lon="8.605183796800736"><ele>284.0</ele><time>2026-04-11T10:33:22.998Z</time></trkpt><trkpt lat="45.63067524340357" lon="8.605278297393463"><ele>284.0</ele><time>2026-04-11T10:33:23.998Z</time></trkpt><trkpt lat="45.63073888532434" lon="8.605376658215773"><ele>284.0</ele><time>2026-04-11T10:33:24.998Z</time></trkpt><trkpt lat="45.630784676248695" lon="8.60548086261622"><ele>284.0</ele><time>2026-04-11T10:33:25.998Z</time></trkpt><trkpt lat="45.63077215382908" lon="8.605607227813435"><ele>284.0</ele><time>2026-04-11T10:33:26.998Z</time></trkpt><trkpt lat="45.63081470932449" lon="8.605713119378102"><ele>284.8</ele><time>2026-04-11T10:33:27.998Z</time></trkpt><trkpt lat="45.63089522555053" lon="8.605805594306972"><ele>285.59999999999997</ele><time>2026-04-11T10:33:28.998Z</time></trkpt><trkpt lat="45.63096303934949" lon="8.605896679479187"><ele>286.4</ele><time>2026-04-11T10:33:29.998Z</time></trkpt><trkpt lat="45.63105353216344" lon="8.606023384788502"><ele>287.2</ele><time>2026-04-11T10:33:30.998Z</time></trkpt><trkpt lat="45.63113824555869" lon="8.606152265744571"><ele>288.0</ele><time>2026-04-11T10:33:31.998Z</time></trkpt><trkpt lat="45.63118748051431" lon="8.606229024183378"><ele>288.5</ele><time>2026-04-11T10:33:32.998Z</time></trkpt><trkpt lat="45.63124390329984" lon="8.606284648969842"><ele>289.0</ele><time>2026-04-11T10:33:33.998Z</time></trkpt><trkpt lat="45.63118086460271" lon="8.606298601626497"><ele>289.5</ele><time>2026-04-11T10:33:39.998Z</time></trkpt><trkpt lat="45.63111271241785" lon="8.606355210727749"><ele>290.0</ele><time>2026-04-11T10:33:43.998Z</time></trkpt><trkpt lat="45.6310996863245" lon="8.606452963230693"><ele>290.5</ele><time>2026-04-11T10:33:45.998Z</time></trkpt><trkpt lat="45.631080104166514" lon="8.606592235866238"><ele>291.0</ele><time>2026-04-11T10:33:47.998Z</time></trkpt><trkpt lat="45.63101628533304" lon="8.606710878072803"><ele>291.0</ele><time>2026-04-11T10:33:49.998Z</time></trkpt><trkpt lat="45.63096935449168" lon="8.60678297542684"><ele>291.0</ele><time>2026-04-11T10:33:50.998Z</time></trkpt><trkpt lat="45.63092731859014" lon="8.606875803475353"><ele>291.0</ele><time>2026-04-11T10:33:52.998Z</time></trkpt><trkpt lat="45.63097686836357" lon="8.606976212942172"><ele>291.0</ele><time>2026-04-11T10:34:00.999Z</time></trkpt><trkpt lat="45.631013651887145" lon="8.607075730979254"><ele>291.0</ele><time>2026-04-11T10:34:02.999Z</time></trkpt><trkpt lat="45.63097618985121" lon="8.607148412579122"><ele>291.0</ele><time>2026-04-11T10:34:04.999Z</time></trkpt><trkpt lat="45.6308864759721" lon="8.607256676739368"><ele>291.3333333333333</ele><time>2026-04-11T10:34:06.999Z</time></trkpt><trkpt lat="45.630811058646785" lon="8.607352606569165"><ele>291.6666666666667</ele><time>2026-04-11T10:34:09Z</time></trkpt><trkpt lat="45.6307836221602" lon="8.607434384281119"><ele>292.0</ele><time>2026-04-11T10:34:10Z</time></trkpt><trkpt lat="45.63070732872913" lon="8.607495839583988"><ele>292.33333333333337</ele><time>2026-04-11T10:34:11.999Z</time></trkpt><trkpt lat="45.63064537051253" lon="8.607441926067459"><ele>292.6666666666667</ele><time>2026-04-11T10:34:13.999Z</time></trkpt><trkpt lat="45.630596167166075" lon="8.607338791976659"><ele>293.0</ele><time>2026-04-11T10:34:16.999Z</time></trkpt><trkpt lat="45.630549672679265" lon="8.607259328073374"><ele>293.0</ele><time>2026-04-11T10:34:18.999Z</time></trkpt><trkpt lat="45.63049992399629" lon="8.607190578294984"><ele>293.0</ele><time>2026-04-11T10:34:21.999Z</time></trkpt><trkpt lat="45.63042686684884" lon="8.60710065310996"><ele>293.0</ele><time>2026-04-11T10:34:23.999Z</time></trkpt><trkpt lat="45.63037443129513" lon="8.60703427965056"><ele>293.0</ele><time>2026-04-11T10:34:24.999Z</time></trkpt><trkpt lat="45.630316509839275" lon="8.606954477121304"><ele>293.0</ele><time>2026-04-11T10:34:25.999Z</time></trkpt><trkpt lat="45.63025233483964" lon="8.606866693110991"><ele>293.0</ele><time>2026-04-11T10:34:26.999Z</time></trkpt><trkpt lat="45.63018385314518" lon="8.606775992447412"><ele>293.33333333333337</ele><time>2026-04-11T10:34:27.999Z</time></trkpt><trkpt lat="45.63011372625778" lon="8.606691820072257"><ele>293.6666666666667</ele><time>2026-04-11T10:34:28.999Z</time></trkpt><trkpt lat="45.630047100425855" lon="8.606601992860623"><ele>294.0</ele><time>2026-04-11T10:34:29.999Z</time></trkpt><trkpt lat="45.62997945476241" lon="8.606505438473846"><ele>294.3333333333333</ele><time>2026-04-11T10:34:30.999Z</time></trkpt><trkpt lat="45.62991459046708" lon="8.606427847371036"><ele>294.66666666666663</ele><time>2026-04-11T10:34:31.999Z</time></trkpt><trkpt lat="45.62985573028324" lon="8.606352724784239"><ele>295.0</ele><time>2026-04-11T10:34:32.999Z</time></trkpt><trkpt lat="45.62980984248177" lon="8.606290802477252"><ele>295.0</ele><time>2026-04-11T10:34:33.999Z</time></trkpt><trkpt lat="45.629760031259885" lon="8.60622669747849"><ele>295.0</ele><time>2026-04-11T10:34:34.999Z</time></trkpt><trkpt lat="45.62970312063212" lon="8.606153930248375"><ele>295.0</ele><time>2026-04-11T10:34:35.999Z</time></trkpt><trkpt lat="45.62963974280857" lon="8.60608295281866"><ele>295.0</ele><time>2026-04-11T10:34:36.999Z</time></trkpt><trkpt lat="45.62958110275904" lon="8.6059979919413"><ele>295.0</ele><time>2026-04-11T10:34:37.999Z</time></trkpt><trkpt lat="45.62952827969694" lon="8.605928061003443"><ele>295.0</ele><time>2026-04-11T10:34:38.999Z</time></trkpt><trkpt lat="45.629466131544994" lon="8.605856436707967"><ele>294.16666666666663</ele><time>2026-04-11T10:34:39.999Z</time></trkpt><trkpt lat="45.62938621525584" lon="8.605800273278282"><ele>293.3333333333333</ele><time>2026-04-11T10:34:40.999Z</time></trkpt><trkpt lat="45.62929735869464" lon="8.605748742152429"><ele>292.5</ele><time>2026-04-11T10:34:41.999Z</time></trkpt><trkpt lat="45.629222425354364" lon="8.605701132499245"><ele>291.6666666666667</ele><time>2026-04-11T10:34:42.999Z</time></trkpt><trkpt lat="45.629163404000124" lon="8.605663090864468"><ele>290.83333333333337</ele><time>2026-04-11T10:34:43.999Z</time></trkpt><trkpt lat="45.62908242512495" lon="8.605589395888927"><ele>290.0</ele><time>2026-04-11T10:34:45.999Z</time></trkpt><trkpt lat="45.62908495275862" lon="8.605433883472479"><ele>290.0</ele><time>2026-04-11T10:34:47.999Z</time></trkpt><trkpt lat="45.62905697183461" lon="8.605350442250412"><ele>290.0</ele><time>2026-04-11T10:34:48.999Z</time></trkpt><trkpt lat="45.62902796243926" lon="8.605234463175044"><ele>290.0</ele><time>2026-04-11T10:34:50.999Z</time></trkpt><trkpt lat="45.62900307128354" lon="8.605137152949768"><ele>290.0</ele><time>2026-04-11T10:34:52.999Z</time></trkpt><trkpt lat="45.628976319475846" lon="8.605040496212922"><ele>290.0</ele><time>2026-04-11T10:34:53.999Z</time></trkpt><trkpt lat="45.628969213923575" lon="8.604908136837167"><ele>290.0</ele><time>2026-04-11T10:34:55.999Z</time></trkpt><trkpt lat="45.62903857584352" lon="8.604893934958456"><ele>289.1666666666667</ele><time>2026-04-11T10:34:56.999Z</time></trkpt><trkpt lat="45.62911788498108" lon="8.604895335519442"><ele>288.33333333333337</ele><time>2026-04-11T10:34:57.999Z</time></trkpt><trkpt lat="45.62918237604238" lon="8.604874071546925"><ele>287.5</ele><time>2026-04-11T10:34:59.999Z</time></trkpt><trkpt lat="45.62923372833518" lon="8.604771300025048"><ele>286.6666666666667</ele><time>2026-04-11T10:35:01.999Z</time></trkpt><trkpt lat="45.62926080421949" lon="8.604683602325265"><ele>285.8333333333333</ele><time>2026-04-11T10:35:02.999Z</time></trkpt><trkpt lat="45.62923011243337" lon="8.60453799575998"><ele>285.0</ele><time>2026-04-11T10:35:04.999Z</time></trkpt><trkpt lat="45.62917564083212" lon="8.604482739370019"><ele>283.1666666666667</ele><time>2026-04-11T10:35:05.999Z</time></trkpt><trkpt lat="45.6291110215327" lon="8.604451092152887"><ele>281.3333333333333</ele><time>2026-04-11T10:35:06.999Z</time></trkpt><trkpt lat="45.629021305241224" lon="8.604366743134184"><ele>279.5</ele><time>2026-04-11T10:35:08.999Z</time></trkpt><trkpt lat="45.62897207637701" lon="8.604284680889664"><ele>277.66666666666663</ele><time>2026-04-11T10:35:09.999Z</time></trkpt><trkpt lat="45.628909611122104" lon="8.604221132139333"><ele>275.8333333333333</ele><time>2026-04-11T10:35:10.999Z</time></trkpt><trkpt lat="45.628799259470966" lon="8.604177152936533"><ele>274.0</ele><time>2026-04-11T10:35:11.999Z</time></trkpt><trkpt lat="45.628674372141646" lon="8.604108658493194"><ele>275.8</ele><time>2026-04-11T10:35:12.999Z</time></trkpt><trkpt lat="45.628572064350394" lon="8.604060186271212"><ele>277.59999999999997</ele><time>2026-04-11T10:35:13.999Z</time></trkpt><trkpt lat="45.62850378846236" lon="8.604045041658074"><ele>279.4</ele><time>2026-04-11T10:35:14.999Z</time></trkpt><trkpt lat="45.62840574740118" lon="8.6039990108645"><ele>281.2</ele><time>2026-04-11T10:35:16.999Z</time></trkpt><trkpt lat="45.62834752306489" lon="8.603951318941027"><ele>283.0</ele><time>2026-04-11T10:35:17.999Z</time></trkpt><trkpt lat="45.62821506378545" lon="8.603945411680566"><ele>283.0</ele><time>2026-04-11T10:35:19.999Z</time></trkpt><trkpt lat="45.628150488999204" lon="8.603940956227984"><ele>283.0</ele><time>2026-04-11T10:35:20.998Z</time></trkpt><trkpt lat="45.628089373222934" lon="8.6039142731304"><ele>283.0</ele><time>2026-04-11T10:35:21.998Z</time></trkpt><trkpt lat="45.627992782455564" lon="8.603921472975953"><ele>283.0</ele><time>2026-04-11T10:35:23.998Z</time></trkpt><trkpt lat="45.628041406011654" lon="8.604038920227575"><ele>283.0</ele><time>2026-04-11T10:35:25.998Z</time></trkpt><trkpt lat="45.628094903366915" lon="8.604105159314326"><ele>283.0</ele><time>2026-04-11T10:35:26.998Z</time></trkpt><trkpt lat="45.62815717287623" lon="8.604199863547098"><ele>283.0</ele><time>2026-04-11T10:35:27.998Z</time></trkpt><trkpt lat="45.62817962157089" lon="8.604287397442572"><ele>283.0</ele><time>2026-04-11T10:35:29.998Z</time></trkpt><trkpt lat="45.62805985618866" lon="8.604380812636933"><ele>283.0</ele><time>2026-04-11T10:35:31.998Z</time></trkpt><trkpt lat="45.627989081185405" lon="8.604418906235132"><ele>283.0</ele><time>2026-04-11T10:35:32.998Z</time></trkpt><trkpt lat="45.62789185058373" lon="8.604407329352606"><ele>283.0</ele><time>2026-04-11T10:35:34.998Z</time></trkpt><trkpt lat="45.62783104276567" lon="8.604591050586109"><ele>283.4</ele><time>2026-04-11T10:35:36.998Z</time></trkpt><trkpt lat="45.62778488350657" lon="8.604712472149563"><ele>283.8</ele><time>2026-04-11T10:35:37.998Z</time></trkpt><trkpt lat="45.627741128438664" lon="8.604792073873703"><ele>284.2</ele><time>2026-04-11T10:35:38.998Z</time></trkpt><trkpt lat="45.62767971007738" lon="8.60491930172045"><ele>284.6</ele><time>2026-04-11T10:35:40.998Z</time></trkpt><trkpt lat="45.627617223958225" lon="8.604882781746772"><ele>285.0</ele><time>2026-04-11T10:35:42.998Z</time></trkpt><trkpt lat="45.62750264410871" lon="8.604794565478855"><ele>285.0</ele><time>2026-04-11T10:35:44.998Z</time></trkpt><trkpt lat="45.62742395797042" lon="8.604762503738796"><ele>285.0</ele><time>2026-04-11T10:35:45.998Z</time></trkpt><trkpt lat="45.62733048419685" lon="8.604723992010696"><ele>285.0</ele><time>2026-04-11T10:35:46.998Z</time></trkpt><trkpt lat="45.62724141757926" lon="8.60467382952719"><ele>285.0</ele><time>2026-04-11T10:35:47.998Z</time></trkpt><trkpt lat="45.627168232528724" lon="8.604627766212655"><ele>285.0</ele><time>2026-04-11T10:35:48.998Z</time></trkpt><trkpt lat="45.62710604553091" lon="8.604592554509997"><ele>285.0</ele><time>2026-04-11T10:35:49.998Z</time></trkpt><trkpt lat="45.62700514242849" lon="8.604689895604622"><ele>284.0</ele><time>2026-04-11T10:35:51.998Z</time></trkpt><trkpt lat="45.62694989972892" lon="8.604810682036277"><ele>283.0</ele><time>2026-04-11T10:35:52.998Z</time></trkpt><trkpt lat="45.62690199878629" lon="8.604915386013051"><ele>282.0</ele><time>2026-04-11T10:35:53.998Z</time></trkpt><trkpt lat="45.62684888969177" lon="8.605005103511235"><ele>281.0</ele><time>2026-04-11T10:35:54.998Z</time></trkpt><trkpt lat="45.62679301994891" lon="8.605071671226016"><ele>280.0</ele><time>2026-04-11T10:35:55.998Z</time></trkpt><trkpt lat="45.62671862869599" lon="8.605120764007403"><ele>279.0</ele><time>2026-04-11T10:35:56.998Z</time></trkpt><trkpt lat="45.626625153126014" lon="8.605129969598064"><ele>279.0</ele><time>2026-04-11T10:35:57.998Z</time></trkpt><trkpt lat="45.6265278382141" lon="8.60510258300134"><ele>279.0</ele><time>2026-04-11T10:35:58.998Z</time></trkpt><trkpt lat="45.626427227618535" lon="8.605089490829942"><ele>279.0</ele><time>2026-04-11T10:35:59.998Z</time></trkpt><trkpt lat="45.62632212211312" lon="8.605079459023967"><ele>279.0</ele><time>2026-04-11T10:36:00.998Z</time></trkpt><trkpt lat="45.62622923566246" lon="8.60506466928193"><ele>279.0</ele><time>2026-04-11T10:36:02Z</time></trkpt><trkpt lat="45.62614906827382" lon="8.60501806031269"><ele>279.0</ele><time>2026-04-11T10:36:03Z</time></trkpt><trkpt lat="45.62606291921373" lon="8.604946501506678"><ele>279.0</ele><time>2026-04-11T10:36:04Z</time></trkpt><trkpt lat="45.62596822814326" lon="8.60486248559971"><ele>279.0</ele><time>2026-04-11T10:36:05Z</time></trkpt><trkpt lat="45.62587623169287" lon="8.604793033931802"><ele>279.0</ele><time>2026-04-11T10:36:06Z</time></trkpt><trkpt lat="45.62578196705024" lon="8.604733044630855"><ele>279.0</ele><time>2026-04-11T10:36:07Z</time></trkpt><trkpt lat="45.62569499596311" lon="8.604711192646004"><ele>279.0</ele><time>2026-04-11T10:36:08Z</time></trkpt><trkpt lat="45.62559116066445" lon="8.604717742519385"><ele>279.0</ele><time>2026-04-11T10:36:09Z</time></trkpt><trkpt lat="45.62549168319977" lon="8.604680195057012"><ele>279.0</ele><time>2026-04-11T10:36:10Z</time></trkpt><trkpt lat="45.62539256556572" lon="8.604655193494281"><ele>279.0</ele><time>2026-04-11T10:36:11Z</time></trkpt><trkpt lat="45.62529835015005" lon="8.604653485931854"><ele>279.0</ele><time>2026-04-11T10:36:12Z</time></trkpt><trkpt lat="45.62520111916784" lon="8.604632262176626"><ele>278.8</ele><time>2026-04-11T10:36:13Z</time></trkpt><trkpt lat="45.62511218168847" lon="8.604616032486652"><ele>278.59999999999997</ele><time>2026-04-11T10:36:14Z</time></trkpt><trkpt lat="45.62501540989968" lon="8.60461873456443"><ele>278.4</ele><time>2026-04-11T10:36:15Z</time></trkpt><trkpt lat="45.624912210854944" lon="8.604641422027887"><ele>278.2</ele><time>2026-04-11T10:36:16Z</time></trkpt><trkpt lat="45.62480902310204" lon="8.604665965424523"><ele>278.0</ele><time>2026-04-11T10:36:17Z</time></trkpt><trkpt lat="45.62471573008661" lon="8.60468987405504"><ele>278.0</ele><time>2026-04-11T10:36:18Z</time></trkpt><trkpt lat="45.62463155148285" lon="8.604721577330407"><ele>278.0</ele><time>2026-04-11T10:36:19Z</time></trkpt><trkpt lat="45.62456103138964" lon="8.604776132151532"><ele>278.0</ele><time>2026-04-11T10:36:20Z</time></trkpt><trkpt lat="45.62450249572266" lon="8.604843808297266"><ele>278.0</ele><time>2026-04-11T10:36:21Z</time></trkpt><trkpt lat="45.62443603763271" lon="8.60490852094511"><ele>278.0</ele><time>2026-04-11T10:36:22Z</time></trkpt><trkpt lat="45.62436206789808" lon="8.60491338837448"><ele>278.0</ele><time>2026-04-11T10:36:23Z</time></trkpt><trkpt lat="45.62428320666096" lon="8.604926241477846"><ele>277.33333333333337</ele><time>2026-04-11T10:36:24Z</time></trkpt><trkpt lat="45.624200412560015" lon="8.60494709139682"><ele>276.6666666666667</ele><time>2026-04-11T10:36:24.999Z</time></trkpt><trkpt lat="45.624118005716944" lon="8.604984991543557"><ele>276.0</ele><time>2026-04-11T10:36:25.999Z</time></trkpt><trkpt lat="45.624048496062336" lon="8.60501517896583"><ele>275.3333333333333</ele><time>2026-04-11T10:36:26.999Z</time></trkpt><trkpt lat="45.62397558390276" lon="8.605039844995655"><ele>274.66666666666663</ele><time>2026-04-11T10:36:27.999Z</time></trkpt><trkpt lat="45.6239055688593" lon="8.60503654447868"><ele>274.0</ele><time>2026-04-11T10:36:28.999Z</time></trkpt><trkpt lat="45.62384295962799" lon="8.605061044513604"><ele>274.0</ele><time>2026-04-11T10:36:29.999Z</time></trkpt><trkpt lat="45.623773724067924" lon="8.605127594031261"><ele>274.0</ele><time>2026-04-11T10:36:31.999Z</time></trkpt><trkpt lat="45.6237659333128" lon="8.605367578268975"><ele>274.0</ele><time>2026-04-11T10:36:33.999Z</time></trkpt><trkpt lat="45.623758415065694" lon="8.605525322604125"><ele>274.0</ele><time>2026-04-11T10:36:34.999Z</time></trkpt><trkpt lat="45.623752298974246" lon="8.605637657729622"><ele>274.0</ele><time>2026-04-11T10:36:35.999Z</time></trkpt><trkpt lat="45.623742635187796" lon="8.60574411000987"><ele>273.25</ele><time>2026-04-11T10:36:36.999Z</time></trkpt><trkpt lat="45.623699042578046" lon="8.605873093985247"><ele>272.5</ele><time>2026-04-11T10:36:38.999Z</time></trkpt><trkpt lat="45.62355995208567" lon="8.605865417695448"><ele>271.75</ele><time>2026-04-11T10:36:40.999Z</time></trkpt><trkpt lat="45.62341894084865" lon="8.605866040789104"><ele>271.0</ele><time>2026-04-11T10:36:41.999Z</time></trkpt><trkpt lat="45.6232976166668" lon="8.605850559293616"><ele>270.5</ele><time>2026-04-11T10:36:42.999Z</time></trkpt><trkpt lat="45.62320492224659" lon="8.605839972497947"><ele>270.0</ele><time>2026-04-11T10:36:43.999Z</time></trkpt><trkpt lat="45.62314733619264" lon="8.605801087184025"><ele>269.5</ele><time>2026-04-11T10:36:44.999Z</time></trkpt><trkpt lat="45.623068471663004" lon="8.60574851605313"><ele>269.0</ele><time>2026-04-11T10:36:46.999Z</time></trkpt><trkpt lat="45.62298321338947" lon="8.605679744662446"><ele>268.5</ele><time>2026-04-11T10:37:51.998Z</time></trkpt><trkpt lat="45.622913562650396" lon="8.60569848958314"><ele>268.0</ele><time>2026-04-11T10:37:53.998Z</time></trkpt><trkpt lat="45.62297174126487" lon="8.60576170663418"><ele>268.0</ele><time>2026-04-11T10:37:55.998Z</time></trkpt><trkpt lat="45.62300728986575" lon="8.605887130660703"><ele>268.0</ele><time>2026-04-11T10:37:57.998Z</time></trkpt><trkpt lat="45.623038839887776" lon="8.60596524256645"><ele>268.0</ele><time>2026-04-11T10:37:58.998Z</time></trkpt><trkpt lat="45.62308734995572" lon="8.606043225651916"><ele>268.0</ele><time>2026-04-11T10:37:59.998Z</time></trkpt><trkpt lat="45.623183438220934" lon="8.606111356765284"><ele>268.0</ele><time>2026-04-11T10:38:00.998Z</time></trkpt><trkpt lat="45.62312940398443" lon="8.606161944255721"><ele>268.0</ele><time>2026-04-11T10:38:01.998Z</time></trkpt><trkpt lat="45.6235532008737" lon="8.605904375710507"><ele>268.0</ele><time>2026-04-11T10:38:02.998Z</time></trkpt><trkpt lat="45.62362301335277" lon="8.605899145353105"><ele>268.0</ele><time>2026-04-11T10:38:03.998Z</time></trkpt><trkpt lat="45.62368606360077" lon="8.605892678409017"><ele>268.0</ele><time>2026-04-11T10:38:04.998Z</time></trkpt><trkpt lat="45.62374058850685" lon="8.605772561529964"><ele>268.0</ele><time>2026-04-11T10:38:06.998Z</time></trkpt><trkpt lat="45.62374536354097" lon="8.605651174892603"><ele>268.0</ele><time>2026-04-11T10:38:08Z</time></trkpt><trkpt lat="45.62375736160845" lon="8.60551592891925"><ele>268.0</ele><time>2026-04-11T10:38:09Z</time></trkpt><trkpt lat="45.623771454478494" lon="8.605351274434547"><ele>268.75</ele><time>2026-04-11T10:38:10Z</time></trkpt><trkpt lat="45.62381280636348" lon="8.605218205753957"><ele>269.5</ele><time>2026-04-11T10:38:11Z</time></trkpt><trkpt lat="45.62383315089117" lon="8.60512025589622"><ele>270.25</ele><time>2026-04-11T10:38:12Z</time></trkpt><trkpt lat="45.62389027592962" lon="8.605077271590796"><ele>271.0</ele><time>2026-04-11T10:38:15Z</time></trkpt><trkpt lat="45.62390210475001" lon="8.605396249062014"><ele>271.0</ele><time>2026-04-11T10:38:58.999Z</time></trkpt><trkpt lat="45.62388365804249" lon="8.605505077748052"><ele>271.0</ele><time>2026-04-11T10:39:00.999Z</time></trkpt><trkpt lat="45.62379845285008" lon="8.60551955239985"><ele>271.0</ele><time>2026-04-11T10:39:03.999Z</time></trkpt><trkpt lat="45.62377550856138" lon="8.6056227864937"><ele>271.0</ele><time>2026-04-11T10:39:06.999Z</time></trkpt><trkpt lat="45.6237657882836" lon="8.605744148108187"><ele>271.0</ele><time>2026-04-11T10:39:08.999Z</time></trkpt><trkpt lat="45.62374359212148" lon="8.605834073947415"><ele>271.0</ele><time>2026-04-11T10:39:11.999Z</time></trkpt><trkpt lat="45.62365112611494" lon="8.605882186642667"><ele>270.40000000000003</ele><time>2026-04-11T10:39:15.999Z</time></trkpt><trkpt lat="45.62355364734419" lon="8.605887020327264"><ele>269.8</ele><time>2026-04-11T10:39:16.999Z</time></trkpt><trkpt lat="45.62345044572615" lon="8.605874605467488"><ele>269.20000000000005</ele><time>2026-04-11T10:39:17.999Z</time></trkpt><trkpt lat="45.62335983585877" lon="8.605861076336417"><ele>268.6</ele><time>2026-04-11T10:39:18.999Z</time></trkpt><trkpt lat="45.62327387713306" lon="8.605853790036637"><ele>268.0</ele><time>2026-04-11T10:39:19.999Z</time></trkpt><trkpt lat="45.62319861418465" lon="8.605839218624682"><ele>268.0</ele><time>2026-04-11T10:39:20.999Z</time></trkpt><trkpt lat="45.623123915147474" lon="8.605815055472462"><ele>268.0</ele><time>2026-04-11T10:39:21.999Z</time></trkpt><trkpt lat="45.62305258154648" lon="8.605768781622226"><ele>268.0</ele><time>2026-04-11T10:39:22.999Z</time></trkpt><trkpt lat="45.622974131805464" lon="8.605706203995092"><ele>268.0</ele><time>2026-04-11T10:39:23.999Z</time></trkpt><trkpt lat="45.62288409980135" lon="8.605659926378399"><ele>268.0</ele><time>2026-04-11T10:39:24.999Z</time></trkpt><trkpt lat="45.62277705137525" lon="8.605613112765658"><ele>267.5</ele><time>2026-04-11T10:39:25.999Z</time></trkpt><trkpt lat="45.62267622121851" lon="8.605565778095057"><ele>267.0</ele><time>2026-04-11T10:39:26.999Z</time></trkpt><trkpt lat="45.62259832819757" lon="8.605526074877112"><ele>266.5</ele><time>2026-04-11T10:39:27.999Z</time></trkpt><trkpt lat="45.622529445107645" lon="8.60551055654092"><ele>266.0</ele><time>2026-04-11T10:39:28.999Z</time></trkpt><trkpt lat="45.622452336993334" lon="8.605542396455444"><ele>265.5</ele><time>2026-04-11T10:39:29.999Z</time></trkpt><trkpt lat="45.62236043136997" lon="8.605560901108722"><ele>265.0</ele><time>2026-04-11T10:39:30.999Z</time></trkpt><trkpt lat="45.62228162178501" lon="8.605544629480269"><ele>265.0</ele><time>2026-04-11T10:39:31.999Z</time></trkpt><trkpt lat="45.622178417528126" lon="8.605446662157917"><ele>265.0</ele><time>2026-04-11T10:39:33.999Z</time></trkpt><trkpt lat="45.622110108769355" lon="8.605374602496244"><ele>265.0</ele><time>2026-04-11T10:39:34.999Z</time></trkpt><trkpt lat="45.62201677942475" lon="8.605284245380117"><ele>265.0</ele><time>2026-04-11T10:39:36.999Z</time></trkpt><trkpt lat="45.62187580307869" lon="8.60529035391488"><ele>265.16666666666663</ele><time>2026-04-11T10:39:38.999Z</time></trkpt><trkpt lat="45.62178489538007" lon="8.60529709501776"><ele>265.3333333333333</ele><time>2026-04-11T10:39:39.999Z</time></trkpt><trkpt lat="45.62170082920498" lon="8.605321532723497"><ele>265.5</ele><time>2026-04-11T10:39:40.998Z</time></trkpt><trkpt lat="45.62162166137725" lon="8.605319882151361"><ele>265.6666666666667</ele><time>2026-04-11T10:39:41.998Z</time></trkpt><trkpt lat="45.621549793743135" lon="8.605297639140902"><ele>265.83333333333337</ele><time>2026-04-11T10:39:42.998Z</time></trkpt><trkpt lat="45.621484223267956" lon="8.605318260218585"><ele>266.0</ele><time>2026-04-11T10:39:43.998Z</time></trkpt><trkpt lat="45.621370568290416" lon="8.605294652472518"><ele>266.0</ele><time>2026-04-11T10:39:45.998Z</time></trkpt><trkpt lat="45.62128002731404" lon="8.605220769470415"><ele>266.0</ele><time>2026-04-11T10:39:47.998Z</time></trkpt><trkpt lat="45.62117994108569" lon="8.605138584328007"><ele>266.0</ele><time>2026-04-11T10:39:49.998Z</time></trkpt><trkpt lat="45.621072839350454" lon="8.60508320480402"><ele>266.0</ele><time>2026-04-11T10:39:51.998Z</time></trkpt><trkpt lat="45.62102432602103" lon="8.604958320417486"><ele>266.0</ele><time>2026-04-11T10:39:53.998Z</time></trkpt><trkpt lat="45.62099780266624" lon="8.604805890880789"><ele>258.0</ele><time>2026-04-11T10:39:55.998Z</time></trkpt><trkpt lat="45.62096959489961" lon="8.604664630584923"><ele>258.0</ele><time>2026-04-11T10:39:57.998Z</time></trkpt><trkpt lat="45.620945191258386" lon="8.604543874792345"><ele>258.0</ele><time>2026-04-11T10:39:59.998Z</time></trkpt><trkpt lat="45.62093023349222" lon="8.604450223013373"><ele>257.0</ele><time>2026-04-11T10:40:02.998Z</time></trkpt></trkseg></trk></gpx>